<?xml version='1.0' encoding='UTF-8'?><gpx version="1.1" creator="JPX - https://github.com/jenetics/jpx" xmlns="http://www.topografix.com/GPX/1/1"><trk><trkseg><trkpt lat="43.7402627" lon="11.3198229"><ele>157.0</ele><time>2026-05-04T14:04:38.008Z</time></trkpt><trkpt lat="43.7403621" lon="11.319847"><ele>157.0</ele><time>2026-05-04T14:04:39.999Z</time></trkpt><trkpt lat="43.7404311" lon="11.3198421"><ele>157.0</ele><time>2026-05-04T14:04:41.001Z</time></trkpt><trkpt lat="43.7404993" lon="11.3198421"><ele>157.0</ele><time>2026-05-04T14:04:41.998Z</time></trkpt><trkpt lat="43.74057" lon="11.3198472"><ele>157.0</ele><time>2026-05-04T14:04:42.998Z</time></trkpt><trkpt lat="43.7406502" lon="11.3198597"><ele>157.0</ele><time>2026-05-04T14:04:43.996Z</time></trkpt><trkpt lat="43.7407433" lon="11.3198817"><ele>157.0</ele><time>2026-05-04T14:04:44.998Z</time></trkpt><trkpt lat="43.7408389" lon="11.3199004"><ele>157.0</ele><time>2026-05-04T14:04:45.998Z</time></trkpt><trkpt lat="43.7409415" lon="11.3199192"><ele>157.0</ele><time>2026-05-04T14:04:46.997Z</time></trkpt><trkpt lat="43.7410472" lon="11.319938"><ele>157.0</ele><time>2026-05-04T14:04:47.996Z</time></trkpt><trkpt lat="43.7411531" lon="11.3199528"><ele>157.0</ele><time>2026-05-04T14:04:49.001Z</time></trkpt><trkpt lat="43.7412546" lon="11.3199603"><ele>155.6</ele><time>2026-05-04T14:04:50.002Z</time></trkpt><trkpt lat="43.7413529" lon="11.3199732"><ele>154.2</ele><time>2026-05-04T14:04:50.999Z</time></trkpt><trkpt lat="43.7414536" lon="11.3199878"><ele>152.8</ele><time>2026-05-04T14:04:52Z</time></trkpt><trkpt lat="43.7415521" lon="11.320006"><ele>151.4</ele><time>2026-05-04T14:04:52.998Z</time></trkpt><trkpt lat="43.7416373" lon="11.3200227"><ele>150.0</ele><time>2026-05-04T14:04:53.998Z</time></trkpt><trkpt lat="43.7417194" lon="11.3200397"><ele>150.0</ele><time>2026-05-04T14:04:54.996Z</time></trkpt><trkpt lat="43.7418051" lon="11.3200506"><ele>150.0</ele><time>2026-05-04T14:04:55.996Z</time></trkpt><trkpt lat="43.74189" lon="11.3200502"><ele>150.0</ele><time>2026-05-04T14:04:57Z</time></trkpt><trkpt lat="43.7419616" lon="11.3200541"><ele>150.0</ele><time>2026-05-04T14:04:57.997Z</time></trkpt><trkpt lat="43.7420645" lon="11.3200686"><ele>150.0</ele><time>2026-05-04T14:04:59.998Z</time></trkpt><trkpt lat="43.7421377" lon="11.3200634"><ele>150.0</ele><time>2026-05-04T14:05:01.999Z</time></trkpt><trkpt lat="43.7421888" lon="11.3199981"><ele>148.0</ele><time>2026-05-04T14:05:03.999Z</time></trkpt><trkpt lat="43.7422436" lon="11.3198603"><ele>146.0</ele><time>2026-05-04T14:05:05.999Z</time></trkpt><trkpt lat="43.7422729" lon="11.3197698"><ele>144.0</ele><time>2026-05-04T14:05:06.999Z</time></trkpt><trkpt lat="43.7423048" lon="11.3196677"><ele>142.0</ele><time>2026-05-04T14:05:07.998Z</time></trkpt><trkpt lat="43.7423379" lon="11.3195511"><ele>140.0</ele><time>2026-05-04T14:05:08.994Z</time></trkpt><trkpt lat="43.7423741" lon="11.3194283"><ele>140.0</ele><time>2026-05-04T14:05:09.999Z</time></trkpt><trkpt lat="43.7424149" lon="11.3192967"><ele>140.0</ele><time>2026-05-04T14:05:10.997Z</time></trkpt><trkpt lat="43.7424568" lon="11.3191667"><ele>140.0</ele><time>2026-05-04T14:05:11.994Z</time></trkpt><trkpt lat="43.7425015" lon="11.3190319"><ele>140.0</ele><time>2026-05-04T14:05:12.998Z</time></trkpt><trkpt lat="43.7425484" lon="11.3188911"><ele>140.0</ele><time>2026-05-04T14:05:13.998Z</time></trkpt><trkpt lat="43.7425945" lon="11.3187499"><ele>140.0</ele><time>2026-05-04T14:05:14.999Z</time></trkpt><trkpt lat="43.7426402" lon="11.3186072"><ele>140.0</ele><time>2026-05-04T14:05:15.996Z</time></trkpt><trkpt lat="43.7426852" lon="11.3184697"><ele>140.0</ele><time>2026-05-04T14:05:16.997Z</time></trkpt><trkpt lat="43.7427305" lon="11.3183368"><ele>140.0</ele><time>2026-05-04T14:05:17.998Z</time></trkpt><trkpt lat="43.7427733" lon="11.3182064"><ele>140.0</ele><time>2026-05-04T14:05:18.998Z</time></trkpt><trkpt lat="43.7428133" lon="11.3180779"><ele>138.8</ele><time>2026-05-04T14:05:20.013Z</time></trkpt><trkpt lat="43.742853" lon="11.3179553"><ele>137.6</ele><time>2026-05-04T14:05:20.996Z</time></trkpt><trkpt lat="43.7428886" lon="11.3178269"><ele>136.4</ele><time>2026-05-04T14:05:21.997Z</time></trkpt><trkpt lat="43.7429233" lon="11.3177025"><ele>135.2</ele><time>2026-05-04T14:05:22.997Z</time></trkpt><trkpt lat="43.7429534" lon="11.3175801"><ele>134.0</ele><time>2026-05-04T14:05:23.997Z</time></trkpt><trkpt lat="43.7429855" lon="11.3174577"><ele>134.0</ele><time>2026-05-04T14:05:24.998Z</time></trkpt><trkpt lat="43.7430241" lon="11.3173369"><ele>134.0</ele><time>2026-05-04T14:05:25.997Z</time></trkpt><trkpt lat="43.7430665" lon="11.3172153"><ele>134.0</ele><time>2026-05-04T14:05:26.998Z</time></trkpt><trkpt lat="43.7431146" lon="11.3170953"><ele>134.0</ele><time>2026-05-04T14:05:27.999Z</time></trkpt><trkpt lat="43.7431674" lon="11.3169739"><ele>134.0</ele><time>2026-05-04T14:05:29.001Z</time></trkpt><trkpt lat="43.7432195" lon="11.3168556"><ele>135.6</ele><time>2026-05-04T14:05:30.001Z</time></trkpt><trkpt lat="43.7432647" lon="11.3167325"><ele>137.2</ele><time>2026-05-04T14:05:30.997Z</time></trkpt><trkpt lat="43.7433054" lon="11.3166003"><ele>138.79999999999998</ele><time>2026-05-04T14:05:32Z</time></trkpt><trkpt lat="43.7433474" lon="11.3164753"><ele>140.4</ele><time>2026-05-04T14:05:32.998Z</time></trkpt><trkpt lat="43.743386" lon="11.3163569"><ele>142.0</ele><time>2026-05-04T14:05:33.999Z</time></trkpt><trkpt lat="43.7434248" lon="11.3162435"><ele>142.0</ele><time>2026-05-04T14:05:34.998Z</time></trkpt><trkpt lat="43.743463" lon="11.3161365"><ele>142.0</ele><time>2026-05-04T14:05:35.997Z</time></trkpt><trkpt lat="43.7435034" lon="11.3160253"><ele>142.0</ele><time>2026-05-04T14:05:36.997Z</time></trkpt><trkpt lat="43.7435443" lon="11.3159081"><ele>142.0</ele><time>2026-05-04T14:05:38Z</time></trkpt><trkpt lat="43.7435855" lon="11.31579"><ele>142.0</ele><time>2026-05-04T14:05:39.003Z</time></trkpt><trkpt lat="43.7436286" lon="11.3156751"><ele>140.79999999999998</ele><time>2026-05-04T14:05:39.999Z</time></trkpt><trkpt lat="43.7436672" lon="11.3155595"><ele>139.6</ele><time>2026-05-04T14:05:40.999Z</time></trkpt><trkpt lat="43.7437046" lon="11.3154433"><ele>138.39999999999998</ele><time>2026-05-04T14:05:42.001Z</time></trkpt><trkpt lat="43.7437402" lon="11.3153416"><ele>137.2</ele><time>2026-05-04T14:05:42.997Z</time></trkpt><trkpt lat="43.74377" lon="11.315252"><ele>136.0</ele><time>2026-05-04T14:05:43.997Z</time></trkpt><trkpt lat="43.7438192" lon="11.3151002"><ele>135.99999999999997</ele><time>2026-05-04T14:05:45.997Z</time></trkpt><trkpt lat="43.7438553" lon="11.3150219"><ele>136.0</ele><time>2026-05-04T14:05:47.997Z</time></trkpt><trkpt lat="43.7439317" lon="11.3150263"><ele>136.0</ele><time>2026-05-04T14:05:49.998Z</time></trkpt><trkpt lat="43.7439933" lon="11.3150679"><ele>136.0</ele><time>2026-05-04T14:05:50.999Z</time></trkpt><trkpt lat="43.7440555" lon="11.3151049"><ele>136.0</ele><time>2026-05-04T14:05:51.996Z</time></trkpt><trkpt lat="43.7441165" lon="11.315144"><ele>135.99999999999997</ele><time>2026-05-04T14:05:52.997Z</time></trkpt><trkpt lat="43.744186" lon="11.3151816"><ele>136.0</ele><time>2026-05-04T14:05:53.999Z</time></trkpt><trkpt lat="43.7442646" lon="11.3152209"><ele>136.0</ele><time>2026-05-04T14:05:54.998Z</time></trkpt><trkpt lat="43.7443449" lon="11.3152622"><ele>136.0</ele><time>2026-05-04T14:05:55.996Z</time></trkpt><trkpt lat="43.7444303" lon="11.3153076"><ele>136.0</ele><time>2026-05-04T14:05:56.999Z</time></trkpt><trkpt lat="43.7445229" lon="11.315353"><ele>136.0</ele><time>2026-05-04T14:05:57.999Z</time></trkpt><trkpt lat="43.7446177" lon="11.3154"><ele>136.0</ele><time>2026-05-04T14:05:58.999Z</time></trkpt><trkpt lat="43.7447063" lon="11.315448"><ele>133.0</ele><time>2026-05-04T14:05:59.998Z</time></trkpt><trkpt lat="43.7447949" lon="11.3154929"><ele>130.0</ele><time>2026-05-04T14:06:00.996Z</time></trkpt><trkpt lat="43.7448814" lon="11.3155381"><ele>127.0</ele><time>2026-05-04T14:06:01.997Z</time></trkpt><trkpt lat="43.7449676" lon="11.3155797"><ele>124.0</ele><time>2026-05-04T14:06:02.998Z</time></trkpt><trkpt lat="43.7450512" lon="11.3156177"><ele>121.0</ele><time>2026-05-04T14:06:03.996Z</time></trkpt><trkpt lat="43.7451424" lon="11.3156526"><ele>119.00000000000001</ele><time>2026-05-04T14:06:04.998Z</time></trkpt><trkpt lat="43.7452313" lon="11.3156758"><ele>117.0</ele><time>2026-05-04T14:06:05.997Z</time></trkpt><trkpt lat="43.7453126" lon="11.3156912"><ele>115.0</ele><time>2026-05-04T14:06:06.996Z</time></trkpt><trkpt lat="43.7453936" lon="11.3156982"><ele>113.0</ele><time>2026-05-04T14:06:07.998Z</time></trkpt><trkpt lat="43.7454632" lon="11.3156703"><ele>111.00000000000001</ele><time>2026-05-04T14:06:08.997Z</time></trkpt><trkpt lat="43.7455237" lon="11.3156149"><ele>109.0</ele><time>2026-05-04T14:06:10.003Z</time></trkpt><trkpt lat="43.7455899" lon="11.3155298"><ele>109.0</ele><time>2026-05-04T14:06:10.997Z</time></trkpt><trkpt lat="43.74566" lon="11.3154504"><ele>109.0</ele><time>2026-05-04T14:06:11.997Z</time></trkpt><trkpt lat="43.7457367" lon="11.3153825"><ele>109.0</ele><time>2026-05-04T14:06:12.994Z</time></trkpt><trkpt lat="43.7458188" lon="11.3153282"><ele>109.0</ele><time>2026-05-04T14:06:13.997Z</time></trkpt><trkpt lat="43.7459007" lon="11.3152858"><ele>109.0</ele><time>2026-05-04T14:06:14.995Z</time></trkpt><trkpt lat="43.7459892" lon="11.3152349"><ele>108.80000000000001</ele><time>2026-05-04T14:06:15.996Z</time></trkpt><trkpt lat="43.7460806" lon="11.3151894"><ele>108.60000000000001</ele><time>2026-05-04T14:06:16.996Z</time></trkpt><trkpt lat="43.7461779" lon="11.3151518"><ele>108.4</ele><time>2026-05-04T14:06:17.996Z</time></trkpt><trkpt lat="43.7462772" lon="11.315121"><ele>108.2</ele><time>2026-05-04T14:06:18.996Z</time></trkpt><trkpt lat="43.7463758" lon="11.315098"><ele>108.0</ele><time>2026-05-04T14:06:19.996Z</time></trkpt><trkpt lat="43.7464715" lon="11.3150859"><ele>108.0</ele><time>2026-05-04T14:06:20.996Z</time></trkpt><trkpt lat="43.7465694" lon="11.3150782"><ele>108.00000000000001</ele><time>2026-05-04T14:06:21.997Z</time></trkpt><trkpt lat="43.7466725" lon="11.3150787"><ele>108.00000000000001</ele><time>2026-05-04T14:06:22.998Z</time></trkpt><trkpt lat="43.7467703" lon="11.3150882"><ele>108.0</ele><time>2026-05-04T14:06:23.998Z</time></trkpt><trkpt lat="43.746866" lon="11.3151131"><ele>108.0</ele><time>2026-05-04T14:06:24.996Z</time></trkpt><trkpt lat="43.7469663" lon="11.3151601"><ele>108.0</ele><time>2026-05-04T14:06:25.997Z</time></trkpt><trkpt lat="43.7470566" lon="11.3152252"><ele>108.00000000000001</ele><time>2026-05-04T14:06:27.001Z</time></trkpt><trkpt lat="43.7471354" lon="11.3153002"><ele>108.00000000000001</ele><time>2026-05-04T14:06:27.998Z</time></trkpt><trkpt lat="43.7472133" lon="11.3153829"><ele>108.0</ele><time>2026-05-04T14:06:28.997Z</time></trkpt><trkpt lat="43.7472829" lon="11.315468"><ele>108.0</ele><time>2026-05-04T14:06:29.996Z</time></trkpt><trkpt lat="43.747346" lon="11.3155484"><ele>109.0</ele><time>2026-05-04T14:06:30.997Z</time></trkpt><trkpt lat="43.7474087" lon="11.3156276"><ele>110.00000000000001</ele><time>2026-05-04T14:06:31.997Z</time></trkpt><trkpt lat="43.7474644" lon="11.3157013"><ele>111.00000000000001</ele><time>2026-05-04T14:06:32.998Z</time></trkpt><trkpt lat="43.7475389" lon="11.3158078"><ele>112.0</ele><time>2026-05-04T14:06:35.002Z</time></trkpt><trkpt lat="43.7475975" lon="11.3158739"><ele>113.0</ele><time>2026-05-04T14:06:36.997Z</time></trkpt><trkpt lat="43.7476767" lon="11.3159964"><ele>113.0</ele><time>2026-05-04T14:06:38.998Z</time></trkpt><trkpt lat="43.747735" lon="11.3161066"><ele>113.0</ele><time>2026-05-04T14:06:39.999Z</time></trkpt><trkpt lat="43.7477997" lon="11.3162403"><ele>113.0</ele><time>2026-05-04T14:06:41Z</time></trkpt><trkpt lat="43.7478678" lon="11.3163759"><ele>113.0</ele><time>2026-05-04T14:06:41.998Z</time></trkpt><trkpt lat="43.7479377" lon="11.3165149"><ele>112.75</ele><time>2026-05-04T14:06:43.003Z</time></trkpt><trkpt lat="43.7480113" lon="11.3166534"><ele>112.5</ele><time>2026-05-04T14:06:43.998Z</time></trkpt><trkpt lat="43.7480902" lon="11.3167899"><ele>112.25</ele><time>2026-05-04T14:06:44.997Z</time></trkpt><trkpt lat="43.7481796" lon="11.3169224"><ele>112.0</ele><time>2026-05-04T14:06:45.998Z</time></trkpt><trkpt lat="43.7482779" lon="11.3170469"><ele>112.0</ele><time>2026-05-04T14:06:46.997Z</time></trkpt><trkpt lat="43.7483873" lon="11.3171503"><ele>112.0</ele><time>2026-05-04T14:06:47.996Z</time></trkpt><trkpt lat="43.7484994" lon="11.3172487"><ele>112.0</ele><time>2026-05-04T14:06:48.996Z</time></trkpt><trkpt lat="43.7486169" lon="11.3173397"><ele>112.0</ele><time>2026-05-04T14:06:49.998Z</time></trkpt><trkpt lat="43.7487298" lon="11.3174348"><ele>113.5</ele><time>2026-05-04T14:06:51.001Z</time></trkpt><trkpt lat="43.7488415" lon="11.3175294"><ele>115.0</ele><time>2026-05-04T14:06:51.998Z</time></trkpt><trkpt lat="43.7489482" lon="11.3176246"><ele>116.5</ele><time>2026-05-04T14:06:53.001Z</time></trkpt><trkpt lat="43.7490515" lon="11.3177197"><ele>118.0</ele><time>2026-05-04T14:06:53.997Z</time></trkpt><trkpt lat="43.7491601" lon="11.3178069"><ele>118.0</ele><time>2026-05-04T14:06:54.996Z</time></trkpt><trkpt lat="43.749262" lon="11.3178779"><ele>118.00000000000001</ele><time>2026-05-04T14:06:55.995Z</time></trkpt><trkpt lat="43.7493641" lon="11.3179368"><ele>118.00000000000001</ele><time>2026-05-04T14:06:56.996Z</time></trkpt><trkpt lat="43.749464" lon="11.3179903"><ele>118.0</ele><time>2026-05-04T14:06:57.995Z</time></trkpt><trkpt lat="43.7495614" lon="11.3180306"><ele>118.0</ele><time>2026-05-04T14:06:58.999Z</time></trkpt><trkpt lat="43.7496499" lon="11.3180569"><ele>116.33333333333334</ele><time>2026-05-04T14:06:59.995Z</time></trkpt><trkpt lat="43.7497314" lon="11.3180769"><ele>114.66666666666667</ele><time>2026-05-04T14:07:00.999Z</time></trkpt><trkpt lat="43.7498013" lon="11.3180995"><ele>113.0</ele><time>2026-05-04T14:07:01.999Z</time></trkpt><trkpt lat="43.7498561" lon="11.3181531"><ele>111.33333333333334</ele><time>2026-05-04T14:07:02.997Z</time></trkpt><trkpt lat="43.7498849" lon="11.3182324"><ele>109.66666666666667</ele><time>2026-05-04T14:07:03.998Z</time></trkpt><trkpt lat="43.749888" lon="11.3183352"><ele>108.0</ele><time>2026-05-04T14:07:04.996Z</time></trkpt><trkpt lat="43.7498537" lon="11.3184598"><ele>108.0</ele><time>2026-05-04T14:07:06.001Z</time></trkpt><trkpt lat="43.7497858" lon="11.3185629"><ele>108.00000000000001</ele><time>2026-05-04T14:07:06.997Z</time></trkpt><trkpt lat="43.7496979" lon="11.3186576"><ele>108.00000000000001</ele><time>2026-05-04T14:07:07.996Z</time></trkpt><trkpt lat="43.7496275" lon="11.3187603"><ele>108.0</ele><time>2026-05-04T14:07:08.995Z</time></trkpt><trkpt lat="43.7495817" lon="11.318879"><ele>108.0</ele><time>2026-05-04T14:07:09.997Z</time></trkpt><trkpt lat="43.7495733" lon="11.3190009"><ele>107.4</ele><time>2026-05-04T14:07:10.996Z</time></trkpt><trkpt lat="43.7496316" lon="11.3191327"><ele>106.80000000000001</ele><time>2026-05-04T14:07:11.996Z</time></trkpt><trkpt lat="43.7497038" lon="11.3192361"><ele>106.2</ele><time>2026-05-04T14:07:13.001Z</time></trkpt><trkpt lat="43.7497778" lon="11.3193148"><ele>105.6</ele><time>2026-05-04T14:07:13.997Z</time></trkpt><trkpt lat="43.7498614" lon="11.3193543"><ele>105.0</ele><time>2026-05-04T14:07:14.996Z</time></trkpt><trkpt lat="43.7499574" lon="11.3193527"><ele>105.0</ele><time>2026-05-04T14:07:15.996Z</time></trkpt><trkpt lat="43.7500697" lon="11.319314"><ele>105.0</ele><time>2026-05-04T14:07:16.997Z</time></trkpt><trkpt lat="43.7501798" lon="11.3192398"><ele>105.0</ele><time>2026-05-04T14:07:17.996Z</time></trkpt><trkpt lat="43.7502547" lon="11.3191365"><ele>105.0</ele><time>2026-05-04T14:07:18.997Z</time></trkpt><trkpt lat="43.7503099" lon="11.3190296"><ele>105.0</ele><time>2026-05-04T14:07:19.997Z</time></trkpt><trkpt lat="43.7503527" lon="11.3189173"><ele>104.0</ele><time>2026-05-04T14:07:20.993Z</time></trkpt><trkpt lat="43.7504147" lon="11.3188493"><ele>103.0</ele><time>2026-05-04T14:07:21.996Z</time></trkpt><trkpt lat="43.7504771" lon="11.3188208"><ele>102.0</ele><time>2026-05-04T14:07:22.996Z</time></trkpt><trkpt lat="43.7505421" lon="11.3188315"><ele>101.0</ele><time>2026-05-04T14:07:23.995Z</time></trkpt><trkpt lat="43.750595" lon="11.3188795"><ele>100.0</ele><time>2026-05-04T14:07:24.995Z</time></trkpt><trkpt lat="43.7506409" lon="11.318942"><ele>99.0</ele><time>2026-05-04T14:07:25.999Z</time></trkpt><trkpt lat="43.7506404" lon="11.3190481"><ele>98.0</ele><time>2026-05-04T14:07:26.995Z</time></trkpt><trkpt lat="43.7506345" lon="11.3191682"><ele>97.60000000000001</ele><time>2026-05-04T14:07:27.996Z</time></trkpt><trkpt lat="43.7506354" lon="11.3193129"><ele>97.2</ele><time>2026-05-04T14:07:29.005Z</time></trkpt><trkpt lat="43.7506509" lon="11.3194615"><ele>96.8</ele><time>2026-05-04T14:07:29.999Z</time></trkpt><trkpt lat="43.7506747" lon="11.3195964"><ele>96.4</ele><time>2026-05-04T14:07:31.001Z</time></trkpt><trkpt lat="43.7507227" lon="11.3196842"><ele>96.0</ele><time>2026-05-04T14:07:31.997Z</time></trkpt><trkpt lat="43.7507963" lon="11.3196997"><ele>96.0</ele><time>2026-05-04T14:07:32.997Z</time></trkpt><trkpt lat="43.7508729" lon="11.3196531"><ele>96.0</ele><time>2026-05-04T14:07:33.996Z</time></trkpt><trkpt lat="43.7509443" lon="11.3195425"><ele>96.0</ele><time>2026-05-04T14:07:34.995Z</time></trkpt><trkpt lat="43.7509993" lon="11.3194436"><ele>96.0</ele><time>2026-05-04T14:07:35.996Z</time></trkpt><trkpt lat="43.7510482" lon="11.3193451"><ele>96.0</ele><time>2026-05-04T14:07:36.996Z</time></trkpt><trkpt lat="43.7510936" lon="11.3192561"><ele>96.0</ele><time>2026-05-04T14:07:37.996Z</time></trkpt><trkpt lat="43.7511471" lon="11.3191813"><ele>93.5</ele><time>2026-05-04T14:07:38.996Z</time></trkpt><trkpt lat="43.7512098" lon="11.319144"><ele>91.0</ele><time>2026-05-04T14:07:39.999Z</time></trkpt><trkpt lat="43.751283" lon="11.319139"><ele>88.5</ele><time>2026-05-04T14:07:40.994Z</time></trkpt><trkpt lat="43.751346" lon="11.3191893"><ele>86.0</ele><time>2026-05-04T14:07:41.996Z</time></trkpt><trkpt lat="43.7514002" lon="11.3192812"><ele>83.5</ele><time>2026-05-04T14:07:42.995Z</time></trkpt><trkpt lat="43.7514466" lon="11.3193764"><ele>81.0</ele><time>2026-05-04T14:07:43.996Z</time></trkpt><trkpt lat="43.7514882" lon="11.3194761"><ele>81.0</ele><time>2026-05-04T14:07:44.996Z</time></trkpt><trkpt lat="43.7515265" lon="11.3195671"><ele>81.0</ele><time>2026-05-04T14:07:45.998Z</time></trkpt><trkpt lat="43.7515683" lon="11.3196574"><ele>81.0</ele><time>2026-05-04T14:07:46.997Z</time></trkpt><trkpt lat="43.7516232" lon="11.3197315"><ele>81.0</ele><time>2026-05-04T14:07:47.997Z</time></trkpt><trkpt lat="43.7516898" lon="11.3197887"><ele>81.0</ele><time>2026-05-04T14:07:48.997Z</time></trkpt><trkpt lat="43.7517709" lon="11.3198213"><ele>81.0</ele><time>2026-05-04T14:07:49.996Z</time></trkpt><trkpt lat="43.7518481" lon="11.3198438"><ele>79.83333333333333</ele><time>2026-05-04T14:07:50.996Z</time></trkpt><trkpt lat="43.7519553" lon="11.3198553"><ele>78.66666666666667</ele><time>2026-05-04T14:07:52.996Z</time></trkpt><trkpt lat="43.752022" lon="11.3198521"><ele>77.5</ele><time>2026-05-04T14:08:02.996Z</time></trkpt><trkpt lat="43.7520976" lon="11.3198822"><ele>76.33333333333334</ele><time>2026-05-04T14:08:11.996Z</time></trkpt><trkpt lat="43.7521547" lon="11.3199373"><ele>75.16666666666667</ele><time>2026-05-04T14:08:14.995Z</time></trkpt><trkpt lat="43.7521705" lon="11.3200326"><ele>74.0</ele><time>2026-05-04T14:08:16.998Z</time></trkpt><trkpt lat="43.7522342" lon="11.3201691"><ele>74.0</ele><time>2026-05-04T14:08:18.997Z</time></trkpt><trkpt lat="43.752285" lon="11.3202445"><ele>74.0</ele><time>2026-05-04T14:08:19.994Z</time></trkpt><trkpt lat="43.7523444" lon="11.3203255"><ele>74.0</ele><time>2026-05-04T14:08:20.998Z</time></trkpt><trkpt lat="43.7524071" lon="11.320404"><ele>74.0</ele><time>2026-05-04T14:08:21.994Z</time></trkpt><trkpt lat="43.7524667" lon="11.3204869"><ele>74.0</ele><time>2026-05-04T14:08:22.994Z</time></trkpt><trkpt lat="43.7525286" lon="11.320584"><ele>74.0</ele><time>2026-05-04T14:08:23.994Z</time></trkpt><trkpt lat="43.7525837" lon="11.3206955"><ele>74.60000000000001</ele><time>2026-05-04T14:08:24.997Z</time></trkpt><trkpt lat="43.7526437" lon="11.3208174"><ele>75.2</ele><time>2026-05-04T14:08:25.997Z</time></trkpt><trkpt lat="43.7527022" lon="11.3209475"><ele>75.80000000000001</ele><time>2026-05-04T14:08:26.997Z</time></trkpt><trkpt lat="43.7527623" lon="11.321076"><ele>76.4</ele><time>2026-05-04T14:08:27.997Z</time></trkpt><trkpt lat="43.7528261" lon="11.3212058"><ele>77.0</ele><time>2026-05-04T14:08:28.995Z</time></trkpt><trkpt lat="43.7528888" lon="11.3213341"><ele>75.75</ele><time>2026-05-04T14:08:29.995Z</time></trkpt><trkpt lat="43.7529563" lon="11.321462"><ele>74.5</ele><time>2026-05-04T14:08:30.997Z</time></trkpt><trkpt lat="43.75303" lon="11.3215874"><ele>73.25</ele><time>2026-05-04T14:08:31.998Z</time></trkpt><trkpt lat="43.7531011" lon="11.3217082"><ele>72.0</ele><time>2026-05-04T14:08:32.996Z</time></trkpt><trkpt lat="43.7531694" lon="11.3218308"><ele>72.0</ele><time>2026-05-04T14:08:33.996Z</time></trkpt><trkpt lat="43.7532347" lon="11.3219551"><ele>72.0</ele><time>2026-05-04T14:08:34.998Z</time></trkpt><trkpt lat="43.7533014" lon="11.3220773"><ele>72.0</ele><time>2026-05-04T14:08:35.998Z</time></trkpt><trkpt lat="43.753372" lon="11.3222011"><ele>72.0</ele><time>2026-05-04T14:08:36.996Z</time></trkpt><trkpt lat="43.753449" lon="11.3223263"><ele>72.0</ele><time>2026-05-04T14:08:37.998Z</time></trkpt><trkpt lat="43.7535311" lon="11.3224457"><ele>72.0</ele><time>2026-05-04T14:08:38.996Z</time></trkpt><trkpt lat="43.7536181" lon="11.322557"><ele>72.0</ele><time>2026-05-04T14:08:39.997Z</time></trkpt><trkpt lat="43.7537038" lon="11.3226621"><ele>72.0</ele><time>2026-05-04T14:08:40.993Z</time></trkpt><trkpt lat="43.7537887" lon="11.3227687"><ele>72.0</ele><time>2026-05-04T14:08:41.996Z</time></trkpt><trkpt lat="43.7538734" lon="11.3228733"><ele>72.0</ele><time>2026-05-04T14:08:42.998Z</time></trkpt><trkpt lat="43.7539524" lon="11.3229718"><ele>72.0</ele><time>2026-05-04T14:08:43.994Z</time></trkpt><trkpt lat="43.7540301" lon="11.3230601"><ele>72.0</ele><time>2026-05-04T14:08:44.997Z</time></trkpt><trkpt lat="43.7541056" lon="11.3231409"><ele>72.0</ele><time>2026-05-04T14:08:45.995Z</time></trkpt><trkpt lat="43.7541819" lon="11.3232199"><ele>72.2</ele><time>2026-05-04T14:08:46.998Z</time></trkpt><trkpt lat="43.7542529" lon="11.3233016"><ele>72.4</ele><time>2026-05-04T14:08:47.996Z</time></trkpt><trkpt lat="43.7543195" lon="11.3233822"><ele>72.6</ele><time>2026-05-04T14:08:48.997Z</time></trkpt><trkpt lat="43.7543826" lon="11.323465"><ele>72.8</ele><time>2026-05-04T14:08:49.996Z</time></trkpt><trkpt lat="43.7544503" lon="11.3235536"><ele>73.0</ele><time>2026-05-04T14:08:50.996Z</time></trkpt><trkpt lat="43.7545193" lon="11.3236482"><ele>72.2</ele><time>2026-05-04T14:08:51.998Z</time></trkpt><trkpt lat="43.7545881" lon="11.3237476"><ele>71.4</ele><time>2026-05-04T14:08:52.995Z</time></trkpt><trkpt lat="43.7546587" lon="11.3238456"><ele>70.60000000000001</ele><time>2026-05-04T14:08:53.997Z</time></trkpt><trkpt lat="43.7547295" lon="11.3239422"><ele>69.8</ele><time>2026-05-04T14:08:54.997Z</time></trkpt><trkpt lat="43.7548042" lon="11.3240399"><ele>69.0</ele><time>2026-05-04T14:08:55.997Z</time></trkpt><trkpt lat="43.754881" lon="11.3241347"><ele>69.0</ele><time>2026-05-04T14:08:56.998Z</time></trkpt><trkpt lat="43.7549568" lon="11.3242231"><ele>69.0</ele><time>2026-05-04T14:08:57.997Z</time></trkpt><trkpt lat="43.7550317" lon="11.3243068"><ele>69.0</ele><time>2026-05-04T14:08:58.995Z</time></trkpt><trkpt lat="43.7551051" lon="11.324391"><ele>69.0</ele><time>2026-05-04T14:08:59.991Z</time></trkpt><trkpt lat="43.7551789" lon="11.3244798"><ele>69.0</ele><time>2026-05-04T14:09:00.994Z</time></trkpt><trkpt lat="43.7552445" lon="11.3245649"><ele>69.0</ele><time>2026-05-04T14:09:01.995Z</time></trkpt><trkpt lat="43.7553169" lon="11.3246573"><ele>69.0</ele><time>2026-05-04T14:09:02.996Z</time></trkpt><trkpt lat="43.7553873" lon="11.3247478"><ele>69.0</ele><time>2026-05-04T14:09:03.999Z</time></trkpt><trkpt lat="43.7554557" lon="11.3248354"><ele>69.0</ele><time>2026-05-04T14:09:04.996Z</time></trkpt><trkpt lat="43.7555201" lon="11.3249138"><ele>69.0</ele><time>2026-05-04T14:09:05.999Z</time></trkpt><trkpt lat="43.7555813" lon="11.3249919"><ele>69.0</ele><time>2026-05-04T14:09:06.999Z</time></trkpt><trkpt lat="43.7556406" lon="11.3250666"><ele>69.0</ele><time>2026-05-04T14:09:07.996Z</time></trkpt><trkpt lat="43.7557013" lon="11.3251415"><ele>69.0</ele><time>2026-05-04T14:09:08.999Z</time></trkpt><trkpt lat="43.755762" lon="11.3251999"><ele>69.0</ele><time>2026-05-04T14:09:09.997Z</time></trkpt><trkpt lat="43.7558139" lon="11.3252508"><ele>69.0</ele><time>2026-05-04T14:09:10.995Z</time></trkpt><trkpt lat="43.7558829" lon="11.3253126"><ele>69.0</ele><time>2026-05-04T14:09:12.998Z</time></trkpt><trkpt lat="43.7559332" lon="11.3253721"><ele>69.0</ele><time>2026-05-04T14:09:16.996Z</time></trkpt><trkpt lat="43.7560047" lon="11.32548"><ele>69.0</ele><time>2026-05-04T14:09:18.996Z</time></trkpt><trkpt lat="43.7560565" lon="11.3255369"><ele>69.0</ele><time>2026-05-04T14:09:19.993Z</time></trkpt><trkpt lat="43.7561129" lon="11.3255874"><ele>69.0</ele><time>2026-05-04T14:09:20.998Z</time></trkpt><trkpt lat="43.7561816" lon="11.3256144"><ele>69.0</ele><time>2026-05-04T14:09:21.997Z</time></trkpt><trkpt lat="43.7562515" lon="11.3256359"><ele>69.0</ele><time>2026-05-04T14:09:22.995Z</time></trkpt><trkpt lat="43.7563372" lon="11.325636"><ele>69.0</ele><time>2026-05-04T14:09:24Z</time></trkpt><trkpt lat="43.7564193" lon="11.325664"><ele>69.0</ele><time>2026-05-04T14:09:24.995Z</time></trkpt><trkpt lat="43.7564897" lon="11.3257211"><ele>69.0</ele><time>2026-05-04T14:09:25.996Z</time></trkpt><trkpt lat="43.756548" lon="11.325796"><ele>69.0</ele><time>2026-05-04T14:09:26.996Z</time></trkpt><trkpt lat="43.7565832" lon="11.3259002"><ele>69.0</ele><time>2026-05-04T14:09:27.995Z</time></trkpt><trkpt lat="43.7566058" lon="11.3260203"><ele>69.0</ele><time>2026-05-04T14:09:28.997Z</time></trkpt><trkpt lat="43.7566228" lon="11.3261447"><ele>69.0</ele><time>2026-05-04T14:09:29.997Z</time></trkpt><trkpt lat="43.7566344" lon="11.3262778"><ele>69.0</ele><time>2026-05-04T14:09:30.995Z</time></trkpt><trkpt lat="43.7566463" lon="11.3264181"><ele>69.60000000000001</ele><time>2026-05-04T14:09:31.996Z</time></trkpt><trkpt lat="43.7566611" lon="11.3265594"><ele>70.2</ele><time>2026-05-04T14:09:32.997Z</time></trkpt><trkpt lat="43.7566874" lon="11.3267037"><ele>70.80000000000001</ele><time>2026-05-04T14:09:33.996Z</time></trkpt><trkpt lat="43.7567263" lon="11.3268375"><ele>71.4</ele><time>2026-05-04T14:09:34.994Z</time></trkpt><trkpt lat="43.756784" lon="11.3269651"><ele>72.0</ele><time>2026-05-04T14:09:35.999Z</time></trkpt><trkpt lat="43.7568483" lon="11.3270836"><ele>71.8</ele><time>2026-05-04T14:09:36.999Z</time></trkpt><trkpt lat="43.756922" lon="11.3271857"><ele>71.6</ele><time>2026-05-04T14:09:37.997Z</time></trkpt><trkpt lat="43.7570049" lon="11.3272548"><ele>71.39999999999999</ele><time>2026-05-04T14:09:38.997Z</time></trkpt><trkpt lat="43.7570941" lon="11.3273092"><ele>71.2</ele><time>2026-05-04T14:09:39.999Z</time></trkpt><trkpt lat="43.7571865" lon="11.3273571"><ele>71.0</ele><time>2026-05-04T14:09:40.996Z</time></trkpt><trkpt lat="43.7572809" lon="11.3273995"><ele>71.39999999999999</ele><time>2026-05-04T14:09:41.997Z</time></trkpt><trkpt lat="43.7573781" lon="11.327437"><ele>71.8</ele><time>2026-05-04T14:09:42.999Z</time></trkpt><trkpt lat="43.7574748" lon="11.327481"><ele>72.19999999999999</ele><time>2026-05-04T14:09:43.996Z</time></trkpt><trkpt lat="43.757569" lon="11.3275243"><ele>72.6</ele><time>2026-05-04T14:09:44.996Z</time></trkpt><trkpt lat="43.7576607" lon="11.3275712"><ele>73.0</ele><time>2026-05-04T14:09:45.999Z</time></trkpt><trkpt lat="43.7577498" lon="11.3276154"><ele>73.0</ele><time>2026-05-04T14:09:46.995Z</time></trkpt><trkpt lat="43.7578353" lon="11.327656"><ele>73.0</ele><time>2026-05-04T14:09:48.001Z</time></trkpt><trkpt lat="43.7579143" lon="11.3276959"><ele>73.0</ele><time>2026-05-04T14:09:48.996Z</time></trkpt><trkpt lat="43.7579907" lon="11.327732"><ele>73.0</ele><time>2026-05-04T14:09:49.995Z</time></trkpt><trkpt lat="43.7580627" lon="11.3277698"><ele>73.0</ele><time>2026-05-04T14:09:50.995Z</time></trkpt><trkpt lat="43.7581308" lon="11.3278084"><ele>73.0</ele><time>2026-05-04T14:09:51.995Z</time></trkpt><trkpt lat="43.7581908" lon="11.3278415"><ele>73.0</ele><time>2026-05-04T14:09:52.996Z</time></trkpt><trkpt lat="43.7582745" lon="11.3278931"><ele>73.0</ele><time>2026-05-04T14:09:54.996Z</time></trkpt><trkpt lat="43.7583398" lon="11.3279218"><ele>73.0</ele><time>2026-05-04T14:09:58.996Z</time></trkpt><trkpt lat="43.7584235" lon="11.3279716"><ele>73.0</ele><time>2026-05-04T14:10:02.996Z</time></trkpt><trkpt lat="43.7585098" lon="11.3280218"><ele>73.0</ele><time>2026-05-04T14:10:04.996Z</time></trkpt><trkpt lat="43.7585703" lon="11.3280488"><ele>73.0</ele><time>2026-05-04T14:10:05.997Z</time></trkpt><trkpt lat="43.7586423" lon="11.3280768"><ele>72.33333333333333</ele><time>2026-05-04T14:10:06.999Z</time></trkpt><trkpt lat="43.758716" lon="11.3281044"><ele>71.66666666666666</ele><time>2026-05-04T14:10:07.994Z</time></trkpt><trkpt lat="43.7587975" lon="11.3281345"><ele>71.0</ele><time>2026-05-04T14:10:08.995Z</time></trkpt><trkpt lat="43.7588803" lon="11.328174"><ele>70.33333333333333</ele><time>2026-05-04T14:10:09.997Z</time></trkpt><trkpt lat="43.7589611" lon="11.328214"><ele>69.66666666666667</ele><time>2026-05-04T14:10:10.996Z</time></trkpt><trkpt lat="43.7590451" lon="11.3282572"><ele>69.0</ele><time>2026-05-04T14:10:12Z</time></trkpt><trkpt lat="43.759129" lon="11.3282982"><ele>69.0</ele><time>2026-05-04T14:10:12.998Z</time></trkpt><trkpt lat="43.7592155" lon="11.3283371"><ele>69.0</ele><time>2026-05-04T14:10:13.997Z</time></trkpt><trkpt lat="43.7593004" lon="11.3283801"><ele>69.0</ele><time>2026-05-04T14:10:15.004Z</time></trkpt><trkpt lat="43.7593812" lon="11.3284341"><ele>69.0</ele><time>2026-05-04T14:10:16Z</time></trkpt><trkpt lat="43.7594603" lon="11.3284963"><ele>69.0</ele><time>2026-05-04T14:10:16.997Z</time></trkpt><trkpt lat="43.7595458" lon="11.3285659"><ele>69.25</ele><time>2026-05-04T14:10:17.995Z</time></trkpt><trkpt lat="43.7596361" lon="11.3286458"><ele>69.5</ele><time>2026-05-04T14:10:18.995Z</time></trkpt><trkpt lat="43.7597291" lon="11.3287268"><ele>69.75</ele><time>2026-05-04T14:10:19.995Z</time></trkpt><trkpt lat="43.7598217" lon="11.3288241"><ele>70.0</ele><time>2026-05-04T14:10:20.995Z</time></trkpt><trkpt lat="43.7599121" lon="11.3289275"><ele>70.0</ele><time>2026-05-04T14:10:21.994Z</time></trkpt><trkpt lat="43.7599993" lon="11.3290377"><ele>70.0</ele><time>2026-05-04T14:10:22.995Z</time></trkpt><trkpt lat="43.7600897" lon="11.3291439"><ele>70.0</ele><time>2026-05-04T14:10:23.995Z</time></trkpt><trkpt lat="43.7601735" lon="11.3292557"><ele>70.0</ele><time>2026-05-04T14:10:24.995Z</time></trkpt><trkpt lat="43.7602552" lon="11.3293699"><ele>70.0</ele><time>2026-05-04T14:10:25.995Z</time></trkpt><trkpt lat="43.7603311" lon="11.3294795"><ele>70.0</ele><time>2026-05-04T14:10:26.997Z</time></trkpt><trkpt lat="43.7603953" lon="11.3295898"><ele>70.0</ele><time>2026-05-04T14:10:27.996Z</time></trkpt><trkpt lat="43.7604518" lon="11.3297012"><ele>70.0</ele><time>2026-05-04T14:10:29Z</time></trkpt><trkpt lat="43.7605024" lon="11.3298128"><ele>70.0</ele><time>2026-05-04T14:10:29.997Z</time></trkpt><trkpt lat="43.7605492" lon="11.3299295"><ele>70.0</ele><time>2026-05-04T14:10:30.998Z</time></trkpt><trkpt lat="43.7605914" lon="11.3300503"><ele>70.0</ele><time>2026-05-04T14:10:32.002Z</time></trkpt><trkpt lat="43.7606319" lon="11.3301662"><ele>70.0</ele><time>2026-05-04T14:10:32.994Z</time></trkpt><trkpt lat="43.7606723" lon="11.3302947"><ele>70.0</ele><time>2026-05-04T14:10:33.995Z</time></trkpt><trkpt lat="43.760715" lon="11.3304338"><ele>70.0</ele><time>2026-05-04T14:10:34.995Z</time></trkpt><trkpt lat="43.760759" lon="11.3305795"><ele>70.25</ele><time>2026-05-04T14:10:35.995Z</time></trkpt><trkpt lat="43.7608039" lon="11.3307296"><ele>70.5</ele><time>2026-05-04T14:10:36.997Z</time></trkpt><trkpt lat="43.7608455" lon="11.3308782"><ele>70.75</ele><time>2026-05-04T14:10:37.998Z</time></trkpt><trkpt lat="43.7608868" lon="11.3310258"><ele>71.0</ele><time>2026-05-04T14:10:38.997Z</time></trkpt><trkpt lat="43.7609253" lon="11.3311746"><ele>71.0</ele><time>2026-05-04T14:10:39.998Z</time></trkpt><trkpt lat="43.7609669" lon="11.3313257"><ele>71.0</ele><time>2026-05-04T14:10:40.998Z</time></trkpt><trkpt lat="43.7610073" lon="11.3314766"><ele>71.0</ele><time>2026-05-04T14:10:41.997Z</time></trkpt><trkpt lat="43.7610462" lon="11.3316278"><ele>71.0</ele><time>2026-05-04T14:10:42.999Z</time></trkpt><trkpt lat="43.7610885" lon="11.3317707"><ele>70.75</ele><time>2026-05-04T14:10:43.996Z</time></trkpt><trkpt lat="43.7611323" lon="11.3319148"><ele>70.5</ele><time>2026-05-04T14:10:44.996Z</time></trkpt><trkpt lat="43.7611735" lon="11.3320566"><ele>70.25</ele><time>2026-05-04T14:10:45.997Z</time></trkpt><trkpt lat="43.7612197" lon="11.3322005"><ele>70.0</ele><time>2026-05-04T14:10:46.996Z</time></trkpt><trkpt lat="43.7612643" lon="11.3323462"><ele>70.0</ele><time>2026-05-04T14:10:47.995Z</time></trkpt><trkpt lat="43.761311" lon="11.332489"><ele>70.0</ele><time>2026-05-04T14:10:48.996Z</time></trkpt><trkpt lat="43.7613535" lon="11.3326316"><ele>70.0</ele><time>2026-05-04T14:10:49.996Z</time></trkpt><trkpt lat="43.7613967" lon="11.3327774"><ele>70.0</ele><time>2026-05-04T14:10:51Z</time></trkpt><trkpt lat="43.7614412" lon="11.3329241"><ele>70.2</ele><time>2026-05-04T14:10:51.996Z</time></trkpt><trkpt lat="43.7614843" lon="11.3330713"><ele>70.4</ele><time>2026-05-04T14:10:52.997Z</time></trkpt><trkpt lat="43.7615288" lon="11.3332148"><ele>70.6</ele><time>2026-05-04T14:10:53.996Z</time></trkpt><trkpt lat="43.7615778" lon="11.3333514"><ele>70.8</ele><time>2026-05-04T14:10:54.996Z</time></trkpt><trkpt lat="43.7616327" lon="11.3334803"><ele>71.0</ele><time>2026-05-04T14:10:56.003Z</time></trkpt><trkpt lat="43.7616944" lon="11.3336106"><ele>71.0</ele><time>2026-05-04T14:10:56.998Z</time></trkpt><trkpt lat="43.7617552" lon="11.3337404"><ele>71.0</ele><time>2026-05-04T14:10:57.994Z</time></trkpt><trkpt lat="43.7618185" lon="11.333868"><ele>71.0</ele><time>2026-05-04T14:10:58.997Z</time></trkpt><trkpt lat="43.7618837" lon="11.3339878"><ele>71.0</ele><time>2026-05-04T14:10:59.997Z</time></trkpt><trkpt lat="43.7619503" lon="11.3341063"><ele>71.0</ele><time>2026-05-04T14:11:00.998Z</time></trkpt><trkpt lat="43.7620137" lon="11.3342179"><ele>71.0</ele><time>2026-05-04T14:11:01.997Z</time></trkpt><trkpt lat="43.762081" lon="11.3343281"><ele>71.0</ele><time>2026-05-04T14:11:02.996Z</time></trkpt><trkpt lat="43.7621505" lon="11.334443"><ele>71.0</ele><time>2026-05-04T14:11:03.998Z</time></trkpt><trkpt lat="43.7622201" lon="11.3345587"><ele>71.0</ele><time>2026-05-04T14:11:04.999Z</time></trkpt><trkpt lat="43.7622887" lon="11.3346695"><ele>71.0</ele><time>2026-05-04T14:11:05.998Z</time></trkpt><trkpt lat="43.7623532" lon="11.3347731"><ele>71.33333333333334</ele><time>2026-05-04T14:11:06.998Z</time></trkpt><trkpt lat="43.7624156" lon="11.3348755"><ele>71.66666666666667</ele><time>2026-05-04T14:11:07.997Z</time></trkpt><trkpt lat="43.7624721" lon="11.3349614"><ele>72.0</ele><time>2026-05-04T14:11:08.996Z</time></trkpt><trkpt lat="43.762518" lon="11.3350332"><ele>72.33333333333333</ele><time>2026-05-04T14:11:09.998Z</time></trkpt><trkpt lat="43.7625635" lon="11.3350992"><ele>72.66666666666666</ele><time>2026-05-04T14:11:10.998Z</time></trkpt><trkpt lat="43.7625827" lon="11.3351993"><ele>73.0</ele><time>2026-05-04T14:11:12.994Z</time></trkpt><trkpt lat="43.7625307" lon="11.3352501"><ele>73.0</ele><time>2026-05-04T14:11:13.997Z</time></trkpt><trkpt lat="43.7624346" lon="11.3353566"><ele>73.0</ele><time>2026-05-04T14:11:15.998Z</time></trkpt><trkpt lat="43.762397" lon="11.335428"><ele>73.0</ele><time>2026-05-04T14:11:16.996Z</time></trkpt><trkpt lat="43.7623779" lon="11.3355121"><ele>73.0</ele><time>2026-05-04T14:11:17.995Z</time></trkpt><trkpt lat="43.7623921" lon="11.3356643"><ele>73.0</ele><time>2026-05-04T14:11:19.997Z</time></trkpt><trkpt lat="43.7624129" lon="11.3357898"><ele>74.4</ele><time>2026-05-04T14:11:27.995Z</time></trkpt><trkpt lat="43.7624512" lon="11.3359232"><ele>75.8</ele><time>2026-05-04T14:11:29.996Z</time></trkpt><trkpt lat="43.7625004" lon="11.3360577"><ele>77.2</ele><time>2026-05-04T14:11:31.998Z</time></trkpt><trkpt lat="43.7625735" lon="11.3362034"><ele>78.6</ele><time>2026-05-04T14:11:33.993Z</time></trkpt><trkpt lat="43.7626092" lon="11.3362863"><ele>80.0</ele><time>2026-05-04T14:11:34.993Z</time></trkpt><trkpt lat="43.7626446" lon="11.3363673"><ele>81.0</ele><time>2026-05-04T14:11:35.989Z</time></trkpt><trkpt lat="43.7626893" lon="11.3364563"><ele>82.0</ele><time>2026-05-04T14:11:36.994Z</time></trkpt><trkpt lat="43.7627344" lon="11.3365511"><ele>83.0</ele><time>2026-05-04T14:11:37.997Z</time></trkpt><trkpt lat="43.7627813" lon="11.3366482"><ele>84.0</ele><time>2026-05-04T14:11:38.997Z</time></trkpt><trkpt lat="43.7628274" lon="11.3367426"><ele>85.0</ele><time>2026-05-04T14:11:39.994Z</time></trkpt><trkpt lat="43.7628772" lon="11.3368409"><ele>86.0</ele><time>2026-05-04T14:11:40.995Z</time></trkpt><trkpt lat="43.7629217" lon="11.3369354"><ele>84.33333333333334</ele><time>2026-05-04T14:11:41.995Z</time></trkpt><trkpt lat="43.7629624" lon="11.3370344"><ele>82.66666666666667</ele><time>2026-05-04T14:11:42.997Z</time></trkpt><trkpt lat="43.7629946" lon="11.3371429"><ele>81.0</ele><time>2026-05-04T14:11:43.995Z</time></trkpt><trkpt lat="43.763021" lon="11.3372546"><ele>79.33333333333333</ele><time>2026-05-04T14:11:44.995Z</time></trkpt><trkpt lat="43.7630433" lon="11.3373676"><ele>77.66666666666666</ele><time>2026-05-04T14:11:45.994Z</time></trkpt><trkpt lat="43.763061" lon="11.3374789"><ele>76.0</ele><time>2026-05-04T14:11:46.996Z</time></trkpt><trkpt lat="43.7630698" lon="11.3375925"><ele>76.0</ele><time>2026-05-04T14:11:47.994Z</time></trkpt><trkpt lat="43.7630619" lon="11.3377126"><ele>76.0</ele><time>2026-05-04T14:11:48.995Z</time></trkpt><trkpt lat="43.7630527" lon="11.3378343"><ele>76.0</ele><time>2026-05-04T14:11:49.995Z</time></trkpt><trkpt lat="43.7630507" lon="11.3379492"><ele>76.0</ele><time>2026-05-04T14:11:50.995Z</time></trkpt><trkpt lat="43.7630587" lon="11.3380536"><ele>76.0</ele><time>2026-05-04T14:11:51.998Z</time></trkpt><trkpt lat="43.7630661" lon="11.3381537"><ele>76.0</ele><time>2026-05-04T14:11:52.996Z</time></trkpt><trkpt lat="43.7630795" lon="11.338245"><ele>77.4</ele><time>2026-05-04T14:11:53.995Z</time></trkpt><trkpt lat="43.7631008" lon="11.3384028"><ele>78.8</ele><time>2026-05-04T14:11:55.996Z</time></trkpt><trkpt lat="43.763119" lon="11.3385419"><ele>80.2</ele><time>2026-05-04T14:11:57.996Z</time></trkpt><trkpt lat="43.763149" lon="11.3387128"><ele>81.60000000000001</ele><time>2026-05-04T14:11:59.993Z</time></trkpt><trkpt lat="43.7631669" lon="11.3388075"><ele>83.0</ele><time>2026-05-04T14:12:00.996Z</time></trkpt><trkpt lat="43.7631846" lon="11.3389082"><ele>84.66666666666667</ele><time>2026-05-04T14:12:01.996Z</time></trkpt><trkpt lat="43.763202" lon="11.3390149"><ele>86.33333333333334</ele><time>2026-05-04T14:12:02.995Z</time></trkpt><trkpt lat="43.7632165" lon="11.3391188"><ele>88.0</ele><time>2026-05-04T14:12:03.995Z</time></trkpt><trkpt lat="43.763228" lon="11.3392254"><ele>89.66666666666667</ele><time>2026-05-04T14:12:04.995Z</time></trkpt><trkpt lat="43.7632353" lon="11.3393261"><ele>91.33333333333333</ele><time>2026-05-04T14:12:05.994Z</time></trkpt><trkpt lat="43.7632479" lon="11.3394176"><ele>93.0</ele><time>2026-05-04T14:12:06.993Z</time></trkpt><trkpt lat="43.7632731" lon="11.3395791"><ele>94.16666666666667</ele><time>2026-05-04T14:12:08.994Z</time></trkpt><trkpt lat="43.7632835" lon="11.3397478"><ele>95.33333333333334</ele><time>2026-05-04T14:12:10.996Z</time></trkpt><trkpt lat="43.7632806" lon="11.3398381"><ele>96.5</ele><time>2026-05-04T14:12:11.995Z</time></trkpt><trkpt lat="43.7632714" lon="11.3399342"><ele>97.66666666666667</ele><time>2026-05-04T14:12:12.995Z</time></trkpt><trkpt lat="43.7632583" lon="11.3400367"><ele>98.83333333333334</ele><time>2026-05-04T14:12:13.994Z</time></trkpt><trkpt lat="43.7632421" lon="11.3401422"><ele>100.0</ele><time>2026-05-04T14:12:14.996Z</time></trkpt><trkpt lat="43.7632307" lon="11.3402585"><ele>100.0</ele><time>2026-05-04T14:12:15.996Z</time></trkpt><trkpt lat="43.763224" lon="11.3403841"><ele>100.0</ele><time>2026-05-04T14:12:16.994Z</time></trkpt><trkpt lat="43.7632185" lon="11.3405124"><ele>100.0</ele><time>2026-05-04T14:12:17.996Z</time></trkpt><trkpt lat="43.7632165" lon="11.3406405"><ele>100.0</ele><time>2026-05-04T14:12:18.995Z</time></trkpt><trkpt lat="43.7632163" lon="11.3407645"><ele>100.0</ele><time>2026-05-04T14:12:19.995Z</time></trkpt><trkpt lat="43.7632164" lon="11.3408883"><ele>100.66666666666667</ele><time>2026-05-04T14:12:20.995Z</time></trkpt><trkpt lat="43.7632173" lon="11.3410133"><ele>101.33333333333334</ele><time>2026-05-04T14:12:21.995Z</time></trkpt><trkpt lat="43.7632219" lon="11.3411318"><ele>102.0</ele><time>2026-05-04T14:12:22.997Z</time></trkpt><trkpt lat="43.763219" lon="11.3412316"><ele>102.66666666666666</ele><time>2026-05-04T14:12:23.994Z</time></trkpt><trkpt lat="43.7632077" lon="11.3413183"><ele>103.33333333333333</ele><time>2026-05-04T14:12:24.997Z</time></trkpt><trkpt lat="43.7631822" lon="11.3414107"><ele>104.0</ele><time>2026-05-04T14:12:25.996Z</time></trkpt><trkpt lat="43.7631472" lon="11.3415048"><ele>105.49999999999999</ele><time>2026-05-04T14:12:26.996Z</time></trkpt><trkpt lat="43.7631165" lon="11.3416006"><ele>107.0</ele><time>2026-05-04T14:12:27.995Z</time></trkpt><trkpt lat="43.763094" lon="11.3416977"><ele>108.5</ele><time>2026-05-04T14:12:28.994Z</time></trkpt><trkpt lat="43.7630792" lon="11.3417942"><ele>110.0</ele><time>2026-05-04T14:12:29.994Z</time></trkpt><trkpt lat="43.7630783" lon="11.3419003"><ele>111.49999999999999</ele><time>2026-05-04T14:12:30.993Z</time></trkpt><trkpt lat="43.7630953" lon="11.3420095"><ele>113.0</ele><time>2026-05-04T14:12:31.99Z</time></trkpt><trkpt lat="43.7631267" lon="11.3421112"><ele>113.0</ele><time>2026-05-04T14:12:32.994Z</time></trkpt><trkpt lat="43.76317" lon="11.3422118"><ele>113.00000000000001</ele><time>2026-05-04T14:12:33.995Z</time></trkpt><trkpt lat="43.7632178" lon="11.3423144"><ele>113.00000000000001</ele><time>2026-05-04T14:12:34.994Z</time></trkpt><trkpt lat="43.7632629" lon="11.3424205"><ele>113.0</ele><time>2026-05-04T14:12:35.994Z</time></trkpt><trkpt lat="43.7633144" lon="11.3425287"><ele>113.0</ele><time>2026-05-04T14:12:36.999Z</time></trkpt><trkpt lat="43.7633724" lon="11.3426372"><ele>112.4</ele><time>2026-05-04T14:12:37.996Z</time></trkpt><trkpt lat="43.7634334" lon="11.3427464"><ele>111.80000000000001</ele><time>2026-05-04T14:12:38.998Z</time></trkpt><trkpt lat="43.7634953" lon="11.3428508"><ele>111.2</ele><time>2026-05-04T14:12:39.997Z</time></trkpt><trkpt lat="43.7635685" lon="11.3429384"><ele>110.6</ele><time>2026-05-04T14:12:40.994Z</time></trkpt><trkpt lat="43.7636449" lon="11.3430253"><ele>110.0</ele><time>2026-05-04T14:12:41.997Z</time></trkpt><trkpt lat="43.7637189" lon="11.3431132"><ele>113.8</ele><time>2026-05-04T14:12:42.997Z</time></trkpt><trkpt lat="43.7637839" lon="11.3432128"><ele>117.6</ele><time>2026-05-04T14:12:43.995Z</time></trkpt><trkpt lat="43.7638519" lon="11.3433185"><ele>121.4</ele><time>2026-05-04T14:12:44.995Z</time></trkpt><trkpt lat="43.7639277" lon="11.3434193"><ele>125.2</ele><time>2026-05-04T14:12:45.998Z</time></trkpt><trkpt lat="43.7640072" lon="11.3435026"><ele>129.0</ele><time>2026-05-04T14:12:46.995Z</time></trkpt><trkpt lat="43.7640803" lon="11.3435725"><ele>129.0</ele><time>2026-05-04T14:12:47.995Z</time></trkpt><trkpt lat="43.764152" lon="11.3436465"><ele>129.0</ele><time>2026-05-04T14:12:48.994Z</time></trkpt><trkpt lat="43.7642227" lon="11.3437187"><ele>129.0</ele><time>2026-05-04T14:12:49.993Z</time></trkpt><trkpt lat="43.7642918" lon="11.3437883"><ele>129.0</ele><time>2026-05-04T14:12:50.995Z</time></trkpt><trkpt lat="43.7643544" lon="11.3438572"><ele>129.0</ele><time>2026-05-04T14:12:51.994Z</time></trkpt><trkpt lat="43.7643896" lon="11.3439371"><ele>129.0</ele><time>2026-05-04T14:12:52.996Z</time></trkpt><trkpt lat="43.7644166" lon="11.3440291"><ele>128.2</ele><time>2026-05-04T14:12:53.995Z</time></trkpt><trkpt lat="43.7644342" lon="11.3441359"><ele>127.4</ele><time>2026-05-04T14:12:54.995Z</time></trkpt><trkpt lat="43.7644403" lon="11.3442599"><ele>126.6</ele><time>2026-05-04T14:12:55.998Z</time></trkpt><trkpt lat="43.7644375" lon="11.3443882"><ele>125.8</ele><time>2026-05-04T14:12:56.996Z</time></trkpt><trkpt lat="43.7644396" lon="11.3445292"><ele>125.0</ele><time>2026-05-04T14:12:57.995Z</time></trkpt><trkpt lat="43.7644486" lon="11.3446893"><ele>127.75</ele><time>2026-05-04T14:12:58.996Z</time></trkpt><trkpt lat="43.7644682" lon="11.3448536"><ele>130.5</ele><time>2026-05-04T14:12:59.996Z</time></trkpt><trkpt lat="43.7644996" lon="11.3450106"><ele>133.25</ele><time>2026-05-04T14:13:00.994Z</time></trkpt><trkpt lat="43.7645385" lon="11.3451606"><ele>136.0</ele><time>2026-05-04T14:13:01.995Z</time></trkpt><trkpt lat="43.7645908" lon="11.3453057"><ele>136.0</ele><time>2026-05-04T14:13:02.994Z</time></trkpt><trkpt lat="43.7646607" lon="11.3454252"><ele>136.0</ele><time>2026-05-04T14:13:03.996Z</time></trkpt><trkpt lat="43.764744" lon="11.3455284"><ele>136.0</ele><time>2026-05-04T14:13:04.995Z</time></trkpt><trkpt lat="43.7648221" lon="11.3456039"><ele>136.0</ele><time>2026-05-04T14:13:05.994Z</time></trkpt><trkpt lat="43.7648972" lon="11.3456811"><ele>136.0</ele><time>2026-05-04T14:13:06.995Z</time></trkpt><trkpt lat="43.7649568" lon="11.3457542"><ele>138.0</ele><time>2026-05-04T14:13:07.993Z</time></trkpt><trkpt lat="43.7649955" lon="11.345833"><ele>140.0</ele><time>2026-05-04T14:13:08.996Z</time></trkpt><trkpt lat="43.765016" lon="11.345943"><ele>142.0</ele><time>2026-05-04T14:13:09.994Z</time></trkpt><trkpt lat="43.7650259" lon="11.346059"><ele>144.0</ele><time>2026-05-04T14:13:10.995Z</time></trkpt><trkpt lat="43.7650285" lon="11.3461778"><ele>146.0</ele><time>2026-05-04T14:13:11.996Z</time></trkpt><trkpt lat="43.7650283" lon="11.3463023"><ele>148.0</ele><time>2026-05-04T14:13:12.995Z</time></trkpt><trkpt lat="43.7650368" lon="11.3464266"><ele>150.8</ele><time>2026-05-04T14:13:13.999Z</time></trkpt><trkpt lat="43.7650479" lon="11.3465449"><ele>153.60000000000002</ele><time>2026-05-04T14:13:14.994Z</time></trkpt><trkpt lat="43.7650594" lon="11.3466752"><ele>156.39999999999998</ele><time>2026-05-04T14:13:15.995Z</time></trkpt><trkpt lat="43.7650718" lon="11.3468063"><ele>159.2</ele><time>2026-05-04T14:13:16.994Z</time></trkpt><trkpt lat="43.7650977" lon="11.346939"><ele>162.0</ele><time>2026-05-04T14:13:17.994Z</time></trkpt><trkpt lat="43.7651186" lon="11.3470734"><ele>163.6</ele><time>2026-05-04T14:13:18.994Z</time></trkpt><trkpt lat="43.765129" lon="11.3472109"><ele>165.2</ele><time>2026-05-04T14:13:19.996Z</time></trkpt><trkpt lat="43.7651252" lon="11.3473558"><ele>166.8</ele><time>2026-05-04T14:13:20.994Z</time></trkpt><trkpt lat="43.7651227" lon="11.3475078"><ele>168.4</ele><time>2026-05-04T14:13:21.994Z</time></trkpt><trkpt lat="43.7651209" lon="11.3476615"><ele>170.0</ele><time>2026-05-04T14:13:22.994Z</time></trkpt><trkpt lat="43.7651302" lon="11.3478135"><ele>170.0</ele><time>2026-05-04T14:13:23.995Z</time></trkpt><trkpt lat="43.765144" lon="11.3479734"><ele>170.0</ele><time>2026-05-04T14:13:24.996Z</time></trkpt><trkpt lat="43.7651628" lon="11.3481344"><ele>170.0</ele><time>2026-05-04T14:13:25.997Z</time></trkpt><trkpt lat="43.7651829" lon="11.3482855"><ele>170.0</ele><time>2026-05-04T14:13:26.995Z</time></trkpt><trkpt lat="43.7652003" lon="11.3484402"><ele>166.2</ele><time>2026-05-04T14:13:27.998Z</time></trkpt><trkpt lat="43.7652197" lon="11.3485886"><ele>162.4</ele><time>2026-05-04T14:13:28.997Z</time></trkpt><trkpt lat="43.7652431" lon="11.3487304"><ele>158.6</ele><time>2026-05-04T14:13:29.993Z</time></trkpt><trkpt lat="43.7652625" lon="11.3488708"><ele>154.8</ele><time>2026-05-04T14:13:30.995Z</time></trkpt><trkpt lat="43.7652852" lon="11.349009"><ele>151.0</ele><time>2026-05-04T14:13:31.994Z</time></trkpt><trkpt lat="43.765315" lon="11.3491387"><ele>151.0</ele><time>2026-05-04T14:13:32.994Z</time></trkpt><trkpt lat="43.7653586" lon="11.3492609"><ele>151.0</ele><time>2026-05-04T14:13:33.994Z</time></trkpt><trkpt lat="43.7654089" lon="11.3493734"><ele>151.0</ele><time>2026-05-04T14:13:34.994Z</time></trkpt><trkpt lat="43.7654799" lon="11.3494696"><ele>151.0</ele><time>2026-05-04T14:13:35.995Z</time></trkpt><trkpt lat="43.7655632" lon="11.3495535"><ele>151.0</ele><time>2026-05-04T14:13:36.993Z</time></trkpt><trkpt lat="43.7656614" lon="11.3496195"><ele>151.0</ele><time>2026-05-04T14:13:37.998Z</time></trkpt><trkpt lat="43.7657682" lon="11.349667"><ele>151.0</ele><time>2026-05-04T14:13:38.995Z</time></trkpt><trkpt lat="43.7658758" lon="11.3497103"><ele>151.0</ele><time>2026-05-04T14:13:39.997Z</time></trkpt><trkpt lat="43.7659886" lon="11.3497354"><ele>151.0</ele><time>2026-05-04T14:13:40.993Z</time></trkpt><trkpt lat="43.7660854" lon="11.3497645"><ele>151.0</ele><time>2026-05-04T14:13:41.997Z</time></trkpt><trkpt lat="43.7661764" lon="11.3498016"><ele>150.0</ele><time>2026-05-04T14:13:42.996Z</time></trkpt><trkpt lat="43.7662431" lon="11.3498602"><ele>149.0</ele><time>2026-05-04T14:13:43.995Z</time></trkpt><trkpt lat="43.7662887" lon="11.3499414"><ele>148.0</ele><time>2026-05-04T14:13:44.996Z</time></trkpt><trkpt lat="43.7663284" lon="11.3500248"><ele>147.0</ele><time>2026-05-04T14:13:45.995Z</time></trkpt><trkpt lat="43.7663477" lon="11.3501175"><ele>146.0</ele><time>2026-05-04T14:13:46.995Z</time></trkpt><trkpt lat="43.7663626" lon="11.3502291"><ele>145.0</ele><time>2026-05-04T14:13:47.997Z</time></trkpt><trkpt lat="43.7663841" lon="11.350335"><ele>145.0</ele><time>2026-05-04T14:13:48.995Z</time></trkpt><trkpt lat="43.7664118" lon="11.3504436"><ele>145.0</ele><time>2026-05-04T14:13:49.997Z</time></trkpt><trkpt lat="43.7664388" lon="11.3505597"><ele>145.0</ele><time>2026-05-04T14:13:50.995Z</time></trkpt><trkpt lat="43.7664669" lon="11.3506786"><ele>145.0</ele><time>2026-05-04T14:13:51.996Z</time></trkpt><trkpt lat="43.7664934" lon="11.3508037"><ele>145.0</ele><time>2026-05-04T14:13:52.995Z</time></trkpt><trkpt lat="43.7665174" lon="11.3509312"><ele>146.6</ele><time>2026-05-04T14:13:53.995Z</time></trkpt><trkpt lat="43.7665491" lon="11.351055"><ele>148.2</ele><time>2026-05-04T14:13:54.996Z</time></trkpt><trkpt lat="43.7665811" lon="11.3511704"><ele>149.8</ele><time>2026-05-04T14:13:55.994Z</time></trkpt><trkpt lat="43.7666191" lon="11.3512788"><ele>151.4</ele><time>2026-05-04T14:13:56.994Z</time></trkpt><trkpt lat="43.766652" lon="11.3513929"><ele>153.0</ele><time>2026-05-04T14:13:57.997Z</time></trkpt><trkpt lat="43.7666868" lon="11.3515201"><ele>154.0</ele><time>2026-05-04T14:13:58.996Z</time></trkpt><trkpt lat="43.7667202" lon="11.3516562"><ele>155.0</ele><time>2026-05-04T14:13:59.995Z</time></trkpt><trkpt lat="43.7667462" lon="11.3517897"><ele>156.0</ele><time>2026-05-04T14:14:00.995Z</time></trkpt><trkpt lat="43.7667682" lon="11.3519265"><ele>157.0</ele><time>2026-05-04T14:14:01.996Z</time></trkpt><trkpt lat="43.7667838" lon="11.3520638"><ele>158.0</ele><time>2026-05-04T14:14:02.996Z</time></trkpt><trkpt lat="43.7667953" lon="11.3522017"><ele>158.20000000000002</ele><time>2026-05-04T14:14:03.998Z</time></trkpt><trkpt lat="43.7668033" lon="11.3523332"><ele>158.4</ele><time>2026-05-04T14:14:04.996Z</time></trkpt><trkpt lat="43.7668108" lon="11.3524651"><ele>158.60000000000002</ele><time>2026-05-04T14:14:05.996Z</time></trkpt><trkpt lat="43.7668182" lon="11.3525871"><ele>158.8</ele><time>2026-05-04T14:14:06.996Z</time></trkpt><trkpt lat="43.766829" lon="11.3527081"><ele>159.0</ele><time>2026-05-04T14:14:07.995Z</time></trkpt><trkpt lat="43.7668392" lon="11.3528362"><ele>159.0</ele><time>2026-05-04T14:14:08.997Z</time></trkpt><trkpt lat="43.76685" lon="11.3529764"><ele>159.0</ele><time>2026-05-04T14:14:09.996Z</time></trkpt><trkpt lat="43.7668615" lon="11.3531271"><ele>159.0</ele><time>2026-05-04T14:14:10.994Z</time></trkpt><trkpt lat="43.7668701" lon="11.3532775"><ele>159.0</ele><time>2026-05-04T14:14:11.997Z</time></trkpt><trkpt lat="43.7668742" lon="11.3534267"><ele>159.0</ele><time>2026-05-04T14:14:12.995Z</time></trkpt><trkpt lat="43.7668673" lon="11.3535807"><ele>159.0</ele><time>2026-05-04T14:14:13.997Z</time></trkpt><trkpt lat="43.7668483" lon="11.3537359"><ele>159.0</ele><time>2026-05-04T14:14:14.995Z</time></trkpt><trkpt lat="43.7668101" lon="11.3538957"><ele>159.0</ele><time>2026-05-04T14:14:15.998Z</time></trkpt><trkpt lat="43.7667614" lon="11.3540506"><ele>159.0</ele><time>2026-05-04T14:14:16.995Z</time></trkpt><trkpt lat="43.766713" lon="11.3542024"><ele>158.0</ele><time>2026-05-04T14:14:17.999Z</time></trkpt><trkpt lat="43.7666651" lon="11.3543565"><ele>157.0</ele><time>2026-05-04T14:14:18.996Z</time></trkpt><trkpt lat="43.7666198" lon="11.3545066"><ele>156.0</ele><time>2026-05-04T14:14:19.995Z</time></trkpt><trkpt lat="43.7665767" lon="11.3546519"><ele>155.0</ele><time>2026-05-04T14:14:20.996Z</time></trkpt><trkpt lat="43.7665338" lon="11.3547955"><ele>154.6</ele><time>2026-05-04T14:14:21.995Z</time></trkpt><trkpt lat="43.7664964" lon="11.3549299"><ele>154.2</ele><time>2026-05-04T14:14:22.994Z</time></trkpt><trkpt lat="43.7664595" lon="11.3550571"><ele>153.8</ele><time>2026-05-04T14:14:24Z</time></trkpt><trkpt lat="43.7664228" lon="11.3551814"><ele>153.4</ele><time>2026-05-04T14:14:24.995Z</time></trkpt><trkpt lat="43.7663851" lon="11.355306"><ele>153.0</ele><time>2026-05-04T14:14:25.995Z</time></trkpt><trkpt lat="43.766345" lon="11.3554311"><ele>152.4</ele><time>2026-05-04T14:14:26.995Z</time></trkpt><trkpt lat="43.7663045" lon="11.3555601"><ele>151.8</ele><time>2026-05-04T14:14:27.996Z</time></trkpt><trkpt lat="43.7662637" lon="11.355695"><ele>151.2</ele><time>2026-05-04T14:14:28.995Z</time></trkpt><trkpt lat="43.7662235" lon="11.3558248"><ele>150.6</ele><time>2026-05-04T14:14:29.995Z</time></trkpt><trkpt lat="43.7661849" lon="11.3559531"><ele>150.0</ele><time>2026-05-04T14:14:30.994Z</time></trkpt><trkpt lat="43.7661516" lon="11.3560696"><ele>150.0</ele><time>2026-05-04T14:14:31.993Z</time></trkpt><trkpt lat="43.7661189" lon="11.3561797"><ele>150.0</ele><time>2026-05-04T14:14:32.996Z</time></trkpt><trkpt lat="43.7660746" lon="11.3562812"><ele>150.0</ele><time>2026-05-04T14:14:33.996Z</time></trkpt><trkpt lat="43.7660119" lon="11.3563682"><ele>150.0</ele><time>2026-05-04T14:14:34.995Z</time></trkpt><trkpt lat="43.7659365" lon="11.3564547"><ele>150.0</ele><time>2026-05-04T14:14:35.997Z</time></trkpt><trkpt lat="43.7658589" lon="11.3565564"><ele>153.4</ele><time>2026-05-04T14:14:36.996Z</time></trkpt><trkpt lat="43.765788" lon="11.3566637"><ele>156.8</ele><time>2026-05-04T14:14:37.994Z</time></trkpt><trkpt lat="43.7657195" lon="11.3567767"><ele>160.2</ele><time>2026-05-04T14:14:38.997Z</time></trkpt><trkpt lat="43.7656566" lon="11.3568996"><ele>163.6</ele><time>2026-05-04T14:14:39.996Z</time></trkpt><trkpt lat="43.7655897" lon="11.3570184"><ele>167.0</ele><time>2026-05-04T14:14:40.995Z</time></trkpt><trkpt lat="43.7655206" lon="11.3571295"><ele>167.0</ele><time>2026-05-04T14:14:41.995Z</time></trkpt><trkpt lat="43.7654477" lon="11.3572284"><ele>167.0</ele><time>2026-05-04T14:14:42.995Z</time></trkpt><trkpt lat="43.7653714" lon="11.3573078"><ele>167.0</ele><time>2026-05-04T14:14:43.993Z</time></trkpt><trkpt lat="43.765296" lon="11.3573792"><ele>167.0</ele><time>2026-05-04T14:14:44.995Z</time></trkpt><trkpt lat="43.7652269" lon="11.357455"><ele>167.0</ele><time>2026-05-04T14:14:45.996Z</time></trkpt><trkpt lat="43.765174" lon="11.357537"><ele>166.33333333333331</ele><time>2026-05-04T14:14:46.993Z</time></trkpt><trkpt lat="43.7651287" lon="11.3576253"><ele>165.66666666666666</ele><time>2026-05-04T14:14:47.994Z</time></trkpt><trkpt lat="43.7650983" lon="11.3577203"><ele>165.0</ele><time>2026-05-04T14:14:48.997Z</time></trkpt><trkpt lat="43.7650995" lon="11.3578288"><ele>164.33333333333334</ele><time>2026-05-04T14:14:49.995Z</time></trkpt><trkpt lat="43.7651332" lon="11.357939"><ele>163.66666666666669</ele><time>2026-05-04T14:14:50.995Z</time></trkpt><trkpt lat="43.7651789" lon="11.3580352"><ele>163.0</ele><time>2026-05-04T14:14:51.995Z</time></trkpt><trkpt lat="43.7652281" lon="11.3581219"><ele>163.0</ele><time>2026-05-04T14:14:52.994Z</time></trkpt><trkpt lat="43.7652839" lon="11.3582174"><ele>163.0</ele><time>2026-05-04T14:14:53.997Z</time></trkpt><trkpt lat="43.7653453" lon="11.3583323"><ele>163.0</ele><time>2026-05-04T14:14:54.995Z</time></trkpt><trkpt lat="43.7654039" lon="11.3584548"><ele>163.0</ele><time>2026-05-04T14:14:55.994Z</time></trkpt><trkpt lat="43.7654564" lon="11.3585831"><ele>163.0</ele><time>2026-05-04T14:14:56.995Z</time></trkpt><trkpt lat="43.7655079" lon="11.3587154"><ele>163.0</ele><time>2026-05-04T14:14:57.994Z</time></trkpt><trkpt lat="43.7655696" lon="11.3588456"><ele>163.0</ele><time>2026-05-04T14:14:58.997Z</time></trkpt><trkpt lat="43.7656312" lon="11.3589795"><ele>163.0</ele><time>2026-05-04T14:14:59.993Z</time></trkpt><trkpt lat="43.765694" lon="11.3591137"><ele>163.0</ele><time>2026-05-04T14:15:01.001Z</time></trkpt><trkpt lat="43.7657503" lon="11.3592508"><ele>165.2</ele><time>2026-05-04T14:15:01.996Z</time></trkpt><trkpt lat="43.7658099" lon="11.3593829"><ele>167.4</ele><time>2026-05-04T14:15:02.995Z</time></trkpt><trkpt lat="43.7658724" lon="11.3595148"><ele>169.6</ele><time>2026-05-04T14:15:03.993Z</time></trkpt><trkpt lat="43.7659313" lon="11.3596486"><ele>171.79999999999998</ele><time>2026-05-04T14:15:04.995Z</time></trkpt><trkpt lat="43.7659815" lon="11.3597833"><ele>174.0</ele><time>2026-05-04T14:15:05.996Z</time></trkpt><trkpt lat="43.7660185" lon="11.359919"><ele>174.2</ele><time>2026-05-04T14:15:06.995Z</time></trkpt><trkpt lat="43.7660407" lon="11.3600588"><ele>174.39999999999998</ele><time>2026-05-04T14:15:07.997Z</time></trkpt><trkpt lat="43.766063" lon="11.3601997"><ele>174.6</ele><time>2026-05-04T14:15:08.996Z</time></trkpt><trkpt lat="43.7660841" lon="11.3603416"><ele>174.8</ele><time>2026-05-04T14:15:09.994Z</time></trkpt><trkpt lat="43.7661085" lon="11.3604788"><ele>175.0</ele><time>2026-05-04T14:15:10.996Z</time></trkpt><trkpt lat="43.7661317" lon="11.3606152"><ele>177.4</ele><time>2026-05-04T14:15:11.995Z</time></trkpt><trkpt lat="43.7661457" lon="11.3607531"><ele>179.8</ele><time>2026-05-04T14:15:12.998Z</time></trkpt><trkpt lat="43.7661522" lon="11.3608909"><ele>182.2</ele><time>2026-05-04T14:15:13.997Z</time></trkpt><trkpt lat="43.7661522" lon="11.3610317"><ele>184.6</ele><time>2026-05-04T14:15:14.997Z</time></trkpt><trkpt lat="43.766144" lon="11.3611715"><ele>187.0</ele><time>2026-05-04T14:15:15.995Z</time></trkpt><trkpt lat="43.7661286" lon="11.3613102"><ele>188.8</ele><time>2026-05-04T14:15:16.994Z</time></trkpt><trkpt lat="43.7661105" lon="11.361448"><ele>190.6</ele><time>2026-05-04T14:15:17.993Z</time></trkpt><trkpt lat="43.7660875" lon="11.3615838"><ele>192.4</ele><time>2026-05-04T14:15:18.994Z</time></trkpt><trkpt lat="43.7660589" lon="11.3617209"><ele>194.20000000000002</ele><time>2026-05-04T14:15:19.995Z</time></trkpt><trkpt lat="43.7660203" lon="11.3618574"><ele>196.0</ele><time>2026-05-04T14:15:20.999Z</time></trkpt><trkpt lat="43.7659742" lon="11.3619895"><ele>198.4</ele><time>2026-05-04T14:15:21.995Z</time></trkpt><trkpt lat="43.7659327" lon="11.3621099"><ele>200.8</ele><time>2026-05-04T14:15:22.996Z</time></trkpt><trkpt lat="43.7658971" lon="11.362228"><ele>203.20000000000002</ele><time>2026-05-04T14:15:23.995Z</time></trkpt><trkpt lat="43.7658603" lon="11.3623458"><ele>205.60000000000002</ele><time>2026-05-04T14:15:24.993Z</time></trkpt><trkpt lat="43.7658269" lon="11.362461"><ele>208.0</ele><time>2026-05-04T14:15:25.996Z</time></trkpt><trkpt lat="43.7657955" lon="11.3625692"><ele>208.33333333333331</ele><time>2026-05-04T14:15:26.994Z</time></trkpt><trkpt lat="43.7657548" lon="11.3626773"><ele>208.66666666666666</ele><time>2026-05-04T14:15:27.997Z</time></trkpt><trkpt lat="43.7657059" lon="11.3627831"><ele>209.0</ele><time>2026-05-04T14:15:28.993Z</time></trkpt><trkpt lat="43.7656491" lon="11.3628802"><ele>209.33333333333331</ele><time>2026-05-04T14:15:29.994Z</time></trkpt><trkpt lat="43.7655955" lon="11.3629478"><ele>209.66666666666666</ele><time>2026-05-04T14:15:30.993Z</time></trkpt><trkpt lat="43.7655342" lon="11.3630359"><ele>210.0</ele><time>2026-05-04T14:15:32.996Z</time></trkpt><trkpt lat="43.7655542" lon="11.3631442"><ele>212.4</ele><time>2026-05-04T14:15:35.995Z</time></trkpt><trkpt lat="43.7656466" lon="11.3632108"><ele>214.8</ele><time>2026-05-04T14:15:37.995Z</time></trkpt><trkpt lat="43.7657671" lon="11.3631795"><ele>217.2</ele><time>2026-05-04T14:15:39.996Z</time></trkpt><trkpt lat="43.7658303" lon="11.3631447"><ele>219.6</ele><time>2026-05-04T14:15:40.999Z</time></trkpt><trkpt lat="43.7658935" lon="11.3631245"><ele>222.0</ele><time>2026-05-04T14:15:41.994Z</time></trkpt><trkpt lat="43.7660028" lon="11.3631413"><ele>222.0</ele><time>2026-05-04T14:15:43.993Z</time></trkpt><trkpt lat="43.7659056" lon="11.3631228"><ele>222.0</ele><time>2026-05-04T14:16:08.996Z</time></trkpt><trkpt lat="43.7658434" lon="11.3631431"><ele>222.0</ele><time>2026-05-04T14:16:09.996Z</time></trkpt><trkpt lat="43.7657721" lon="11.3631663"><ele>222.0</ele><time>2026-05-04T14:16:10.996Z</time></trkpt><trkpt lat="43.7657082" lon="11.3631885"><ele>222.0</ele><time>2026-05-04T14:16:11.996Z</time></trkpt><trkpt lat="43.7656199" lon="11.3631948"><ele>222.0</ele><time>2026-05-04T14:16:13.995Z</time></trkpt><trkpt lat="43.7655545" lon="11.3631477"><ele>222.0</ele><time>2026-05-04T14:16:15.997Z</time></trkpt><trkpt lat="43.7655628" lon="11.3630447"><ele>222.0</ele><time>2026-05-04T14:16:21.996Z</time></trkpt><trkpt lat="43.7655815" lon="11.3629601"><ele>222.0</ele><time>2026-05-04T14:16:31.993Z</time></trkpt><trkpt lat="43.7656009" lon="11.3628729"><ele>222.0</ele><time>2026-05-04T14:16:33.996Z</time></trkpt><trkpt lat="43.7656206" lon="11.3627857"><ele>222.0</ele><time>2026-05-04T14:16:35.997Z</time></trkpt><trkpt lat="43.7656346" lon="11.3626938"><ele>222.0</ele><time>2026-05-04T14:16:37.995Z</time></trkpt><trkpt lat="43.765634" lon="11.3625762"><ele>222.0</ele><time>2026-05-04T14:16:40.993Z</time></trkpt><trkpt lat="43.7656306" lon="11.3624726"><ele>220.0</ele><time>2026-05-04T14:16:43.995Z</time></trkpt><trkpt lat="43.7656216" lon="11.3623696"><ele>218.0</ele><time>2026-05-04T14:16:47.996Z</time></trkpt><trkpt lat="43.7655844" lon="11.3622683"><ele>216.0</ele><time>2026-05-04T14:16:51.995Z</time></trkpt><trkpt lat="43.7655576" lon="11.3621804"><ele>214.0</ele><time>2026-05-04T14:16:54.995Z</time></trkpt><trkpt lat="43.7655159" lon="11.3620932"><ele>212.0</ele><time>2026-05-04T14:16:59.996Z</time></trkpt><trkpt lat="43.7654667" lon="11.3620007"><ele>210.0</ele><time>2026-05-04T14:17:03.996Z</time></trkpt><trkpt lat="43.7654007" lon="11.3619633"><ele>209.71428571428572</ele><time>2026-05-04T14:17:07.994Z</time></trkpt><trkpt lat="43.765326" lon="11.3619287"><ele>209.42857142857144</ele><time>2026-05-04T14:17:11.997Z</time></trkpt><trkpt lat="43.7652715" lon="11.361857"><ele>209.14285714285714</ele><time>2026-05-04T14:17:15.994Z</time></trkpt><trkpt lat="43.7652095" lon="11.3617792"><ele>208.85714285714286</ele><time>2026-05-04T14:17:18.996Z</time></trkpt><trkpt lat="43.7651627" lon="11.3617182"><ele>208.57142857142858</ele><time>2026-05-04T14:17:20.997Z</time></trkpt><trkpt lat="43.7651077" lon="11.361656"><ele>208.28571428571428</ele><time>2026-05-04T14:17:23Z</time></trkpt><trkpt lat="43.7650605" lon="11.3615867"><ele>208.0</ele><time>2026-05-04T14:17:24.996Z</time></trkpt><trkpt lat="43.7650215" lon="11.3615162"><ele>209.85714285714286</ele><time>2026-05-04T14:17:26.996Z</time></trkpt><trkpt lat="43.7649812" lon="11.3614288"><ele>211.71428571428572</ele><time>2026-05-04T14:17:29.993Z</time></trkpt><trkpt lat="43.7649492" lon="11.3613237"><ele>213.57142857142858</ele><time>2026-05-04T14:17:32.995Z</time></trkpt><trkpt lat="43.7649052" lon="11.361254"><ele>215.42857142857144</ele><time>2026-05-04T14:17:34.996Z</time></trkpt><trkpt lat="43.7648502" lon="11.3612102"><ele>217.28571428571428</ele><time>2026-05-04T14:17:37.996Z</time></trkpt><trkpt lat="43.764766" lon="11.36117"><ele>219.14285714285717</ele><time>2026-05-04T14:17:41.995Z</time></trkpt><trkpt lat="43.7646987" lon="11.361154"><ele>221.0</ele><time>2026-05-04T14:17:43.995Z</time></trkpt><trkpt lat="43.7646313" lon="11.3611298"><ele>221.00000000000003</ele><time>2026-05-04T14:17:45.994Z</time></trkpt><trkpt lat="43.7645432" lon="11.3610962"><ele>221.0</ele><time>2026-05-04T14:17:48.994Z</time></trkpt><trkpt lat="43.7644563" lon="11.3610705"><ele>221.0</ele><time>2026-05-04T14:17:51.996Z</time></trkpt><trkpt lat="43.7643827" lon="11.3610457"><ele>221.0</ele><time>2026-05-04T14:17:54.997Z</time></trkpt><trkpt lat="43.764302" lon="11.361004"><ele>221.00000000000003</ele><time>2026-05-04T14:17:57.994Z</time></trkpt><trkpt lat="43.7642063" lon="11.3609765"><ele>221.0</ele><time>2026-05-04T14:18:00.995Z</time></trkpt><trkpt lat="43.7641408" lon="11.3609592"><ele>223.33333333333334</ele><time>2026-05-04T14:18:02.993Z</time></trkpt><trkpt lat="43.7640682" lon="11.360942"><ele>225.66666666666669</ele><time>2026-05-04T14:18:04.994Z</time></trkpt><trkpt lat="43.7640005" lon="11.3609153"><ele>228.0</ele><time>2026-05-04T14:18:06.994Z</time></trkpt><trkpt lat="43.7639257" lon="11.3608472"><ele>230.33333333333331</ele><time>2026-05-04T14:18:09.997Z</time></trkpt><trkpt lat="43.7638812" lon="11.3607782"><ele>232.66666666666666</ele><time>2026-05-04T14:18:11.994Z</time></trkpt><trkpt lat="43.7638377" lon="11.360686"><ele>235.0</ele><time>2026-05-04T14:18:13.995Z</time></trkpt><trkpt lat="43.7637953" lon="11.3605937"><ele>235.83333333333331</ele><time>2026-05-04T14:18:15.996Z</time></trkpt><trkpt lat="43.7637542" lon="11.360511"><ele>236.66666666666666</ele><time>2026-05-04T14:18:17.994Z</time></trkpt><trkpt lat="43.7636933" lon="11.3604085"><ele>237.5</ele><time>2026-05-04T14:18:20.995Z</time></trkpt><trkpt lat="43.7636335" lon="11.3603348"><ele>238.33333333333331</ele><time>2026-05-04T14:18:23.996Z</time></trkpt><trkpt lat="43.7635588" lon="11.3602955"><ele>239.16666666666666</ele><time>2026-05-04T14:18:26.995Z</time></trkpt><trkpt lat="43.7634935" lon="11.3602745"><ele>240.0</ele><time>2026-05-04T14:18:29.994Z</time></trkpt><trkpt lat="43.7634325" lon="11.3602448"><ele>240.0</ele><time>2026-05-04T14:18:32.995Z</time></trkpt><trkpt lat="43.7633707" lon="11.3602188"><ele>240.0</ele><time>2026-05-04T14:18:35.994Z</time></trkpt><trkpt lat="43.7633007" lon="11.3602105"><ele>240.0</ele><time>2026-05-04T14:18:38.995Z</time></trkpt><trkpt lat="43.7632357" lon="11.3601832"><ele>240.0</ele><time>2026-05-04T14:18:41.995Z</time></trkpt><trkpt lat="43.763153" lon="11.3601432"><ele>240.0</ele><time>2026-05-04T14:18:45.995Z</time></trkpt><trkpt lat="43.7630717" lon="11.3601112"><ele>240.0</ele><time>2026-05-04T14:18:48.996Z</time></trkpt><trkpt lat="43.7629835" lon="11.3600818"><ele>240.0</ele><time>2026-05-04T14:18:51.994Z</time></trkpt><trkpt lat="43.7629195" lon="11.3600583"><ele>240.0</ele><time>2026-05-04T14:18:54.993Z</time></trkpt><trkpt lat="43.7628352" lon="11.3600493"><ele>240.0</ele><time>2026-05-04T14:18:58.997Z</time></trkpt><trkpt lat="43.7627525" lon="11.3600623"><ele>240.0</ele><time>2026-05-04T14:19:02.996Z</time></trkpt><trkpt lat="43.762691" lon="11.3600843"><ele>240.0</ele><time>2026-05-04T14:19:05.996Z</time></trkpt><trkpt lat="43.7626185" lon="11.3601118"><ele>240.0</ele><time>2026-05-04T14:19:08.995Z</time></trkpt><trkpt lat="43.7625587" lon="11.3601522"><ele>240.0</ele><time>2026-05-04T14:19:11.993Z</time></trkpt><trkpt lat="43.7624852" lon="11.3602018"><ele>241.83333333333334</ele><time>2026-05-04T14:19:15.998Z</time></trkpt><trkpt lat="43.7624253" lon="11.360236"><ele>243.66666666666669</ele><time>2026-05-04T14:19:18.995Z</time></trkpt><trkpt lat="43.7623588" lon="11.3602927"><ele>245.5</ele><time>2026-05-04T14:19:21.995Z</time></trkpt><trkpt lat="43.7622908" lon="11.360347"><ele>247.33333333333334</ele><time>2026-05-04T14:19:24.995Z</time></trkpt><trkpt lat="43.7622085" lon="11.3603837"><ele>249.16666666666669</ele><time>2026-05-04T14:19:27.996Z</time></trkpt><trkpt lat="43.7621242" lon="11.3604178"><ele>251.0</ele><time>2026-05-04T14:19:30.993Z</time></trkpt><trkpt lat="43.7620383" lon="11.3604515"><ele>251.00000000000003</ele><time>2026-05-04T14:19:33.994Z</time></trkpt><trkpt lat="43.7619485" lon="11.3604947"><ele>251.0</ele><time>2026-05-04T14:19:36.995Z</time></trkpt><trkpt lat="43.7618907" lon="11.3605753"><ele>251.0</ele><time>2026-05-04T14:19:40.998Z</time></trkpt><trkpt lat="43.7618198" lon="11.3606397"><ele>251.0</ele><time>2026-05-04T14:19:44.997Z</time></trkpt><trkpt lat="43.7617553" lon="11.360687"><ele>251.00000000000003</ele><time>2026-05-04T14:19:47.993Z</time></trkpt><trkpt lat="43.7616818" lon="11.3607257"><ele>251.0</ele><time>2026-05-04T14:19:50.994Z</time></trkpt><trkpt lat="43.7616048" lon="11.360771"><ele>254.66666666666669</ele><time>2026-05-04T14:19:53.996Z</time></trkpt><trkpt lat="43.7615402" lon="11.3608477"><ele>258.33333333333337</ele><time>2026-05-04T14:19:56.994Z</time></trkpt><trkpt lat="43.7614865" lon="11.3609103"><ele>262.0</ele><time>2026-05-04T14:19:58.998Z</time></trkpt><trkpt lat="43.7614272" lon="11.3609762"><ele>265.6666666666667</ele><time>2026-05-04T14:20:02.995Z</time></trkpt><trkpt lat="43.7613572" lon="11.360999"><ele>269.3333333333333</ele><time>2026-05-04T14:20:06.996Z</time></trkpt><trkpt lat="43.7612765" lon="11.3610095"><ele>273.0</ele><time>2026-05-04T14:20:09.996Z</time></trkpt><trkpt lat="43.761188" lon="11.3610298"><ele>273.0</ele><time>2026-05-04T14:20:12.995Z</time></trkpt><trkpt lat="43.7611113" lon="11.3610532"><ele>273.0</ele><time>2026-05-04T14:20:15.993Z</time></trkpt><trkpt lat="43.7610487" lon="11.3611105"><ele>273.0</ele><time>2026-05-04T14:20:18.994Z</time></trkpt><trkpt lat="43.7610015" lon="11.3611705"><ele>273.0</ele><time>2026-05-04T14:20:20.993Z</time></trkpt><trkpt lat="43.7609362" lon="11.361263"><ele>273.0</ele><time>2026-05-04T14:20:23.993Z</time></trkpt><trkpt lat="43.7608863" lon="11.3613165"><ele>273.0</ele><time>2026-05-04T14:20:25.994Z</time></trkpt><trkpt lat="43.760822" lon="11.3613868"><ele>275.2857142857143</ele><time>2026-05-04T14:20:28.994Z</time></trkpt><trkpt lat="43.7607772" lon="11.361464"><ele>277.57142857142856</ele><time>2026-05-04T14:20:31.993Z</time></trkpt><trkpt lat="43.7607445" lon="11.3615453"><ele>279.8571428571429</ele><time>2026-05-04T14:20:34.994Z</time></trkpt><trkpt lat="43.7607017" lon="11.3616358"><ele>282.1428571428571</ele><time>2026-05-04T14:20:39.002Z</time></trkpt><trkpt lat="43.7606505" lon="11.3617275"><ele>284.42857142857144</ele><time>2026-05-04T14:20:42.996Z</time></trkpt><trkpt lat="43.760603" lon="11.3617982"><ele>286.7142857142857</ele><time>2026-05-04T14:20:45.996Z</time></trkpt><trkpt lat="43.760555" lon="11.3618743"><ele>289.0</ele><time>2026-05-04T14:20:48.994Z</time></trkpt><trkpt lat="43.7604903" lon="11.3619418"><ele>289.0</ele><time>2026-05-04T14:20:51.997Z</time></trkpt><trkpt lat="43.7604283" lon="11.3620242"><ele>289.0</ele><time>2026-05-04T14:20:54.995Z</time></trkpt><trkpt lat="43.7603653" lon="11.3620905"><ele>289.0</ele><time>2026-05-04T14:20:57.994Z</time></trkpt><trkpt lat="43.760315" lon="11.3621487"><ele>289.0</ele><time>2026-05-04T14:21:52.992Z</time></trkpt><trkpt lat="43.7602625" lon="11.362227"><ele>289.0</ele><time>2026-05-04T14:21:56.992Z</time></trkpt><trkpt lat="43.76021" lon="11.3622787"><ele>289.0</ele><time>2026-05-04T14:22:00.994Z</time></trkpt><trkpt lat="43.7602575" lon="11.3623417"><ele>289.0</ele><time>2026-05-04T14:22:08.993Z</time></trkpt><trkpt lat="43.760321" lon="11.3623208"><ele>291.0</ele><time>2026-05-04T14:22:12.996Z</time></trkpt><trkpt lat="43.7603793" lon="11.3623577"><ele>293.0</ele><time>2026-05-04T14:22:15.995Z</time></trkpt><trkpt lat="43.7603998" lon="11.3624643"><ele>295.0</ele><time>2026-05-04T14:22:19.996Z</time></trkpt><trkpt lat="43.7603492" lon="11.3625367"><ele>297.0</ele><time>2026-05-04T14:22:22.994Z</time></trkpt><trkpt lat="43.760283" lon="11.362557"><ele>299.0</ele><time>2026-05-04T14:22:26.995Z</time></trkpt><trkpt lat="43.7602155" lon="11.3625922"><ele>301.0</ele><time>2026-05-04T14:22:30.994Z</time></trkpt><trkpt lat="43.7601632" lon="11.3626523"><ele>303.0</ele><time>2026-05-04T14:22:33.993Z</time></trkpt><trkpt lat="43.760109" lon="11.3626982"><ele>303.0</ele><time>2026-05-04T14:22:36.994Z</time></trkpt><trkpt lat="43.7600547" lon="11.3627623"><ele>303.0</ele><time>2026-05-04T14:22:41.993Z</time></trkpt><trkpt lat="43.7600148" lon="11.3628378"><ele>303.0</ele><time>2026-05-04T14:22:46.993Z</time></trkpt><trkpt lat="43.7599693" lon="11.362924"><ele>303.0</ele><time>2026-05-04T14:22:54.991Z</time></trkpt><trkpt lat="43.7599082" lon="11.3629835"><ele>303.0</ele><time>2026-05-04T14:22:59.994Z</time></trkpt><trkpt lat="43.7598532" lon="11.3630325"><ele>303.0</ele><time>2026-05-04T14:23:03.993Z</time></trkpt><trkpt lat="43.7597912" lon="11.3630693"><ele>303.0</ele><time>2026-05-04T14:23:06.994Z</time></trkpt><trkpt lat="43.7597238" lon="11.363131"><ele>305.14285714285717</ele><time>2026-05-04T14:23:10.999Z</time></trkpt><trkpt lat="43.7596643" lon="11.3632037"><ele>307.2857142857143</ele><time>2026-05-04T14:23:13.994Z</time></trkpt><trkpt lat="43.7596135" lon="11.3632785"><ele>309.42857142857144</ele><time>2026-05-04T14:23:16.994Z</time></trkpt><trkpt lat="43.7595505" lon="11.363345"><ele>311.57142857142856</ele><time>2026-05-04T14:23:20.998Z</time></trkpt><trkpt lat="43.7595147" lon="11.3634338"><ele>313.7142857142857</ele><time>2026-05-04T14:23:24.995Z</time></trkpt><trkpt lat="43.7594787" lon="11.3635235"><ele>315.85714285714283</ele><time>2026-05-04T14:23:28.995Z</time></trkpt><trkpt lat="43.759455" lon="11.3636075"><ele>318.0</ele><time>2026-05-04T14:23:33.995Z</time></trkpt><trkpt lat="43.7594215" lon="11.3636928"><ele>318.0</ele><time>2026-05-04T14:23:37.996Z</time></trkpt><trkpt lat="43.759398" lon="11.3637967"><ele>318.0</ele><time>2026-05-04T14:23:41.993Z</time></trkpt><trkpt lat="43.7593822" lon="11.3638837"><ele>318.0</ele><time>2026-05-04T14:23:44.994Z</time></trkpt><trkpt lat="43.7593518" lon="11.3639778"><ele>318.0</ele><time>2026-05-04T14:23:48.994Z</time></trkpt><trkpt lat="43.759319" lon="11.3640707"><ele>318.0</ele><time>2026-05-04T14:23:52.995Z</time></trkpt><trkpt lat="43.7592928" lon="11.3641635"><ele>318.0</ele><time>2026-05-04T14:23:58.993Z</time></trkpt><trkpt lat="43.7592712" lon="11.36425"><ele>318.0</ele><time>2026-05-04T14:24:02.994Z</time></trkpt><trkpt lat="43.7592407" lon="11.3643327"><ele>320.2857142857143</ele><time>2026-05-04T14:24:06.995Z</time></trkpt><trkpt lat="43.759203" lon="11.3644077"><ele>322.5714285714286</ele><time>2026-05-04T14:24:09.996Z</time></trkpt><trkpt lat="43.7591615" lon="11.364491"><ele>324.8571428571429</ele><time>2026-05-04T14:24:12.991Z</time></trkpt><trkpt lat="43.7591312" lon="11.3645697"><ele>327.1428571428571</ele><time>2026-05-04T14:24:15.995Z</time></trkpt><trkpt lat="43.7590773" lon="11.364642"><ele>329.42857142857144</ele><time>2026-05-04T14:24:18.993Z</time></trkpt><trkpt lat="43.759027" lon="11.3647208"><ele>331.7142857142857</ele><time>2026-05-04T14:24:21.994Z</time></trkpt><trkpt lat="43.7589833" lon="11.3647947"><ele>334.0</ele><time>2026-05-04T14:24:24.994Z</time></trkpt><trkpt lat="43.7590027" lon="11.3648883"><ele>335.42857142857144</ele><time>2026-05-04T14:24:31.994Z</time></trkpt><trkpt lat="43.7590652" lon="11.3649118"><ele>336.8571428571429</ele><time>2026-05-04T14:24:35.992Z</time></trkpt><trkpt lat="43.7591387" lon="11.3649155"><ele>338.28571428571433</ele><time>2026-05-04T14:24:39.995Z</time></trkpt><trkpt lat="43.759208" lon="11.3649202"><ele>339.7142857142857</ele><time>2026-05-04T14:24:43.991Z</time></trkpt><trkpt lat="43.759276" lon="11.3649142"><ele>341.14285714285717</ele><time>2026-05-04T14:24:47Z</time></trkpt><trkpt lat="43.7593442" lon="11.3649022"><ele>342.5714285714286</ele><time>2026-05-04T14:24:49.994Z</time></trkpt><trkpt lat="43.7594142" lon="11.3648743"><ele>344.0</ele><time>2026-05-04T14:24:52.994Z</time></trkpt><trkpt lat="43.7594653" lon="11.3648"><ele>344.14285714285717</ele><time>2026-05-04T14:24:57.993Z</time></trkpt><trkpt lat="43.7594948" lon="11.3647192"><ele>344.2857142857143</ele><time>2026-05-04T14:25:00.992Z</time></trkpt><trkpt lat="43.7595275" lon="11.3646302"><ele>344.42857142857144</ele><time>2026-05-04T14:25:04.993Z</time></trkpt><trkpt lat="43.759594" lon="11.3645613"><ele>344.57142857142856</ele><time>2026-05-04T14:25:08.993Z</time></trkpt><trkpt lat="43.7596512" lon="11.3645058"><ele>344.7142857142857</ele><time>2026-05-04T14:25:12.994Z</time></trkpt><trkpt lat="43.7597265" lon="11.364498"><ele>344.8571428571429</ele><time>2026-05-04T14:25:17.991Z</time></trkpt><trkpt lat="43.7597885" lon="11.3645345"><ele>345.0</ele><time>2026-05-04T14:25:22.995Z</time></trkpt><trkpt lat="43.7598582" lon="11.3645182"><ele>344.0</ele><time>2026-05-04T14:25:25.994Z</time></trkpt><trkpt lat="43.7599218" lon="11.3644922"><ele>343.0</ele><time>2026-05-04T14:25:28.993Z</time></trkpt><trkpt lat="43.7599975" lon="11.3644618"><ele>342.0</ele><time>2026-05-04T14:25:32.993Z</time></trkpt><trkpt lat="43.7600512" lon="11.3644163"><ele>341.0</ele><time>2026-05-04T14:25:34.994Z</time></trkpt><trkpt lat="43.7601312" lon="11.3643657"><ele>340.0</ele><time>2026-05-04T14:25:37.993Z</time></trkpt><trkpt lat="43.7602075" lon="11.3643432"><ele>339.0</ele><time>2026-05-04T14:25:40.996Z</time></trkpt><trkpt lat="43.7602778" lon="11.3643117"><ele>338.0</ele><time>2026-05-04T14:25:43.995Z</time></trkpt><trkpt lat="43.7603445" lon="11.3643097"><ele>338.0</ele><time>2026-05-04T14:25:47.996Z</time></trkpt><trkpt lat="43.7603372" lon="11.364397"><ele>338.0</ele><time>2026-05-04T14:25:52.995Z</time></trkpt><trkpt lat="43.7602878" lon="11.3644518"><ele>338.0</ele><time>2026-05-04T14:25:56.993Z</time></trkpt><trkpt lat="43.7602298" lon="11.3644987"><ele>338.0</ele><time>2026-05-04T14:26:00.994Z</time></trkpt><trkpt lat="43.7601667" lon="11.3645843"><ele>338.0</ele><time>2026-05-04T14:26:04.992Z</time></trkpt><trkpt lat="43.7601028" lon="11.3646635"><ele>338.0</ele><time>2026-05-04T14:26:07.996Z</time></trkpt><trkpt lat="43.7600438" lon="11.3647097"><ele>338.0</ele><time>2026-05-04T14:26:09.998Z</time></trkpt><trkpt lat="43.7599878" lon="11.3647687"><ele>339.0</ele><time>2026-05-04T14:26:11.995Z</time></trkpt><trkpt lat="43.7599468" lon="11.36485"><ele>340.0</ele><time>2026-05-04T14:26:14.991Z</time></trkpt><trkpt lat="43.7599122" lon="11.3649285"><ele>341.0</ele><time>2026-05-04T14:26:18.995Z</time></trkpt><trkpt lat="43.7598653" lon="11.365013"><ele>342.0</ele><time>2026-05-04T14:26:22.996Z</time></trkpt><trkpt lat="43.759815" lon="11.3650998"><ele>343.0</ele><time>2026-05-04T14:26:25.994Z</time></trkpt><trkpt lat="43.7597762" lon="11.3651767"><ele>344.0</ele><time>2026-05-04T14:26:27.997Z</time></trkpt><trkpt lat="43.7597273" lon="11.3652727"><ele>345.0</ele><time>2026-05-04T14:26:30.994Z</time></trkpt><trkpt lat="43.759663" lon="11.3653473"><ele>345.0</ele><time>2026-05-04T14:26:37.994Z</time></trkpt><trkpt lat="43.759631" lon="11.365456"><ele>345.0</ele><time>2026-05-04T14:26:41.996Z</time></trkpt><trkpt lat="43.759607" lon="11.3655375"><ele>345.0</ele><time>2026-05-04T14:26:44.995Z</time></trkpt><trkpt lat="43.759563" lon="11.3656222"><ele>345.0</ele><time>2026-05-04T14:26:47.994Z</time></trkpt><trkpt lat="43.759524" lon="11.3657077"><ele>345.0</ele><time>2026-05-04T14:26:51.996Z</time></trkpt><trkpt lat="43.7594888" lon="11.3657982"><ele>345.0</ele><time>2026-05-04T14:26:55.996Z</time></trkpt><trkpt lat="43.7594455" lon="11.3658975"><ele>345.2857142857143</ele><time>2026-05-04T14:26:59.994Z</time></trkpt><trkpt lat="43.759409" lon="11.3659775"><ele>345.57142857142856</ele><time>2026-05-04T14:27:02.996Z</time></trkpt><trkpt lat="43.7593675" lon="11.36606"><ele>345.8571428571429</ele><time>2026-05-04T14:27:05.994Z</time></trkpt><trkpt lat="43.7593228" lon="11.366145"><ele>346.1428571428571</ele><time>2026-05-04T14:27:08.996Z</time></trkpt><trkpt lat="43.7592857" lon="11.3662258"><ele>346.4285714285714</ele><time>2026-05-04T14:27:11.994Z</time></trkpt><trkpt lat="43.7592527" lon="11.3663095"><ele>346.7142857142857</ele><time>2026-05-04T14:27:14.993Z</time></trkpt><trkpt lat="43.759219" lon="11.3664185"><ele>347.0</ele><time>2026-05-04T14:27:17.994Z</time></trkpt><trkpt lat="43.7592" lon="11.3665442"><ele>350.6666666666667</ele><time>2026-05-04T14:27:20.995Z</time></trkpt><trkpt lat="43.759194" lon="11.366646"><ele>354.33333333333337</ele><time>2026-05-04T14:27:24.996Z</time></trkpt><trkpt lat="43.7592038" lon="11.3667353"><ele>358.0</ele><time>2026-05-04T14:27:29.995Z</time></trkpt><trkpt lat="43.759224" lon="11.3668418"><ele>361.6666666666667</ele><time>2026-05-04T14:27:32.995Z</time></trkpt><trkpt lat="43.7592388" lon="11.3669608"><ele>365.3333333333333</ele><time>2026-05-04T14:27:34.992Z</time></trkpt><trkpt lat="43.7592508" lon="11.3670907"><ele>369.0</ele><time>2026-05-04T14:27:36.996Z</time></trkpt><trkpt lat="43.7592718" lon="11.3672162"><ele>370.1666666666667</ele><time>2026-05-04T14:27:38.995Z</time></trkpt><trkpt lat="43.7592863" lon="11.3673477"><ele>371.3333333333333</ele><time>2026-05-04T14:27:40.995Z</time></trkpt><trkpt lat="43.759297" lon="11.367466"><ele>372.5</ele><time>2026-05-04T14:27:42.994Z</time></trkpt><trkpt lat="43.7592972" lon="11.367589"><ele>373.66666666666663</ele><time>2026-05-04T14:27:44.995Z</time></trkpt><trkpt lat="43.7593132" lon="11.3677022"><ele>374.8333333333333</ele><time>2026-05-04T14:27:46.994Z</time></trkpt><trkpt lat="43.7593342" lon="11.3678122"><ele>376.0</ele><time>2026-05-04T14:27:48.994Z</time></trkpt><trkpt lat="43.759346" lon="11.3679307"><ele>376.57142857142856</ele><time>2026-05-04T14:27:50.996Z</time></trkpt><trkpt lat="43.7593662" lon="11.3680317"><ele>377.1428571428571</ele><time>2026-05-04T14:27:52.993Z</time></trkpt><trkpt lat="43.7593848" lon="11.368126"><ele>377.7142857142857</ele><time>2026-05-04T14:27:54.993Z</time></trkpt><trkpt lat="43.7594083" lon="11.3682347"><ele>378.2857142857143</ele><time>2026-05-04T14:27:56.994Z</time></trkpt><trkpt lat="43.7594185" lon="11.3683432"><ele>378.8571428571429</ele><time>2026-05-04T14:27:58.999Z</time></trkpt><trkpt lat="43.7594192" lon="11.368433"><ele>379.42857142857144</ele><time>2026-05-04T14:28:00.993Z</time></trkpt><trkpt lat="43.7594117" lon="11.3685208"><ele>380.0</ele><time>2026-05-04T14:28:02.995Z</time></trkpt><trkpt lat="43.7594055" lon="11.3686137"><ele>380.0</ele><time>2026-05-04T14:28:04.994Z</time></trkpt><trkpt lat="43.759388" lon="11.3687172"><ele>380.0</ele><time>2026-05-04T14:28:06.993Z</time></trkpt><trkpt lat="43.759364" lon="11.3688268"><ele>380.0</ele><time>2026-05-04T14:28:08.994Z</time></trkpt><trkpt lat="43.7593417" lon="11.368934"><ele>380.0</ele><time>2026-05-04T14:28:10.993Z</time></trkpt><trkpt lat="43.759344" lon="11.3690443"><ele>380.0</ele><time>2026-05-04T14:28:12.992Z</time></trkpt><trkpt lat="43.7593438" lon="11.3691695"><ele>380.0</ele><time>2026-05-04T14:28:15.992Z</time></trkpt><trkpt lat="43.7593442" lon="11.3692682"><ele>380.42857142857144</ele><time>2026-05-04T14:28:17.994Z</time></trkpt><trkpt lat="43.7593383" lon="11.3693758"><ele>380.8571428571429</ele><time>2026-05-04T14:28:20.995Z</time></trkpt><trkpt lat="43.7593355" lon="11.3694643"><ele>381.2857142857143</ele><time>2026-05-04T14:28:22.994Z</time></trkpt><trkpt lat="43.7593313" lon="11.3695693"><ele>381.7142857142857</ele><time>2026-05-04T14:28:24.993Z</time></trkpt><trkpt lat="43.7593297" lon="11.3696695"><ele>382.1428571428571</ele><time>2026-05-04T14:28:26.993Z</time></trkpt><trkpt lat="43.7593367" lon="11.3697722"><ele>382.57142857142856</ele><time>2026-05-04T14:28:28.997Z</time></trkpt><trkpt lat="43.7593397" lon="11.3698698"><ele>383.0</ele><time>2026-05-04T14:28:30.993Z</time></trkpt><trkpt lat="43.7593482" lon="11.3699982"><ele>383.33333333333337</ele><time>2026-05-04T14:28:33.992Z</time></trkpt><trkpt lat="43.7594002" lon="11.370108"><ele>383.6666666666667</ele><time>2026-05-04T14:28:36.996Z</time></trkpt><trkpt lat="43.7594427" lon="11.3701885"><ele>384.0</ele><time>2026-05-04T14:28:38.991Z</time></trkpt><trkpt lat="43.7594835" lon="11.370281"><ele>384.33333333333337</ele><time>2026-05-04T14:28:40.994Z</time></trkpt><trkpt lat="43.7595237" lon="11.370377"><ele>384.6666666666667</ele><time>2026-05-04T14:28:42.993Z</time></trkpt><trkpt lat="43.7595625" lon="11.3704542"><ele>385.0</ele><time>2026-05-04T14:28:44.993Z</time></trkpt><trkpt lat="43.7595948" lon="11.3705548"><ele>385.00000000000006</ele><time>2026-05-04T14:28:46.993Z</time></trkpt><trkpt lat="43.7596205" lon="11.370674"><ele>385.0</ele><time>2026-05-04T14:28:48.994Z</time></trkpt><trkpt lat="43.7596218" lon="11.3707913"><ele>385.0</ele><time>2026-05-04T14:28:50.994Z</time></trkpt><trkpt lat="43.7595928" lon="11.3709015"><ele>385.0</ele><time>2026-05-04T14:28:52.994Z</time></trkpt><trkpt lat="43.7595297" lon="11.3709727"><ele>385.00000000000006</ele><time>2026-05-04T14:28:54.993Z</time></trkpt><trkpt lat="43.7594573" lon="11.3710105"><ele>385.0</ele><time>2026-05-04T14:28:56.993Z</time></trkpt><trkpt lat="43.7593918" lon="11.3710498"><ele>386.2</ele><time>2026-05-04T14:28:58.993Z</time></trkpt><trkpt lat="43.7593298" lon="11.3711275"><ele>387.4</ele><time>2026-05-04T14:29:03.992Z</time></trkpt><trkpt lat="43.7593215" lon="11.3712207"><ele>388.6</ele><time>2026-05-04T14:29:06.991Z</time></trkpt><trkpt lat="43.7593217" lon="11.3713608"><ele>389.8</ele><time>2026-05-04T14:29:09.992Z</time></trkpt><trkpt lat="43.759315" lon="11.3714947"><ele>391.0</ele><time>2026-05-04T14:29:11.991Z</time></trkpt><trkpt lat="43.7593017" lon="11.371639"><ele>391.00000000000006</ele><time>2026-05-04T14:29:13.992Z</time></trkpt><trkpt lat="43.759287" lon="11.3718015"><ele>391.0</ele><time>2026-05-04T14:29:15.994Z</time></trkpt><trkpt lat="43.7592837" lon="11.3718938"><ele>391.0</ele><time>2026-05-04T14:29:16.99Z</time></trkpt><trkpt lat="43.7592807" lon="11.371982"><ele>391.0</ele><time>2026-05-04T14:29:17.991Z</time></trkpt><trkpt lat="43.7592723" lon="11.3720718"><ele>391.00000000000006</ele><time>2026-05-04T14:29:18.992Z</time></trkpt><trkpt lat="43.7592653" lon="11.3721625"><ele>391.0</ele><time>2026-05-04T14:29:19.992Z</time></trkpt><trkpt lat="43.759245" lon="11.3723323"><ele>389.20000000000005</ele><time>2026-05-04T14:29:21.992Z</time></trkpt><trkpt lat="43.7592333" lon="11.3724717"><ele>387.40000000000003</ele><time>2026-05-04T14:29:23.993Z</time></trkpt><trkpt lat="43.7592262" lon="11.3726125"><ele>385.6</ele><time>2026-05-04T14:29:25.995Z</time></trkpt><trkpt lat="43.7592132" lon="11.3727542"><ele>383.8</ele><time>2026-05-04T14:29:27.994Z</time></trkpt><trkpt lat="43.759201" lon="11.3728712"><ele>382.0</ele><time>2026-05-04T14:29:29.992Z</time></trkpt><trkpt lat="43.759187" lon="11.3729847"><ele>380.66666666666663</ele><time>2026-05-04T14:29:33.993Z</time></trkpt><trkpt lat="43.759192" lon="11.3730887"><ele>379.3333333333333</ele><time>2026-05-04T14:29:37.997Z</time></trkpt><trkpt lat="43.759212" lon="11.3731928"><ele>378.0</ele><time>2026-05-04T14:29:40.004Z</time></trkpt><trkpt lat="43.7592528" lon="11.3733073"><ele>376.6666666666667</ele><time>2026-05-04T14:29:41.994Z</time></trkpt><trkpt lat="43.7592913" lon="11.373424"><ele>375.33333333333337</ele><time>2026-05-04T14:29:43.993Z</time></trkpt><trkpt lat="43.7593247" lon="11.3735335"><ele>374.0</ele><time>2026-05-04T14:29:45.995Z</time></trkpt><trkpt lat="43.7593502" lon="11.3736463"><ele>372.1666666666667</ele><time>2026-05-04T14:29:47.995Z</time></trkpt><trkpt lat="43.7593777" lon="11.3737557"><ele>370.33333333333337</ele><time>2026-05-04T14:29:49.993Z</time></trkpt><trkpt lat="43.7594028" lon="11.373864"><ele>368.5</ele><time>2026-05-04T14:29:51.993Z</time></trkpt><trkpt lat="43.7594175" lon="11.3739798"><ele>366.6666666666667</ele><time>2026-05-04T14:29:53.994Z</time></trkpt><trkpt lat="43.7594315" lon="11.3741015"><ele>364.8333333333333</ele><time>2026-05-04T14:29:55.992Z</time></trkpt><trkpt lat="43.759447" lon="11.374213"><ele>363.0</ele><time>2026-05-04T14:29:57.994Z</time></trkpt><trkpt lat="43.7594553" lon="11.374334"><ele>362.3333333333333</ele><time>2026-05-04T14:29:59.995Z</time></trkpt><trkpt lat="43.7594698" lon="11.3744608"><ele>361.6666666666667</ele><time>2026-05-04T14:30:01.993Z</time></trkpt><trkpt lat="43.7594863" lon="11.3745848"><ele>361.0</ele><time>2026-05-04T14:30:03.991Z</time></trkpt><trkpt lat="43.7594992" lon="11.3746793"><ele>360.33333333333337</ele><time>2026-05-04T14:30:05.993Z</time></trkpt><trkpt lat="43.7595065" lon="11.374806"><ele>359.6666666666667</ele><time>2026-05-04T14:30:08.994Z</time></trkpt><trkpt lat="43.7595192" lon="11.3749123"><ele>359.0</ele><time>2026-05-04T14:30:10.996Z</time></trkpt><trkpt lat="43.75954" lon="11.3750255"><ele>359.0</ele><time>2026-05-04T14:30:13Z</time></trkpt><trkpt lat="43.7595552" lon="11.3751707"><ele>359.0</ele><time>2026-05-04T14:30:14.999Z</time></trkpt><trkpt lat="43.7595628" lon="11.375329"><ele>359.0</ele><time>2026-05-04T14:30:16.991Z</time></trkpt><trkpt lat="43.7595738" lon="11.3754793"><ele>359.0</ele><time>2026-05-04T14:30:18.992Z</time></trkpt><trkpt lat="43.7595888" lon="11.3756278"><ele>359.0</ele><time>2026-05-04T14:30:20.992Z</time></trkpt><trkpt lat="43.7596015" lon="11.3757767"><ele>359.0</ele><time>2026-05-04T14:30:22.991Z</time></trkpt><trkpt lat="43.759613" lon="11.3758952"><ele>359.0</ele><time>2026-05-04T14:30:24.996Z</time></trkpt><trkpt lat="43.7595562" lon="11.3759577"><ele>359.0</ele><time>2026-05-04T14:30:50.992Z</time></trkpt><trkpt lat="43.7594788" lon="11.3759425"><ele>359.0</ele><time>2026-05-04T14:30:53.991Z</time></trkpt><trkpt lat="43.7594117" lon="11.3759038"><ele>359.0</ele><time>2026-05-04T14:30:55.993Z</time></trkpt><trkpt lat="43.7593323" lon="11.3758625"><ele>359.0</ele><time>2026-05-04T14:30:57.993Z</time></trkpt><trkpt lat="43.7592605" lon="11.3758253"><ele>359.6666666666667</ele><time>2026-05-04T14:30:59.996Z</time></trkpt><trkpt lat="43.759202" lon="11.3757838"><ele>360.33333333333337</ele><time>2026-05-04T14:31:01.997Z</time></trkpt><trkpt lat="43.7591198" lon="11.3757233"><ele>361.0</ele><time>2026-05-04T14:31:03.993Z</time></trkpt><trkpt lat="43.7590383" lon="11.3756807"><ele>361.6666666666667</ele><time>2026-05-04T14:31:05.991Z</time></trkpt><trkpt lat="43.7589445" lon="11.3756493"><ele>362.3333333333333</ele><time>2026-05-04T14:31:07.994Z</time></trkpt><trkpt lat="43.758859" lon="11.3756333"><ele>363.0</ele><time>2026-05-04T14:31:09.992Z</time></trkpt><trkpt lat="43.7587742" lon="11.3756492"><ele>363.0</ele><time>2026-05-04T14:31:11.993Z</time></trkpt><trkpt lat="43.7587057" lon="11.3757035"><ele>363.0</ele><time>2026-05-04T14:31:13.992Z</time></trkpt><trkpt lat="43.7586338" lon="11.375769"><ele>363.0</ele><time>2026-05-04T14:31:15.996Z</time></trkpt><trkpt lat="43.7585633" lon="11.3758342"><ele>363.0</ele><time>2026-05-04T14:31:17.993Z</time></trkpt><trkpt lat="43.7584985" lon="11.3758877"><ele>363.0</ele><time>2026-05-04T14:31:19.997Z</time></trkpt><trkpt lat="43.7584345" lon="11.3759512"><ele>363.0</ele><time>2026-05-04T14:31:21.993Z</time></trkpt><trkpt lat="43.7583607" lon="11.3759512"><ele>365.0</ele><time>2026-05-04T14:31:35.992Z</time></trkpt><trkpt lat="43.7582985" lon="11.3759142"><ele>367.0</ele><time>2026-05-04T14:31:39.995Z</time></trkpt><trkpt lat="43.7582225" lon="11.3758883"><ele>369.0</ele><time>2026-05-04T14:31:42.992Z</time></trkpt><trkpt lat="43.758139" lon="11.3758802"><ele>371.0</ele><time>2026-05-04T14:31:46.996Z</time></trkpt><trkpt lat="43.758067" lon="11.375878"><ele>373.0</ele><time>2026-05-04T14:31:49.994Z</time></trkpt><trkpt lat="43.7579845" lon="11.375889"><ele>375.0</ele><time>2026-05-04T14:31:52.991Z</time></trkpt><trkpt lat="43.7579118" lon="11.3759138"><ele>375.0</ele><time>2026-05-04T14:31:55.992Z</time></trkpt><trkpt lat="43.7578375" lon="11.375936"><ele>375.0</ele><time>2026-05-04T14:31:58.991Z</time></trkpt><trkpt lat="43.757768" lon="11.3759505"><ele>375.0</ele><time>2026-05-04T14:32:01.992Z</time></trkpt><trkpt lat="43.7576953" lon="11.3759587"><ele>375.0</ele><time>2026-05-04T14:32:04.991Z</time></trkpt><trkpt lat="43.7576152" lon="11.3759723"><ele>375.0</ele><time>2026-05-04T14:32:07.993Z</time></trkpt><trkpt lat="43.7575385" lon="11.3759665"><ele>375.0</ele><time>2026-05-04T14:32:09.991Z</time></trkpt><trkpt lat="43.7574712" lon="11.3759562"><ele>375.0</ele><time>2026-05-04T14:32:11.994Z</time></trkpt><trkpt lat="43.7573883" lon="11.3759642"><ele>378.0</ele><time>2026-05-04T14:32:14.992Z</time></trkpt><trkpt lat="43.7573483" lon="11.3760463"><ele>381.0</ele><time>2026-05-04T14:32:17.994Z</time></trkpt><trkpt lat="43.7573128" lon="11.3761253"><ele>384.0</ele><time>2026-05-04T14:32:20.992Z</time></trkpt><trkpt lat="43.7572653" lon="11.3761892"><ele>387.0</ele><time>2026-05-04T14:32:23.992Z</time></trkpt><trkpt lat="43.7571995" lon="11.3761658"><ele>390.0</ele><time>2026-05-04T14:32:26.99Z</time></trkpt><trkpt lat="43.7571592" lon="11.3760923"><ele>393.0</ele><time>2026-05-04T14:32:29.998Z</time></trkpt><trkpt lat="43.7571542" lon="11.3760047"><ele>396.0</ele><time>2026-05-04T14:32:32.994Z</time></trkpt><trkpt lat="43.7571525" lon="11.3758873"><ele>396.0</ele><time>2026-05-04T14:32:35.993Z</time></trkpt><trkpt lat="43.7571542" lon="11.3757675"><ele>396.0</ele><time>2026-05-04T14:32:38.992Z</time></trkpt><trkpt lat="43.7571465" lon="11.3756543"><ele>396.0</ele><time>2026-05-04T14:32:41.994Z</time></trkpt><trkpt lat="43.7571375" lon="11.375566"><ele>396.0</ele><time>2026-05-04T14:32:44.992Z</time></trkpt><trkpt lat="43.7571417" lon="11.3754607"><ele>396.0</ele><time>2026-05-04T14:32:49.991Z</time></trkpt><trkpt lat="43.757157" lon="11.3753337"><ele>396.0</ele><time>2026-05-04T14:32:52.992Z</time></trkpt><trkpt lat="43.7571663" lon="11.3752407"><ele>396.7142857142857</ele><time>2026-05-04T14:32:54.998Z</time></trkpt><trkpt lat="43.7571752" lon="11.3751318"><ele>397.4285714285714</ele><time>2026-05-04T14:32:56.992Z</time></trkpt><trkpt lat="43.7571812" lon="11.375041"><ele>398.1428571428571</ele><time>2026-05-04T14:32:58.992Z</time></trkpt><trkpt lat="43.7571885" lon="11.37493"><ele>398.8571428571429</ele><time>2026-05-04T14:33:01.993Z</time></trkpt><trkpt lat="43.757179" lon="11.3748332"><ele>399.57142857142856</ele><time>2026-05-04T14:33:04.993Z</time></trkpt><trkpt lat="43.7571727" lon="11.3747247"><ele>400.2857142857143</ele><time>2026-05-04T14:33:07.994Z</time></trkpt><trkpt lat="43.7571655" lon="11.3746292"><ele>401.0</ele><time>2026-05-04T14:33:10.993Z</time></trkpt><trkpt lat="43.7571648" lon="11.3745102"><ele>401.8333333333333</ele><time>2026-05-04T14:33:13.992Z</time></trkpt><trkpt lat="43.7571457" lon="11.3744212"><ele>402.66666666666663</ele><time>2026-05-04T14:33:15.991Z</time></trkpt><trkpt lat="43.7571263" lon="11.3743345"><ele>403.5</ele><time>2026-05-04T14:33:17.992Z</time></trkpt><trkpt lat="43.757101" lon="11.3742185"><ele>404.33333333333337</ele><time>2026-05-04T14:33:20.992Z</time></trkpt><trkpt lat="43.7570697" lon="11.3741108"><ele>405.1666666666667</ele><time>2026-05-04T14:33:23.994Z</time></trkpt><trkpt lat="43.7570435" lon="11.3740178"><ele>406.0</ele><time>2026-05-04T14:33:27.995Z</time></trkpt><trkpt lat="43.7570278" lon="11.3739127"><ele>406.57142857142856</ele><time>2026-05-04T14:33:32.992Z</time></trkpt><trkpt lat="43.7569982" lon="11.3738152"><ele>407.1428571428571</ele><time>2026-05-04T14:33:36.993Z</time></trkpt><trkpt lat="43.7569917" lon="11.3737265"><ele>407.7142857142857</ele><time>2026-05-04T14:33:39.991Z</time></trkpt><trkpt lat="43.756968" lon="11.3736195"><ele>408.2857142857143</ele><time>2026-05-04T14:33:42.993Z</time></trkpt><trkpt lat="43.7569393" lon="11.373539"><ele>408.85714285714283</ele><time>2026-05-04T14:33:45.994Z</time></trkpt><trkpt lat="43.7569008" lon="11.3734412"><ele>409.42857142857144</ele><time>2026-05-04T14:33:49.993Z</time></trkpt><trkpt lat="43.7568468" lon="11.3733905"><ele>410.0</ele><time>2026-05-04T14:33:53.992Z</time></trkpt><trkpt lat="43.7567843" lon="11.3733755"><ele>430.0</ele><time>2026-05-04T14:33:56.992Z</time></trkpt><trkpt lat="43.756743" lon="11.3733088"><ele>430.0</ele><time>2026-05-04T14:34:09.991Z</time></trkpt><trkpt lat="43.7567215" lon="11.3732227"><ele>430.0</ele><time>2026-05-04T14:34:15.992Z</time></trkpt></trkseg><trkseg><trkpt lat="43.7567333" lon="11.3731222"><ele>430.0</ele><time>2026-05-04T14:46:08.983Z</time></trkpt><trkpt lat="43.7567078" lon="11.373031"><ele>430.0</ele><time>2026-05-04T14:46:11.982Z</time></trkpt><trkpt lat="43.7567007" lon="11.3729152"><ele>430.0</ele><time>2026-05-04T14:46:14.985Z</time></trkpt><trkpt lat="43.7567153" lon="11.372825"><ele>430.0</ele><time>2026-05-04T14:46:17.986Z</time></trkpt><trkpt lat="43.7567318" lon="11.3727278"><ele>430.0</ele><time>2026-05-04T14:46:20.984Z</time></trkpt><trkpt lat="43.7567372" lon="11.3726302"><ele>430.0</ele><time>2026-05-04T14:46:22.985Z</time></trkpt><trkpt lat="43.7567308" lon="11.3725143"><ele>430.0</ele><time>2026-05-04T14:46:24.984Z</time></trkpt><trkpt lat="43.7567288" lon="11.3723962"><ele>430.6666666666667</ele><time>2026-05-04T14:46:26.987Z</time></trkpt><trkpt lat="43.7567413" lon="11.372277"><ele>431.33333333333337</ele><time>2026-05-04T14:46:28.987Z</time></trkpt><trkpt lat="43.7567607" lon="11.3721717"><ele>432.0</ele><time>2026-05-04T14:46:30.984Z</time></trkpt><trkpt lat="43.7567758" lon="11.3720777"><ele>432.66666666666663</ele><time>2026-05-04T14:46:32.984Z</time></trkpt><trkpt lat="43.7567867" lon="11.3719482"><ele>433.3333333333333</ele><time>2026-05-04T14:46:35.984Z</time></trkpt><trkpt lat="43.7567862" lon="11.3718577"><ele>434.0</ele><time>2026-05-04T14:46:37.984Z</time></trkpt><trkpt lat="43.7567875" lon="11.3717303"><ele>435.16666666666663</ele><time>2026-05-04T14:46:40.986Z</time></trkpt><trkpt lat="43.7567995" lon="11.3716118"><ele>436.3333333333333</ele><time>2026-05-04T14:46:43.984Z</time></trkpt><trkpt lat="43.7567935" lon="11.371479"><ele>437.5</ele><time>2026-05-04T14:46:46.992Z</time></trkpt><trkpt lat="43.7567783" lon="11.371378"><ele>438.66666666666663</ele><time>2026-05-04T14:46:48.983Z</time></trkpt><trkpt lat="43.756767" lon="11.3712713"><ele>439.8333333333333</ele><time>2026-05-04T14:46:50.986Z</time></trkpt><trkpt lat="43.756786" lon="11.3711637"><ele>441.0</ele><time>2026-05-04T14:46:52.987Z</time></trkpt><trkpt lat="43.7568118" lon="11.3710768"><ele>440.85714285714283</ele><time>2026-05-04T14:46:54.986Z</time></trkpt><trkpt lat="43.7568303" lon="11.370988"><ele>440.7142857142857</ele><time>2026-05-04T14:46:57.982Z</time></trkpt><trkpt lat="43.756841" lon="11.370898"><ele>440.57142857142856</ele><time>2026-05-04T14:47:00.985Z</time></trkpt><trkpt lat="43.7568718" lon="11.370811"><ele>440.42857142857144</ele><time>2026-05-04T14:47:03.985Z</time></trkpt><trkpt lat="43.7569217" lon="11.3707152"><ele>440.2857142857143</ele><time>2026-05-04T14:47:06.987Z</time></trkpt><trkpt lat="43.7569428" lon="11.3706233"><ele>440.1428571428571</ele><time>2026-05-04T14:47:09.984Z</time></trkpt><trkpt lat="43.7569518" lon="11.3705232"><ele>440.0</ele><time>2026-05-04T14:47:12.985Z</time></trkpt><trkpt lat="43.7569693" lon="11.3704062"><ele>440.1428571428571</ele><time>2026-05-04T14:47:15.982Z</time></trkpt><trkpt lat="43.7569578" lon="11.3703202"><ele>440.2857142857143</ele><time>2026-05-04T14:47:17.984Z</time></trkpt><trkpt lat="43.7569462" lon="11.37023"><ele>440.42857142857144</ele><time>2026-05-04T14:47:19.986Z</time></trkpt><trkpt lat="43.7569217" lon="11.3701125"><ele>440.57142857142856</ele><time>2026-05-04T14:47:22.985Z</time></trkpt><trkpt lat="43.7568918" lon="11.3699948"><ele>440.7142857142857</ele><time>2026-05-04T14:47:25.984Z</time></trkpt><trkpt lat="43.756877" lon="11.3698972"><ele>440.85714285714283</ele><time>2026-05-04T14:47:27.987Z</time></trkpt><trkpt lat="43.7568583" lon="11.36981"><ele>441.0</ele><time>2026-05-04T14:47:29.984Z</time></trkpt><trkpt lat="43.7568263" lon="11.3697118"><ele>440.6666666666667</ele><time>2026-05-04T14:47:31.982Z</time></trkpt><trkpt lat="43.7567887" lon="11.3696113"><ele>440.33333333333337</ele><time>2026-05-04T14:47:33.985Z</time></trkpt><trkpt lat="43.756758" lon="11.3695152"><ele>440.0</ele><time>2026-05-04T14:47:35.984Z</time></trkpt><trkpt lat="43.756726" lon="11.36943"><ele>439.6666666666667</ele><time>2026-05-04T14:47:37.983Z</time></trkpt><trkpt lat="43.7566992" lon="11.3693423"><ele>439.33333333333337</ele><time>2026-05-04T14:47:39.985Z</time></trkpt><trkpt lat="43.7566757" lon="11.3692385"><ele>439.0</ele><time>2026-05-04T14:47:41.985Z</time></trkpt><trkpt lat="43.7566368" lon="11.3691263"><ele>439.00000000000006</ele><time>2026-05-04T14:47:43.985Z</time></trkpt><trkpt lat="43.7566145" lon="11.3690083"><ele>439.0</ele><time>2026-05-04T14:47:45.984Z</time></trkpt><trkpt lat="43.7565915" lon="11.3689135"><ele>439.0</ele><time>2026-05-04T14:47:47.986Z</time></trkpt><trkpt lat="43.7565752" lon="11.3688057"><ele>439.0</ele><time>2026-05-04T14:47:50.985Z</time></trkpt><trkpt lat="43.7565755" lon="11.3686873"><ele>439.00000000000006</ele><time>2026-05-04T14:47:57.988Z</time></trkpt><trkpt lat="43.7565472" lon="11.3685912"><ele>439.0</ele><time>2026-05-04T14:48:01.985Z</time></trkpt><trkpt lat="43.7565303" lon="11.3685072"><ele>438.0</ele><time>2026-05-04T14:48:04.988Z</time></trkpt><trkpt lat="43.7565118" lon="11.3684107"><ele>437.0</ele><time>2026-05-04T14:48:07.983Z</time></trkpt><trkpt lat="43.7564828" lon="11.3683167"><ele>436.0</ele><time>2026-05-04T14:48:11.987Z</time></trkpt><trkpt lat="43.756495" lon="11.3682193"><ele>435.0</ele><time>2026-05-04T14:48:16.984Z</time></trkpt><trkpt lat="43.7564845" lon="11.3681228"><ele>434.0</ele><time>2026-05-04T14:48:21.984Z</time></trkpt><trkpt lat="43.756466" lon="11.3680388"><ele>433.0</ele><time>2026-05-04T14:48:24.983Z</time></trkpt><trkpt lat="43.7564635" lon="11.3679248"><ele>432.0</ele><time>2026-05-04T14:48:28.985Z</time></trkpt><trkpt lat="43.7564603" lon="11.3678292"><ele>430.2857142857143</ele><time>2026-05-04T14:48:31.984Z</time></trkpt><trkpt lat="43.75644" lon="11.367729"><ele>428.57142857142856</ele><time>2026-05-04T14:48:35.985Z</time></trkpt><trkpt lat="43.7564282" lon="11.367617"><ele>426.8571428571429</ele><time>2026-05-04T14:48:39.983Z</time></trkpt><trkpt lat="43.7564117" lon="11.3675328"><ele>425.1428571428571</ele><time>2026-05-04T14:48:42.988Z</time></trkpt><trkpt lat="43.7563987" lon="11.3674427"><ele>423.42857142857144</ele><time>2026-05-04T14:48:45.986Z</time></trkpt><trkpt lat="43.7563917" lon="11.3673168"><ele>421.7142857142857</ele><time>2026-05-04T14:48:48.99Z</time></trkpt><trkpt lat="43.7564003" lon="11.3672277"><ele>420.0</ele><time>2026-05-04T14:48:50.986Z</time></trkpt><trkpt lat="43.7564113" lon="11.3671303"><ele>418.42857142857144</ele><time>2026-05-04T14:48:52.983Z</time></trkpt><trkpt lat="43.7564262" lon="11.3670322"><ele>416.8571428571429</ele><time>2026-05-04T14:48:54.983Z</time></trkpt><trkpt lat="43.7564368" lon="11.3669235"><ele>415.2857142857143</ele><time>2026-05-04T14:48:56.986Z</time></trkpt><trkpt lat="43.7564352" lon="11.3668218"><ele>413.7142857142857</ele><time>2026-05-04T14:48:58.984Z</time></trkpt><trkpt lat="43.7564235" lon="11.3667323"><ele>412.14285714285717</ele><time>2026-05-04T14:49:00.984Z</time></trkpt><trkpt lat="43.756413" lon="11.3666408"><ele>410.57142857142856</ele><time>2026-05-04T14:49:02.984Z</time></trkpt><trkpt lat="43.756423" lon="11.3665438"><ele>409.0</ele><time>2026-05-04T14:49:04.984Z</time></trkpt><trkpt lat="43.7564183" lon="11.3664217"><ele>408.50000000000006</ele><time>2026-05-04T14:49:07.984Z</time></trkpt><trkpt lat="43.7564378" lon="11.3662973"><ele>408.0</ele><time>2026-05-04T14:49:10.984Z</time></trkpt><trkpt lat="43.7564803" lon="11.366186"><ele>407.5</ele><time>2026-05-04T14:49:12.984Z</time></trkpt><trkpt lat="43.7565222" lon="11.3660712"><ele>407.0</ele><time>2026-05-04T14:49:14.984Z</time></trkpt><trkpt lat="43.756541" lon="11.3659812"><ele>406.50000000000006</ele><time>2026-05-04T14:49:16.983Z</time></trkpt><trkpt lat="43.7565377" lon="11.3658603"><ele>406.0</ele><time>2026-05-04T14:49:19.985Z</time></trkpt><trkpt lat="43.7565205" lon="11.3657497"><ele>406.00000000000006</ele><time>2026-05-04T14:49:21.982Z</time></trkpt><trkpt lat="43.7565137" lon="11.3656332"><ele>406.0</ele><time>2026-05-04T14:49:23.986Z</time></trkpt><trkpt lat="43.756516" lon="11.3655348"><ele>406.0</ele><time>2026-05-04T14:49:25.983Z</time></trkpt><trkpt lat="43.7565322" lon="11.3654075"><ele>406.0</ele><time>2026-05-04T14:49:28.985Z</time></trkpt><trkpt lat="43.7565037" lon="11.3652852"><ele>406.00000000000006</ele><time>2026-05-04T14:49:31.986Z</time></trkpt><trkpt lat="43.7564633" lon="11.3652105"><ele>406.0</ele><time>2026-05-04T14:49:33.99Z</time></trkpt><trkpt lat="43.7564117" lon="11.3651162"><ele>406.0</ele><time>2026-05-04T14:49:36.986Z</time></trkpt><trkpt lat="43.7563685" lon="11.365019"><ele>406.0</ele><time>2026-05-04T14:49:39.986Z</time></trkpt><trkpt lat="43.756348" lon="11.364934"><ele>406.0</ele><time>2026-05-04T14:49:41.985Z</time></trkpt><trkpt lat="43.756343" lon="11.36484"><ele>406.0</ele><time>2026-05-04T14:49:43.984Z</time></trkpt><trkpt lat="43.7563573" lon="11.3647512"><ele>406.0</ele><time>2026-05-04T14:49:45.985Z</time></trkpt><trkpt lat="43.7563845" lon="11.3646523"><ele>406.0</ele><time>2026-05-04T14:49:47.983Z</time></trkpt><trkpt lat="43.7563905" lon="11.3645297"><ele>406.0</ele><time>2026-05-04T14:49:49.985Z</time></trkpt><trkpt lat="43.7563773" lon="11.3644085"><ele>406.00000000000006</ele><time>2026-05-04T14:49:51.984Z</time></trkpt><trkpt lat="43.7563755" lon="11.3642975"><ele>406.0</ele><time>2026-05-04T14:49:53.983Z</time></trkpt><trkpt lat="43.7563863" lon="11.3642097"><ele>406.0</ele><time>2026-05-04T14:49:55.985Z</time></trkpt><trkpt lat="43.7563883" lon="11.3640825"><ele>406.0</ele><time>2026-05-04T14:49:58.982Z</time></trkpt><trkpt lat="43.7563862" lon="11.3639867"><ele>406.00000000000006</ele><time>2026-05-04T14:50:00.985Z</time></trkpt><trkpt lat="43.7563952" lon="11.3638655"><ele>406.0</ele><time>2026-05-04T14:50:02.991Z</time></trkpt><trkpt lat="43.756397" lon="11.3637292"><ele>406.1666666666667</ele><time>2026-05-04T14:50:04.985Z</time></trkpt><trkpt lat="43.7563968" lon="11.3636165"><ele>406.33333333333337</ele><time>2026-05-04T14:50:06.985Z</time></trkpt><trkpt lat="43.7563953" lon="11.3635277"><ele>406.5</ele><time>2026-05-04T14:50:09.984Z</time></trkpt><trkpt lat="43.7563922" lon="11.3634212"><ele>406.66666666666663</ele><time>2026-05-04T14:50:12.985Z</time></trkpt><trkpt lat="43.7563822" lon="11.3632852"><ele>406.8333333333333</ele><time>2026-05-04T14:50:15.984Z</time></trkpt><trkpt lat="43.756373" lon="11.3631708"><ele>407.0</ele><time>2026-05-04T14:50:17.981Z</time></trkpt><trkpt lat="43.7563717" lon="11.3630492"><ele>407.66666666666663</ele><time>2026-05-04T14:50:19.984Z</time></trkpt><trkpt lat="43.7563772" lon="11.3629332"><ele>408.3333333333333</ele><time>2026-05-04T14:50:21.985Z</time></trkpt><trkpt lat="43.756377" lon="11.3628307"><ele>409.0</ele><time>2026-05-04T14:50:23.982Z</time></trkpt><trkpt lat="43.7563852" lon="11.3627282"><ele>409.66666666666663</ele><time>2026-05-04T14:50:26.987Z</time></trkpt><trkpt lat="43.7563892" lon="11.362616"><ele>410.3333333333333</ele><time>2026-05-04T14:50:29.984Z</time></trkpt><trkpt lat="43.7563987" lon="11.3625067"><ele>411.0</ele><time>2026-05-04T14:50:32.985Z</time></trkpt><trkpt lat="43.7564147" lon="11.3624208"><ele>411.0</ele><time>2026-05-04T14:50:34.986Z</time></trkpt><trkpt lat="43.7564382" lon="11.362297"><ele>411.0</ele><time>2026-05-04T14:50:37.984Z</time></trkpt><trkpt lat="43.7564468" lon="11.3621702"><ele>411.0</ele><time>2026-05-04T14:50:40.987Z</time></trkpt><trkpt lat="43.7564505" lon="11.3620423"><ele>411.0</ele><time>2026-05-04T14:50:43.983Z</time></trkpt><trkpt lat="43.7564583" lon="11.3619412"><ele>411.0</ele><time>2026-05-04T14:50:45.984Z</time></trkpt><trkpt lat="43.7564588" lon="11.3618317"><ele>411.0</ele><time>2026-05-04T14:50:47.983Z</time></trkpt><trkpt lat="43.7564557" lon="11.3617157"><ele>412.0</ele><time>2026-05-04T14:50:49.983Z</time></trkpt><trkpt lat="43.7564427" lon="11.3615845"><ele>413.0</ele><time>2026-05-04T14:50:51.984Z</time></trkpt><trkpt lat="43.756417" lon="11.3614593"><ele>414.0</ele><time>2026-05-04T14:50:53.983Z</time></trkpt><trkpt lat="43.7563982" lon="11.361335"><ele>415.0</ele><time>2026-05-04T14:50:55.983Z</time></trkpt><trkpt lat="43.7563898" lon="11.3612188"><ele>416.0</ele><time>2026-05-04T14:50:57.982Z</time></trkpt><trkpt lat="43.756399" lon="11.3610858"><ele>416.8333333333333</ele><time>2026-05-04T14:50:59.982Z</time></trkpt><trkpt lat="43.7564173" lon="11.3609248"><ele>417.66666666666663</ele><time>2026-05-04T14:51:01.983Z</time></trkpt><trkpt lat="43.756434" lon="11.3608407"><ele>418.5</ele><time>2026-05-04T14:51:02.983Z</time></trkpt><trkpt lat="43.756465" lon="11.3606965"><ele>419.33333333333337</ele><time>2026-05-04T14:51:04.985Z</time></trkpt><trkpt lat="43.756488" lon="11.3605977"><ele>420.1666666666667</ele><time>2026-05-04T14:51:06.984Z</time></trkpt><trkpt lat="43.7564928" lon="11.3605092"><ele>421.0</ele><time>2026-05-04T14:51:08.986Z</time></trkpt><trkpt lat="43.7564957" lon="11.3604033"><ele>421.33333333333337</ele><time>2026-05-04T14:51:10.987Z</time></trkpt><trkpt lat="43.7565018" lon="11.360292"><ele>421.6666666666667</ele><time>2026-05-04T14:51:12.987Z</time></trkpt><trkpt lat="43.7565017" lon="11.3601975"><ele>422.0</ele><time>2026-05-04T14:51:14.984Z</time></trkpt><trkpt lat="43.7564907" lon="11.3600667"><ele>422.33333333333337</ele><time>2026-05-04T14:51:17.983Z</time></trkpt><trkpt lat="43.7565065" lon="11.3599697"><ele>422.6666666666667</ele><time>2026-05-04T14:51:19.982Z</time></trkpt><trkpt lat="43.7565258" lon="11.3598648"><ele>423.0</ele><time>2026-05-04T14:51:21.982Z</time></trkpt><trkpt lat="43.7565302" lon="11.3597378"><ele>424.0</ele><time>2026-05-04T14:51:23.983Z</time></trkpt><trkpt lat="43.756533" lon="11.3596185"><ele>425.0</ele><time>2026-05-04T14:51:25.984Z</time></trkpt><trkpt lat="43.756544" lon="11.3595227"><ele>426.0</ele><time>2026-05-04T14:51:27.982Z</time></trkpt><trkpt lat="43.7565655" lon="11.3594347"><ele>427.0</ele><time>2026-05-04T14:51:29.982Z</time></trkpt><trkpt lat="43.756572" lon="11.3593443"><ele>428.0</ele><time>2026-05-04T14:51:31.984Z</time></trkpt><trkpt lat="43.7565858" lon="11.3592453"><ele>429.0</ele><time>2026-05-04T14:51:33.984Z</time></trkpt><trkpt lat="43.7565963" lon="11.35914"><ele>430.0</ele><time>2026-05-04T14:51:35.988Z</time></trkpt><trkpt lat="43.756608" lon="11.3590342"><ele>430.0</ele><time>2026-05-04T14:51:37.984Z</time></trkpt><trkpt lat="43.7566215" lon="11.3589353"><ele>430.0</ele><time>2026-05-04T14:51:39.985Z</time></trkpt><trkpt lat="43.7566327" lon="11.3588405"><ele>430.0</ele><time>2026-05-04T14:51:41.987Z</time></trkpt><trkpt lat="43.7566485" lon="11.3587558"><ele>430.0</ele><time>2026-05-04T14:51:43.986Z</time></trkpt><trkpt lat="43.7566593" lon="11.3586675"><ele>430.0</ele><time>2026-05-04T14:51:45.983Z</time></trkpt><trkpt lat="43.7566707" lon="11.358575"><ele>430.0</ele><time>2026-05-04T14:51:47.984Z</time></trkpt><trkpt lat="43.756676" lon="11.358481"><ele>430.0</ele><time>2026-05-04T14:51:49.982Z</time></trkpt><trkpt lat="43.7566688" lon="11.358367"><ele>430.1428571428571</ele><time>2026-05-04T14:51:51.984Z</time></trkpt><trkpt lat="43.7566632" lon="11.3582562"><ele>430.28571428571433</ele><time>2026-05-04T14:51:53.985Z</time></trkpt><trkpt lat="43.7566648" lon="11.3581445"><ele>430.42857142857144</ele><time>2026-05-04T14:51:56.983Z</time></trkpt><trkpt lat="43.7566542" lon="11.3580463"><ele>430.57142857142856</ele><time>2026-05-04T14:51:58.985Z</time></trkpt><trkpt lat="43.75663" lon="11.3579508"><ele>430.71428571428567</ele><time>2026-05-04T14:52:00.991Z</time></trkpt><trkpt lat="43.7566088" lon="11.3578592"><ele>430.8571428571429</ele><time>2026-05-04T14:52:02.981Z</time></trkpt><trkpt lat="43.7565777" lon="11.3577783"><ele>431.0</ele><time>2026-05-04T14:52:04.985Z</time></trkpt><trkpt lat="43.7565627" lon="11.3576597"><ele>431.0</ele><time>2026-05-04T14:52:07.988Z</time></trkpt><trkpt lat="43.7565593" lon="11.3575715"><ele>431.0</ele><time>2026-05-04T14:52:13.982Z</time></trkpt><trkpt lat="43.7565523" lon="11.3574692"><ele>431.0</ele><time>2026-05-04T14:52:17.984Z</time></trkpt><trkpt lat="43.7565297" lon="11.3573658"><ele>431.0</ele><time>2026-05-04T14:52:20.986Z</time></trkpt><trkpt lat="43.756513" lon="11.3572743"><ele>431.0</ele><time>2026-05-04T14:52:23.982Z</time></trkpt><trkpt lat="43.7564962" lon="11.3571855"><ele>431.0</ele><time>2026-05-04T14:52:26.981Z</time></trkpt><trkpt lat="43.7564958" lon="11.3570878"><ele>431.0</ele><time>2026-05-04T14:52:29.986Z</time></trkpt><trkpt lat="43.7564953" lon="11.3569915"><ele>429.66666666666663</ele><time>2026-05-04T14:52:32.987Z</time></trkpt><trkpt lat="43.7565025" lon="11.3568765"><ele>428.3333333333333</ele><time>2026-05-04T14:52:36.984Z</time></trkpt><trkpt lat="43.7565062" lon="11.3567838"><ele>427.0</ele><time>2026-05-04T14:52:39.983Z</time></trkpt><trkpt lat="43.7565108" lon="11.3566608"><ele>425.66666666666663</ele><time>2026-05-04T14:52:42.984Z</time></trkpt><trkpt lat="43.7565067" lon="11.3565525"><ele>424.3333333333333</ele><time>2026-05-04T14:52:45.985Z</time></trkpt><trkpt lat="43.7565048" lon="11.356457"><ele>423.0</ele><time>2026-05-04T14:52:49.985Z</time></trkpt><trkpt lat="43.7565038" lon="11.3563552"><ele>421.0</ele><time>2026-05-04T14:52:53.983Z</time></trkpt><trkpt lat="43.7564678" lon="11.3562387"><ele>419.0</ele><time>2026-05-04T14:52:56.985Z</time></trkpt><trkpt lat="43.7564517" lon="11.3561532"><ele>417.0</ele><time>2026-05-04T14:52:58.984Z</time></trkpt><trkpt lat="43.7564235" lon="11.3560673"><ele>415.0</ele><time>2026-05-04T14:53:00.985Z</time></trkpt><trkpt lat="43.7564023" lon="11.3559785"><ele>413.0</ele><time>2026-05-04T14:53:02.982Z</time></trkpt><trkpt lat="43.7563797" lon="11.355859"><ele>411.0</ele><time>2026-05-04T14:53:05.983Z</time></trkpt><trkpt lat="43.7563597" lon="11.3557538"><ele>411.0</ele><time>2026-05-04T14:53:08.981Z</time></trkpt><trkpt lat="43.7563473" lon="11.3556642"><ele>411.0</ele><time>2026-05-04T14:53:11.985Z</time></trkpt><trkpt lat="43.7563043" lon="11.3555803"><ele>411.0</ele><time>2026-05-04T14:53:15.982Z</time></trkpt><trkpt lat="43.7562525" lon="11.3554903"><ele>411.0</ele><time>2026-05-04T14:53:18.99Z</time></trkpt><trkpt lat="43.756217" lon="11.355386"><ele>411.0</ele><time>2026-05-04T14:53:21.987Z</time></trkpt><trkpt lat="43.7561943" lon="11.355284"><ele>411.0</ele><time>2026-05-04T14:53:24.986Z</time></trkpt><trkpt lat="43.7561577" lon="11.3552083"><ele>411.0</ele><time>2026-05-04T14:53:28.983Z</time></trkpt><trkpt lat="43.7561172" lon="11.3551235"><ele>409.1666666666667</ele><time>2026-05-04T14:53:31.985Z</time></trkpt><trkpt lat="43.7560763" lon="11.3550148"><ele>407.33333333333337</ele><time>2026-05-04T14:53:34.983Z</time></trkpt><trkpt lat="43.7560422" lon="11.3549077"><ele>405.5</ele><time>2026-05-04T14:53:37.989Z</time></trkpt><trkpt lat="43.7560182" lon="11.354809"><ele>403.6666666666667</ele><time>2026-05-04T14:53:40.986Z</time></trkpt><trkpt lat="43.7559958" lon="11.3547193"><ele>401.83333333333337</ele><time>2026-05-04T14:53:43.983Z</time></trkpt><trkpt lat="43.7559557" lon="11.354621"><ele>400.0</ele><time>2026-05-04T14:53:47.983Z</time></trkpt><trkpt lat="43.7559187" lon="11.3545462"><ele>399.00000000000006</ele><time>2026-05-04T14:53:50.983Z</time></trkpt><trkpt lat="43.7558725" lon="11.3544627"><ele>398.0</ele><time>2026-05-04T14:53:54.983Z</time></trkpt><trkpt lat="43.7558157" lon="11.3544032"><ele>397.0</ele><time>2026-05-04T14:54:00.983Z</time></trkpt><trkpt lat="43.7557682" lon="11.3543422"><ele>396.0</ele><time>2026-05-04T14:54:03.987Z</time></trkpt><trkpt lat="43.7557322" lon="11.3542603"><ele>395.0</ele><time>2026-05-04T14:54:08.994Z</time></trkpt><trkpt lat="43.7556983" lon="11.3541673"><ele>394.00000000000006</ele><time>2026-05-04T14:54:15.984Z</time></trkpt><trkpt lat="43.755657" lon="11.3540943"><ele>393.0</ele><time>2026-05-04T14:54:19.986Z</time></trkpt><trkpt lat="43.7556213" lon="11.3540143"><ele>393.00000000000006</ele><time>2026-05-04T14:54:24.988Z</time></trkpt><trkpt lat="43.7555757" lon="11.3539398"><ele>393.0</ele><time>2026-05-04T14:54:30.989Z</time></trkpt><trkpt lat="43.7555297" lon="11.3538767"><ele>393.0</ele><time>2026-05-04T14:54:34.984Z</time></trkpt><trkpt lat="43.7554628" lon="11.3538058"><ele>393.0</ele><time>2026-05-04T14:54:38.982Z</time></trkpt><trkpt lat="43.7554095" lon="11.353729"><ele>393.0</ele><time>2026-05-04T14:54:42.989Z</time></trkpt><trkpt lat="43.7553783" lon="11.3536518"><ele>393.00000000000006</ele><time>2026-05-04T14:54:47.983Z</time></trkpt><trkpt lat="43.7553123" lon="11.3536073"><ele>393.0</ele><time>2026-05-04T14:54:52.984Z</time></trkpt><trkpt lat="43.7552527" lon="11.3535755"><ele>390.7142857142857</ele><time>2026-05-04T14:54:57.983Z</time></trkpt><trkpt lat="43.755212" lon="11.3534792"><ele>388.42857142857144</ele><time>2026-05-04T14:55:01.983Z</time></trkpt><trkpt lat="43.7551612" lon="11.3534028"><ele>386.1428571428571</ele><time>2026-05-04T14:55:05.984Z</time></trkpt><trkpt lat="43.755102" lon="11.3533402"><ele>383.8571428571429</ele><time>2026-05-04T14:55:09.983Z</time></trkpt><trkpt lat="43.7550463" lon="11.3532717"><ele>381.57142857142856</ele><time>2026-05-04T14:55:14.985Z</time></trkpt><trkpt lat="43.7549938" lon="11.3532157"><ele>379.2857142857143</ele><time>2026-05-04T14:55:21.983Z</time></trkpt><trkpt lat="43.7550423" lon="11.3533012"><ele>377.0</ele><time>2026-05-04T14:56:45.985Z</time></trkpt><trkpt lat="43.7551032" lon="11.3533705"><ele>377.0</ele><time>2026-05-04T14:56:50.982Z</time></trkpt><trkpt lat="43.7551468" lon="11.3534503"><ele>377.0</ele><time>2026-05-04T14:56:54.992Z</time></trkpt><trkpt lat="43.7552025" lon="11.353537"><ele>377.0</ele><time>2026-05-04T14:56:58.983Z</time></trkpt><trkpt lat="43.7552685" lon="11.3535657"><ele>377.0</ele><time>2026-05-04T14:57:01.981Z</time></trkpt><trkpt lat="43.7553303" lon="11.3536187"><ele>377.0</ele><time>2026-05-04T14:57:05.982Z</time></trkpt><trkpt lat="43.7553652" lon="11.3537145"><ele>377.0</ele><time>2026-05-04T14:57:10.984Z</time></trkpt><trkpt lat="43.7554172" lon="11.353799"><ele>376.85714285714283</ele><time>2026-05-04T14:57:14.983Z</time></trkpt><trkpt lat="43.755471" lon="11.3538488"><ele>376.7142857142857</ele><time>2026-05-04T14:57:17.983Z</time></trkpt><trkpt lat="43.7555192" lon="11.353909"><ele>376.57142857142856</ele><time>2026-05-04T14:57:21.983Z</time></trkpt><trkpt lat="43.7555632" lon="11.3539918"><ele>376.42857142857144</ele><time>2026-05-04T14:57:26.993Z</time></trkpt><trkpt lat="43.7555982" lon="11.35408"><ele>376.2857142857143</ele><time>2026-05-04T14:57:30.984Z</time></trkpt><trkpt lat="43.7556475" lon="11.3541472"><ele>376.1428571428571</ele><time>2026-05-04T14:57:34.984Z</time></trkpt><trkpt lat="43.7556978" lon="11.3542327"><ele>376.0</ele><time>2026-05-04T14:57:39.983Z</time></trkpt><trkpt lat="43.7557323" lon="11.3543127"><ele>378.42857142857144</ele><time>2026-05-04T14:57:42.984Z</time></trkpt><trkpt lat="43.7557793" lon="11.3543798"><ele>380.85714285714283</ele><time>2026-05-04T14:57:47.987Z</time></trkpt><trkpt lat="43.7558383" lon="11.3544418"><ele>383.28571428571433</ele><time>2026-05-04T14:57:51.984Z</time></trkpt><trkpt lat="43.7558795" lon="11.3545105"><ele>385.7142857142857</ele><time>2026-05-04T14:57:54.984Z</time></trkpt><trkpt lat="43.755926" lon="11.3545993"><ele>388.14285714285717</ele><time>2026-05-04T14:57:57.981Z</time></trkpt><trkpt lat="43.755965" lon="11.3546915"><ele>390.5714285714286</ele><time>2026-05-04T14:58:00.985Z</time></trkpt><trkpt lat="43.7560038" lon="11.354796"><ele>393.0</ele><time>2026-05-04T14:58:03.983Z</time></trkpt><trkpt lat="43.756036" lon="11.3549025"><ele>393.42857142857144</ele><time>2026-05-04T14:58:06.986Z</time></trkpt><trkpt lat="43.7560612" lon="11.3550067"><ele>393.8571428571429</ele><time>2026-05-04T14:58:09.982Z</time></trkpt><trkpt lat="43.7560987" lon="11.355089"><ele>394.28571428571433</ele><time>2026-05-04T14:58:12.985Z</time></trkpt><trkpt lat="43.7561312" lon="11.3551717"><ele>394.7142857142857</ele><time>2026-05-04T14:58:15.982Z</time></trkpt><trkpt lat="43.7561687" lon="11.3552523"><ele>395.1428571428571</ele><time>2026-05-04T14:58:18.985Z</time></trkpt><trkpt lat="43.7561857" lon="11.3553435"><ele>395.5714285714286</ele><time>2026-05-04T14:58:21.983Z</time></trkpt><trkpt lat="43.7562218" lon="11.3554253"><ele>396.0</ele><time>2026-05-04T14:58:24.986Z</time></trkpt><trkpt lat="43.7562582" lon="11.3555198"><ele>398.14285714285717</ele><time>2026-05-04T14:58:28.983Z</time></trkpt><trkpt lat="43.7562912" lon="11.355595"><ele>400.2857142857143</ele><time>2026-05-04T14:58:32.986Z</time></trkpt><trkpt lat="43.756312" lon="11.355678"><ele>402.42857142857144</ele><time>2026-05-04T14:58:36.985Z</time></trkpt><trkpt lat="43.7563398" lon="11.3557642"><ele>404.57142857142856</ele><time>2026-05-04T14:58:39.99Z</time></trkpt><trkpt lat="43.7563673" lon="11.3558578"><ele>406.71428571428567</ele><time>2026-05-04T14:58:42.982Z</time></trkpt><trkpt lat="43.7563965" lon="11.3559715"><ele>408.85714285714283</ele><time>2026-05-04T14:58:45.988Z</time></trkpt><trkpt lat="43.7564178" lon="11.3560537"><ele>411.0</ele><time>2026-05-04T14:58:47.983Z</time></trkpt><trkpt lat="43.7564367" lon="11.3561387"><ele>411.0</ele><time>2026-05-04T14:58:49.985Z</time></trkpt><trkpt lat="43.7564523" lon="11.35624"><ele>411.0</ele><time>2026-05-04T14:58:52.983Z</time></trkpt><trkpt lat="43.7564582" lon="11.3563512"><ele>411.0</ele><time>2026-05-04T14:58:55.985Z</time></trkpt><trkpt lat="43.7564755" lon="11.3564805"><ele>411.0</ele><time>2026-05-04T14:58:58.985Z</time></trkpt><trkpt lat="43.7565025" lon="11.3565847"><ele>411.0</ele><time>2026-05-04T14:59:02.986Z</time></trkpt><trkpt lat="43.7565343" lon="11.356681"><ele>411.0</ele><time>2026-05-04T14:59:05.984Z</time></trkpt><trkpt lat="43.7565203" lon="11.3567872"><ele>413.0</ele><time>2026-05-04T14:59:09.987Z</time></trkpt><trkpt lat="43.7565028" lon="11.3569008"><ele>415.0</ele><time>2026-05-04T14:59:13.984Z</time></trkpt><trkpt lat="43.7565137" lon="11.3570247"><ele>417.0</ele><time>2026-05-04T14:59:16.984Z</time></trkpt><trkpt lat="43.7565225" lon="11.3571187"><ele>419.0</ele><time>2026-05-04T14:59:18.987Z</time></trkpt><trkpt lat="43.7565373" lon="11.3572155"><ele>421.0</ele><time>2026-05-04T14:59:20.984Z</time></trkpt><trkpt lat="43.756552" lon="11.357301"><ele>423.0</ele><time>2026-05-04T14:59:22.985Z</time></trkpt><trkpt lat="43.7565588" lon="11.3574052"><ele>424.3333333333333</ele><time>2026-05-04T14:59:25.986Z</time></trkpt><trkpt lat="43.7565667" lon="11.3575115"><ele>425.66666666666663</ele><time>2026-05-04T14:59:28.986Z</time></trkpt><trkpt lat="43.7565725" lon="11.3576065"><ele>427.0</ele><time>2026-05-04T14:59:30.986Z</time></trkpt><trkpt lat="43.7565895" lon="11.3576988"><ele>428.3333333333333</ele><time>2026-05-04T14:59:32.982Z</time></trkpt><trkpt lat="43.7566198" lon="11.3577918"><ele>429.66666666666663</ele><time>2026-05-04T14:59:34.986Z</time></trkpt><trkpt lat="43.7566313" lon="11.357886"><ele>431.0</ele><time>2026-05-04T14:59:36.983Z</time></trkpt><trkpt lat="43.7566472" lon="11.3580175"><ele>431.14285714285717</ele><time>2026-05-04T14:59:39.984Z</time></trkpt><trkpt lat="43.7566502" lon="11.3581135"><ele>431.2857142857143</ele><time>2026-05-04T14:59:41.986Z</time></trkpt><trkpt lat="43.7566567" lon="11.3582017"><ele>431.42857142857144</ele><time>2026-05-04T14:59:43.987Z</time></trkpt><trkpt lat="43.7566605" lon="11.3582928"><ele>431.57142857142856</ele><time>2026-05-04T14:59:45.989Z</time></trkpt><trkpt lat="43.7566643" lon="11.3583828"><ele>431.71428571428567</ele><time>2026-05-04T14:59:53.986Z</time></trkpt><trkpt lat="43.7566672" lon="11.3584918"><ele>431.85714285714283</ele><time>2026-05-04T14:59:55.986Z</time></trkpt><trkpt lat="43.7566553" lon="11.3586172"><ele>432.0</ele><time>2026-05-04T14:59:57.984Z</time></trkpt><trkpt lat="43.7566357" lon="11.3587282"><ele>432.0</ele><time>2026-05-04T14:59:59.983Z</time></trkpt><trkpt lat="43.7566083" lon="11.358832"><ele>432.0</ele><time>2026-05-04T15:00:02.989Z</time></trkpt><trkpt lat="43.7565918" lon="11.3589548"><ele>432.0</ele><time>2026-05-04T15:00:05.983Z</time></trkpt><trkpt lat="43.7565803" lon="11.3590528"><ele>432.0</ele><time>2026-05-04T15:00:07.986Z</time></trkpt><trkpt lat="43.7565687" lon="11.3591605"><ele>432.0</ele><time>2026-05-04T15:00:09.986Z</time></trkpt><trkpt lat="43.7565597" lon="11.3592697"><ele>432.0</ele><time>2026-05-04T15:00:11.984Z</time></trkpt><trkpt lat="43.7565582" lon="11.3593767"><ele>431.6666666666667</ele><time>2026-05-04T15:00:13.981Z</time></trkpt><trkpt lat="43.7565543" lon="11.3594763"><ele>431.33333333333337</ele><time>2026-05-04T15:00:16.984Z</time></trkpt><trkpt lat="43.7565295" lon="11.3595875"><ele>431.0</ele><time>2026-05-04T15:00:19.981Z</time></trkpt><trkpt lat="43.7565302" lon="11.3597075"><ele>430.6666666666667</ele><time>2026-05-04T15:00:22.983Z</time></trkpt><trkpt lat="43.7565297" lon="11.3598075"><ele>430.33333333333337</ele><time>2026-05-04T15:00:24.985Z</time></trkpt><trkpt lat="43.7565155" lon="11.3599015"><ele>430.0</ele><time>2026-05-04T15:00:26.983Z</time></trkpt><trkpt lat="43.7564832" lon="11.3600177"><ele>428.83333333333337</ele><time>2026-05-04T15:00:29.986Z</time></trkpt><trkpt lat="43.756481" lon="11.3601053"><ele>427.6666666666667</ele><time>2026-05-04T15:00:32.98Z</time></trkpt><trkpt lat="43.7564662" lon="11.3602327"><ele>426.5</ele><time>2026-05-04T15:00:35.985Z</time></trkpt><trkpt lat="43.7564605" lon="11.3603315"><ele>425.33333333333337</ele><time>2026-05-04T15:00:37.984Z</time></trkpt><trkpt lat="43.7564692" lon="11.36043"><ele>424.1666666666667</ele><time>2026-05-04T15:00:39.986Z</time></trkpt><trkpt lat="43.7564812" lon="11.3605225"><ele>423.0</ele><time>2026-05-04T15:00:41.986Z</time></trkpt><trkpt lat="43.756464" lon="11.3606497"><ele>422.59999999999997</ele><time>2026-05-04T15:00:44.983Z</time></trkpt><trkpt lat="43.7564375" lon="11.3607657"><ele>422.2</ele><time>2026-05-04T15:00:46.982Z</time></trkpt><trkpt lat="43.75642" lon="11.3609007"><ele>421.8</ele><time>2026-05-04T15:00:48.986Z</time></trkpt><trkpt lat="43.7564025" lon="11.3610397"><ele>421.4</ele><time>2026-05-04T15:00:50.988Z</time></trkpt><trkpt lat="43.7563885" lon="11.3611808"><ele>421.0</ele><time>2026-05-04T15:00:52.984Z</time></trkpt><trkpt lat="43.7563845" lon="11.3613163"><ele>420.0</ele><time>2026-05-04T15:00:54.985Z</time></trkpt><trkpt lat="43.756405" lon="11.3614522"><ele>419.0</ele><time>2026-05-04T15:00:56.985Z</time></trkpt><trkpt lat="43.7564368" lon="11.361584"><ele>418.0</ele><time>2026-05-04T15:00:58.983Z</time></trkpt><trkpt lat="43.7564632" lon="11.3617383"><ele>417.0</ele><time>2026-05-04T15:01:00.984Z</time></trkpt><trkpt lat="43.756463" lon="11.3618915"><ele>416.0</ele><time>2026-05-04T15:01:02.987Z</time></trkpt><trkpt lat="43.7564542" lon="11.3620145"><ele>415.99999999999994</ele><time>2026-05-04T15:01:04.986Z</time></trkpt><trkpt lat="43.7564435" lon="11.3621215"><ele>416.0</ele><time>2026-05-04T15:01:06.991Z</time></trkpt><trkpt lat="43.7564412" lon="11.3622262"><ele>416.0</ele><time>2026-05-04T15:01:08.982Z</time></trkpt><trkpt lat="43.756426" lon="11.3623312"><ele>416.0</ele><time>2026-05-04T15:01:10.987Z</time></trkpt><trkpt lat="43.7564023" lon="11.3624297"><ele>415.99999999999994</ele><time>2026-05-04T15:01:12.989Z</time></trkpt><trkpt lat="43.7563793" lon="11.3625218"><ele>416.0</ele><time>2026-05-04T15:01:14.985Z</time></trkpt><trkpt lat="43.7563653" lon="11.3626433"><ele>415.16666666666663</ele><time>2026-05-04T15:01:17.983Z</time></trkpt><trkpt lat="43.7563697" lon="11.3627527"><ele>414.3333333333333</ele><time>2026-05-04T15:01:20.986Z</time></trkpt><trkpt lat="43.7563773" lon="11.3628785"><ele>413.5</ele><time>2026-05-04T15:01:23.986Z</time></trkpt><trkpt lat="43.7563773" lon="11.3629782"><ele>412.66666666666663</ele><time>2026-05-04T15:01:25.985Z</time></trkpt><trkpt lat="43.7563782" lon="11.3630757"><ele>411.8333333333333</ele><time>2026-05-04T15:01:27.983Z</time></trkpt><trkpt lat="43.7563853" lon="11.3631675"><ele>411.0</ele><time>2026-05-04T15:01:29.985Z</time></trkpt><trkpt lat="43.7563908" lon="11.3632823"><ele>410.3333333333333</ele><time>2026-05-04T15:01:32.986Z</time></trkpt><trkpt lat="43.7563965" lon="11.3634102"><ele>409.66666666666663</ele><time>2026-05-04T15:01:35.985Z</time></trkpt><trkpt lat="43.7564132" lon="11.363528"><ele>409.0</ele><time>2026-05-04T15:01:38.984Z</time></trkpt><trkpt lat="43.7564142" lon="11.3636273"><ele>408.3333333333333</ele><time>2026-05-04T15:01:41.985Z</time></trkpt><trkpt lat="43.7564065" lon="11.3637312"><ele>407.66666666666663</ele><time>2026-05-04T15:01:43.983Z</time></trkpt><trkpt lat="43.7564012" lon="11.36384"><ele>407.0</ele><time>2026-05-04T15:01:45.986Z</time></trkpt><trkpt lat="43.7563882" lon="11.363956"><ele>406.8333333333333</ele><time>2026-05-04T15:01:47.989Z</time></trkpt><trkpt lat="43.7563758" lon="11.3640713"><ele>406.66666666666663</ele><time>2026-05-04T15:01:49.986Z</time></trkpt><trkpt lat="43.756379" lon="11.3641792"><ele>406.5</ele><time>2026-05-04T15:01:52.985Z</time></trkpt><trkpt lat="43.756368" lon="11.3642983"><ele>406.33333333333337</ele><time>2026-05-04T15:01:55.987Z</time></trkpt><trkpt lat="43.7563657" lon="11.3644055"><ele>406.1666666666667</ele><time>2026-05-04T15:01:57.985Z</time></trkpt><trkpt lat="43.756372" lon="11.3645087"><ele>406.0</ele><time>2026-05-04T15:01:59.984Z</time></trkpt><trkpt lat="43.7563675" lon="11.364628"><ele>406.1666666666667</ele><time>2026-05-04T15:02:02.985Z</time></trkpt><trkpt lat="43.756344" lon="11.3647213"><ele>406.33333333333337</ele><time>2026-05-04T15:02:05.981Z</time></trkpt><trkpt lat="43.7563292" lon="11.3648283"><ele>406.5</ele><time>2026-05-04T15:02:08.982Z</time></trkpt><trkpt lat="43.7563513" lon="11.364953"><ele>406.66666666666663</ele><time>2026-05-04T15:02:11.984Z</time></trkpt><trkpt lat="43.756374" lon="11.365044"><ele>406.8333333333333</ele><time>2026-05-04T15:02:13.98Z</time></trkpt><trkpt lat="43.7564187" lon="11.3651623"><ele>407.0</ele><time>2026-05-04T15:02:19.985Z</time></trkpt><trkpt lat="43.7564675" lon="11.3652583"><ele>406.99999999999994</ele><time>2026-05-04T15:02:21.988Z</time></trkpt><trkpt lat="43.7565113" lon="11.365371"><ele>407.0</ele><time>2026-05-04T15:02:23.983Z</time></trkpt><trkpt lat="43.756512" lon="11.3654688"><ele>407.0</ele><time>2026-05-04T15:02:25.985Z</time></trkpt><trkpt lat="43.7565102" lon="11.36556"><ele>407.0</ele><time>2026-05-04T15:02:27.983Z</time></trkpt><trkpt lat="43.7565102" lon="11.3656855"><ele>406.99999999999994</ele><time>2026-05-04T15:02:30.986Z</time></trkpt><trkpt lat="43.75652" lon="11.3657765"><ele>407.0</ele><time>2026-05-04T15:02:32.987Z</time></trkpt><trkpt lat="43.7565285" lon="11.365865"><ele>406.8571428571429</ele><time>2026-05-04T15:02:34.985Z</time></trkpt><trkpt lat="43.756532" lon="11.3659588"><ele>406.7142857142857</ele><time>2026-05-04T15:02:36.985Z</time></trkpt><trkpt lat="43.756515" lon="11.3660508"><ele>406.57142857142856</ele><time>2026-05-04T15:02:38.987Z</time></trkpt><trkpt lat="43.7564842" lon="11.3661472"><ele>406.42857142857144</ele><time>2026-05-04T15:02:40.984Z</time></trkpt><trkpt lat="43.7564533" lon="11.3662322"><ele>406.2857142857143</ele><time>2026-05-04T15:02:42.988Z</time></trkpt><trkpt lat="43.7564142" lon="11.3663167"><ele>406.14285714285717</ele><time>2026-05-04T15:02:45.986Z</time></trkpt><trkpt lat="43.7564042" lon="11.3664107"><ele>406.0</ele><time>2026-05-04T15:02:48.985Z</time></trkpt><trkpt lat="43.7564172" lon="11.3665002"><ele>406.42857142857144</ele><time>2026-05-04T15:02:50.984Z</time></trkpt><trkpt lat="43.7564203" lon="11.3666038"><ele>406.8571428571429</ele><time>2026-05-04T15:02:52.985Z</time></trkpt><trkpt lat="43.7564368" lon="11.3666993"><ele>407.2857142857143</ele><time>2026-05-04T15:02:54.984Z</time></trkpt><trkpt lat="43.7564455" lon="11.3667955"><ele>407.7142857142857</ele><time>2026-05-04T15:02:56.992Z</time></trkpt><trkpt lat="43.756451" lon="11.3668967"><ele>408.14285714285717</ele><time>2026-05-04T15:02:58.986Z</time></trkpt><trkpt lat="43.756443" lon="11.3669852"><ele>408.57142857142856</ele><time>2026-05-04T15:03:00.985Z</time></trkpt><trkpt lat="43.7564322" lon="11.3670727"><ele>409.0</ele><time>2026-05-04T15:03:02.986Z</time></trkpt><trkpt lat="43.7564157" lon="11.3671925"><ele>410.57142857142856</ele><time>2026-05-04T15:03:05.983Z</time></trkpt><trkpt lat="43.7563988" lon="11.3673115"><ele>412.14285714285717</ele><time>2026-05-04T15:03:08.985Z</time></trkpt><trkpt lat="43.756402" lon="11.3673995"><ele>413.7142857142857</ele><time>2026-05-04T15:03:10.992Z</time></trkpt><trkpt lat="43.756413" lon="11.3675065"><ele>415.2857142857143</ele><time>2026-05-04T15:03:14.984Z</time></trkpt><trkpt lat="43.7564442" lon="11.3676023"><ele>416.8571428571429</ele><time>2026-05-04T15:03:19.984Z</time></trkpt><trkpt lat="43.7564625" lon="11.3676863"><ele>418.42857142857144</ele><time>2026-05-04T15:03:23.988Z</time></trkpt><trkpt lat="43.756463" lon="11.3677897"><ele>420.0</ele><time>2026-05-04T15:03:27.983Z</time></trkpt><trkpt lat="43.7564762" lon="11.3678967"><ele>420.0</ele><time>2026-05-04T15:03:31.986Z</time></trkpt><trkpt lat="43.7564695" lon="11.3679955"><ele>420.0</ele><time>2026-05-04T15:03:34.986Z</time></trkpt><trkpt lat="43.7564838" lon="11.3680825"><ele>420.0</ele><time>2026-05-04T15:03:37.984Z</time></trkpt><trkpt lat="43.7564967" lon="11.368182"><ele>420.0</ele><time>2026-05-04T15:03:41.984Z</time></trkpt><trkpt lat="43.7564832" lon="11.368272"><ele>420.0</ele><time>2026-05-04T15:03:45.983Z</time></trkpt><trkpt lat="43.7565057" lon="11.3683755"><ele>420.0</ele><time>2026-05-04T15:03:49.985Z</time></trkpt><trkpt lat="43.7565298" lon="11.3684832"><ele>420.0</ele><time>2026-05-04T15:03:53.983Z</time></trkpt><trkpt lat="43.7565588" lon="11.3685817"><ele>422.0</ele><time>2026-05-04T15:03:57.983Z</time></trkpt><trkpt lat="43.7565935" lon="11.3686625"><ele>424.0</ele><time>2026-05-04T15:04:01.984Z</time></trkpt><trkpt lat="43.7565828" lon="11.3687753"><ele>426.0</ele><time>2026-05-04T15:04:06.983Z</time></trkpt><trkpt lat="43.7565722" lon="11.368876"><ele>428.0</ele><time>2026-05-04T15:04:09.981Z</time></trkpt><trkpt lat="43.756604" lon="11.3690117"><ele>430.0</ele><time>2026-05-04T15:04:12.986Z</time></trkpt><trkpt lat="43.7566263" lon="11.3691175"><ele>432.0</ele><time>2026-05-04T15:04:14.984Z</time></trkpt><trkpt lat="43.7566537" lon="11.3692043"><ele>433.0</ele><time>2026-05-04T15:04:16.985Z</time></trkpt><trkpt lat="43.7566943" lon="11.369289"><ele>434.0</ele><time>2026-05-04T15:04:18.984Z</time></trkpt><trkpt lat="43.7567155" lon="11.3693938"><ele>435.0</ele><time>2026-05-04T15:04:20.991Z</time></trkpt><trkpt lat="43.7567458" lon="11.3694775"><ele>436.0</ele><time>2026-05-04T15:04:22.984Z</time></trkpt><trkpt lat="43.7567718" lon="11.3695578"><ele>437.0</ele><time>2026-05-04T15:04:24.983Z</time></trkpt><trkpt lat="43.756802" lon="11.3696442"><ele>438.0</ele><time>2026-05-04T15:04:26.986Z</time></trkpt><trkpt lat="43.7568308" lon="11.3697332"><ele>439.0</ele><time>2026-05-04T15:04:28.984Z</time></trkpt><trkpt lat="43.7568642" lon="11.3698215"><ele>438.1666666666667</ele><time>2026-05-04T15:04:30.984Z</time></trkpt><trkpt lat="43.7568908" lon="11.369945"><ele>437.33333333333337</ele><time>2026-05-04T15:04:33.984Z</time></trkpt><trkpt lat="43.7568988" lon="11.370036"><ele>436.5</ele><time>2026-05-04T15:04:35.984Z</time></trkpt><trkpt lat="43.7569247" lon="11.3701282"><ele>435.66666666666663</ele><time>2026-05-04T15:04:38.992Z</time></trkpt><trkpt lat="43.756952" lon="11.3702297"><ele>434.8333333333333</ele><time>2026-05-04T15:04:41.982Z</time></trkpt><trkpt lat="43.756966" lon="11.3703265"><ele>434.0</ele><time>2026-05-04T15:04:43.983Z</time></trkpt><trkpt lat="43.7569685" lon="11.370423"><ele>434.99999999999994</ele><time>2026-05-04T15:04:45.982Z</time></trkpt><trkpt lat="43.7569405" lon="11.37054"><ele>436.0</ele><time>2026-05-04T15:04:48.983Z</time></trkpt><trkpt lat="43.7569202" lon="11.3706392"><ele>437.0</ele><time>2026-05-04T15:04:51.982Z</time></trkpt><trkpt lat="43.7568975" lon="11.3707437"><ele>438.0</ele><time>2026-05-04T15:04:54.99Z</time></trkpt><trkpt lat="43.7568587" lon="11.3708257"><ele>438.99999999999994</ele><time>2026-05-04T15:04:57.983Z</time></trkpt><trkpt lat="43.7568218" lon="11.370926"><ele>440.0</ele><time>2026-05-04T15:05:01.983Z</time></trkpt><trkpt lat="43.7568182" lon="11.3710145"><ele>440.16666666666663</ele><time>2026-05-04T15:05:04.981Z</time></trkpt><trkpt lat="43.7567972" lon="11.3711125"><ele>440.3333333333333</ele><time>2026-05-04T15:05:07.985Z</time></trkpt><trkpt lat="43.7567702" lon="11.3712053"><ele>440.5</ele><time>2026-05-04T15:05:09.984Z</time></trkpt><trkpt lat="43.7567492" lon="11.371311"><ele>440.66666666666663</ele><time>2026-05-04T15:05:11.98Z</time></trkpt><trkpt lat="43.7567715" lon="11.3714118"><ele>440.8333333333333</ele><time>2026-05-04T15:05:13.98Z</time></trkpt><trkpt lat="43.7567985" lon="11.3715223"><ele>441.0</ele><time>2026-05-04T15:05:16.983Z</time></trkpt><trkpt lat="43.7568015" lon="11.3716272"><ele>441.0</ele><time>2026-05-04T15:05:19.982Z</time></trkpt><trkpt lat="43.7567877" lon="11.3717228"><ele>441.0</ele><time>2026-05-04T15:05:22.988Z</time></trkpt><trkpt lat="43.7567718" lon="11.3718242"><ele>441.0</ele><time>2026-05-04T15:05:25.981Z</time></trkpt><trkpt lat="43.7567722" lon="11.3719512"><ele>441.0</ele><time>2026-05-04T15:05:28.983Z</time></trkpt><trkpt lat="43.7567702" lon="11.3720655"><ele>441.0</ele><time>2026-05-04T15:05:31.981Z</time></trkpt><trkpt lat="43.756758" lon="11.3721692"><ele>441.0</ele><time>2026-05-04T15:05:34.982Z</time></trkpt><trkpt lat="43.7567462" lon="11.3722567"><ele>439.8333333333333</ele><time>2026-05-04T15:05:36.989Z</time></trkpt><trkpt lat="43.7567438" lon="11.37237"><ele>438.66666666666663</ele><time>2026-05-04T15:05:38.98Z</time></trkpt><trkpt lat="43.7567473" lon="11.3724935"><ele>437.5</ele><time>2026-05-04T15:05:40.981Z</time></trkpt><trkpt lat="43.7567465" lon="11.3726045"><ele>436.3333333333333</ele><time>2026-05-04T15:05:42.985Z</time></trkpt><trkpt lat="43.7567427" lon="11.3726917"><ele>435.16666666666663</ele><time>2026-05-04T15:05:44.989Z</time></trkpt><trkpt lat="43.756726" lon="11.372793"><ele>434.0</ele><time>2026-05-04T15:05:48.985Z</time></trkpt><trkpt lat="43.756703" lon="11.3728852"><ele>433.99999999999994</ele><time>2026-05-04T15:05:53.981Z</time></trkpt><trkpt lat="43.7567125" lon="11.3730035"><ele>434.0</ele><time>2026-05-04T15:05:57.982Z</time></trkpt><trkpt lat="43.7567243" lon="11.37309"><ele>434.0</ele><time>2026-05-04T15:06:00.985Z</time></trkpt><trkpt lat="43.7567312" lon="11.3731912"><ele>434.0</ele><time>2026-05-04T15:06:03.982Z</time></trkpt><trkpt lat="43.7567357" lon="11.3732973"><ele>433.99999999999994</ele><time>2026-05-04T15:06:06.984Z</time></trkpt><trkpt lat="43.7567457" lon="11.3733955"><ele>434.0</ele><time>2026-05-04T15:06:09.982Z</time></trkpt><trkpt lat="43.7567243" lon="11.3735027"><ele>433.66666666666663</ele><time>2026-05-04T15:06:12.984Z</time></trkpt><trkpt lat="43.7567023" lon="11.3735998"><ele>433.3333333333333</ele><time>2026-05-04T15:06:14.983Z</time></trkpt><trkpt lat="43.7566872" lon="11.3737068"><ele>433.0</ele><time>2026-05-04T15:06:16.984Z</time></trkpt><trkpt lat="43.7566882" lon="11.373813"><ele>432.66666666666663</ele><time>2026-05-04T15:06:18.983Z</time></trkpt><trkpt lat="43.7566975" lon="11.373928"><ele>432.3333333333333</ele><time>2026-05-04T15:06:20.982Z</time></trkpt><trkpt lat="43.7567002" lon="11.3740172"><ele>432.0</ele><time>2026-05-04T15:06:22.984Z</time></trkpt><trkpt lat="43.7566673" lon="11.3741377"><ele>432.0</ele><time>2026-05-04T15:06:25.981Z</time></trkpt><trkpt lat="43.7566535" lon="11.3742357"><ele>432.0</ele><time>2026-05-04T15:06:30.982Z</time></trkpt><trkpt lat="43.7566478" lon="11.374346"><ele>432.0</ele><time>2026-05-04T15:06:33.983Z</time></trkpt><trkpt lat="43.7566455" lon="11.3744543"><ele>432.0</ele><time>2026-05-04T15:06:35.984Z</time></trkpt><trkpt lat="43.7566377" lon="11.374556"><ele>432.0</ele><time>2026-05-04T15:06:37.981Z</time></trkpt><trkpt lat="43.7566045" lon="11.3746715"><ele>432.0</ele><time>2026-05-04T15:06:40.98Z</time></trkpt><trkpt lat="43.7565803" lon="11.3747672"><ele>431.8</ele><time>2026-05-04T15:06:42.984Z</time></trkpt><trkpt lat="43.7565525" lon="11.3748965"><ele>431.6</ele><time>2026-05-04T15:06:44.987Z</time></trkpt><trkpt lat="43.7565268" lon="11.3750388"><ele>431.40000000000003</ele><time>2026-05-04T15:06:46.981Z</time></trkpt><trkpt lat="43.7565027" lon="11.3751655"><ele>431.20000000000005</ele><time>2026-05-04T15:06:48.984Z</time></trkpt><trkpt lat="43.75645" lon="11.3752457"><ele>431.0</ele><time>2026-05-04T15:06:51.982Z</time></trkpt><trkpt lat="43.7563858" lon="11.3753335"><ele>431.0</ele><time>2026-05-04T15:06:54.982Z</time></trkpt><trkpt lat="43.756333" lon="11.375411"><ele>431.0</ele><time>2026-05-04T15:07:06.982Z</time></trkpt><trkpt lat="43.756306" lon="11.3755098"><ele>431.0</ele><time>2026-05-04T15:07:11.981Z</time></trkpt><trkpt lat="43.7563067" lon="11.3756"><ele>431.0</ele><time>2026-05-04T15:07:15.979Z</time></trkpt><trkpt lat="43.7563548" lon="11.375667"><ele>431.0</ele><time>2026-05-04T15:07:45.982Z</time></trkpt><trkpt lat="43.7564188" lon="11.375665"><ele>431.0</ele><time>2026-05-04T15:07:49.981Z</time></trkpt><trkpt lat="43.7564662" lon="11.3755555"><ele>431.0</ele><time>2026-05-04T15:07:52.983Z</time></trkpt><trkpt lat="43.7564895" lon="11.3754473"><ele>430.99999999999994</ele><time>2026-05-04T15:07:54.982Z</time></trkpt><trkpt lat="43.7565002" lon="11.375345"><ele>431.0</ele><time>2026-05-04T15:07:56.987Z</time></trkpt><trkpt lat="43.756464" lon="11.3752582"><ele>431.0</ele><time>2026-05-04T15:07:59.981Z</time></trkpt><trkpt lat="43.7564" lon="11.3752962"><ele>431.0</ele><time>2026-05-04T15:08:01.981Z</time></trkpt><trkpt lat="43.7563407" lon="11.3753743"><ele>430.99999999999994</ele><time>2026-05-04T15:08:03.982Z</time></trkpt><trkpt lat="43.7562567" lon="11.375377"><ele>431.0</ele><time>2026-05-04T15:08:06.99Z</time></trkpt><trkpt lat="43.756192" lon="11.3753453"><ele>430.99999999999994</ele><time>2026-05-04T15:08:08.984Z</time></trkpt><trkpt lat="43.7561245" lon="11.3753508"><ele>431.0</ele><time>2026-05-04T15:08:10.983Z</time></trkpt><trkpt lat="43.7560298" lon="11.375341"><ele>431.0</ele><time>2026-05-04T15:08:13.983Z</time></trkpt><trkpt lat="43.7559535" lon="11.3753418"><ele>431.0</ele><time>2026-05-04T15:08:15.98Z</time></trkpt><trkpt lat="43.7558742" lon="11.3753312"><ele>430.99999999999994</ele><time>2026-05-04T15:08:17.984Z</time></trkpt><trkpt lat="43.7558025" lon="11.3753277"><ele>431.0</ele><time>2026-05-04T15:08:19.984Z</time></trkpt><trkpt lat="43.755724" lon="11.3753215"><ele>431.8333333333333</ele><time>2026-05-04T15:08:22.976Z</time></trkpt><trkpt lat="43.7556638" lon="11.3752712"><ele>432.66666666666663</ele><time>2026-05-04T15:08:24.982Z</time></trkpt><trkpt lat="43.7556183" lon="11.3751787"><ele>433.5</ele><time>2026-05-04T15:08:27.982Z</time></trkpt><trkpt lat="43.7555635" lon="11.3750803"><ele>434.33333333333337</ele><time>2026-05-04T15:08:32.982Z</time></trkpt><trkpt lat="43.7554972" lon="11.375006"><ele>435.1666666666667</ele><time>2026-05-04T15:08:35.98Z</time></trkpt><trkpt lat="43.7554307" lon="11.3749465"><ele>436.0</ele><time>2026-05-04T15:08:38.982Z</time></trkpt><trkpt lat="43.7553738" lon="11.3748923"><ele>436.00000000000006</ele><time>2026-05-04T15:08:41.981Z</time></trkpt><trkpt lat="43.7553198" lon="11.3748345"><ele>436.0</ele><time>2026-05-04T15:08:45.982Z</time></trkpt><trkpt lat="43.755247" lon="11.3747845"><ele>436.0</ele><time>2026-05-04T15:08:49.981Z</time></trkpt><trkpt lat="43.7551633" lon="11.3747633"><ele>436.0</ele><time>2026-05-04T15:08:53.985Z</time></trkpt><trkpt lat="43.7550868" lon="11.3747027"><ele>436.00000000000006</ele><time>2026-05-04T15:08:56.981Z</time></trkpt><trkpt lat="43.7550127" lon="11.3746535"><ele>436.0</ele><time>2026-05-04T15:08:59.98Z</time></trkpt><trkpt lat="43.754955" lon="11.3746093"><ele>436.1666666666667</ele><time>2026-05-04T15:09:02.985Z</time></trkpt><trkpt lat="43.754875" lon="11.37455"><ele>436.33333333333337</ele><time>2026-05-04T15:09:05.982Z</time></trkpt><trkpt lat="43.7548035" lon="11.374504"><ele>436.5</ele><time>2026-05-04T15:09:07.979Z</time></trkpt><trkpt lat="43.7547358" lon="11.374466"><ele>436.66666666666663</ele><time>2026-05-04T15:09:09.98Z</time></trkpt><trkpt lat="43.7546722" lon="11.3744413"><ele>436.8333333333333</ele><time>2026-05-04T15:09:12.981Z</time></trkpt><trkpt lat="43.7546093" lon="11.374452"><ele>437.0</ele><time>2026-05-04T15:09:16.981Z</time></trkpt><trkpt lat="43.7545202" lon="11.3744483"><ele>437.0</ele><time>2026-05-04T15:09:19.981Z</time></trkpt><trkpt lat="43.7544577" lon="11.3744225"><ele>437.0</ele><time>2026-05-04T15:09:21.978Z</time></trkpt><trkpt lat="43.754384" lon="11.3744192"><ele>437.0</ele><time>2026-05-04T15:09:24.981Z</time></trkpt><trkpt lat="43.7543093" lon="11.3744073"><ele>437.0</ele><time>2026-05-04T15:09:29.98Z</time></trkpt><trkpt lat="43.7542703" lon="11.3743077"><ele>437.0</ele><time>2026-05-04T15:09:32.981Z</time></trkpt><trkpt lat="43.754239" lon="11.3742148"><ele>437.0</ele><time>2026-05-04T15:09:35.979Z</time></trkpt><trkpt lat="43.7542023" lon="11.3741393"><ele>437.0</ele><time>2026-05-04T15:09:39.981Z</time></trkpt><trkpt lat="43.7541722" lon="11.3740227"><ele>439.8333333333333</ele><time>2026-05-04T15:09:42.981Z</time></trkpt><trkpt lat="43.7541313" lon="11.3739332"><ele>442.66666666666663</ele><time>2026-05-04T15:09:45.979Z</time></trkpt><trkpt lat="43.7541053" lon="11.373822"><ele>445.5</ele><time>2026-05-04T15:09:48.979Z</time></trkpt><trkpt lat="43.7541032" lon="11.3737188"><ele>448.33333333333337</ele><time>2026-05-04T15:09:51.979Z</time></trkpt><trkpt lat="43.7541248" lon="11.3736193"><ele>451.1666666666667</ele><time>2026-05-04T15:09:55.979Z</time></trkpt><trkpt lat="43.7541227" lon="11.3735233"><ele>454.0</ele><time>2026-05-04T15:09:59.98Z</time></trkpt><trkpt lat="43.7540937" lon="11.3734225"><ele>454.00000000000006</ele><time>2026-05-04T15:10:03.984Z</time></trkpt><trkpt lat="43.7540565" lon="11.37334"><ele>454.0</ele><time>2026-05-04T15:10:05.979Z</time></trkpt><trkpt lat="43.7540125" lon="11.3732507"><ele>454.0</ele><time>2026-05-04T15:10:07.98Z</time></trkpt><trkpt lat="43.7539777" lon="11.3731735"><ele>454.0</ele><time>2026-05-04T15:10:09.982Z</time></trkpt><trkpt lat="43.7539462" lon="11.3730957"><ele>454.00000000000006</ele><time>2026-05-04T15:10:12.981Z</time></trkpt><trkpt lat="43.7538855" lon="11.3730202"><ele>454.0</ele><time>2026-05-04T15:10:15.98Z</time></trkpt><trkpt lat="43.7541053" lon="11.373822"><ele>454.0</ele><time>2026-05-04T15:09:48.979Z</time></trkpt><trkpt lat="43.7541032" lon="11.3737188"><ele>454.00000000000006</ele><time>2026-05-04T15:09:51.979Z</time></trkpt><trkpt lat="43.7541248" lon="11.3736193"><ele>454.0</ele><time>2026-05-04T15:09:55.979Z</time></trkpt><trkpt lat="43.7541227" lon="11.3735233"><ele>454.0</ele><time>2026-05-04T15:09:59.98Z</time></trkpt><trkpt lat="43.7540937" lon="11.3734225"><ele>454.00000000000006</ele><time>2026-05-04T15:10:03.984Z</time></trkpt><trkpt lat="43.7540565" lon="11.37334"><ele>454.0</ele><time>2026-05-04T15:10:05.979Z</time></trkpt><trkpt lat="43.7540125" lon="11.3732507"><ele>454.0</ele><time>2026-05-04T15:10:07.98Z</time></trkpt><trkpt lat="43.7539777" lon="11.3731735"><ele>454.0</ele><time>2026-05-04T15:10:09.982Z</time></trkpt><trkpt lat="43.7539462" lon="11.3730957"><ele>454.00000000000006</ele><time>2026-05-04T15:10:12.981Z</time></trkpt><trkpt lat="43.7538855" lon="11.3730202"><ele>454.0</ele><time>2026-05-04T15:10:15.98Z</time></trkpt><trkpt lat="43.7538325" lon="11.3729658"><ele>454.0</ele><time>2026-05-04T15:10:17.98Z</time></trkpt><trkpt lat="43.7537743" lon="11.372906"><ele>454.00000000000006</ele><time>2026-05-04T15:10:19.983Z</time></trkpt><trkpt lat="43.753716" lon="11.3728552"><ele>454.0</ele><time>2026-05-04T15:10:21.981Z</time></trkpt><trkpt lat="43.7536515" lon="11.3728145"><ele>454.0</ele><time>2026-05-04T15:10:24.981Z</time></trkpt><trkpt lat="43.7535658" lon="11.3728023"><ele>454.42857142857144</ele><time>2026-05-04T15:10:27.98Z</time></trkpt><trkpt lat="43.7534943" lon="11.372794"><ele>454.8571428571429</ele><time>2026-05-04T15:10:29.98Z</time></trkpt><trkpt lat="43.7534202" lon="11.3727833"><ele>455.28571428571433</ele><time>2026-05-04T15:10:31.98Z</time></trkpt><trkpt lat="43.7533433" lon="11.3727638"><ele>455.7142857142858</ele><time>2026-05-04T15:10:33.978Z</time></trkpt><trkpt lat="43.7532813" lon="11.3727345"><ele>456.14285714285717</ele><time>2026-05-04T15:10:35.979Z</time></trkpt><trkpt lat="43.7532172" lon="11.3727025"><ele>456.57142857142867</ele><time>2026-05-04T15:10:39.983Z</time></trkpt><trkpt lat="43.7531497" lon="11.3726768"><ele>457.00000000000006</ele><time>2026-05-04T15:10:42.985Z</time></trkpt><trkpt lat="43.7530825" lon="11.3726453"><ele>457.00000000000006</ele><time>2026-05-04T15:10:44.983Z</time></trkpt><trkpt lat="43.7530052" lon="11.3726195"><ele>457.0</ele><time>2026-05-04T15:10:46.978Z</time></trkpt><trkpt lat="43.7529245" lon="11.3725842"><ele>457.0</ele><time>2026-05-04T15:10:48.982Z</time></trkpt><trkpt lat="43.7528505" lon="11.3725605"><ele>457.0</ele><time>2026-05-04T15:10:50.986Z</time></trkpt><trkpt lat="43.7527768" lon="11.3724992"><ele>457.00000000000006</ele><time>2026-05-04T15:10:53.978Z</time></trkpt><trkpt lat="43.7526995" lon="11.3724378"><ele>457.0</ele><time>2026-05-04T15:10:56.979Z</time></trkpt><trkpt lat="43.7526378" lon="11.3724003"><ele>457.50000000000006</ele><time>2026-05-04T15:10:58.981Z</time></trkpt><trkpt lat="43.7525713" lon="11.3723657"><ele>458.0</ele><time>2026-05-04T15:11:00.98Z</time></trkpt><trkpt lat="43.7525027" lon="11.3722997"><ele>458.5</ele><time>2026-05-04T15:11:03.98Z</time></trkpt><trkpt lat="43.7524558" lon="11.3722345"><ele>459.0</ele><time>2026-05-04T15:11:06.986Z</time></trkpt><trkpt lat="43.7524045" lon="11.3721438"><ele>459.50000000000006</ele><time>2026-05-04T15:11:09.98Z</time></trkpt><trkpt lat="43.752343" lon="11.3720545"><ele>460.0</ele><time>2026-05-04T15:11:12.984Z</time></trkpt><trkpt lat="43.7522917" lon="11.371986"><ele>460.00000000000006</ele><time>2026-05-04T15:11:15.98Z</time></trkpt><trkpt lat="43.7522503" lon="11.371914"><ele>460.0</ele><time>2026-05-04T15:11:19.98Z</time></trkpt><trkpt lat="43.7522028" lon="11.3718317"><ele>460.0</ele><time>2026-05-04T15:11:22.984Z</time></trkpt><trkpt lat="43.7521473" lon="11.3717722"><ele>460.0</ele><time>2026-05-04T15:11:24.981Z</time></trkpt><trkpt lat="43.7520808" lon="11.3717113"><ele>460.00000000000006</ele><time>2026-05-04T15:11:26.981Z</time></trkpt><trkpt lat="43.7520125" lon="11.3716287"><ele>460.0</ele><time>2026-05-04T15:11:28.981Z</time></trkpt><trkpt lat="43.7519622" lon="11.3715508"><ele>460.00000000000006</ele><time>2026-05-04T15:11:30.983Z</time></trkpt><trkpt lat="43.751896" lon="11.3714875"><ele>460.0</ele><time>2026-05-04T15:11:33.983Z</time></trkpt><trkpt lat="43.7518135" lon="11.3714253"><ele>460.0</ele><time>2026-05-04T15:11:36.981Z</time></trkpt><trkpt lat="43.7517468" lon="11.3713643"><ele>460.0</ele><time>2026-05-04T15:11:38.981Z</time></trkpt><trkpt lat="43.7516902" lon="11.3713103"><ele>460.00000000000006</ele><time>2026-05-04T15:11:40.981Z</time></trkpt><trkpt lat="43.7516255" lon="11.371259"><ele>460.0</ele><time>2026-05-04T15:11:44.983Z</time></trkpt><trkpt lat="43.7522917" lon="11.371986"><ele>460.00000000000006</ele><time>2026-05-04T15:11:15.98Z</time></trkpt><trkpt lat="43.7522503" lon="11.371914"><ele>460.0</ele><time>2026-05-04T15:11:19.98Z</time></trkpt><trkpt lat="43.7522028" lon="11.3718317"><ele>460.0</ele><time>2026-05-04T15:11:22.984Z</time></trkpt><trkpt lat="43.7521473" lon="11.3717722"><ele>460.0</ele><time>2026-05-04T15:11:24.981Z</time></trkpt><trkpt lat="43.7520808" lon="11.3717113"><ele>460.00000000000006</ele><time>2026-05-04T15:11:26.981Z</time></trkpt><trkpt lat="43.7520125" lon="11.3716287"><ele>460.0</ele><time>2026-05-04T15:11:28.981Z</time></trkpt><trkpt lat="43.7519622" lon="11.3715508"><ele>460.00000000000006</ele><time>2026-05-04T15:11:30.983Z</time></trkpt><trkpt lat="43.751896" lon="11.3714875"><ele>460.0</ele><time>2026-05-04T15:11:33.983Z</time></trkpt><trkpt lat="43.7518135" lon="11.3714253"><ele>460.0</ele><time>2026-05-04T15:11:36.981Z</time></trkpt><trkpt lat="43.7517468" lon="11.3713643"><ele>460.0</ele><time>2026-05-04T15:11:38.981Z</time></trkpt><trkpt lat="43.7516902" lon="11.3713103"><ele>460.00000000000006</ele><time>2026-05-04T15:11:40.981Z</time></trkpt><trkpt lat="43.7516255" lon="11.371259"><ele>460.0</ele><time>2026-05-04T15:11:44.983Z</time></trkpt><trkpt lat="43.7515627" lon="11.3711777"><ele>461.83333333333337</ele><time>2026-05-04T15:11:47.98Z</time></trkpt><trkpt lat="43.7515115" lon="11.3711122"><ele>463.6666666666667</ele><time>2026-05-04T15:11:49.98Z</time></trkpt><trkpt lat="43.7514578" lon="11.3710348"><ele>465.5</ele><time>2026-05-04T15:11:53.982Z</time></trkpt><trkpt lat="43.7514048" lon="11.3709482"><ele>467.33333333333337</ele><time>2026-05-04T15:11:56.981Z</time></trkpt><trkpt lat="43.751371" lon="11.3708713"><ele>469.1666666666667</ele><time>2026-05-04T15:11:58.979Z</time></trkpt><trkpt lat="43.7513983" lon="11.3707467"><ele>471.0</ele><time>2026-05-04T15:12:09.98Z</time></trkpt><trkpt lat="43.7514618" lon="11.3706332"><ele>471.00000000000006</ele><time>2026-05-04T15:12:11.982Z</time></trkpt><trkpt lat="43.7514817" lon="11.3705493"><ele>471.0</ele><time>2026-05-04T15:12:12.982Z</time></trkpt><trkpt lat="43.7514888" lon="11.3704612"><ele>471.00000000000006</ele><time>2026-05-04T15:12:13.979Z</time></trkpt><trkpt lat="43.7514997" lon="11.3703262"><ele>471.00000000000006</ele><time>2026-05-04T15:12:15.979Z</time></trkpt><trkpt lat="43.7515475" lon="11.3702633"><ele>471.0</ele><time>2026-05-04T15:12:17.98Z</time></trkpt><trkpt lat="43.7515963" lon="11.370331"><ele>471.00000000000006</ele><time>2026-05-04T15:12:19.979Z</time></trkpt><trkpt lat="43.7515645" lon="11.3704182"><ele>471.00000000000006</ele><time>2026-05-04T15:12:21.979Z</time></trkpt><trkpt lat="43.751532" lon="11.3705022"><ele>471.0</ele><time>2026-05-04T15:12:23.979Z</time></trkpt><trkpt lat="43.7515842" lon="11.3705562"><ele>471.0</ele><time>2026-05-04T15:12:25.977Z</time></trkpt><trkpt lat="43.7516645" lon="11.3705445"><ele>471.0</ele><time>2026-05-04T15:12:27.979Z</time></trkpt><trkpt lat="43.7517302" lon="11.3704785"><ele>471.0</ele><time>2026-05-04T15:12:29.982Z</time></trkpt><trkpt lat="43.7517908" lon="11.3703487"><ele>471.0</ele><time>2026-05-04T15:12:31.983Z</time></trkpt><trkpt lat="43.7518493" lon="11.3703815"><ele>471.0</ele><time>2026-05-04T15:12:33.976Z</time></trkpt><trkpt lat="43.7518332" lon="11.3704813"><ele>471.0</ele><time>2026-05-04T15:12:35.978Z</time></trkpt><trkpt lat="43.7517818" lon="11.3706165"><ele>471.0</ele><time>2026-05-04T15:12:37.98Z</time></trkpt><trkpt lat="43.7517625" lon="11.3707992"><ele>471.0</ele><time>2026-05-04T15:12:39.98Z</time></trkpt><trkpt lat="43.7517657" lon="11.3709053"><ele>471.0</ele><time>2026-05-04T15:12:40.98Z</time></trkpt><trkpt lat="43.7517752" lon="11.3710177"><ele>471.0</ele><time>2026-05-04T15:12:41.979Z</time></trkpt><trkpt lat="43.751784" lon="11.3711168"><ele>471.0</ele><time>2026-05-04T15:12:42.979Z</time></trkpt><trkpt lat="43.751753" lon="11.3711983"><ele>471.0</ele><time>2026-05-04T15:12:44.98Z</time></trkpt><trkpt lat="43.751714" lon="11.371101"><ele>471.0</ele><time>2026-05-04T15:12:46.982Z</time></trkpt><trkpt lat="43.7517143" lon="11.370928"><ele>471.0</ele><time>2026-05-04T15:12:48.982Z</time></trkpt><trkpt lat="43.7516732" lon="11.3707947"><ele>471.0</ele><time>2026-05-04T15:12:50.982Z</time></trkpt><trkpt lat="43.7516128" lon="11.3707057"><ele>471.0</ele><time>2026-05-04T15:12:52.984Z</time></trkpt><trkpt lat="43.7515335" lon="11.3707357"><ele>471.0</ele><time>2026-05-04T15:12:54.982Z</time></trkpt><trkpt lat="43.751485" lon="11.3709037"><ele>471.0</ele><time>2026-05-04T15:12:56.981Z</time></trkpt><trkpt lat="43.7514275" lon="11.370984"><ele>471.0</ele><time>2026-05-04T15:12:58.979Z</time></trkpt><trkpt lat="43.751384" lon="11.3709078"><ele>471.0</ele><time>2026-05-04T15:13:00.98Z</time></trkpt><trkpt lat="43.751312" lon="11.3708253"><ele>471.00000000000006</ele><time>2026-05-04T15:22:55.977Z</time></trkpt><trkpt lat="43.7512665" lon="11.370887"><ele>471.0</ele><time>2026-05-04T15:23:12.979Z</time></trkpt><trkpt lat="43.7512252" lon="11.3709773"><ele>471.00000000000006</ele><time>2026-05-04T15:23:35.977Z</time></trkpt><trkpt lat="43.751202" lon="11.3710795"><ele>471.00000000000006</ele><time>2026-05-04T15:23:38.977Z</time></trkpt><trkpt lat="43.751201" lon="11.371167"><ele>471.0</ele><time>2026-05-04T15:23:40.98Z</time></trkpt><trkpt lat="43.7512132" lon="11.3712537"><ele>471.00000000000006</ele><time>2026-05-04T15:23:42.979Z</time></trkpt><trkpt lat="43.7512258" lon="11.3713437"><ele>471.00000000000006</ele><time>2026-05-04T15:23:44.978Z</time></trkpt><trkpt lat="43.7512307" lon="11.3714715"><ele>471.8571428571429</ele><time>2026-05-04T15:23:47.976Z</time></trkpt><trkpt lat="43.7512153" lon="11.371571"><ele>472.7142857142857</ele><time>2026-05-04T15:23:50.975Z</time></trkpt><trkpt lat="43.7511893" lon="11.3716807"><ele>473.57142857142856</ele><time>2026-05-04T15:23:53.976Z</time></trkpt><trkpt lat="43.7511675" lon="11.3717668"><ele>474.42857142857144</ele><time>2026-05-04T15:23:56.976Z</time></trkpt><trkpt lat="43.7511468" lon="11.3718608"><ele>475.2857142857142</ele><time>2026-05-04T15:23:59.977Z</time></trkpt><trkpt lat="43.7511672" lon="11.371972"><ele>476.1428571428571</ele><time>2026-05-04T15:24:02.978Z</time></trkpt><trkpt lat="43.7511987" lon="11.372058"><ele>477.0</ele><time>2026-05-04T15:24:05.979Z</time></trkpt><trkpt lat="43.7512502" lon="11.3721163"><ele>477.0</ele><time>2026-05-04T15:24:08.979Z</time></trkpt><trkpt lat="43.7512913" lon="11.3721882"><ele>476.99999999999994</ele><time>2026-05-04T15:24:11.976Z</time></trkpt><trkpt lat="43.7513015" lon="11.3722882"><ele>477.0</ele><time>2026-05-04T15:24:14.977Z</time></trkpt><trkpt lat="43.7513035" lon="11.3724068"><ele>477.0</ele><time>2026-05-04T15:24:17.983Z</time></trkpt><trkpt lat="43.7512995" lon="11.3725043"><ele>476.99999999999994</ele><time>2026-05-04T15:24:20.978Z</time></trkpt><trkpt lat="43.7512883" lon="11.3725958"><ele>477.0</ele><time>2026-05-04T15:24:23.975Z</time></trkpt><trkpt lat="43.7512652" lon="11.3726927"><ele>477.0</ele><time>2026-05-04T15:24:26.977Z</time></trkpt><trkpt lat="43.7512085" lon="11.3727578"><ele>478.6666666666667</ele><time>2026-05-04T15:24:29.98Z</time></trkpt><trkpt lat="43.7511645" lon="11.3728482"><ele>480.33333333333337</ele><time>2026-05-04T15:24:31.978Z</time></trkpt><trkpt lat="43.7511293" lon="11.3729462"><ele>482.0</ele><time>2026-05-04T15:24:33.974Z</time></trkpt><trkpt lat="43.7510887" lon="11.3730238"><ele>483.6666666666667</ele><time>2026-05-04T15:24:35.978Z</time></trkpt><trkpt lat="43.751023" lon="11.3730925"><ele>485.33333333333337</ele><time>2026-05-04T15:24:38.979Z</time></trkpt><trkpt lat="43.7509857" lon="11.3732095"><ele>487.0</ele><time>2026-05-04T15:24:41.979Z</time></trkpt><trkpt lat="43.7509858" lon="11.3733028"><ele>489.83333333333337</ele><time>2026-05-04T15:24:44.977Z</time></trkpt><trkpt lat="43.750951" lon="11.373411"><ele>492.6666666666667</ele><time>2026-05-04T15:24:47.977Z</time></trkpt><trkpt lat="43.7509015" lon="11.3735087"><ele>495.5</ele><time>2026-05-04T15:24:50.977Z</time></trkpt><trkpt lat="43.7508537" lon="11.3735685"><ele>498.33333333333337</ele><time>2026-05-04T15:24:52.977Z</time></trkpt><trkpt lat="43.7507832" lon="11.3736133"><ele>501.1666666666667</ele><time>2026-05-04T15:24:55.976Z</time></trkpt><trkpt lat="43.7507137" lon="11.3736432"><ele>504.0</ele><time>2026-05-04T15:24:58.981Z</time></trkpt><trkpt lat="43.7506593" lon="11.3736932"><ele>504.0</ele><time>2026-05-04T15:25:01.976Z</time></trkpt><trkpt lat="43.7506218" lon="11.3737673"><ele>504.0</ele><time>2026-05-04T15:25:07.979Z</time></trkpt><trkpt lat="43.750709" lon="11.373768"><ele>504.0</ele><time>2026-05-04T15:25:11.976Z</time></trkpt><trkpt lat="43.7507735" lon="11.3737585"><ele>504.0</ele><time>2026-05-04T15:25:13.975Z</time></trkpt><trkpt lat="43.7508403" lon="11.3737627"><ele>504.0</ele><time>2026-05-04T15:25:15.98Z</time></trkpt><trkpt lat="43.7509033" lon="11.373773"><ele>504.0</ele><time>2026-05-04T15:25:18.978Z</time></trkpt><trkpt lat="43.7509705" lon="11.3737877"><ele>504.0</ele><time>2026-05-04T15:25:21.979Z</time></trkpt><trkpt lat="43.7510405" lon="11.3738137"><ele>503.3333333333333</ele><time>2026-05-04T15:25:24.977Z</time></trkpt><trkpt lat="43.7511005" lon="11.373846"><ele>502.66666666666663</ele><time>2026-05-04T15:25:26.981Z</time></trkpt><trkpt lat="43.751167" lon="11.3739135"><ele>502.0</ele><time>2026-05-04T15:25:29.975Z</time></trkpt><trkpt lat="43.75123" lon="11.373972"><ele>501.3333333333333</ele><time>2026-05-04T15:25:32.976Z</time></trkpt><trkpt lat="43.7512907" lon="11.374039"><ele>500.66666666666663</ele><time>2026-05-04T15:25:35.975Z</time></trkpt><trkpt lat="43.7513482" lon="11.3741465"><ele>500.0</ele><time>2026-05-04T15:25:38.976Z</time></trkpt><trkpt lat="43.7513888" lon="11.3742258"><ele>502.8333333333333</ele><time>2026-05-04T15:25:40.976Z</time></trkpt><trkpt lat="43.7514342" lon="11.3743022"><ele>505.66666666666663</ele><time>2026-05-04T15:25:42.977Z</time></trkpt><trkpt lat="43.7514913" lon="11.3743967"><ele>508.5</ele><time>2026-05-04T15:25:45.978Z</time></trkpt><trkpt lat="43.751549" lon="11.3744733"><ele>511.33333333333337</ele><time>2026-05-04T15:25:48.974Z</time></trkpt><trkpt lat="43.7515905" lon="11.3745628"><ele>514.1666666666667</ele><time>2026-05-04T15:25:51.974Z</time></trkpt><trkpt lat="43.7516272" lon="11.3746518"><ele>517.0</ele><time>2026-05-04T15:25:54.977Z</time></trkpt><trkpt lat="43.7516612" lon="11.3747293"><ele>519.0</ele><time>2026-05-04T15:25:57.977Z</time></trkpt><trkpt lat="43.751698" lon="11.3748035"><ele>521.0</ele><time>2026-05-04T15:26:00.978Z</time></trkpt><trkpt lat="43.7517413" lon="11.374882"><ele>523.0</ele><time>2026-05-04T15:26:03.977Z</time></trkpt><trkpt lat="43.7517803" lon="11.3749988"><ele>525.0</ele><time>2026-05-04T15:26:06.978Z</time></trkpt><trkpt lat="43.7518007" lon="11.3750923"><ele>527.0</ele><time>2026-05-04T15:26:08.979Z</time></trkpt><trkpt lat="43.751812" lon="11.3751782"><ele>529.0</ele><time>2026-05-04T15:26:10.976Z</time></trkpt><trkpt lat="43.7518222" lon="11.3752655"><ele>531.0</ele><time>2026-05-04T15:26:12.974Z</time></trkpt><trkpt lat="43.751815" lon="11.375393"><ele>532.6666666666666</ele><time>2026-05-04T15:26:15.975Z</time></trkpt><trkpt lat="43.7518048" lon="11.3755258"><ele>534.3333333333334</ele><time>2026-05-04T15:26:18.975Z</time></trkpt><trkpt lat="43.7518012" lon="11.3756238"><ele>536.0</ele><time>2026-05-04T15:26:20.972Z</time></trkpt><trkpt lat="43.7518075" lon="11.3757442"><ele>537.6666666666667</ele><time>2026-05-04T15:26:23.977Z</time></trkpt><trkpt lat="43.7517918" lon="11.3758515"><ele>539.3333333333334</ele><time>2026-05-04T15:26:26.976Z</time></trkpt><trkpt lat="43.7517623" lon="11.375966"><ele>541.0</ele><time>2026-05-04T15:26:29.974Z</time></trkpt><trkpt lat="43.751761" lon="11.3760625"><ele>541.0</ele><time>2026-05-04T15:26:31.976Z</time></trkpt><trkpt lat="43.7517562" lon="11.3761605"><ele>541.0</ele><time>2026-05-04T15:26:33.975Z</time></trkpt><trkpt lat="43.7517523" lon="11.3762657"><ele>541.0</ele><time>2026-05-04T15:26:36.975Z</time></trkpt><trkpt lat="43.7517475" lon="11.3763707"><ele>541.0</ele><time>2026-05-04T15:26:48.975Z</time></trkpt><trkpt lat="43.7517438" lon="11.3764637"><ele>541.0</ele><time>2026-05-04T15:26:50.975Z</time></trkpt><trkpt lat="43.7517977" lon="11.3765278"><ele>541.0</ele><time>2026-05-04T15:26:52.974Z</time></trkpt><trkpt lat="43.7519167" lon="11.3766143"><ele>539.5714285714287</ele><time>2026-05-04T15:26:54.975Z</time></trkpt><trkpt lat="43.751978" lon="11.3766768"><ele>538.1428571428571</ele><time>2026-05-04T15:26:55.977Z</time></trkpt><trkpt lat="43.7520433" lon="11.376737"><ele>536.7142857142858</ele><time>2026-05-04T15:26:56.976Z</time></trkpt><trkpt lat="43.7521045" lon="11.3767953"><ele>535.2857142857143</ele><time>2026-05-04T15:26:57.976Z</time></trkpt><trkpt lat="43.7521685" lon="11.3768482"><ele>533.8571428571429</ele><time>2026-05-04T15:26:58.974Z</time></trkpt><trkpt lat="43.752225" lon="11.3769138"><ele>532.4285714285714</ele><time>2026-05-04T15:26:59.973Z</time></trkpt><trkpt lat="43.7522765" lon="11.3769753"><ele>531.0</ele><time>2026-05-04T15:27:00.975Z</time></trkpt><trkpt lat="43.7523365" lon="11.3770592"><ele>531.0</ele><time>2026-05-04T15:27:01.975Z</time></trkpt><trkpt lat="43.7523878" lon="11.3771417"><ele>531.0</ele><time>2026-05-04T15:27:02.974Z</time></trkpt><trkpt lat="43.7524417" lon="11.3772187"><ele>531.0</ele><time>2026-05-04T15:27:03.975Z</time></trkpt><trkpt lat="43.752501" lon="11.3772968"><ele>531.0</ele><time>2026-05-04T15:27:04.976Z</time></trkpt><trkpt lat="43.7525545" lon="11.377369"><ele>531.0</ele><time>2026-05-04T15:27:05.979Z</time></trkpt><trkpt lat="43.7526043" lon="11.3774407"><ele>531.0</ele><time>2026-05-04T15:27:06.975Z</time></trkpt><trkpt lat="43.752653" lon="11.3775093"><ele>530.8571428571429</ele><time>2026-05-04T15:27:07.974Z</time></trkpt><trkpt lat="43.7527073" lon="11.3775778"><ele>530.7142857142858</ele><time>2026-05-04T15:27:08.975Z</time></trkpt><trkpt lat="43.7527572" lon="11.3776443"><ele>530.5714285714286</ele><time>2026-05-04T15:27:09.973Z</time></trkpt><trkpt lat="43.7528027" lon="11.377714"><ele>530.4285714285714</ele><time>2026-05-04T15:27:10.976Z</time></trkpt><trkpt lat="43.7528525" lon="11.37779"><ele>530.2857142857142</ele><time>2026-05-04T15:27:11.975Z</time></trkpt><trkpt lat="43.7529035" lon="11.3778627"><ele>530.1428571428571</ele><time>2026-05-04T15:27:12.974Z</time></trkpt><trkpt lat="43.7529522" lon="11.3779293"><ele>530.0</ele><time>2026-05-04T15:27:13.974Z</time></trkpt><trkpt lat="43.7529977" lon="11.3779948"><ele>531.8571428571428</ele><time>2026-05-04T15:27:14.975Z</time></trkpt><trkpt lat="43.7530397" lon="11.3780603"><ele>533.7142857142857</ele><time>2026-05-04T15:27:15.973Z</time></trkpt><trkpt lat="43.7530845" lon="11.378129"><ele>535.5714285714286</ele><time>2026-05-04T15:27:16.978Z</time></trkpt><trkpt lat="43.7531323" lon="11.3782022"><ele>537.4285714285713</ele><time>2026-05-04T15:27:17.977Z</time></trkpt><trkpt lat="43.7531843" lon="11.3782797"><ele>539.2857142857142</ele><time>2026-05-04T15:27:18.977Z</time></trkpt><trkpt lat="43.7532308" lon="11.3783498"><ele>541.1428571428571</ele><time>2026-05-04T15:27:19.977Z</time></trkpt><trkpt lat="43.7533035" lon="11.3784365"><ele>543.0</ele><time>2026-05-04T15:27:21.982Z</time></trkpt><trkpt lat="43.7533895" lon="11.3784272"><ele>543.0</ele><time>2026-05-04T15:27:24.974Z</time></trkpt><trkpt lat="43.7534637" lon="11.378472"><ele>543.0</ele><time>2026-05-04T15:27:26.973Z</time></trkpt><trkpt lat="43.7535173" lon="11.3785633"><ele>543.0</ele><time>2026-05-04T15:28:51.974Z</time></trkpt><trkpt lat="43.7535458" lon="11.3786462"><ele>543.0</ele><time>2026-05-04T15:28:53.975Z</time></trkpt><trkpt lat="43.7535505" lon="11.3787792"><ele>543.0</ele><time>2026-05-04T15:28:57.974Z</time></trkpt><trkpt lat="43.7536023" lon="11.378903"><ele>543.0</ele><time>2026-05-04T15:28:59.972Z</time></trkpt><trkpt lat="43.7536417" lon="11.378978"><ele>540.0</ele><time>2026-05-04T15:29:00.974Z</time></trkpt><trkpt lat="43.753696" lon="11.3790623"><ele>537.0</ele><time>2026-05-04T15:29:01.974Z</time></trkpt><trkpt lat="43.75376" lon="11.3791437"><ele>534.0</ele><time>2026-05-04T15:29:02.974Z</time></trkpt><trkpt lat="43.7538268" lon="11.3792185"><ele>531.0</ele><time>2026-05-04T15:29:03.972Z</time></trkpt><trkpt lat="43.7538887" lon="11.3792898"><ele>528.0</ele><time>2026-05-04T15:29:04.973Z</time></trkpt><trkpt lat="43.7539392" lon="11.3793552"><ele>525.0</ele><time>2026-05-04T15:29:05.972Z</time></trkpt><trkpt lat="43.7539845" lon="11.3794163"><ele>525.0</ele><time>2026-05-04T15:29:06.975Z</time></trkpt><trkpt lat="43.754027" lon="11.3795203"><ele>525.0</ele><time>2026-05-04T15:29:08.973Z</time></trkpt><trkpt lat="43.7539838" lon="11.37963"><ele>525.0</ele><time>2026-05-04T15:29:10.972Z</time></trkpt><trkpt lat="43.7538903" lon="11.3796978"><ele>525.0</ele><time>2026-05-04T15:29:12.974Z</time></trkpt><trkpt lat="43.7538157" lon="11.379677"><ele>525.0</ele><time>2026-05-04T15:29:13.973Z</time></trkpt><trkpt lat="43.7537433" lon="11.3796597"><ele>525.0</ele><time>2026-05-04T15:29:14.974Z</time></trkpt><trkpt lat="43.7536808" lon="11.3796483"><ele>525.0</ele><time>2026-05-04T15:29:15.973Z</time></trkpt><trkpt lat="43.7535577" lon="11.3796547"><ele>525.0</ele><time>2026-05-04T15:29:17.973Z</time></trkpt><trkpt lat="43.7534857" lon="11.3796532"><ele>525.0</ele><time>2026-05-04T15:29:18.972Z</time></trkpt><trkpt lat="43.753407" lon="11.3796627"><ele>525.0</ele><time>2026-05-04T15:29:19.971Z</time></trkpt><trkpt lat="43.7533173" lon="11.3796663"><ele>525.0</ele><time>2026-05-04T15:29:20.975Z</time></trkpt><trkpt lat="43.7532302" lon="11.37968"><ele>525.6666666666666</ele><time>2026-05-04T15:29:21.973Z</time></trkpt><trkpt lat="43.753137" lon="11.3796905"><ele>526.3333333333334</ele><time>2026-05-04T15:29:22.971Z</time></trkpt><trkpt lat="43.7530458" lon="11.3797033"><ele>527.0</ele><time>2026-05-04T15:29:23.97Z</time></trkpt><trkpt lat="43.75296" lon="11.3797228"><ele>527.6666666666667</ele><time>2026-05-04T15:29:24.973Z</time></trkpt><trkpt lat="43.7528777" lon="11.3797457"><ele>528.3333333333334</ele><time>2026-05-04T15:29:25.972Z</time></trkpt><trkpt lat="43.7528" lon="11.3797672"><ele>529.0</ele><time>2026-05-04T15:29:26.972Z</time></trkpt><trkpt lat="43.7527203" lon="11.3797888"><ele>530.0</ele><time>2026-05-04T15:29:27.973Z</time></trkpt><trkpt lat="43.7526427" lon="11.379809"><ele>531.0</ele><time>2026-05-04T15:29:28.972Z</time></trkpt><trkpt lat="43.7525738" lon="11.3798347"><ele>532.0</ele><time>2026-05-04T15:29:29.973Z</time></trkpt><trkpt lat="43.7525003" lon="11.3798627"><ele>533.0</ele><time>2026-05-04T15:29:30.972Z</time></trkpt><trkpt lat="43.752428" lon="11.379899"><ele>534.0</ele><time>2026-05-04T15:29:31.971Z</time></trkpt><trkpt lat="43.7523557" lon="11.379944"><ele>535.0</ele><time>2026-05-04T15:29:32.973Z</time></trkpt><trkpt lat="43.7522882" lon="11.3799963"><ele>535.0</ele><time>2026-05-04T15:29:33.972Z</time></trkpt><trkpt lat="43.7522202" lon="11.3800563"><ele>535.0</ele><time>2026-05-04T15:29:34.973Z</time></trkpt><trkpt lat="43.752146" lon="11.3801143"><ele>535.0</ele><time>2026-05-04T15:29:35.971Z</time></trkpt><trkpt lat="43.7520663" lon="11.380174"><ele>535.0</ele><time>2026-05-04T15:29:36.973Z</time></trkpt><trkpt lat="43.7519868" lon="11.3802323"><ele>535.0</ele><time>2026-05-04T15:29:37.976Z</time></trkpt><trkpt lat="43.75191" lon="11.3802827"><ele>535.0</ele><time>2026-05-04T15:29:38.973Z</time></trkpt><trkpt lat="43.751828" lon="11.3803012"><ele>535.5</ele><time>2026-05-04T15:29:39.972Z</time></trkpt><trkpt lat="43.7517435" lon="11.3802892"><ele>536.0</ele><time>2026-05-04T15:29:40.976Z</time></trkpt><trkpt lat="43.7516588" lon="11.3802457"><ele>536.5</ele><time>2026-05-04T15:29:41.973Z</time></trkpt><trkpt lat="43.7515783" lon="11.3802008"><ele>537.0</ele><time>2026-05-04T15:29:42.972Z</time></trkpt><trkpt lat="43.7515087" lon="11.3801563"><ele>537.5</ele><time>2026-05-04T15:29:43.973Z</time></trkpt><trkpt lat="43.751435" lon="11.3801115"><ele>538.0</ele><time>2026-05-04T15:29:44.973Z</time></trkpt><trkpt lat="43.7513667" lon="11.380106"><ele>538.0</ele><time>2026-05-04T15:29:45.974Z</time></trkpt><trkpt lat="43.7513002" lon="11.3801303"><ele>538.0</ele><time>2026-05-04T15:29:46.975Z</time></trkpt><trkpt lat="43.7512508" lon="11.3801902"><ele>538.0</ele><time>2026-05-04T15:29:47.973Z</time></trkpt><trkpt lat="43.7512137" lon="11.3803637"><ele>538.0</ele><time>2026-05-04T15:29:49.973Z</time></trkpt><trkpt lat="43.7512442" lon="11.3804688"><ele>538.0</ele><time>2026-05-04T15:29:50.974Z</time></trkpt><trkpt lat="43.751294" lon="11.3805678"><ele>538.0</ele><time>2026-05-04T15:29:51.976Z</time></trkpt><trkpt lat="43.7513475" lon="11.3806675"><ele>535.4</ele><time>2026-05-04T15:29:52.973Z</time></trkpt><trkpt lat="43.751407" lon="11.3807592"><ele>532.8</ele><time>2026-05-04T15:29:53.974Z</time></trkpt><trkpt lat="43.7514902" lon="11.3808357"><ele>530.2</ele><time>2026-05-04T15:29:54.965Z</time></trkpt><trkpt lat="43.7515898" lon="11.3808913"><ele>527.6</ele><time>2026-05-04T15:29:55.974Z</time></trkpt><trkpt lat="43.7516988" lon="11.3809358"><ele>525.0</ele><time>2026-05-04T15:29:56.975Z</time></trkpt><trkpt lat="43.7518045" lon="11.380977"><ele>523.8</ele><time>2026-05-04T15:29:57.973Z</time></trkpt><trkpt lat="43.7519135" lon="11.3810128"><ele>522.6</ele><time>2026-05-04T15:29:58.973Z</time></trkpt><trkpt lat="43.7520228" lon="11.3810535"><ele>521.4</ele><time>2026-05-04T15:29:59.973Z</time></trkpt><trkpt lat="43.7521298" lon="11.3810857"><ele>520.2</ele><time>2026-05-04T15:30:00.975Z</time></trkpt><trkpt lat="43.7522308" lon="11.3811075"><ele>519.0</ele><time>2026-05-04T15:30:01.972Z</time></trkpt><trkpt lat="43.752326" lon="11.3811267"><ele>519.0</ele><time>2026-05-04T15:30:02.973Z</time></trkpt><trkpt lat="43.7524128" lon="11.381127"><ele>519.0</ele><time>2026-05-04T15:30:03.972Z</time></trkpt><trkpt lat="43.7525123" lon="11.3811013"><ele>519.0</ele><time>2026-05-04T15:30:04.974Z</time></trkpt><trkpt lat="43.7526095" lon="11.3810557"><ele>519.0</ele><time>2026-05-04T15:30:05.973Z</time></trkpt><trkpt lat="43.7526975" lon="11.3810013"><ele>519.0</ele><time>2026-05-04T15:30:06.975Z</time></trkpt><trkpt lat="43.7527735" lon="11.3809363"><ele>517.3333333333334</ele><time>2026-05-04T15:30:07.976Z</time></trkpt><trkpt lat="43.7528472" lon="11.3808617"><ele>515.6666666666666</ele><time>2026-05-04T15:30:08.974Z</time></trkpt><trkpt lat="43.7529268" lon="11.3808037"><ele>514.0</ele><time>2026-05-04T15:30:09.976Z</time></trkpt><trkpt lat="43.7529973" lon="11.3807532"><ele>512.3333333333333</ele><time>2026-05-04T15:30:10.974Z</time></trkpt><trkpt lat="43.7530712" lon="11.3807227"><ele>510.66666666666663</ele><time>2026-05-04T15:30:11.971Z</time></trkpt><trkpt lat="43.7531505" lon="11.3807022"><ele>509.0</ele><time>2026-05-04T15:30:12.974Z</time></trkpt><trkpt lat="43.7532292" lon="11.3807017"><ele>509.0</ele><time>2026-05-04T15:30:13.971Z</time></trkpt><trkpt lat="43.7533028" lon="11.3807433"><ele>509.0</ele><time>2026-05-04T15:30:14.974Z</time></trkpt><trkpt lat="43.7533697" lon="11.380812"><ele>509.0</ele><time>2026-05-04T15:30:15.973Z</time></trkpt><trkpt lat="43.753437" lon="11.3809177"><ele>509.0</ele><time>2026-05-04T15:30:16.973Z</time></trkpt><trkpt lat="43.7534928" lon="11.3810353"><ele>509.0</ele><time>2026-05-04T15:30:17.973Z</time></trkpt><trkpt lat="43.7535572" lon="11.3811603"><ele>507.79999999999995</ele><time>2026-05-04T15:30:18.972Z</time></trkpt><trkpt lat="43.7536235" lon="11.3812947"><ele>506.59999999999997</ele><time>2026-05-04T15:30:19.972Z</time></trkpt><trkpt lat="43.7536788" lon="11.3814195"><ele>505.4</ele><time>2026-05-04T15:30:20.97Z</time></trkpt><trkpt lat="43.7537335" lon="11.3815463"><ele>504.2</ele><time>2026-05-04T15:30:21.974Z</time></trkpt><trkpt lat="43.7537862" lon="11.3816692"><ele>503.0</ele><time>2026-05-04T15:30:22.973Z</time></trkpt><trkpt lat="43.7538407" lon="11.3817927"><ele>503.0</ele><time>2026-05-04T15:30:23.974Z</time></trkpt><trkpt lat="43.7538877" lon="11.3819202"><ele>502.99999999999994</ele><time>2026-05-04T15:30:24.972Z</time></trkpt><trkpt lat="43.753932" lon="11.3820548"><ele>502.99999999999994</ele><time>2026-05-04T15:30:25.973Z</time></trkpt><trkpt lat="43.7539687" lon="11.3821933"><ele>503.0</ele><time>2026-05-04T15:30:26.978Z</time></trkpt><trkpt lat="43.7539987" lon="11.3823293"><ele>503.0</ele><time>2026-05-04T15:30:27.971Z</time></trkpt><trkpt lat="43.7540352" lon="11.3824722"><ele>499.59999999999997</ele><time>2026-05-04T15:30:28.976Z</time></trkpt><trkpt lat="43.7540643" lon="11.3826182"><ele>496.19999999999993</ele><time>2026-05-04T15:30:29.974Z</time></trkpt><trkpt lat="43.7540928" lon="11.3827702"><ele>492.8</ele><time>2026-05-04T15:30:30.973Z</time></trkpt><trkpt lat="43.7541178" lon="11.3829217"><ele>489.4</ele><time>2026-05-04T15:30:31.979Z</time></trkpt><trkpt lat="43.7541395" lon="11.3830738"><ele>486.0</ele><time>2026-05-04T15:30:32.973Z</time></trkpt><trkpt lat="43.7541578" lon="11.383227"><ele>483.20000000000005</ele><time>2026-05-04T15:30:33.972Z</time></trkpt><trkpt lat="43.754173" lon="11.383379"><ele>480.40000000000003</ele><time>2026-05-04T15:30:34.975Z</time></trkpt><trkpt lat="43.7541852" lon="11.3835315"><ele>477.6</ele><time>2026-05-04T15:30:35.974Z</time></trkpt><trkpt lat="43.7541942" lon="11.3836722"><ele>474.8</ele><time>2026-05-04T15:30:36.976Z</time></trkpt><trkpt lat="43.7542087" lon="11.3838072"><ele>472.0</ele><time>2026-05-04T15:30:37.973Z</time></trkpt><trkpt lat="43.7542265" lon="11.3839365"><ele>470.0</ele><time>2026-05-04T15:30:38.973Z</time></trkpt><trkpt lat="43.7542438" lon="11.384059"><ele>468.00000000000006</ele><time>2026-05-04T15:30:39.972Z</time></trkpt><trkpt lat="43.754264" lon="11.3841895"><ele>466.00000000000006</ele><time>2026-05-04T15:30:40.972Z</time></trkpt><trkpt lat="43.7542808" lon="11.384313"><ele>464.0</ele><time>2026-05-04T15:30:41.973Z</time></trkpt><trkpt lat="43.7542905" lon="11.3844378"><ele>462.0</ele><time>2026-05-04T15:30:42.974Z</time></trkpt><trkpt lat="43.7542955" lon="11.3845613"><ele>462.0</ele><time>2026-05-04T15:30:43.974Z</time></trkpt><trkpt lat="43.7542832" lon="11.3846742"><ele>462.0</ele><time>2026-05-04T15:30:44.971Z</time></trkpt><trkpt lat="43.7542563" lon="11.3847873"><ele>462.0</ele><time>2026-05-04T15:30:45.973Z</time></trkpt><trkpt lat="43.75422" lon="11.3848973"><ele>462.0</ele><time>2026-05-04T15:30:46.975Z</time></trkpt><trkpt lat="43.7541878" lon="11.3850018"><ele>462.0</ele><time>2026-05-04T15:30:47.975Z</time></trkpt><trkpt lat="43.7541707" lon="11.3851092"><ele>462.0</ele><time>2026-05-04T15:30:48.975Z</time></trkpt><trkpt lat="43.7541773" lon="11.3852158"><ele>460.6666666666667</ele><time>2026-05-04T15:30:49.974Z</time></trkpt><trkpt lat="43.7542067" lon="11.3853067"><ele>459.33333333333337</ele><time>2026-05-04T15:30:50.973Z</time></trkpt><trkpt lat="43.754259" lon="11.385381"><ele>458.0</ele><time>2026-05-04T15:30:51.973Z</time></trkpt><trkpt lat="43.7543142" lon="11.385442"><ele>456.6666666666667</ele><time>2026-05-04T15:30:52.974Z</time></trkpt><trkpt lat="43.7543878" lon="11.3854613"><ele>455.33333333333337</ele><time>2026-05-04T15:30:53.974Z</time></trkpt><trkpt lat="43.7544738" lon="11.3854507"><ele>454.0</ele><time>2026-05-04T15:30:54.975Z</time></trkpt><trkpt lat="43.754557" lon="11.3854012"><ele>452.1666666666667</ele><time>2026-05-04T15:30:55.974Z</time></trkpt><trkpt lat="43.7546243" lon="11.3853357"><ele>450.33333333333337</ele><time>2026-05-04T15:30:56.973Z</time></trkpt><trkpt lat="43.7546732" lon="11.385254"><ele>448.5</ele><time>2026-05-04T15:30:57.973Z</time></trkpt><trkpt lat="43.7547252" lon="11.3851703"><ele>446.66666666666663</ele><time>2026-05-04T15:30:58.973Z</time></trkpt><trkpt lat="43.7547732" lon="11.385067"><ele>444.8333333333333</ele><time>2026-05-04T15:30:59.973Z</time></trkpt><trkpt lat="43.7548188" lon="11.3849517"><ele>443.0</ele><time>2026-05-04T15:31:00.973Z</time></trkpt><trkpt lat="43.7548637" lon="11.3848318"><ele>442.99999999999994</ele><time>2026-05-04T15:31:01.974Z</time></trkpt><trkpt lat="43.7549172" lon="11.3847118"><ele>443.0</ele><time>2026-05-04T15:31:02.973Z</time></trkpt><trkpt lat="43.7549738" lon="11.3846155"><ele>443.0</ele><time>2026-05-04T15:31:03.971Z</time></trkpt><trkpt lat="43.7550315" lon="11.384526"><ele>443.0</ele><time>2026-05-04T15:31:04.975Z</time></trkpt><trkpt lat="43.7550902" lon="11.38445"><ele>442.99999999999994</ele><time>2026-05-04T15:31:05.971Z</time></trkpt><trkpt lat="43.7551495" lon="11.3843972"><ele>443.0</ele><time>2026-05-04T15:31:06.974Z</time></trkpt><trkpt lat="43.7552168" lon="11.3843653"><ele>444.59999999999997</ele><time>2026-05-04T15:31:07.973Z</time></trkpt><trkpt lat="43.7552995" lon="11.3843848"><ele>446.19999999999993</ele><time>2026-05-04T15:31:08.972Z</time></trkpt><trkpt lat="43.755392" lon="11.3844252"><ele>447.8</ele><time>2026-05-04T15:31:09.973Z</time></trkpt><trkpt lat="43.7554858" lon="11.3844722"><ele>449.4</ele><time>2026-05-04T15:31:10.974Z</time></trkpt><trkpt lat="43.755576" lon="11.3845185"><ele>451.0</ele><time>2026-05-04T15:31:11.971Z</time></trkpt><trkpt lat="43.7556665" lon="11.3845728"><ele>451.00000000000006</ele><time>2026-05-04T15:31:12.972Z</time></trkpt><trkpt lat="43.7557523" lon="11.3846257"><ele>451.0</ele><time>2026-05-04T15:31:13.972Z</time></trkpt><trkpt lat="43.755836" lon="11.38468"><ele>451.0</ele><time>2026-05-04T15:31:14.973Z</time></trkpt><trkpt lat="43.7559143" lon="11.3847323"><ele>451.0</ele><time>2026-05-04T15:31:15.975Z</time></trkpt><trkpt lat="43.755997" lon="11.3847702"><ele>451.00000000000006</ele><time>2026-05-04T15:31:16.973Z</time></trkpt><trkpt lat="43.7560787" lon="11.384801"><ele>451.0</ele><time>2026-05-04T15:31:17.971Z</time></trkpt><trkpt lat="43.7561633" lon="11.3848227"><ele>447.1666666666667</ele><time>2026-05-04T15:31:18.972Z</time></trkpt><trkpt lat="43.7562442" lon="11.3848397"><ele>443.33333333333337</ele><time>2026-05-04T15:31:19.971Z</time></trkpt><trkpt lat="43.7563298" lon="11.3848598"><ele>439.5</ele><time>2026-05-04T15:31:20.971Z</time></trkpt><trkpt lat="43.756411" lon="11.3848802"><ele>435.66666666666663</ele><time>2026-05-04T15:31:21.973Z</time></trkpt><trkpt lat="43.7564815" lon="11.3849168"><ele>431.8333333333333</ele><time>2026-05-04T15:31:22.973Z</time></trkpt><trkpt lat="43.7565503" lon="11.3849682"><ele>428.0</ele><time>2026-05-04T15:31:23.974Z</time></trkpt><trkpt lat="43.75663" lon="11.3850637"><ele>428.0</ele><time>2026-05-04T15:31:24.973Z</time></trkpt><trkpt lat="43.7566968" lon="11.3851655"><ele>427.99999999999994</ele><time>2026-05-04T15:31:25.97Z</time></trkpt><trkpt lat="43.7567612" lon="11.3852593"><ele>427.99999999999994</ele><time>2026-05-04T15:31:26.973Z</time></trkpt><trkpt lat="43.7568198" lon="11.3853515"><ele>428.0</ele><time>2026-05-04T15:31:27.972Z</time></trkpt><trkpt lat="43.756867" lon="11.3854612"><ele>428.0</ele><time>2026-05-04T15:31:28.971Z</time></trkpt><trkpt lat="43.7569017" lon="11.3855833"><ele>422.79999999999995</ele><time>2026-05-04T15:31:29.973Z</time></trkpt><trkpt lat="43.7569313" lon="11.3857082"><ele>417.59999999999997</ele><time>2026-05-04T15:31:30.973Z</time></trkpt><trkpt lat="43.7569493" lon="11.3858437"><ele>412.4</ele><time>2026-05-04T15:31:31.971Z</time></trkpt><trkpt lat="43.7569523" lon="11.3859893"><ele>407.20000000000005</ele><time>2026-05-04T15:31:32.974Z</time></trkpt><trkpt lat="43.7569588" lon="11.3861392"><ele>402.0</ele><time>2026-05-04T15:31:33.97Z</time></trkpt><trkpt lat="43.7569622" lon="11.386293"><ele>402.0</ele><time>2026-05-04T15:31:34.975Z</time></trkpt><trkpt lat="43.7569675" lon="11.3864427"><ele>402.0</ele><time>2026-05-04T15:31:35.971Z</time></trkpt><trkpt lat="43.7569745" lon="11.3865912"><ele>402.0</ele><time>2026-05-04T15:31:36.973Z</time></trkpt><trkpt lat="43.7569815" lon="11.3867305"><ele>402.0</ele><time>2026-05-04T15:31:37.971Z</time></trkpt><trkpt lat="43.7569813" lon="11.3868652"><ele>402.0</ele><time>2026-05-04T15:31:38.974Z</time></trkpt><trkpt lat="43.7569645" lon="11.3869832"><ele>402.0</ele><time>2026-05-04T15:31:39.972Z</time></trkpt><trkpt lat="43.7569583" lon="11.3870872"><ele>402.0</ele><time>2026-05-04T15:31:40.974Z</time></trkpt><trkpt lat="43.7569658" lon="11.3871865"><ele>402.0</ele><time>2026-05-04T15:31:41.973Z</time></trkpt><trkpt lat="43.7570128" lon="11.3873137"><ele>402.0</ele><time>2026-05-04T15:31:43.972Z</time></trkpt><trkpt lat="43.7570277" lon="11.3874017"><ele>402.0</ele><time>2026-05-04T15:31:45.972Z</time></trkpt><trkpt lat="43.7570272" lon="11.3874952"><ele>402.0</ele><time>2026-05-04T15:31:47.972Z</time></trkpt><trkpt lat="43.75701" lon="11.3876113"><ele>402.3333333333333</ele><time>2026-05-04T15:31:49.972Z</time></trkpt><trkpt lat="43.7569933" lon="11.3877087"><ele>402.66666666666663</ele><time>2026-05-04T15:31:51.974Z</time></trkpt><trkpt lat="43.7568893" lon="11.3876972"><ele>403.0</ele><time>2026-05-04T15:31:54.973Z</time></trkpt><trkpt lat="43.7568323" lon="11.3876372"><ele>403.3333333333333</ele><time>2026-05-04T15:31:55.972Z</time></trkpt><trkpt lat="43.7567807" lon="11.3875818"><ele>403.66666666666663</ele><time>2026-05-04T15:31:56.973Z</time></trkpt><trkpt lat="43.7567058" lon="11.3874478"><ele>404.0</ele><time>2026-05-04T15:31:58.973Z</time></trkpt><trkpt lat="43.7566578" lon="11.3873803"><ele>404.5</ele><time>2026-05-04T15:31:59.972Z</time></trkpt><trkpt lat="43.7565522" lon="11.3872882"><ele>405.0</ele><time>2026-05-04T15:32:01.973Z</time></trkpt><trkpt lat="43.7564417" lon="11.3873088"><ele>405.5</ele><time>2026-05-04T15:32:03.97Z</time></trkpt><trkpt lat="43.7563442" lon="11.3874"><ele>406.0</ele><time>2026-05-04T15:32:05.97Z</time></trkpt><trkpt lat="43.756268" lon="11.3875267"><ele>406.0</ele><time>2026-05-04T15:32:07.972Z</time></trkpt><trkpt lat="43.756238" lon="11.38761"><ele>406.0</ele><time>2026-05-04T15:32:08.97Z</time></trkpt><trkpt lat="43.7561763" lon="11.3877478"><ele>406.0</ele><time>2026-05-04T15:32:10.973Z</time></trkpt><trkpt lat="43.756135" lon="11.387883"><ele>406.0</ele><time>2026-05-04T15:32:12.972Z</time></trkpt><trkpt lat="43.7560958" lon="11.3880315"><ele>406.0</ele><time>2026-05-04T15:32:14.972Z</time></trkpt><trkpt lat="43.7560393" lon="11.3881893"><ele>406.83333333333337</ele><time>2026-05-04T15:32:16.972Z</time></trkpt><trkpt lat="43.7560043" lon="11.3882877"><ele>407.6666666666667</ele><time>2026-05-04T15:32:17.971Z</time></trkpt><trkpt lat="43.755972" lon="11.3883843"><ele>408.5</ele><time>2026-05-04T15:32:18.972Z</time></trkpt><trkpt lat="43.7559408" lon="11.3884792"><ele>409.33333333333337</ele><time>2026-05-04T15:32:19.97Z</time></trkpt><trkpt lat="43.7559055" lon="11.3885837"><ele>410.1666666666667</ele><time>2026-05-04T15:32:20.97Z</time></trkpt><trkpt lat="43.7558717" lon="11.3886848"><ele>411.0</ele><time>2026-05-04T15:32:21.971Z</time></trkpt><trkpt lat="43.755833" lon="11.3887808"><ele>408.5</ele><time>2026-05-04T15:32:22.971Z</time></trkpt><trkpt lat="43.755785" lon="11.3888715"><ele>406.0</ele><time>2026-05-04T15:32:23.971Z</time></trkpt><trkpt lat="43.7557265" lon="11.3889492"><ele>403.5</ele><time>2026-05-04T15:32:24.97Z</time></trkpt><trkpt lat="43.7556685" lon="11.389027"><ele>401.0</ele><time>2026-05-04T15:32:25.971Z</time></trkpt><trkpt lat="43.7556095" lon="11.389103"><ele>398.5</ele><time>2026-05-04T15:32:26.972Z</time></trkpt><trkpt lat="43.7555508" lon="11.389172"><ele>396.0</ele><time>2026-05-04T15:32:27.97Z</time></trkpt><trkpt lat="43.7554968" lon="11.3892363"><ele>396.0</ele><time>2026-05-04T15:32:28.976Z</time></trkpt><trkpt lat="43.7554432" lon="11.3892978"><ele>396.0</ele><time>2026-05-04T15:32:29.972Z</time></trkpt><trkpt lat="43.7553892" lon="11.3893563"><ele>396.0</ele><time>2026-05-04T15:32:30.973Z</time></trkpt><trkpt lat="43.7552933" lon="11.3894373"><ele>396.0</ele><time>2026-05-04T15:32:32.972Z</time></trkpt><trkpt lat="43.7552107" lon="11.3895323"><ele>396.0</ele><time>2026-05-04T15:32:34.972Z</time></trkpt><trkpt lat="43.755142" lon="11.3896023"><ele>396.0</ele><time>2026-05-04T15:32:36.969Z</time></trkpt><trkpt lat="43.7550747" lon="11.3896703"><ele>396.0</ele><time>2026-05-04T15:32:38.972Z</time></trkpt><trkpt lat="43.7550103" lon="11.3897353"><ele>396.0</ele><time>2026-05-04T15:32:41.971Z</time></trkpt><trkpt lat="43.7550858" lon="11.3896517"><ele>396.0</ele><time>2026-05-04T15:33:02.972Z</time></trkpt><trkpt lat="43.7551743" lon="11.3895575"><ele>396.0</ele><time>2026-05-04T15:33:04.972Z</time></trkpt><trkpt lat="43.7552278" lon="11.3895033"><ele>396.0</ele><time>2026-05-04T15:33:05.969Z</time></trkpt><trkpt lat="43.75528" lon="11.389441"><ele>396.0</ele><time>2026-05-04T15:33:06.97Z</time></trkpt><trkpt lat="43.7553362" lon="11.3893755"><ele>396.0</ele><time>2026-05-04T15:33:07.97Z</time></trkpt><trkpt lat="43.7554002" lon="11.3893047"><ele>396.0</ele><time>2026-05-04T15:33:08.974Z</time></trkpt><trkpt lat="43.755463" lon="11.3892323"><ele>396.0</ele><time>2026-05-04T15:33:09.973Z</time></trkpt><trkpt lat="43.7555263" lon="11.3891658"><ele>396.0</ele><time>2026-05-04T15:33:10.971Z</time></trkpt><trkpt lat="43.7555925" lon="11.3890972"><ele>396.0</ele><time>2026-05-04T15:33:11.971Z</time></trkpt><trkpt lat="43.7556547" lon="11.3890317"><ele>396.0</ele><time>2026-05-04T15:33:12.971Z</time></trkpt><trkpt lat="43.7557113" lon="11.3889607"><ele>396.0</ele><time>2026-05-04T15:33:13.97Z</time></trkpt><trkpt lat="43.755772" lon="11.3888867"><ele>396.0</ele><time>2026-05-04T15:33:14.972Z</time></trkpt><trkpt lat="43.7558247" lon="11.3888195"><ele>396.0</ele><time>2026-05-04T15:33:15.97Z</time></trkpt><trkpt lat="43.7558778" lon="11.3887512"><ele>396.0</ele><time>2026-05-04T15:33:16.971Z</time></trkpt><trkpt lat="43.755923" lon="11.3886732"><ele>396.0</ele><time>2026-05-04T15:33:17.975Z</time></trkpt><trkpt lat="43.7559657" lon="11.3885802"><ele>396.0</ele><time>2026-05-04T15:33:18.968Z</time></trkpt><trkpt lat="43.7560018" lon="11.3884823"><ele>396.5714285714286</ele><time>2026-05-04T15:33:19.972Z</time></trkpt><trkpt lat="43.7560375" lon="11.3883855"><ele>397.1428571428571</ele><time>2026-05-04T15:33:20.971Z</time></trkpt><trkpt lat="43.7560632" lon="11.3882857"><ele>397.7142857142857</ele><time>2026-05-04T15:33:21.971Z</time></trkpt><trkpt lat="43.7560912" lon="11.3881897"><ele>398.28571428571433</ele><time>2026-05-04T15:33:22.97Z</time></trkpt><trkpt lat="43.7561152" lon="11.3880932"><ele>398.8571428571429</ele><time>2026-05-04T15:33:23.974Z</time></trkpt><trkpt lat="43.7561422" lon="11.3880118"><ele>399.42857142857144</ele><time>2026-05-04T15:33:24.97Z</time></trkpt><trkpt lat="43.756176" lon="11.3879358"><ele>400.0</ele><time>2026-05-04T15:33:25.97Z</time></trkpt><trkpt lat="43.7562038" lon="11.387841"><ele>400.8571428571429</ele><time>2026-05-04T15:33:27.971Z</time></trkpt><trkpt lat="43.7561375" lon="11.387862"><ele>401.7142857142857</ele><time>2026-05-04T15:33:43.971Z</time></trkpt><trkpt lat="43.7560847" lon="11.3879577"><ele>402.57142857142856</ele><time>2026-05-04T15:33:46.971Z</time></trkpt><trkpt lat="43.756021" lon="11.3880408"><ele>403.42857142857144</ele><time>2026-05-04T15:33:49.972Z</time></trkpt><trkpt lat="43.7559758" lon="11.388107"><ele>404.2857142857143</ele><time>2026-05-04T15:33:51.973Z</time></trkpt><trkpt lat="43.7559305" lon="11.3881703"><ele>405.14285714285717</ele><time>2026-05-04T15:33:53.973Z</time></trkpt><trkpt lat="43.7558817" lon="11.3882365"><ele>406.0</ele><time>2026-05-04T15:33:55.972Z</time></trkpt><trkpt lat="43.7558408" lon="11.3883105"><ele>406.7142857142857</ele><time>2026-05-04T15:33:57.972Z</time></trkpt><trkpt lat="43.7557997" lon="11.3883853"><ele>407.42857142857144</ele><time>2026-05-04T15:33:59.971Z</time></trkpt><trkpt lat="43.7557615" lon="11.3884617"><ele>408.1428571428571</ele><time>2026-05-04T15:34:01.971Z</time></trkpt><trkpt lat="43.755723" lon="11.3885333"><ele>408.8571428571429</ele><time>2026-05-04T15:34:03.971Z</time></trkpt><trkpt lat="43.7556625" lon="11.388584"><ele>409.57142857142856</ele><time>2026-05-04T15:34:06.973Z</time></trkpt><trkpt lat="43.7555928" lon="11.3886318"><ele>410.2857142857143</ele><time>2026-05-04T15:34:09.974Z</time></trkpt><trkpt lat="43.7555385" lon="11.388681"><ele>411.0</ele><time>2026-05-04T15:34:11.974Z</time></trkpt><trkpt lat="43.7554793" lon="11.388753"><ele>411.0</ele><time>2026-05-04T15:34:13.972Z</time></trkpt><trkpt lat="43.755424" lon="11.3888273"><ele>411.0</ele><time>2026-05-04T15:34:15.972Z</time></trkpt><trkpt lat="43.7553633" lon="11.3889007"><ele>411.0</ele><time>2026-05-04T15:34:17.971Z</time></trkpt><trkpt lat="43.7552918" lon="11.3889733"><ele>411.0</ele><time>2026-05-04T15:34:19.971Z</time></trkpt><trkpt lat="43.7552198" lon="11.3890222"><ele>411.0</ele><time>2026-05-04T15:34:21.973Z</time></trkpt><trkpt lat="43.7551443" lon="11.3890547"><ele>411.0</ele><time>2026-05-04T15:34:23.971Z</time></trkpt><trkpt lat="43.75507" lon="11.3890447"><ele>410.3333333333333</ele><time>2026-05-04T15:34:25.971Z</time></trkpt><trkpt lat="43.7550033" lon="11.3889975"><ele>409.66666666666663</ele><time>2026-05-04T15:34:27.971Z</time></trkpt><trkpt lat="43.7549598" lon="11.388894"><ele>409.0</ele><time>2026-05-04T15:34:29.971Z</time></trkpt><trkpt lat="43.7549218" lon="11.3887783"><ele>408.3333333333333</ele><time>2026-05-04T15:34:31.97Z</time></trkpt><trkpt lat="43.7548858" lon="11.3886752"><ele>407.66666666666663</ele><time>2026-05-04T15:34:33.971Z</time></trkpt><trkpt lat="43.7548395" lon="11.3885985"><ele>407.0</ele><time>2026-05-04T15:34:35.968Z</time></trkpt><trkpt lat="43.7547535" lon="11.3885292"><ele>407.42857142857144</ele><time>2026-05-04T15:34:38.972Z</time></trkpt><trkpt lat="43.7546962" lon="11.3884775"><ele>407.8571428571429</ele><time>2026-05-04T15:34:40.97Z</time></trkpt><trkpt lat="43.7546418" lon="11.3884278"><ele>408.28571428571433</ele><time>2026-05-04T15:34:42.969Z</time></trkpt><trkpt lat="43.7545868" lon="11.3883752"><ele>408.7142857142857</ele><time>2026-05-04T15:34:44.969Z</time></trkpt><trkpt lat="43.7545323" lon="11.3883313"><ele>409.1428571428571</ele><time>2026-05-04T15:34:46.97Z</time></trkpt><trkpt lat="43.7544682" lon="11.3882962"><ele>409.5714285714286</ele><time>2026-05-04T15:34:48.969Z</time></trkpt><trkpt lat="43.7543773" lon="11.3882818"><ele>410.0</ele><time>2026-05-04T15:34:51.97Z</time></trkpt><trkpt lat="43.7543018" lon="11.3882758"><ele>409.99999999999994</ele><time>2026-05-04T15:34:53.968Z</time></trkpt><trkpt lat="43.7542248" lon="11.388255"><ele>410.0</ele><time>2026-05-04T15:34:55.969Z</time></trkpt><trkpt lat="43.7541392" lon="11.3882297"><ele>410.0</ele><time>2026-05-04T15:34:57.972Z</time></trkpt><trkpt lat="43.7540682" lon="11.3881843"><ele>410.0</ele><time>2026-05-04T15:34:59.967Z</time></trkpt><trkpt lat="43.7539873" lon="11.3881365"><ele>409.99999999999994</ele><time>2026-05-04T15:35:02.968Z</time></trkpt><trkpt lat="43.7539052" lon="11.3880882"><ele>410.0</ele><time>2026-05-04T15:35:05.967Z</time></trkpt><trkpt lat="43.7538433" lon="11.3880472"><ele>409.99999999999994</ele><time>2026-05-04T15:35:07.969Z</time></trkpt><trkpt lat="43.753769" lon="11.3880443"><ele>410.0</ele><time>2026-05-04T15:35:09.968Z</time></trkpt><trkpt lat="43.7536937" lon="11.3880418"><ele>410.0</ele><time>2026-05-04T15:35:11.967Z</time></trkpt><trkpt lat="43.7536227" lon="11.3880735"><ele>410.0</ele><time>2026-05-04T15:35:13.968Z</time></trkpt><trkpt lat="43.753547" lon="11.388123"><ele>409.99999999999994</ele><time>2026-05-04T15:35:15.966Z</time></trkpt><trkpt lat="43.7534707" lon="11.3881757"><ele>410.0</ele><time>2026-05-04T15:35:17.967Z</time></trkpt><trkpt lat="43.753392" lon="11.3882402"><ele>410.3333333333333</ele><time>2026-05-04T15:35:19.966Z</time></trkpt><trkpt lat="43.7533205" lon="11.388299"><ele>410.66666666666663</ele><time>2026-05-04T15:35:21.968Z</time></trkpt><trkpt lat="43.7532498" lon="11.3883545"><ele>411.0</ele><time>2026-05-04T15:35:23.967Z</time></trkpt><trkpt lat="43.753182" lon="11.388401"><ele>411.33333333333337</ele><time>2026-05-04T15:35:25.966Z</time></trkpt><trkpt lat="43.7531143" lon="11.3884318"><ele>411.6666666666667</ele><time>2026-05-04T15:35:27.966Z</time></trkpt><trkpt lat="43.7530313" lon="11.3884657"><ele>412.0</ele><time>2026-05-04T15:35:29.965Z</time></trkpt><trkpt lat="43.7529538" lon="11.3885047"><ele>412.00000000000006</ele><time>2026-05-04T15:35:31.967Z</time></trkpt><trkpt lat="43.7528667" lon="11.3885392"><ele>412.0</ele><time>2026-05-04T15:35:34.97Z</time></trkpt><trkpt lat="43.7527883" lon="11.3885352"><ele>412.0</ele><time>2026-05-04T15:35:36.967Z</time></trkpt><trkpt lat="43.7527113" lon="11.3885157"><ele>412.0</ele><time>2026-05-04T15:35:38.965Z</time></trkpt><trkpt lat="43.7526208" lon="11.3885115"><ele>412.00000000000006</ele><time>2026-05-04T15:35:40.965Z</time></trkpt><trkpt lat="43.7525372" lon="11.3885127"><ele>412.0</ele><time>2026-05-04T15:35:42.968Z</time></trkpt><trkpt lat="43.7524658" lon="11.3884897"><ele>411.83333333333337</ele><time>2026-05-04T15:35:44.966Z</time></trkpt><trkpt lat="43.7524462" lon="11.3883738"><ele>411.6666666666667</ele><time>2026-05-04T15:35:47.866Z</time></trkpt><trkpt lat="43.7524208" lon="11.3882448"><ele>411.5</ele><time>2026-05-04T15:35:51.664Z</time></trkpt><trkpt lat="43.7524395" lon="11.3881435"><ele>411.33333333333337</ele><time>2026-05-04T15:35:54.366Z</time></trkpt><trkpt lat="43.7524428" lon="11.3880437"><ele>411.1666666666667</ele><time>2026-05-04T15:35:56.162Z</time></trkpt><trkpt lat="43.7524677" lon="11.3879332"><ele>411.0</ele><time>2026-05-04T15:35:57.969Z</time></trkpt><trkpt lat="43.7525063" lon="11.3878298"><ele>410.85714285714283</ele><time>2026-05-04T15:35:59.98Z</time></trkpt><trkpt lat="43.7525402" lon="11.3877428"><ele>410.71428571428567</ele><time>2026-05-04T15:36:01.97Z</time></trkpt><trkpt lat="43.7525918" lon="11.387678"><ele>410.57142857142856</ele><time>2026-05-04T15:36:03.971Z</time></trkpt><trkpt lat="43.7526467" lon="11.3876038"><ele>410.42857142857144</ele><time>2026-05-04T15:36:05.971Z</time></trkpt><trkpt lat="43.7526997" lon="11.3875365"><ele>410.2857142857143</ele><time>2026-05-04T15:36:07.972Z</time></trkpt><trkpt lat="43.7527597" lon="11.3874762"><ele>410.14285714285717</ele><time>2026-05-04T15:36:09.971Z</time></trkpt><trkpt lat="43.7528292" lon="11.387411"><ele>410.0</ele><time>2026-05-04T15:36:11.973Z</time></trkpt><trkpt lat="43.7529045" lon="11.387334"><ele>411.99999999999994</ele><time>2026-05-04T15:36:14.972Z</time></trkpt><trkpt lat="43.7529637" lon="11.3873002"><ele>414.0</ele><time>2026-05-04T15:36:16.97Z</time></trkpt><trkpt lat="43.7530273" lon="11.3872677"><ele>416.0</ele><time>2026-05-04T15:36:18.97Z</time></trkpt><trkpt lat="43.7530955" lon="11.3872352"><ele>418.0</ele><time>2026-05-04T15:36:20.972Z</time></trkpt><trkpt lat="43.7531692" lon="11.3871845"><ele>419.99999999999994</ele><time>2026-05-04T15:36:22.972Z</time></trkpt><trkpt lat="43.7532447" lon="11.3871218"><ele>422.0</ele><time>2026-05-04T15:36:24.973Z</time></trkpt><trkpt lat="43.7533048" lon="11.387057"><ele>422.2857142857143</ele><time>2026-05-04T15:36:26.971Z</time></trkpt><trkpt lat="43.7533575" lon="11.3869927"><ele>422.57142857142856</ele><time>2026-05-04T15:36:28.972Z</time></trkpt><trkpt lat="43.7534122" lon="11.386929"><ele>422.8571428571429</ele><time>2026-05-04T15:36:30.971Z</time></trkpt><trkpt lat="43.7534602" lon="11.3868528"><ele>423.1428571428571</ele><time>2026-05-04T15:36:32.974Z</time></trkpt><trkpt lat="43.7535145" lon="11.3867777"><ele>423.4285714285714</ele><time>2026-05-04T15:36:34.974Z</time></trkpt><trkpt lat="43.7535725" lon="11.3867045"><ele>423.7142857142857</ele><time>2026-05-04T15:36:36.971Z</time></trkpt><trkpt lat="43.7536133" lon="11.3866298"><ele>424.0</ele><time>2026-05-04T15:36:38.973Z</time></trkpt><trkpt lat="43.7536482" lon="11.3865418"><ele>426.1666666666667</ele><time>2026-05-04T15:36:40.972Z</time></trkpt><trkpt lat="43.753676" lon="11.3864485"><ele>428.33333333333337</ele><time>2026-05-04T15:36:42.975Z</time></trkpt><trkpt lat="43.7536858" lon="11.386348"><ele>430.5</ele><time>2026-05-04T15:36:44.97Z</time></trkpt><trkpt lat="43.753713" lon="11.3862353"><ele>432.66666666666663</ele><time>2026-05-04T15:36:55.969Z</time></trkpt><trkpt lat="43.7537552" lon="11.3861463"><ele>434.8333333333333</ele><time>2026-05-04T15:36:58.971Z</time></trkpt><trkpt lat="43.7537987" lon="11.386051"><ele>437.0</ele><time>2026-05-04T15:37:01.971Z</time></trkpt><trkpt lat="43.7538288" lon="11.3859637"><ele>438.66666666666663</ele><time>2026-05-04T15:37:04.972Z</time></trkpt><trkpt lat="43.753835" lon="11.3858757"><ele>440.3333333333333</ele><time>2026-05-04T15:37:07.969Z</time></trkpt><trkpt lat="43.7538472" lon="11.3857555"><ele>442.0</ele><time>2026-05-04T15:37:10.97Z</time></trkpt><trkpt lat="43.7538485" lon="11.3856287"><ele>443.66666666666663</ele><time>2026-05-04T15:37:13.971Z</time></trkpt><trkpt lat="43.7538663" lon="11.3855122"><ele>445.3333333333333</ele><time>2026-05-04T15:37:16.973Z</time></trkpt><trkpt lat="43.7538855" lon="11.3854065"><ele>447.0</ele><time>2026-05-04T15:37:19.97Z</time></trkpt><trkpt lat="43.753895" lon="11.3852938"><ele>448.1666666666667</ele><time>2026-05-04T15:37:22.975Z</time></trkpt><trkpt lat="43.7539035" lon="11.3852013"><ele>449.33333333333337</ele><time>2026-05-04T15:37:24.971Z</time></trkpt><trkpt lat="43.7539303" lon="11.385102"><ele>450.5</ele><time>2026-05-04T15:37:27.972Z</time></trkpt><trkpt lat="43.753953" lon="11.3850132"><ele>451.6666666666667</ele><time>2026-05-04T15:37:46.971Z</time></trkpt><trkpt lat="43.7539543" lon="11.3851445"><ele>452.83333333333337</ele><time>2026-05-04T15:37:51.969Z</time></trkpt><trkpt lat="43.7539807" lon="11.3852648"><ele>454.0</ele><time>2026-05-04T15:37:53.971Z</time></trkpt><trkpt lat="43.754044" lon="11.3853583"><ele>454.00000000000006</ele><time>2026-05-04T15:37:55.972Z</time></trkpt><trkpt lat="43.7541132" lon="11.385411"><ele>454.0</ele><time>2026-05-04T15:37:57.971Z</time></trkpt><trkpt lat="43.7542008" lon="11.3854097"><ele>454.0</ele><time>2026-05-04T15:38:00.976Z</time></trkpt><trkpt lat="43.7542487" lon="11.3853523"><ele>454.0</ele><time>2026-05-04T15:38:02.974Z</time></trkpt><trkpt lat="43.754229" lon="11.3852462"><ele>454.00000000000006</ele><time>2026-05-04T15:38:05.971Z</time></trkpt><trkpt lat="43.7541875" lon="11.385154"><ele>454.0</ele><time>2026-05-04T15:38:15.97Z</time></trkpt><trkpt lat="43.7541493" lon="11.3850305"><ele>454.0</ele><time>2026-05-04T15:38:18.971Z</time></trkpt><trkpt lat="43.7541197" lon="11.384936"><ele>454.00000000000006</ele><time>2026-05-04T15:38:20.97Z</time></trkpt><trkpt lat="43.7540942" lon="11.3848437"><ele>454.0</ele><time>2026-05-04T15:38:22.971Z</time></trkpt><trkpt lat="43.7540655" lon="11.3847487"><ele>454.0</ele><time>2026-05-04T15:38:24.972Z</time></trkpt><trkpt lat="43.7540338" lon="11.384649"><ele>454.00000000000006</ele><time>2026-05-04T15:38:26.973Z</time></trkpt><trkpt lat="43.7540007" lon="11.3845595"><ele>454.0</ele><time>2026-05-04T15:38:28.972Z</time></trkpt><trkpt lat="43.7539608" lon="11.3844788"><ele>454.0</ele><time>2026-05-04T15:38:30.972Z</time></trkpt><trkpt lat="43.75392" lon="11.3843893"><ele>455.33333333333337</ele><time>2026-05-04T15:38:32.972Z</time></trkpt><trkpt lat="43.7538813" lon="11.3842853"><ele>456.6666666666667</ele><time>2026-05-04T15:38:34.972Z</time></trkpt><trkpt lat="43.753834" lon="11.3841847"><ele>458.0</ele><time>2026-05-04T15:38:36.969Z</time></trkpt><trkpt lat="43.7537752" lon="11.3841023"><ele>459.33333333333337</ele><time>2026-05-04T15:38:38.972Z</time></trkpt><trkpt lat="43.7537192" lon="11.3840025"><ele>460.6666666666667</ele><time>2026-05-04T15:38:40.971Z</time></trkpt><trkpt lat="43.7536823" lon="11.3839163"><ele>462.0</ele><time>2026-05-04T15:38:42.97Z</time></trkpt><trkpt lat="43.7536422" lon="11.3838425"><ele>461.5</ele><time>2026-05-04T15:38:44.971Z</time></trkpt><trkpt lat="43.7535932" lon="11.383758"><ele>461.0</ele><time>2026-05-04T15:38:46.975Z</time></trkpt><trkpt lat="43.7535575" lon="11.3836712"><ele>460.5</ele><time>2026-05-04T15:38:48.974Z</time></trkpt><trkpt lat="43.753507" lon="11.383575"><ele>460.0</ele><time>2026-05-04T15:38:50.971Z</time></trkpt><trkpt lat="43.7534398" lon="11.3834967"><ele>459.5</ele><time>2026-05-04T15:38:52.968Z</time></trkpt><trkpt lat="43.7533805" lon="11.3834117"><ele>459.0</ele><time>2026-05-04T15:38:54.97Z</time></trkpt><trkpt lat="43.7533272" lon="11.3833205"><ele>459.0</ele><time>2026-05-04T15:38:56.97Z</time></trkpt><trkpt lat="43.7532665" lon="11.38325"><ele>459.0</ele><time>2026-05-04T15:38:58.971Z</time></trkpt><trkpt lat="43.7531922" lon="11.3832407"><ele>459.0</ele><time>2026-05-04T15:39:00.972Z</time></trkpt><trkpt lat="43.7531185" lon="11.3833033"><ele>459.0</ele><time>2026-05-04T15:39:02.972Z</time></trkpt><trkpt lat="43.753064" lon="11.3833605"><ele>459.0</ele><time>2026-05-04T15:39:04.971Z</time></trkpt><trkpt lat="43.752988" lon="11.3834538"><ele>459.0</ele><time>2026-05-04T15:39:07.969Z</time></trkpt><trkpt lat="43.7529055" lon="11.3835175"><ele>459.0</ele><time>2026-05-04T15:39:09.973Z</time></trkpt><trkpt lat="43.7528307" lon="11.3835802"><ele>459.0</ele><time>2026-05-04T15:39:11.971Z</time></trkpt><trkpt lat="43.7527592" lon="11.3836048"><ele>459.0</ele><time>2026-05-04T15:39:13.969Z</time></trkpt><trkpt lat="43.7526898" lon="11.3836312"><ele>459.0</ele><time>2026-05-04T15:39:15.97Z</time></trkpt><trkpt lat="43.7526153" lon="11.3836623"><ele>459.0</ele><time>2026-05-04T15:39:17.971Z</time></trkpt><trkpt lat="43.7525362" lon="11.3836787"><ele>459.0</ele><time>2026-05-04T15:39:19.971Z</time></trkpt><trkpt lat="43.7524662" lon="11.3836785"><ele>459.6666666666667</ele><time>2026-05-04T15:39:21.972Z</time></trkpt><trkpt lat="43.7523948" lon="11.3836895"><ele>460.33333333333337</ele><time>2026-05-04T15:39:23.973Z</time></trkpt><trkpt lat="43.7523118" lon="11.3837287"><ele>461.0</ele><time>2026-05-04T15:39:25.97Z</time></trkpt><trkpt lat="43.7522263" lon="11.3837828"><ele>461.6666666666667</ele><time>2026-05-04T15:39:27.971Z</time></trkpt><trkpt lat="43.7521363" lon="11.3838197"><ele>462.33333333333337</ele><time>2026-05-04T15:39:29.973Z</time></trkpt><trkpt lat="43.7520495" lon="11.3838412"><ele>463.0</ele><time>2026-05-04T15:39:31.97Z</time></trkpt><trkpt lat="43.75197" lon="11.3838567"><ele>461.00000000000006</ele><time>2026-05-04T15:39:33.971Z</time></trkpt><trkpt lat="43.7518913" lon="11.3838763"><ele>459.0</ele><time>2026-05-04T15:39:35.973Z</time></trkpt><trkpt lat="43.7518183" lon="11.3839328"><ele>457.0</ele><time>2026-05-04T15:39:37.971Z</time></trkpt><trkpt lat="43.7517405" lon="11.3839863"><ele>455.0</ele><time>2026-05-04T15:39:39.969Z</time></trkpt><trkpt lat="43.7516675" lon="11.3840483"><ele>453.00000000000006</ele><time>2026-05-04T15:39:41.97Z</time></trkpt><trkpt lat="43.7516007" lon="11.3840983"><ele>451.0</ele><time>2026-05-04T15:39:43.971Z</time></trkpt><trkpt lat="43.7515105" lon="11.3841343"><ele>451.0</ele><time>2026-05-04T15:39:46.969Z</time></trkpt><trkpt lat="43.7514253" lon="11.3841343"><ele>451.0</ele><time>2026-05-04T15:39:48.971Z</time></trkpt><trkpt lat="43.7513063" lon="11.3841587"><ele>451.0</ele><time>2026-05-04T15:39:50.971Z</time></trkpt><trkpt lat="43.7512008" lon="11.3841653"><ele>451.0</ele><time>2026-05-04T15:39:52.974Z</time></trkpt><trkpt lat="43.7511127" lon="11.384194"><ele>451.0</ele><time>2026-05-04T15:39:54.968Z</time></trkpt><trkpt lat="43.7510235" lon="11.384231"><ele>452.20000000000005</ele><time>2026-05-04T15:39:56.972Z</time></trkpt><trkpt lat="43.75094" lon="11.3842718"><ele>453.40000000000003</ele><time>2026-05-04T15:39:58.973Z</time></trkpt><trkpt lat="43.7508627" lon="11.384325"><ele>454.6</ele><time>2026-05-04T15:40:00.971Z</time></trkpt><trkpt lat="43.750802" lon="11.3844063"><ele>455.8</ele><time>2026-05-04T15:40:02.971Z</time></trkpt><trkpt lat="43.7507275" lon="11.3844858"><ele>457.0</ele><time>2026-05-04T15:40:04.972Z</time></trkpt><trkpt lat="43.7506455" lon="11.3845708"><ele>457.00000000000006</ele><time>2026-05-04T15:40:06.97Z</time></trkpt><trkpt lat="43.750565" lon="11.3846355"><ele>457.0</ele><time>2026-05-04T15:40:08.969Z</time></trkpt><trkpt lat="43.7504893" lon="11.3846842"><ele>457.0</ele><time>2026-05-04T15:40:10.97Z</time></trkpt><trkpt lat="43.7504118" lon="11.3847183"><ele>457.0</ele><time>2026-05-04T15:40:12.975Z</time></trkpt><trkpt lat="43.7503352" lon="11.3847483"><ele>457.00000000000006</ele><time>2026-05-04T15:40:14.97Z</time></trkpt><trkpt lat="43.7502682" lon="11.3847925"><ele>457.0</ele><time>2026-05-04T15:40:16.972Z</time></trkpt><trkpt lat="43.7501988" lon="11.384865"><ele>454.83333333333337</ele><time>2026-05-04T15:40:18.972Z</time></trkpt><trkpt lat="43.7501323" lon="11.3849488"><ele>452.6666666666667</ele><time>2026-05-04T15:40:20.969Z</time></trkpt><trkpt lat="43.7500615" lon="11.385039"><ele>450.5</ele><time>2026-05-04T15:40:22.971Z</time></trkpt><trkpt lat="43.7500033" lon="11.3851388"><ele>448.33333333333337</ele><time>2026-05-04T15:40:24.974Z</time></trkpt><trkpt lat="43.7499563" lon="11.3852352"><ele>446.1666666666667</ele><time>2026-05-04T15:40:26.97Z</time></trkpt><trkpt lat="43.7499078" lon="11.385311"><ele>444.0</ele><time>2026-05-04T15:40:28.97Z</time></trkpt><trkpt lat="43.749857" lon="11.3853642"><ele>444.0</ele><time>2026-05-04T15:40:30.972Z</time></trkpt><trkpt lat="43.7497718" lon="11.385392"><ele>444.0</ele><time>2026-05-04T15:40:33.97Z</time></trkpt><trkpt lat="43.7497075" lon="11.385395"><ele>444.0</ele><time>2026-05-04T15:40:35.969Z</time></trkpt><trkpt lat="43.7496358" lon="11.3853987"><ele>444.0</ele><time>2026-05-04T15:40:37.971Z</time></trkpt><trkpt lat="43.7495572" lon="11.3853982"><ele>444.0</ele><time>2026-05-04T15:40:39.968Z</time></trkpt><trkpt lat="43.7494607" lon="11.3854207"><ele>444.0</ele><time>2026-05-04T15:40:41.972Z</time></trkpt><trkpt lat="43.7493613" lon="11.3854607"><ele>444.1666666666667</ele><time>2026-05-04T15:40:43.971Z</time></trkpt><trkpt lat="43.7492693" lon="11.3854938"><ele>444.33333333333337</ele><time>2026-05-04T15:40:45.97Z</time></trkpt><trkpt lat="43.7491963" lon="11.385523"><ele>444.5</ele><time>2026-05-04T15:40:47.967Z</time></trkpt><trkpt lat="43.7491117" lon="11.3855142"><ele>444.6666666666667</ele><time>2026-05-04T15:40:50.97Z</time></trkpt><trkpt lat="43.7490388" lon="11.3854883"><ele>444.83333333333337</ele><time>2026-05-04T15:40:53.975Z</time></trkpt><trkpt lat="43.7489572" lon="11.3855012"><ele>445.0</ele><time>2026-05-04T15:40:56.97Z</time></trkpt><trkpt lat="43.7488842" lon="11.385475"><ele>445.00000000000006</ele><time>2026-05-04T15:40:59.97Z</time></trkpt><trkpt lat="43.7487848" lon="11.3854687"><ele>445.0</ele><time>2026-05-04T15:41:02.97Z</time></trkpt><trkpt lat="43.7487113" lon="11.3854687"><ele>445.0</ele><time>2026-05-04T15:41:04.971Z</time></trkpt><trkpt lat="43.7486518" lon="11.3854185"><ele>445.0</ele><time>2026-05-04T15:41:07.973Z</time></trkpt><trkpt lat="43.7485803" lon="11.3853353"><ele>445.00000000000006</ele><time>2026-05-04T15:41:10.971Z</time></trkpt><trkpt lat="43.748515" lon="11.385285"><ele>445.0</ele><time>2026-05-04T15:41:12.973Z</time></trkpt><trkpt lat="43.7484548" lon="11.3852353"><ele>443.2857142857143</ele><time>2026-05-04T15:41:14.968Z</time></trkpt><trkpt lat="43.7483957" lon="11.3851863"><ele>441.57142857142856</ele><time>2026-05-04T15:41:16.97Z</time></trkpt><trkpt lat="43.7483375" lon="11.385143"><ele>439.85714285714283</ele><time>2026-05-04T15:41:18.97Z</time></trkpt><trkpt lat="43.7482718" lon="11.3850987"><ele>438.1428571428571</ele><time>2026-05-04T15:41:20.969Z</time></trkpt><trkpt lat="43.7481888" lon="11.3850627"><ele>436.42857142857144</ele><time>2026-05-04T15:41:23.971Z</time></trkpt><trkpt lat="43.7481095" lon="11.3850393"><ele>434.71428571428567</ele><time>2026-05-04T15:41:26.971Z</time></trkpt><trkpt lat="43.748042" lon="11.3850008"><ele>433.0</ele><time>2026-05-04T15:41:29.97Z</time></trkpt><trkpt lat="43.747983" lon="11.3849687"><ele>433.00000000000006</ele><time>2026-05-04T15:41:31.97Z</time></trkpt><trkpt lat="43.7479185" lon="11.3849375"><ele>433.0</ele><time>2026-05-04T15:41:33.969Z</time></trkpt><trkpt lat="43.747835" lon="11.3848893"><ele>433.0</ele><time>2026-05-04T15:41:36.968Z</time></trkpt><trkpt lat="43.7477657" lon="11.3848307"><ele>433.0</ele><time>2026-05-04T15:41:39.969Z</time></trkpt><trkpt lat="43.7477203" lon="11.384758"><ele>433.00000000000006</ele><time>2026-05-04T15:41:42.969Z</time></trkpt><trkpt lat="43.7476702" lon="11.3846722"><ele>433.0</ele><time>2026-05-04T15:41:45.97Z</time></trkpt><trkpt lat="43.7475938" lon="11.3846187"><ele>431.83333333333337</ele><time>2026-05-04T15:41:48.97Z</time></trkpt><trkpt lat="43.7475152" lon="11.3845728"><ele>430.6666666666667</ele><time>2026-05-04T15:41:51.97Z</time></trkpt><trkpt lat="43.7474495" lon="11.3845407"><ele>429.5</ele><time>2026-05-04T15:41:53.969Z</time></trkpt><trkpt lat="43.747358" lon="11.384538"><ele>428.33333333333337</ele><time>2026-05-04T15:41:55.974Z</time></trkpt><trkpt lat="43.7472658" lon="11.384573"><ele>427.1666666666667</ele><time>2026-05-04T15:41:57.969Z</time></trkpt><trkpt lat="43.7472043" lon="11.3846042"><ele>426.0</ele><time>2026-05-04T15:41:59.969Z</time></trkpt><trkpt lat="43.7471302" lon="11.3845828"><ele>426.0</ele><time>2026-05-04T15:42:03.972Z</time></trkpt><trkpt lat="43.747068" lon="11.3844955"><ele>426.0</ele><time>2026-05-04T15:42:06.97Z</time></trkpt><trkpt lat="43.7470207" lon="11.3843873"><ele>426.0</ele><time>2026-05-04T15:42:08.971Z</time></trkpt><trkpt lat="43.7469658" lon="11.384283"><ele>426.0</ele><time>2026-05-04T15:42:10.97Z</time></trkpt><trkpt lat="43.7469085" lon="11.3841588"><ele>426.0</ele><time>2026-05-04T15:42:12.97Z</time></trkpt><trkpt lat="43.7468292" lon="11.3840503"><ele>427.0</ele><time>2026-05-04T15:42:14.97Z</time></trkpt><trkpt lat="43.7467455" lon="11.3839347"><ele>428.0</ele><time>2026-05-04T15:42:16.969Z</time></trkpt><trkpt lat="43.7466422" lon="11.3838327"><ele>429.0</ele><time>2026-05-04T15:42:18.969Z</time></trkpt><trkpt lat="43.746589" lon="11.3837845"><ele>430.0</ele><time>2026-05-04T15:42:19.971Z</time></trkpt><trkpt lat="43.7465342" lon="11.3837367"><ele>431.0</ele><time>2026-05-04T15:42:20.972Z</time></trkpt><trkpt lat="43.7464297" lon="11.3836462"><ele>431.0</ele><time>2026-05-04T15:42:22.969Z</time></trkpt><trkpt lat="43.7463267" lon="11.3835607"><ele>431.0</ele><time>2026-05-04T15:42:24.972Z</time></trkpt><trkpt lat="43.7462283" lon="11.3834752"><ele>431.0</ele><time>2026-05-04T15:42:26.971Z</time></trkpt><trkpt lat="43.7461713" lon="11.3834358"><ele>431.0</ele><time>2026-05-04T15:42:27.968Z</time></trkpt><trkpt lat="43.7460595" lon="11.3833618"><ele>431.0</ele><time>2026-05-04T15:42:29.968Z</time></trkpt><trkpt lat="43.7460015" lon="11.3833173"><ele>431.0</ele><time>2026-05-04T15:42:30.968Z</time></trkpt><trkpt lat="43.7458907" lon="11.3832485"><ele>431.0</ele><time>2026-05-04T15:42:32.969Z</time></trkpt><trkpt lat="43.7458267" lon="11.3832127"><ele>431.0</ele><time>2026-05-04T15:42:33.969Z</time></trkpt><trkpt lat="43.7457065" lon="11.3831623"><ele>431.0</ele><time>2026-05-04T15:42:35.968Z</time></trkpt><trkpt lat="43.7456323" lon="11.3831352"><ele>431.0</ele><time>2026-05-04T15:42:36.972Z</time></trkpt><trkpt lat="43.7455562" lon="11.383102"><ele>430.99999999999994</ele><time>2026-05-04T15:42:37.97Z</time></trkpt><trkpt lat="43.7454718" lon="11.383062"><ele>431.0</ele><time>2026-05-04T15:42:38.97Z</time></trkpt><trkpt lat="43.7453833" lon="11.383023"><ele>431.0</ele><time>2026-05-04T15:42:39.969Z</time></trkpt><trkpt lat="43.7452925" lon="11.3830003"><ele>431.0</ele><time>2026-05-04T15:42:40.968Z</time></trkpt><trkpt lat="43.7452053" lon="11.382996"><ele>430.99999999999994</ele><time>2026-05-04T15:42:41.968Z</time></trkpt><trkpt lat="43.7451223" lon="11.3830028"><ele>431.0</ele><time>2026-05-04T15:42:42.97Z</time></trkpt><trkpt lat="43.7450402" lon="11.3830148"><ele>432.99999999999994</ele><time>2026-05-04T15:42:43.969Z</time></trkpt><trkpt lat="43.7449582" lon="11.3830343"><ele>435.0</ele><time>2026-05-04T15:42:44.97Z</time></trkpt><trkpt lat="43.7448747" lon="11.3830623"><ele>437.0</ele><time>2026-05-04T15:42:45.972Z</time></trkpt><trkpt lat="43.7447933" lon="11.3830863"><ele>439.0</ele><time>2026-05-04T15:42:46.97Z</time></trkpt><trkpt lat="43.7447143" lon="11.383119"><ele>440.99999999999994</ele><time>2026-05-04T15:42:47.966Z</time></trkpt><trkpt lat="43.7446343" lon="11.3831568"><ele>443.0</ele><time>2026-05-04T15:42:48.971Z</time></trkpt><trkpt lat="43.744552" lon="11.3831947"><ele>442.99999999999994</ele><time>2026-05-04T15:42:49.97Z</time></trkpt><trkpt lat="43.7444743" lon="11.3832373"><ele>443.0</ele><time>2026-05-04T15:42:50.971Z</time></trkpt><trkpt lat="43.7444003" lon="11.3832767"><ele>443.0</ele><time>2026-05-04T15:42:51.971Z</time></trkpt><trkpt lat="43.744322" lon="11.3833145"><ele>443.0</ele><time>2026-05-04T15:42:52.97Z</time></trkpt><trkpt lat="43.744238" lon="11.3833557"><ele>442.99999999999994</ele><time>2026-05-04T15:42:53.968Z</time></trkpt><trkpt lat="43.7441542" lon="11.3833932"><ele>443.0</ele><time>2026-05-04T15:42:54.971Z</time></trkpt><trkpt lat="43.7440668" lon="11.3834332"><ele>443.66666666666663</ele><time>2026-05-04T15:42:55.971Z</time></trkpt><trkpt lat="43.743984" lon="11.3834815"><ele>444.3333333333333</ele><time>2026-05-04T15:42:56.97Z</time></trkpt><trkpt lat="43.743902" lon="11.3835273"><ele>445.0</ele><time>2026-05-04T15:42:57.971Z</time></trkpt><trkpt lat="43.743823" lon="11.3835592"><ele>445.66666666666663</ele><time>2026-05-04T15:42:58.969Z</time></trkpt><trkpt lat="43.7437492" lon="11.3835697"><ele>446.3333333333333</ele><time>2026-05-04T15:42:59.969Z</time></trkpt><trkpt lat="43.7436827" lon="11.3835698"><ele>447.0</ele><time>2026-05-04T15:43:00.974Z</time></trkpt><trkpt lat="43.7436198" lon="11.3835662"><ele>448.8333333333333</ele><time>2026-05-04T15:43:01.969Z</time></trkpt><trkpt lat="43.743519" lon="11.3834577"><ele>450.66666666666663</ele><time>2026-05-04T15:43:03.966Z</time></trkpt><trkpt lat="43.7434645" lon="11.38338"><ele>452.5</ele><time>2026-05-04T15:43:04.968Z</time></trkpt><trkpt lat="43.743421" lon="11.3832953"><ele>454.3333333333333</ele><time>2026-05-04T15:43:05.97Z</time></trkpt><trkpt lat="43.7433685" lon="11.38322"><ele>456.16666666666663</ele><time>2026-05-04T15:43:06.971Z</time></trkpt><trkpt lat="43.7433088" lon="11.3831452"><ele>458.0</ele><time>2026-05-04T15:43:07.973Z</time></trkpt><trkpt lat="43.7432388" lon="11.3830672"><ele>455.79999999999995</ele><time>2026-05-04T15:43:08.969Z</time></trkpt><trkpt lat="43.743171" lon="11.3829912"><ele>453.59999999999997</ele><time>2026-05-04T15:43:09.969Z</time></trkpt><trkpt lat="43.7431048" lon="11.382904"><ele>451.40000000000003</ele><time>2026-05-04T15:43:10.968Z</time></trkpt><trkpt lat="43.7430398" lon="11.3828097"><ele>449.20000000000005</ele><time>2026-05-04T15:43:11.968Z</time></trkpt><trkpt lat="43.742995" lon="11.3826982"><ele>447.0</ele><time>2026-05-04T15:43:12.971Z</time></trkpt><trkpt lat="43.7429575" lon="11.3825875"><ele>447.0</ele><time>2026-05-04T15:43:13.967Z</time></trkpt><trkpt lat="43.7429265" lon="11.3824725"><ele>447.0</ele><time>2026-05-04T15:43:14.97Z</time></trkpt><trkpt lat="43.7428972" lon="11.3823573"><ele>447.0</ele><time>2026-05-04T15:43:15.969Z</time></trkpt><trkpt lat="43.742863" lon="11.3822502"><ele>447.0</ele><time>2026-05-04T15:43:16.97Z</time></trkpt><trkpt lat="43.7428208" lon="11.3821685"><ele>447.0</ele><time>2026-05-04T15:43:17.968Z</time></trkpt><trkpt lat="43.7427735" lon="11.3820938"><ele>447.0</ele><time>2026-05-04T15:43:18.969Z</time></trkpt><trkpt lat="43.7427103" lon="11.3820447"><ele>448.8333333333333</ele><time>2026-05-04T15:43:19.969Z</time></trkpt><trkpt lat="43.7426277" lon="11.3820108"><ele>450.66666666666663</ele><time>2026-05-04T15:43:20.969Z</time></trkpt><trkpt lat="43.7425557" lon="11.3819768"><ele>452.5</ele><time>2026-05-04T15:43:21.969Z</time></trkpt><trkpt lat="43.7424823" lon="11.3819883"><ele>454.3333333333333</ele><time>2026-05-04T15:43:22.968Z</time></trkpt><trkpt lat="43.7424092" lon="11.3820133"><ele>456.16666666666663</ele><time>2026-05-04T15:43:23.969Z</time></trkpt><trkpt lat="43.7423213" lon="11.3820555"><ele>458.0</ele><time>2026-05-04T15:43:24.968Z</time></trkpt><trkpt lat="43.742229" lon="11.3821025"><ele>458.0</ele><time>2026-05-04T15:43:25.97Z</time></trkpt><trkpt lat="43.7421408" lon="11.382144"><ele>457.99999999999994</ele><time>2026-05-04T15:43:26.97Z</time></trkpt><trkpt lat="43.7420532" lon="11.3821843"><ele>457.99999999999994</ele><time>2026-05-04T15:43:27.97Z</time></trkpt><trkpt lat="43.7419602" lon="11.3822088"><ele>458.0</ele><time>2026-05-04T15:43:28.969Z</time></trkpt><trkpt lat="43.7418607" lon="11.3822263"><ele>458.0</ele><time>2026-05-04T15:43:29.969Z</time></trkpt><trkpt lat="43.7417572" lon="11.3822395"><ele>461.59999999999997</ele><time>2026-05-04T15:43:30.97Z</time></trkpt><trkpt lat="43.7416573" lon="11.3822555"><ele>465.19999999999993</ele><time>2026-05-04T15:43:31.971Z</time></trkpt><trkpt lat="43.7415543" lon="11.3822678"><ele>468.8</ele><time>2026-05-04T15:43:32.97Z</time></trkpt><trkpt lat="43.7414507" lon="11.382273"><ele>472.4</ele><time>2026-05-04T15:43:33.97Z</time></trkpt><trkpt lat="43.7413523" lon="11.38229"><ele>476.0</ele><time>2026-05-04T15:43:34.969Z</time></trkpt><trkpt lat="43.7412537" lon="11.3823052"><ele>476.0</ele><time>2026-05-04T15:43:35.969Z</time></trkpt><trkpt lat="43.7411553" lon="11.382317"><ele>476.0</ele><time>2026-05-04T15:43:36.969Z</time></trkpt><trkpt lat="43.7410457" lon="11.3823128"><ele>476.0</ele><time>2026-05-04T15:43:37.969Z</time></trkpt><trkpt lat="43.7409465" lon="11.3823062"><ele>476.0</ele><time>2026-05-04T15:43:38.971Z</time></trkpt><trkpt lat="43.7408412" lon="11.382294"><ele>476.0</ele><time>2026-05-04T15:43:39.972Z</time></trkpt><trkpt lat="43.7407438" lon="11.3822815"><ele>476.3333333333333</ele><time>2026-05-04T15:43:40.97Z</time></trkpt><trkpt lat="43.7406575" lon="11.382265"><ele>476.66666666666663</ele><time>2026-05-04T15:43:41.972Z</time></trkpt><trkpt lat="43.7405877" lon="11.3822552"><ele>477.0</ele><time>2026-05-04T15:43:42.97Z</time></trkpt><trkpt lat="43.7404798" lon="11.3822202"><ele>477.33333333333337</ele><time>2026-05-04T15:43:44.969Z</time></trkpt><trkpt lat="43.7404088" lon="11.3822053"><ele>477.6666666666667</ele><time>2026-05-04T15:43:46.969Z</time></trkpt><trkpt lat="43.7403327" lon="11.382238"><ele>478.0</ele><time>2026-05-04T15:43:50.968Z</time></trkpt><trkpt lat="43.7402443" lon="11.3823032"><ele>477.1428571428572</ele><time>2026-05-04T15:43:53.972Z</time></trkpt><trkpt lat="43.740133" lon="11.3823213"><ele>476.28571428571433</ele><time>2026-05-04T15:43:55.969Z</time></trkpt><trkpt lat="43.7400638" lon="11.3823237"><ele>475.42857142857144</ele><time>2026-05-04T15:43:56.969Z</time></trkpt><trkpt lat="43.7399992" lon="11.3823335"><ele>474.5714285714286</ele><time>2026-05-04T15:43:57.973Z</time></trkpt><trkpt lat="43.739934" lon="11.382351"><ele>473.7142857142858</ele><time>2026-05-04T15:43:58.969Z</time></trkpt><trkpt lat="43.7398693" lon="11.3823803"><ele>472.85714285714283</ele><time>2026-05-04T15:43:59.971Z</time></trkpt><trkpt lat="43.7398192" lon="11.3824373"><ele>472.0</ele><time>2026-05-04T15:44:00.972Z</time></trkpt><trkpt lat="43.7397795" lon="11.3825108"><ele>472.00000000000006</ele><time>2026-05-04T15:44:01.969Z</time></trkpt><trkpt lat="43.7397522" lon="11.3825997"><ele>472.0</ele><time>2026-05-04T15:44:02.974Z</time></trkpt><trkpt lat="43.7397377" lon="11.3827008"><ele>472.0</ele><time>2026-05-04T15:44:03.969Z</time></trkpt><trkpt lat="43.739737" lon="11.3828138"><ele>472.0</ele><time>2026-05-04T15:44:04.971Z</time></trkpt><trkpt lat="43.7397533" lon="11.3829315"><ele>472.00000000000006</ele><time>2026-05-04T15:44:05.97Z</time></trkpt><trkpt lat="43.7397727" lon="11.3830465"><ele>472.0</ele><time>2026-05-04T15:44:06.969Z</time></trkpt><trkpt lat="43.7397915" lon="11.3831628"><ele>473.6666666666667</ele><time>2026-05-04T15:44:07.971Z</time></trkpt><trkpt lat="43.7398077" lon="11.3832955"><ele>475.33333333333337</ele><time>2026-05-04T15:44:08.969Z</time></trkpt><trkpt lat="43.7397988" lon="11.3834177"><ele>477.0</ele><time>2026-05-04T15:44:09.967Z</time></trkpt><trkpt lat="43.7397835" lon="11.3835308"><ele>478.66666666666663</ele><time>2026-05-04T15:44:10.97Z</time></trkpt><trkpt lat="43.7397713" lon="11.3836298"><ele>480.3333333333333</ele><time>2026-05-04T15:44:11.971Z</time></trkpt><trkpt lat="43.7397697" lon="11.383725"><ele>482.0</ele><time>2026-05-04T15:44:12.97Z</time></trkpt><trkpt lat="43.7397818" lon="11.383825"><ele>483.49999999999994</ele><time>2026-05-04T15:44:13.97Z</time></trkpt><trkpt lat="43.7397962" lon="11.3839185"><ele>485.0</ele><time>2026-05-04T15:44:14.969Z</time></trkpt><trkpt lat="43.7397958" lon="11.3840887"><ele>486.5</ele><time>2026-05-04T15:44:16.971Z</time></trkpt><trkpt lat="43.7397407" lon="11.3842293"><ele>488.0</ele><time>2026-05-04T15:44:18.971Z</time></trkpt><trkpt lat="43.739691" lon="11.3842832"><ele>489.49999999999994</ele><time>2026-05-04T15:44:19.968Z</time></trkpt><trkpt lat="43.739639" lon="11.3843378"><ele>491.0</ele><time>2026-05-04T15:44:20.967Z</time></trkpt><trkpt lat="43.73958" lon="11.3843958"><ele>490.99999999999994</ele><time>2026-05-04T15:44:21.972Z</time></trkpt><trkpt lat="43.7395158" lon="11.3844453"><ele>491.0</ele><time>2026-05-04T15:44:22.97Z</time></trkpt><trkpt lat="43.7394495" lon="11.3844988"><ele>491.0</ele><time>2026-05-04T15:44:23.971Z</time></trkpt><trkpt lat="43.739387" lon="11.3845552"><ele>491.0</ele><time>2026-05-04T15:44:24.968Z</time></trkpt><trkpt lat="43.7393265" lon="11.384608"><ele>490.99999999999994</ele><time>2026-05-04T15:44:25.969Z</time></trkpt><trkpt lat="43.7392765" lon="11.3846738"><ele>491.0</ele><time>2026-05-04T15:44:26.969Z</time></trkpt><trkpt lat="43.7392405" lon="11.3848287"><ele>491.16666666666663</ele><time>2026-05-04T15:44:28.969Z</time></trkpt><trkpt lat="43.7392968" lon="11.3849683"><ele>491.3333333333333</ele><time>2026-05-04T15:44:30.968Z</time></trkpt><trkpt lat="43.7393418" lon="11.3850702"><ele>491.5</ele><time>2026-05-04T15:44:32.97Z</time></trkpt><trkpt lat="43.739375" lon="11.3851698"><ele>491.66666666666663</ele><time>2026-05-04T15:44:45.969Z</time></trkpt><trkpt lat="43.73939" lon="11.3852548"><ele>491.8333333333333</ele><time>2026-05-04T15:44:47.971Z</time></trkpt><trkpt lat="43.73939" lon="11.3853815"><ele>492.0</ele><time>2026-05-04T15:44:49.968Z</time></trkpt><trkpt lat="43.7393888" lon="11.385469"><ele>490.4285714285715</ele><time>2026-05-04T15:44:50.969Z</time></trkpt><trkpt lat="43.7393933" lon="11.3855657"><ele>488.8571428571429</ele><time>2026-05-04T15:44:51.969Z</time></trkpt><trkpt lat="43.7393983" lon="11.3856705"><ele>487.2857142857143</ele><time>2026-05-04T15:44:52.97Z</time></trkpt><trkpt lat="43.7394085" lon="11.3857738"><ele>485.7142857142857</ele><time>2026-05-04T15:44:53.968Z</time></trkpt><trkpt lat="43.7394167" lon="11.3858827"><ele>484.1428571428571</ele><time>2026-05-04T15:44:54.969Z</time></trkpt><trkpt lat="43.739425" lon="11.385992"><ele>482.5714285714285</ele><time>2026-05-04T15:44:55.969Z</time></trkpt><trkpt lat="43.7394357" lon="11.3860805"><ele>480.99999999999994</ele><time>2026-05-04T15:44:56.97Z</time></trkpt><trkpt lat="43.7394432" lon="11.3861943"><ele>481.00000000000006</ele><time>2026-05-04T15:44:58.97Z</time></trkpt><trkpt lat="43.7394622" lon="11.3862933"><ele>481.0</ele><time>2026-05-04T15:45:08.971Z</time></trkpt><trkpt lat="43.739474" lon="11.3864072"><ele>481.0</ele><time>2026-05-04T15:45:10.968Z</time></trkpt><trkpt lat="43.7394835" lon="11.3865413"><ele>481.0</ele><time>2026-05-04T15:45:12.967Z</time></trkpt><trkpt lat="43.7394828" lon="11.3866725"><ele>481.00000000000006</ele><time>2026-05-04T15:45:14.97Z</time></trkpt><trkpt lat="43.7394675" lon="11.3867903"><ele>481.0</ele><time>2026-05-04T15:45:16.969Z</time></trkpt><trkpt lat="43.7394288" lon="11.3869247"><ele>483.8</ele><time>2026-05-04T15:45:18.969Z</time></trkpt><trkpt lat="43.7393632" lon="11.3870315"><ele>486.6</ele><time>2026-05-04T15:45:20.968Z</time></trkpt><trkpt lat="43.7392858" lon="11.3871193"><ele>489.4</ele><time>2026-05-04T15:45:22.97Z</time></trkpt><trkpt lat="43.7391972" lon="11.3871652"><ele>492.2</ele><time>2026-05-04T15:45:24.969Z</time></trkpt><trkpt lat="43.7391015" lon="11.387163"><ele>495.0</ele><time>2026-05-04T15:45:26.97Z</time></trkpt><trkpt lat="43.738998" lon="11.3871517"><ele>495.0</ele><time>2026-05-04T15:45:28.969Z</time></trkpt><trkpt lat="43.7388982" lon="11.387142"><ele>495.0</ele><time>2026-05-04T15:45:30.97Z</time></trkpt><trkpt lat="43.7387888" lon="11.3871007"><ele>495.0</ele><time>2026-05-04T15:45:32.969Z</time></trkpt><trkpt lat="43.7387023" lon="11.3870073"><ele>495.0</ele><time>2026-05-04T15:45:34.969Z</time></trkpt><trkpt lat="43.738628" lon="11.3868993"><ele>495.0</ele><time>2026-05-04T15:45:36.97Z</time></trkpt><trkpt lat="43.7385503" lon="11.3868092"><ele>494.8</ele><time>2026-05-04T15:45:38.969Z</time></trkpt><trkpt lat="43.7384767" lon="11.3867173"><ele>494.6</ele><time>2026-05-04T15:45:40.973Z</time></trkpt><trkpt lat="43.7384033" lon="11.3866098"><ele>494.4</ele><time>2026-05-04T15:45:42.971Z</time></trkpt><trkpt lat="43.7383378" lon="11.3865033"><ele>494.2</ele><time>2026-05-04T15:45:44.97Z</time></trkpt><trkpt lat="43.7382633" lon="11.3863875"><ele>494.0</ele><time>2026-05-04T15:45:46.967Z</time></trkpt><trkpt lat="43.7381973" lon="11.386259"><ele>495.6</ele><time>2026-05-04T15:45:48.969Z</time></trkpt><trkpt lat="43.7381495" lon="11.3861315"><ele>497.2</ele><time>2026-05-04T15:45:50.971Z</time></trkpt><trkpt lat="43.738109" lon="11.3859992"><ele>498.80000000000007</ele><time>2026-05-04T15:45:52.971Z</time></trkpt><trkpt lat="43.738048" lon="11.385857"><ele>500.40000000000003</ele><time>2026-05-04T15:45:54.969Z</time></trkpt><trkpt lat="43.73799" lon="11.385718"><ele>502.0</ele><time>2026-05-04T15:45:56.969Z</time></trkpt><trkpt lat="43.7379312" lon="11.3855865"><ele>500.1666666666667</ele><time>2026-05-04T15:45:58.97Z</time></trkpt><trkpt lat="43.737879" lon="11.3854755"><ele>498.33333333333337</ele><time>2026-05-04T15:46:00.971Z</time></trkpt><trkpt lat="43.7378783" lon="11.3853782"><ele>496.5</ele><time>2026-05-04T15:46:02.97Z</time></trkpt><trkpt lat="43.7379278" lon="11.3853177"><ele>494.66666666666663</ele><time>2026-05-04T15:46:04.97Z</time></trkpt><trkpt lat="43.7379988" lon="11.3852835"><ele>492.8333333333333</ele><time>2026-05-04T15:46:06.97Z</time></trkpt><trkpt lat="43.7380985" lon="11.3852512"><ele>491.0</ele><time>2026-05-04T15:46:08.97Z</time></trkpt><trkpt lat="43.7381603" lon="11.3852333"><ele>491.0</ele><time>2026-05-04T15:46:09.97Z</time></trkpt><trkpt lat="43.7382282" lon="11.3852192"><ele>490.99999999999994</ele><time>2026-05-04T15:46:10.969Z</time></trkpt><trkpt lat="43.7382955" lon="11.3852093"><ele>491.0</ele><time>2026-05-04T15:46:11.972Z</time></trkpt><trkpt lat="43.7383732" lon="11.385195"><ele>491.0</ele><time>2026-05-04T15:46:12.968Z</time></trkpt><trkpt lat="43.7384367" lon="11.3851805"><ele>490.99999999999994</ele><time>2026-05-04T15:46:13.969Z</time></trkpt><trkpt lat="43.7384997" lon="11.385166"><ele>491.0</ele><time>2026-05-04T15:46:14.968Z</time></trkpt><trkpt lat="43.73857" lon="11.3851523"><ele>491.0</ele><time>2026-05-04T15:46:15.968Z</time></trkpt><trkpt lat="43.738646" lon="11.3851407"><ele>491.16666666666663</ele><time>2026-05-04T15:46:16.97Z</time></trkpt><trkpt lat="43.7387243" lon="11.3851305"><ele>491.3333333333333</ele><time>2026-05-04T15:46:17.967Z</time></trkpt><trkpt lat="43.738804" lon="11.3851103"><ele>491.5</ele><time>2026-05-04T15:46:18.968Z</time></trkpt><trkpt lat="43.7388873" lon="11.3850883"><ele>491.66666666666663</ele><time>2026-05-04T15:46:19.968Z</time></trkpt><trkpt lat="43.7389735" lon="11.3850697"><ele>491.8333333333333</ele><time>2026-05-04T15:46:20.967Z</time></trkpt><trkpt lat="43.7390552" lon="11.3850553"><ele>492.0</ele><time>2026-05-04T15:46:21.97Z</time></trkpt><trkpt lat="43.73913" lon="11.3850445"><ele>492.0</ele><time>2026-05-04T15:46:22.97Z</time></trkpt><trkpt lat="43.7392018" lon="11.3850637"><ele>492.0</ele><time>2026-05-04T15:46:23.97Z</time></trkpt><trkpt lat="43.7393028" lon="11.3851082"><ele>492.0</ele><time>2026-05-04T15:46:25.97Z</time></trkpt><trkpt lat="43.7393665" lon="11.3851035"><ele>492.0</ele><time>2026-05-04T15:46:27.971Z</time></trkpt><trkpt lat="43.7393625" lon="11.3849755"><ele>492.0</ele><time>2026-05-04T15:46:32.971Z</time></trkpt><trkpt lat="43.7393178" lon="11.3848375"><ele>492.0</ele><time>2026-05-04T15:46:34.974Z</time></trkpt><trkpt lat="43.7392993" lon="11.384685"><ele>491.8</ele><time>2026-05-04T15:46:36.969Z</time></trkpt><trkpt lat="43.7393712" lon="11.3845287"><ele>491.6</ele><time>2026-05-04T15:46:38.968Z</time></trkpt><trkpt lat="43.7394318" lon="11.3844535"><ele>491.40000000000003</ele><time>2026-05-04T15:46:39.968Z</time></trkpt><trkpt lat="43.7395075" lon="11.3843815"><ele>491.20000000000005</ele><time>2026-05-04T15:46:40.971Z</time></trkpt><trkpt lat="43.7395808" lon="11.3843135"><ele>491.0</ele><time>2026-05-04T15:46:41.968Z</time></trkpt><trkpt lat="43.7396508" lon="11.3842405"><ele>491.0</ele><time>2026-05-04T15:46:42.969Z</time></trkpt><trkpt lat="43.7397155" lon="11.3841793"><ele>490.99999999999994</ele><time>2026-05-04T15:46:43.969Z</time></trkpt><trkpt lat="43.7397733" lon="11.3841157"><ele>491.0</ele><time>2026-05-04T15:46:44.971Z</time></trkpt><trkpt lat="43.7398223" lon="11.3840443"><ele>491.0</ele><time>2026-05-04T15:46:45.968Z</time></trkpt><trkpt lat="43.7398633" lon="11.3839593"><ele>490.99999999999994</ele><time>2026-05-04T15:46:46.969Z</time></trkpt><trkpt lat="43.7398973" lon="11.383866"><ele>491.0</ele><time>2026-05-04T15:46:47.968Z</time></trkpt><trkpt lat="43.7399267" lon="11.3837727"><ele>491.0</ele><time>2026-05-04T15:46:48.967Z</time></trkpt><trkpt lat="43.7399315" lon="11.3836775"><ele>489.49999999999994</ele><time>2026-05-04T15:46:49.969Z</time></trkpt><trkpt lat="43.7399295" lon="11.383575"><ele>488.0</ele><time>2026-05-04T15:46:50.967Z</time></trkpt><trkpt lat="43.7399283" lon="11.3834535"><ele>486.5</ele><time>2026-05-04T15:46:51.967Z</time></trkpt><trkpt lat="43.7399275" lon="11.3833225"><ele>485.0</ele><time>2026-05-04T15:46:52.967Z</time></trkpt><trkpt lat="43.739921" lon="11.3832063"><ele>483.49999999999994</ele><time>2026-05-04T15:46:53.967Z</time></trkpt><trkpt lat="43.7399167" lon="11.3830902"><ele>482.0</ele><time>2026-05-04T15:46:54.969Z</time></trkpt><trkpt lat="43.7398968" lon="11.3829787"><ele>480.3333333333333</ele><time>2026-05-04T15:46:55.969Z</time></trkpt><trkpt lat="43.739872" lon="11.3828693"><ele>478.66666666666663</ele><time>2026-05-04T15:46:56.97Z</time></trkpt><trkpt lat="43.7398562" lon="11.3827598"><ele>477.0</ele><time>2026-05-04T15:46:57.967Z</time></trkpt><trkpt lat="43.739857" lon="11.3826472"><ele>475.33333333333337</ele><time>2026-05-04T15:46:58.968Z</time></trkpt><trkpt lat="43.7398658" lon="11.3825443"><ele>473.6666666666667</ele><time>2026-05-04T15:46:59.969Z</time></trkpt><trkpt lat="43.7399182" lon="11.382394"><ele>472.0</ele><time>2026-05-04T15:47:01.97Z</time></trkpt><trkpt lat="43.7400217" lon="11.3823047"><ele>472.00000000000006</ele><time>2026-05-04T15:47:03.968Z</time></trkpt><trkpt lat="43.7400927" lon="11.3822793"><ele>472.0</ele><time>2026-05-04T15:47:04.968Z</time></trkpt><trkpt lat="43.7401772" lon="11.3822602"><ele>472.0</ele><time>2026-05-04T15:47:05.967Z</time></trkpt><trkpt lat="43.7402682" lon="11.3822573"><ele>472.0</ele><time>2026-05-04T15:47:06.969Z</time></trkpt><trkpt lat="43.7403477" lon="11.3822693"><ele>472.00000000000006</ele><time>2026-05-04T15:47:07.97Z</time></trkpt><trkpt lat="43.7404335" lon="11.3822792"><ele>472.0</ele><time>2026-05-04T15:47:09.97Z</time></trkpt><trkpt lat="43.7403512" lon="11.3822363"><ele>472.00000000000006</ele><time>2026-05-04T15:47:13.967Z</time></trkpt><trkpt lat="43.7402767" lon="11.3822275"><ele>472.0</ele><time>2026-05-04T15:47:14.971Z</time></trkpt><trkpt lat="43.7401948" lon="11.3822028"><ele>472.0</ele><time>2026-05-04T15:47:15.969Z</time></trkpt><trkpt lat="43.740117" lon="11.3821752"><ele>472.0</ele><time>2026-05-04T15:47:16.97Z</time></trkpt><trkpt lat="43.7400363" lon="11.3821303"><ele>472.00000000000006</ele><time>2026-05-04T15:47:17.97Z</time></trkpt><trkpt lat="43.7399548" lon="11.382084"><ele>472.0</ele><time>2026-05-04T15:47:18.97Z</time></trkpt><trkpt lat="43.7398748" lon="11.3820265"><ele>469.20000000000005</ele><time>2026-05-04T15:47:19.967Z</time></trkpt><trkpt lat="43.739797" lon="11.3819663"><ele>466.40000000000003</ele><time>2026-05-04T15:47:20.968Z</time></trkpt><trkpt lat="43.7397287" lon="11.381908"><ele>463.59999999999997</ele><time>2026-05-04T15:47:21.969Z</time></trkpt><trkpt lat="43.7396772" lon="11.3818502"><ele>460.79999999999995</ele><time>2026-05-04T15:47:22.969Z</time></trkpt><trkpt lat="43.7396028" lon="11.3817073"><ele>458.0</ele><time>2026-05-04T15:47:24.969Z</time></trkpt><trkpt lat="43.7395575" lon="11.381552"><ele>457.99999999999994</ele><time>2026-05-04T15:47:26.968Z</time></trkpt><trkpt lat="43.739548" lon="11.3814553"><ele>458.0</ele><time>2026-05-04T15:47:27.968Z</time></trkpt><trkpt lat="43.7395312" lon="11.3813613"><ele>458.0</ele><time>2026-05-04T15:47:28.968Z</time></trkpt><trkpt lat="43.739502" lon="11.3812617"><ele>458.0</ele><time>2026-05-04T15:47:29.971Z</time></trkpt><trkpt lat="43.7394573" lon="11.3811693"><ele>457.99999999999994</ele><time>2026-05-04T15:47:30.969Z</time></trkpt><trkpt lat="43.7394027" lon="11.3810785"><ele>458.0</ele><time>2026-05-04T15:47:31.97Z</time></trkpt><trkpt lat="43.7393588" lon="11.3809682"><ele>457.2</ele><time>2026-05-04T15:47:32.968Z</time></trkpt><trkpt lat="43.7393207" lon="11.3808427"><ele>456.4</ele><time>2026-05-04T15:47:33.967Z</time></trkpt><trkpt lat="43.7392927" lon="11.3807023"><ele>455.59999999999997</ele><time>2026-05-04T15:47:34.969Z</time></trkpt><trkpt lat="43.7392745" lon="11.380561"><ele>454.79999999999995</ele><time>2026-05-04T15:47:35.975Z</time></trkpt><trkpt lat="43.7392648" lon="11.380419"><ele>454.0</ele><time>2026-05-04T15:47:36.971Z</time></trkpt><trkpt lat="43.7392608" lon="11.3802753"><ele>454.0</ele><time>2026-05-04T15:47:37.97Z</time></trkpt><trkpt lat="43.7392607" lon="11.3801418"><ele>454.0</ele><time>2026-05-04T15:47:38.969Z</time></trkpt><trkpt lat="43.7392662" lon="11.3800065"><ele>454.0</ele><time>2026-05-04T15:47:39.967Z</time></trkpt><trkpt lat="43.7392765" lon="11.3798677"><ele>454.0</ele><time>2026-05-04T15:47:40.967Z</time></trkpt><trkpt lat="43.739295" lon="11.3797383"><ele>454.0</ele><time>2026-05-04T15:47:41.967Z</time></trkpt><trkpt lat="43.7393172" lon="11.379614"><ele>452.4</ele><time>2026-05-04T15:47:42.968Z</time></trkpt><trkpt lat="43.7393335" lon="11.379494"><ele>450.79999999999995</ele><time>2026-05-04T15:47:43.971Z</time></trkpt><trkpt lat="43.7393393" lon="11.3793762"><ele>449.20000000000005</ele><time>2026-05-04T15:47:44.971Z</time></trkpt><trkpt lat="43.739332" lon="11.3792542"><ele>447.6</ele><time>2026-05-04T15:47:45.972Z</time></trkpt><trkpt lat="43.7393132" lon="11.379129"><ele>446.0</ele><time>2026-05-04T15:47:46.967Z</time></trkpt><trkpt lat="43.7392895" lon="11.3789902"><ele>446.0</ele><time>2026-05-04T15:47:47.972Z</time></trkpt><trkpt lat="43.7392635" lon="11.3788537"><ele>446.0</ele><time>2026-05-04T15:47:48.97Z</time></trkpt><trkpt lat="43.7392297" lon="11.378705"><ele>446.0</ele><time>2026-05-04T15:47:49.968Z</time></trkpt><trkpt lat="43.739189" lon="11.3785565"><ele>446.0</ele><time>2026-05-04T15:47:50.969Z</time></trkpt><trkpt lat="43.7391472" lon="11.3784003"><ele>443.0</ele><time>2026-05-04T15:47:51.968Z</time></trkpt><trkpt lat="43.7391118" lon="11.3782493"><ele>440.0</ele><time>2026-05-04T15:47:52.969Z</time></trkpt><trkpt lat="43.7390712" lon="11.3781038"><ele>437.0</ele><time>2026-05-04T15:47:53.969Z</time></trkpt><trkpt lat="43.7390247" lon="11.3779608"><ele>434.0</ele><time>2026-05-04T15:47:54.971Z</time></trkpt><trkpt lat="43.7389808" lon="11.377819"><ele>431.6</ele><time>2026-05-04T15:47:55.968Z</time></trkpt><trkpt lat="43.7389462" lon="11.3776843"><ele>429.2</ele><time>2026-05-04T15:47:56.969Z</time></trkpt><trkpt lat="43.7389113" lon="11.3775467"><ele>426.8</ele><time>2026-05-04T15:47:57.968Z</time></trkpt><trkpt lat="43.738879" lon="11.377412"><ele>424.40000000000003</ele><time>2026-05-04T15:47:58.969Z</time></trkpt><trkpt lat="43.7388542" lon="11.3772838"><ele>422.0</ele><time>2026-05-04T15:47:59.968Z</time></trkpt><trkpt lat="43.7388342" lon="11.3771633"><ele>421.16666666666663</ele><time>2026-05-04T15:48:00.971Z</time></trkpt><trkpt lat="43.7388237" lon="11.3770447"><ele>420.3333333333333</ele><time>2026-05-04T15:48:01.968Z</time></trkpt><trkpt lat="43.7388048" lon="11.3769323"><ele>419.5</ele><time>2026-05-04T15:48:02.969Z</time></trkpt><trkpt lat="43.738773" lon="11.3768145"><ele>418.66666666666663</ele><time>2026-05-04T15:48:04.97Z</time></trkpt><trkpt lat="43.738747" lon="11.3767247"><ele>417.8333333333333</ele><time>2026-05-04T15:48:09.972Z</time></trkpt><trkpt lat="43.7386783" lon="11.376665"><ele>417.0</ele><time>2026-05-04T15:48:15.969Z</time></trkpt><trkpt lat="43.7386367" lon="11.3765682"><ele>417.0</ele><time>2026-05-04T15:48:17.968Z</time></trkpt><trkpt lat="43.7386075" lon="11.3764783"><ele>417.0</ele><time>2026-05-04T15:48:18.968Z</time></trkpt><trkpt lat="43.7385768" lon="11.3763792"><ele>417.0</ele><time>2026-05-04T15:48:19.971Z</time></trkpt><trkpt lat="43.7385457" lon="11.3762732"><ele>417.0</ele><time>2026-05-04T15:48:20.971Z</time></trkpt><trkpt lat="43.738512" lon="11.3761582"><ele>417.0</ele><time>2026-05-04T15:48:21.969Z</time></trkpt><trkpt lat="43.7384735" lon="11.3760413"><ele>417.0</ele><time>2026-05-04T15:48:22.97Z</time></trkpt><trkpt lat="43.7384343" lon="11.375916"><ele>417.20000000000005</ele><time>2026-05-04T15:48:23.968Z</time></trkpt><trkpt lat="43.7383922" lon="11.3757943"><ele>417.4</ele><time>2026-05-04T15:48:24.968Z</time></trkpt><trkpt lat="43.7383482" lon="11.3756705"><ele>417.6</ele><time>2026-05-04T15:48:25.968Z</time></trkpt><trkpt lat="43.738305" lon="11.3755435"><ele>417.79999999999995</ele><time>2026-05-04T15:48:26.967Z</time></trkpt><trkpt lat="43.7382557" lon="11.3754192"><ele>418.0</ele><time>2026-05-04T15:48:27.971Z</time></trkpt><trkpt lat="43.7382073" lon="11.3752985"><ele>418.33333333333337</ele><time>2026-05-04T15:48:28.968Z</time></trkpt><trkpt lat="43.7381597" lon="11.3751877"><ele>418.6666666666667</ele><time>2026-05-04T15:48:29.971Z</time></trkpt><trkpt lat="43.7381178" lon="11.3750805"><ele>419.0</ele><time>2026-05-04T15:48:30.967Z</time></trkpt><trkpt lat="43.7380777" lon="11.374988"><ele>419.33333333333337</ele><time>2026-05-04T15:48:31.967Z</time></trkpt><trkpt lat="43.738035" lon="11.374923"><ele>419.6666666666667</ele><time>2026-05-04T15:48:32.967Z</time></trkpt><trkpt lat="43.7379563" lon="11.3748685"><ele>420.0</ele><time>2026-05-04T15:48:34.967Z</time></trkpt><trkpt lat="43.7378908" lon="11.3749217"><ele>420.0</ele><time>2026-05-04T15:48:36.968Z</time></trkpt><trkpt lat="43.7378508" lon="11.3750965"><ele>420.0</ele><time>2026-05-04T15:48:38.968Z</time></trkpt><trkpt lat="43.7378327" lon="11.3752092"><ele>420.0</ele><time>2026-05-04T15:48:39.969Z</time></trkpt><trkpt lat="43.7378053" lon="11.3753393"><ele>420.0</ele><time>2026-05-04T15:48:40.97Z</time></trkpt><trkpt lat="43.7377745" lon="11.3754652"><ele>420.0</ele><time>2026-05-04T15:48:41.968Z</time></trkpt><trkpt lat="43.7377383" lon="11.3755865"><ele>414.75</ele><time>2026-05-04T15:48:42.968Z</time></trkpt><trkpt lat="43.7376872" lon="11.3757278"><ele>409.5</ele><time>2026-05-04T15:48:43.969Z</time></trkpt><trkpt lat="43.7376342" lon="11.3758702"><ele>404.25</ele><time>2026-05-04T15:48:44.968Z</time></trkpt><trkpt lat="43.7375867" lon="11.3760097"><ele>399.0</ele><time>2026-05-04T15:48:45.968Z</time></trkpt><trkpt lat="43.7375318" lon="11.376151"><ele>399.0</ele><time>2026-05-04T15:48:46.97Z</time></trkpt><trkpt lat="43.7374737" lon="11.3762848"><ele>399.0</ele><time>2026-05-04T15:48:47.965Z</time></trkpt><trkpt lat="43.7374067" lon="11.3763948"><ele>399.0</ele><time>2026-05-04T15:48:48.967Z</time></trkpt><trkpt lat="43.737338" lon="11.3764925"><ele>399.0</ele><time>2026-05-04T15:48:49.969Z</time></trkpt><trkpt lat="43.7372727" lon="11.3765755"><ele>399.0</ele><time>2026-05-04T15:48:50.967Z</time></trkpt><trkpt lat="43.737206" lon="11.3766388"><ele>399.6666666666667</ele><time>2026-05-04T15:48:51.969Z</time></trkpt><trkpt lat="43.7371267" lon="11.376674"><ele>400.33333333333337</ele><time>2026-05-04T15:48:52.97Z</time></trkpt><trkpt lat="43.7370397" lon="11.3766928"><ele>401.0</ele><time>2026-05-04T15:48:53.969Z</time></trkpt><trkpt lat="43.7369488" lon="11.3766982"><ele>401.6666666666667</ele><time>2026-05-04T15:48:54.968Z</time></trkpt><trkpt lat="43.736869" lon="11.376704"><ele>402.33333333333337</ele><time>2026-05-04T15:48:55.967Z</time></trkpt><trkpt lat="43.7367903" lon="11.376725"><ele>403.0</ele><time>2026-05-04T15:48:56.969Z</time></trkpt><trkpt lat="43.7367245" lon="11.3767815"><ele>399.1666666666667</ele><time>2026-05-04T15:48:57.967Z</time></trkpt><trkpt lat="43.736668" lon="11.3768528"><ele>395.33333333333337</ele><time>2026-05-04T15:48:58.968Z</time></trkpt><trkpt lat="43.7366117" lon="11.3769333"><ele>391.5</ele><time>2026-05-04T15:48:59.967Z</time></trkpt><trkpt lat="43.7365603" lon="11.3770167"><ele>387.6666666666667</ele><time>2026-05-04T15:49:00.967Z</time></trkpt><trkpt lat="43.7365158" lon="11.3770875"><ele>383.83333333333337</ele><time>2026-05-04T15:49:01.968Z</time></trkpt><trkpt lat="43.736445" lon="11.37713"><ele>380.0</ele><time>2026-05-04T15:49:03.972Z</time></trkpt><trkpt lat="43.736379" lon="11.3770477"><ele>380.0</ele><time>2026-05-04T15:49:05.968Z</time></trkpt><trkpt lat="43.7363573" lon="11.3769598"><ele>380.0</ele><time>2026-05-04T15:49:06.969Z</time></trkpt><trkpt lat="43.736357" lon="11.3768508"><ele>380.0</ele><time>2026-05-04T15:49:07.969Z</time></trkpt><trkpt lat="43.7363693" lon="11.3767413"><ele>380.0</ele><time>2026-05-04T15:49:08.971Z</time></trkpt><trkpt lat="43.7363687" lon="11.3766537"><ele>380.0</ele><time>2026-05-04T15:49:09.968Z</time></trkpt><trkpt lat="43.7363075" lon="11.3765215"><ele>380.0</ele><time>2026-05-04T15:49:11.967Z</time></trkpt><trkpt lat="43.7362355" lon="11.3765138"><ele>380.0</ele><time>2026-05-04T15:49:12.969Z</time></trkpt><trkpt lat="43.736162" lon="11.3765408"><ele>380.0</ele><time>2026-05-04T15:49:13.966Z</time></trkpt><trkpt lat="43.7360942" lon="11.3766022"><ele>380.0</ele><time>2026-05-04T15:49:14.969Z</time></trkpt><trkpt lat="43.7360287" lon="11.3766833"><ele>380.0</ele><time>2026-05-04T15:49:15.967Z</time></trkpt><trkpt lat="43.7359657" lon="11.3767603"><ele>380.0</ele><time>2026-05-04T15:49:16.969Z</time></trkpt><trkpt lat="43.7358997" lon="11.376829"><ele>380.0</ele><time>2026-05-04T15:49:17.967Z</time></trkpt><trkpt lat="43.7358248" lon="11.3768795"><ele>377.2857142857143</ele><time>2026-05-04T15:49:18.97Z</time></trkpt><trkpt lat="43.7357482" lon="11.3769105"><ele>374.57142857142856</ele><time>2026-05-04T15:49:19.968Z</time></trkpt><trkpt lat="43.7356747" lon="11.3769225"><ele>371.8571428571429</ele><time>2026-05-04T15:49:20.969Z</time></trkpt><trkpt lat="43.7356013" lon="11.376926"><ele>369.1428571428571</ele><time>2026-05-04T15:49:21.967Z</time></trkpt><trkpt lat="43.73553" lon="11.3769243"><ele>366.4285714285714</ele><time>2026-05-04T15:49:22.969Z</time></trkpt><trkpt lat="43.7354557" lon="11.3769195"><ele>363.7142857142857</ele><time>2026-05-04T15:49:23.97Z</time></trkpt><trkpt lat="43.7353847" lon="11.376924"><ele>361.0</ele><time>2026-05-04T15:49:24.97Z</time></trkpt><trkpt lat="43.735318" lon="11.3769368"><ele>361.0</ele><time>2026-05-04T15:49:25.969Z</time></trkpt><trkpt lat="43.7352443" lon="11.3769412"><ele>361.0</ele><time>2026-05-04T15:49:26.968Z</time></trkpt><trkpt lat="43.73517" lon="11.3769385"><ele>361.0</ele><time>2026-05-04T15:49:27.968Z</time></trkpt><trkpt lat="43.7350955" lon="11.3769322"><ele>361.0</ele><time>2026-05-04T15:49:28.967Z</time></trkpt><trkpt lat="43.7350183" lon="11.3769268"><ele>361.0</ele><time>2026-05-04T15:49:29.968Z</time></trkpt><trkpt lat="43.734939" lon="11.3769203"><ele>361.0</ele><time>2026-05-04T15:49:30.969Z</time></trkpt><trkpt lat="43.7348563" lon="11.3769118"><ele>359.0</ele><time>2026-05-04T15:49:31.967Z</time></trkpt><trkpt lat="43.7347817" lon="11.376896"><ele>357.0</ele><time>2026-05-04T15:49:32.971Z</time></trkpt><trkpt lat="43.7347077" lon="11.3768778"><ele>355.0</ele><time>2026-05-04T15:49:33.97Z</time></trkpt><trkpt lat="43.7346407" lon="11.3768488"><ele>353.0</ele><time>2026-05-04T15:49:34.968Z</time></trkpt><trkpt lat="43.7345545" lon="11.3767718"><ele>351.0</ele><time>2026-05-04T15:49:36.969Z</time></trkpt><trkpt lat="43.7346358" lon="11.3768187"><ele>349.0</ele><time>2026-05-04T15:49:55.966Z</time></trkpt><trkpt lat="43.7347552" lon="11.3768663"><ele>349.0</ele><time>2026-05-04T15:49:57.969Z</time></trkpt><trkpt lat="43.7348233" lon="11.3768912"><ele>349.0</ele><time>2026-05-04T15:49:58.968Z</time></trkpt><trkpt lat="43.7348982" lon="11.3769135"><ele>349.0</ele><time>2026-05-04T15:49:59.968Z</time></trkpt><trkpt lat="43.7349802" lon="11.3769298"><ele>349.0</ele><time>2026-05-04T15:50:00.968Z</time></trkpt><trkpt lat="43.7350647" lon="11.3769437"><ele>349.0</ele><time>2026-05-04T15:50:01.968Z</time></trkpt><trkpt lat="43.7351517" lon="11.376957"><ele>349.0</ele><time>2026-05-04T15:50:02.969Z</time></trkpt><trkpt lat="43.7352353" lon="11.3769668"><ele>351.0</ele><time>2026-05-04T15:50:03.971Z</time></trkpt><trkpt lat="43.7353192" lon="11.3769715"><ele>353.0</ele><time>2026-05-04T15:50:04.965Z</time></trkpt><trkpt lat="43.7354013" lon="11.3769707"><ele>355.0</ele><time>2026-05-04T15:50:05.971Z</time></trkpt><trkpt lat="43.7354873" lon="11.3769595"><ele>357.0</ele><time>2026-05-04T15:50:06.971Z</time></trkpt><trkpt lat="43.7355777" lon="11.3769502"><ele>359.0</ele><time>2026-05-04T15:50:07.968Z</time></trkpt><trkpt lat="43.7356677" lon="11.376942"><ele>361.0</ele><time>2026-05-04T15:50:08.969Z</time></trkpt><trkpt lat="43.7357555" lon="11.3769318"><ele>361.0</ele><time>2026-05-04T15:50:09.968Z</time></trkpt><trkpt lat="43.7358477" lon="11.3769133"><ele>361.0</ele><time>2026-05-04T15:50:10.969Z</time></trkpt><trkpt lat="43.7359383" lon="11.376875"><ele>361.0</ele><time>2026-05-04T15:50:11.968Z</time></trkpt><trkpt lat="43.7360258" lon="11.3768108"><ele>361.0</ele><time>2026-05-04T15:50:12.968Z</time></trkpt><trkpt lat="43.7361113" lon="11.3767347"><ele>361.0</ele><time>2026-05-04T15:50:13.969Z</time></trkpt><trkpt lat="43.7361965" lon="11.376659"><ele>364.16666666666663</ele><time>2026-05-04T15:50:14.968Z</time></trkpt><trkpt lat="43.7362678" lon="11.3766063"><ele>367.3333333333333</ele><time>2026-05-04T15:50:15.969Z</time></trkpt><trkpt lat="43.7363778" lon="11.376583"><ele>370.5</ele><time>2026-05-04T15:50:17.969Z</time></trkpt><trkpt lat="43.736421" lon="11.3766493"><ele>373.6666666666667</ele><time>2026-05-04T15:50:18.971Z</time></trkpt><trkpt lat="43.7364357" lon="11.3767712"><ele>376.83333333333337</ele><time>2026-05-04T15:50:19.968Z</time></trkpt><trkpt lat="43.7364218" lon="11.3768958"><ele>380.0</ele><time>2026-05-04T15:50:20.969Z</time></trkpt><trkpt lat="43.73641" lon="11.3770028"><ele>380.0</ele><time>2026-05-04T15:50:21.967Z</time></trkpt><trkpt lat="43.7364163" lon="11.3770992"><ele>380.0</ele><time>2026-05-04T15:50:22.97Z</time></trkpt><trkpt lat="43.7365132" lon="11.3771432"><ele>380.0</ele><time>2026-05-04T15:50:24.968Z</time></trkpt><trkpt lat="43.7365742" lon="11.3770897"><ele>380.0</ele><time>2026-05-04T15:50:25.968Z</time></trkpt><trkpt lat="43.7366273" lon="11.3770213"><ele>380.0</ele><time>2026-05-04T15:50:26.968Z</time></trkpt><trkpt lat="43.7366868" lon="11.3769138"><ele>380.0</ele><time>2026-05-04T15:50:27.969Z</time></trkpt><trkpt lat="43.7367462" lon="11.3768185"><ele>380.0</ele><time>2026-05-04T15:50:28.968Z</time></trkpt><trkpt lat="43.736819" lon="11.3767362"><ele>380.0</ele><time>2026-05-04T15:50:29.967Z</time></trkpt><trkpt lat="43.7368935" lon="11.3766625"><ele>380.0</ele><time>2026-05-04T15:50:30.969Z</time></trkpt><trkpt lat="43.7369798" lon="11.3766088"><ele>380.0</ele><time>2026-05-04T15:50:31.967Z</time></trkpt><trkpt lat="43.737071" lon="11.3765663"><ele>380.0</ele><time>2026-05-04T15:50:32.968Z</time></trkpt><trkpt lat="43.7371615" lon="11.376536"><ele>383.8</ele><time>2026-05-04T15:50:33.967Z</time></trkpt><trkpt lat="43.737252" lon="11.3765155"><ele>387.6</ele><time>2026-05-04T15:50:34.968Z</time></trkpt><trkpt lat="43.7373483" lon="11.376482"><ele>391.4</ele><time>2026-05-04T15:50:35.967Z</time></trkpt><trkpt lat="43.7374383" lon="11.3764017"><ele>395.2</ele><time>2026-05-04T15:50:36.967Z</time></trkpt><trkpt lat="43.7375292" lon="11.37631"><ele>399.0</ele><time>2026-05-04T15:50:37.968Z</time></trkpt><trkpt lat="43.7376055" lon="11.3761902"><ele>399.0</ele><time>2026-05-04T15:50:38.967Z</time></trkpt><trkpt lat="43.7376608" lon="11.3760473"><ele>399.0</ele><time>2026-05-04T15:50:39.965Z</time></trkpt><trkpt lat="43.737692" lon="11.3758925"><ele>399.0</ele><time>2026-05-04T15:50:40.965Z</time></trkpt><trkpt lat="43.7377237" lon="11.3757463"><ele>399.0</ele><time>2026-05-04T15:50:41.968Z</time></trkpt><trkpt lat="43.7377503" lon="11.3756085"><ele>399.0</ele><time>2026-05-04T15:50:42.968Z</time></trkpt><trkpt lat="43.7377755" lon="11.3754777"><ele>402.5</ele><time>2026-05-04T15:50:43.967Z</time></trkpt><trkpt lat="43.7378088" lon="11.3753445"><ele>406.0</ele><time>2026-05-04T15:50:44.967Z</time></trkpt><trkpt lat="43.7378388" lon="11.3752183"><ele>409.5</ele><time>2026-05-04T15:50:45.966Z</time></trkpt><trkpt lat="43.7378632" lon="11.3750977"><ele>413.0</ele><time>2026-05-04T15:50:46.966Z</time></trkpt><trkpt lat="43.7378882" lon="11.3749877"><ele>416.5</ele><time>2026-05-04T15:50:47.966Z</time></trkpt><trkpt lat="43.737912" lon="11.3748962"><ele>420.0</ele><time>2026-05-04T15:50:48.967Z</time></trkpt><trkpt lat="43.7379543" lon="11.3747802"><ele>420.0</ele><time>2026-05-04T15:50:50.966Z</time></trkpt><trkpt lat="43.7379983" lon="11.3748808"><ele>420.0</ele><time>2026-05-04T15:50:52.967Z</time></trkpt><trkpt lat="43.7380755" lon="11.3750622"><ele>420.0</ele><time>2026-05-04T15:50:53.968Z</time></trkpt><trkpt lat="43.7381415" lon="11.375196"><ele>420.0</ele><time>2026-05-04T15:50:54.969Z</time></trkpt><trkpt lat="43.7382043" lon="11.3753417"><ele>420.0</ele><time>2026-05-04T15:50:55.968Z</time></trkpt><trkpt lat="43.7382655" lon="11.3754917"><ele>420.0</ele><time>2026-05-04T15:50:56.975Z</time></trkpt><trkpt lat="43.7383293" lon="11.3756605"><ele>420.0</ele><time>2026-05-04T15:50:57.966Z</time></trkpt><trkpt lat="43.738401" lon="11.3758372"><ele>420.0</ele><time>2026-05-04T15:50:58.969Z</time></trkpt><trkpt lat="43.7384488" lon="11.376"><ele>419.5</ele><time>2026-05-04T15:50:59.967Z</time></trkpt><trkpt lat="43.738497" lon="11.3761503"><ele>419.0</ele><time>2026-05-04T15:51:00.968Z</time></trkpt><trkpt lat="43.7385423" lon="11.376295"><ele>418.5</ele><time>2026-05-04T15:51:01.967Z</time></trkpt><trkpt lat="43.738589" lon="11.3764408"><ele>418.0</ele><time>2026-05-04T15:51:02.965Z</time></trkpt><trkpt lat="43.7386357" lon="11.3765657"><ele>417.83333333333337</ele><time>2026-05-04T15:51:03.969Z</time></trkpt><trkpt lat="43.7386813" lon="11.376682"><ele>417.6666666666667</ele><time>2026-05-04T15:51:04.968Z</time></trkpt><trkpt lat="43.7387165" lon="11.3767798"><ele>417.5</ele><time>2026-05-04T15:51:05.969Z</time></trkpt><trkpt lat="43.7387472" lon="11.3768643"><ele>417.33333333333337</ele><time>2026-05-04T15:51:06.969Z</time></trkpt><trkpt lat="43.7388158" lon="11.3769177"><ele>417.1666666666667</ele><time>2026-05-04T15:51:11.967Z</time></trkpt><trkpt lat="43.7388943" lon="11.376947"><ele>417.0</ele><time>2026-05-04T15:51:25.968Z</time></trkpt><trkpt lat="43.7389577" lon="11.376991"><ele>417.0</ele><time>2026-05-04T15:51:28.967Z</time></trkpt><trkpt lat="43.7390272" lon="11.377026"><ele>417.0</ele><time>2026-05-04T15:51:39.968Z</time></trkpt><trkpt lat="43.7390907" lon="11.3770517"><ele>417.0</ele><time>2026-05-04T15:51:42.967Z</time></trkpt><trkpt lat="43.7391563" lon="11.3770762"><ele>417.0</ele><time>2026-05-04T15:51:45.968Z</time></trkpt><trkpt lat="43.7392362" lon="11.3771332"><ele>417.0</ele><time>2026-05-04T15:51:49.968Z</time></trkpt><trkpt lat="43.739315" lon="11.3771893"><ele>417.0</ele><time>2026-05-04T15:51:52.969Z</time></trkpt><trkpt lat="43.7393945" lon="11.3772507"><ele>414.8333333333333</ele><time>2026-05-04T15:51:55.97Z</time></trkpt><trkpt lat="43.7394798" lon="11.3773043"><ele>412.66666666666663</ele><time>2026-05-04T15:51:58.967Z</time></trkpt><trkpt lat="43.7395415" lon="11.377339"><ele>410.5</ele><time>2026-05-04T15:52:00.968Z</time></trkpt><trkpt lat="43.7396245" lon="11.377379"><ele>408.3333333333333</ele><time>2026-05-04T15:52:03.968Z</time></trkpt><trkpt lat="43.7396848" lon="11.377406"><ele>406.16666666666663</ele><time>2026-05-04T15:52:05.967Z</time></trkpt><trkpt lat="43.7397668" lon="11.377439"><ele>404.0</ele><time>2026-05-04T15:52:07.967Z</time></trkpt><trkpt lat="43.7398553" lon="11.3774703"><ele>404.0</ele><time>2026-05-04T15:52:09.969Z</time></trkpt><trkpt lat="43.7399573" lon="11.377526"><ele>404.0</ele><time>2026-05-04T15:52:11.967Z</time></trkpt><trkpt lat="43.7400543" lon="11.3775837"><ele>404.0</ele><time>2026-05-04T15:52:13.968Z</time></trkpt><trkpt lat="43.740159" lon="11.3776388"><ele>404.0</ele><time>2026-05-04T15:52:15.969Z</time></trkpt><trkpt lat="43.7402593" lon="11.3776967"><ele>404.0</ele><time>2026-05-04T15:52:17.968Z</time></trkpt><trkpt lat="43.7403468" lon="11.3777477"><ele>402.66666666666663</ele><time>2026-05-04T15:52:19.967Z</time></trkpt><trkpt lat="43.7404207" lon="11.3777897"><ele>401.3333333333333</ele><time>2026-05-04T15:52:22.968Z</time></trkpt><trkpt lat="43.740497" lon="11.3778247"><ele>400.0</ele><time>2026-05-04T15:52:24.97Z</time></trkpt><trkpt lat="43.7405737" lon="11.3778535"><ele>398.66666666666663</ele><time>2026-05-04T15:52:26.969Z</time></trkpt><trkpt lat="43.7406432" lon="11.3778887"><ele>397.3333333333333</ele><time>2026-05-04T15:52:28.97Z</time></trkpt><trkpt lat="43.74071" lon="11.3779212"><ele>396.0</ele><time>2026-05-04T15:52:30.971Z</time></trkpt><trkpt lat="43.7407723" lon="11.377952"><ele>396.0</ele><time>2026-05-04T15:52:32.968Z</time></trkpt><trkpt lat="43.7408422" lon="11.3779885"><ele>396.0</ele><time>2026-05-04T15:52:34.969Z</time></trkpt><trkpt lat="43.740903" lon="11.3780258"><ele>396.0</ele><time>2026-05-04T15:52:36.968Z</time></trkpt><trkpt lat="43.740985" lon="11.378075"><ele>396.0</ele><time>2026-05-04T15:52:39.97Z</time></trkpt><trkpt lat="43.7410577" lon="11.3781287"><ele>396.0</ele><time>2026-05-04T15:52:41.967Z</time></trkpt><trkpt lat="43.7411238" lon="11.3781863"><ele>396.0</ele><time>2026-05-04T15:52:43.968Z</time></trkpt><trkpt lat="43.741188" lon="11.3782405"><ele>396.7142857142857</ele><time>2026-05-04T15:52:45.965Z</time></trkpt><trkpt lat="43.741256" lon="11.3782788"><ele>397.4285714285714</ele><time>2026-05-04T15:52:47.969Z</time></trkpt><trkpt lat="43.7413222" lon="11.3783175"><ele>398.1428571428571</ele><time>2026-05-04T15:52:49.969Z</time></trkpt><trkpt lat="43.741385" lon="11.378355"><ele>398.8571428571429</ele><time>2026-05-04T15:52:51.967Z</time></trkpt><trkpt lat="43.7414492" lon="11.3783848"><ele>399.57142857142856</ele><time>2026-05-04T15:52:53.972Z</time></trkpt><trkpt lat="43.7415175" lon="11.3784093"><ele>400.2857142857143</ele><time>2026-05-04T15:52:55.967Z</time></trkpt><trkpt lat="43.7415868" lon="11.3784397"><ele>401.0</ele><time>2026-05-04T15:52:57.97Z</time></trkpt><trkpt lat="43.7416552" lon="11.3784742"><ele>400.99999999999994</ele><time>2026-05-04T15:52:59.969Z</time></trkpt><trkpt lat="43.7417332" lon="11.378527"><ele>401.0</ele><time>2026-05-04T15:53:02.967Z</time></trkpt><trkpt lat="43.7418023" lon="11.3785885"><ele>401.0</ele><time>2026-05-04T15:53:05.968Z</time></trkpt><trkpt lat="43.7418805" lon="11.3786107"><ele>401.0</ele><time>2026-05-04T15:53:08.967Z</time></trkpt><trkpt lat="43.7419433" lon="11.3786027"><ele>400.99999999999994</ele><time>2026-05-04T15:53:11.97Z</time></trkpt><trkpt lat="43.7420093" lon="11.3785843"><ele>401.0</ele><time>2026-05-04T15:53:14.969Z</time></trkpt><trkpt lat="43.7420825" lon="11.3785963"><ele>400.66666666666663</ele><time>2026-05-04T15:53:17.971Z</time></trkpt><trkpt lat="43.7421752" lon="11.3786472"><ele>400.3333333333333</ele><time>2026-05-04T15:53:20.968Z</time></trkpt><trkpt lat="43.7422562" lon="11.3786807"><ele>400.0</ele><time>2026-05-04T15:53:22.967Z</time></trkpt><trkpt lat="43.7423173" lon="11.3787108"><ele>399.66666666666663</ele><time>2026-05-04T15:53:24.968Z</time></trkpt><trkpt lat="43.7423852" lon="11.3787437"><ele>399.3333333333333</ele><time>2026-05-04T15:53:26.972Z</time></trkpt><trkpt lat="43.7424533" lon="11.3787692"><ele>399.0</ele><time>2026-05-04T15:53:28.969Z</time></trkpt><trkpt lat="43.7425258" lon="11.3787905"><ele>399.0</ele><time>2026-05-04T15:53:30.967Z</time></trkpt><trkpt lat="43.7424563" lon="11.3787635"><ele>399.0</ele><time>2026-05-04T15:53:47.968Z</time></trkpt><trkpt lat="43.7423857" lon="11.3787407"><ele>399.0</ele><time>2026-05-04T15:53:52.966Z</time></trkpt><trkpt lat="43.7423185" lon="11.3787123"><ele>399.0</ele><time>2026-05-04T15:53:59.968Z</time></trkpt><trkpt lat="43.7422508" lon="11.3786878"><ele>399.0</ele><time>2026-05-04T15:54:03.968Z</time></trkpt><trkpt lat="43.7421913" lon="11.378657"><ele>399.0</ele><time>2026-05-04T15:54:09.968Z</time></trkpt><trkpt lat="43.7421207" lon="11.3786103"><ele>399.0</ele><time>2026-05-04T15:54:13.971Z</time></trkpt><trkpt lat="43.742062" lon="11.3785637"><ele>399.0</ele><time>2026-05-04T15:54:16.967Z</time></trkpt><trkpt lat="43.7420502" lon="11.3784535"><ele>399.0</ele><time>2026-05-04T15:54:28.968Z</time></trkpt><trkpt lat="43.7420583" lon="11.3783663"><ele>399.0</ele><time>2026-05-04T15:54:30.967Z</time></trkpt><trkpt lat="43.7420893" lon="11.3782357"><ele>399.0</ele><time>2026-05-04T15:54:33.971Z</time></trkpt><trkpt lat="43.7421138" lon="11.3781428"><ele>399.0</ele><time>2026-05-04T15:54:35.969Z</time></trkpt><trkpt lat="43.7421383" lon="11.378056"><ele>399.0</ele><time>2026-05-04T15:54:37.968Z</time></trkpt><trkpt lat="43.7421588" lon="11.3779723"><ele>399.0</ele><time>2026-05-04T15:54:39.967Z</time></trkpt><trkpt lat="43.7421838" lon="11.3778883"><ele>397.85714285714283</ele><time>2026-05-04T15:54:41.97Z</time></trkpt><trkpt lat="43.7422025" lon="11.377798"><ele>396.7142857142857</ele><time>2026-05-04T15:54:43.97Z</time></trkpt><trkpt lat="43.7422243" lon="11.3777142"><ele>395.57142857142856</ele><time>2026-05-04T15:54:45.968Z</time></trkpt><trkpt lat="43.7422432" lon="11.3776295"><ele>394.42857142857144</ele><time>2026-05-04T15:54:47.967Z</time></trkpt><trkpt lat="43.7422647" lon="11.3775273"><ele>393.2857142857143</ele><time>2026-05-04T15:54:50.97Z</time></trkpt><trkpt lat="43.7422852" lon="11.377427"><ele>392.1428571428571</ele><time>2026-05-04T15:54:55.97Z</time></trkpt><trkpt lat="43.7423688" lon="11.3774013"><ele>391.0</ele><time>2026-05-04T15:55:00.971Z</time></trkpt><trkpt lat="43.7424367" lon="11.3774665"><ele>390.99999999999994</ele><time>2026-05-04T15:55:03.967Z</time></trkpt><trkpt lat="43.7424858" lon="11.3775283"><ele>391.0</ele><time>2026-05-04T15:55:05.967Z</time></trkpt><trkpt lat="43.7425468" lon="11.377607"><ele>391.0</ele><time>2026-05-04T15:55:08.971Z</time></trkpt><trkpt lat="43.7426013" lon="11.3776587"><ele>391.0</ele><time>2026-05-04T15:55:10.967Z</time></trkpt><trkpt lat="43.7426567" lon="11.3777075"><ele>391.0</ele><time>2026-05-04T15:55:12.971Z</time></trkpt><trkpt lat="43.7427195" lon="11.3777702"><ele>390.99999999999994</ele><time>2026-05-04T15:55:14.969Z</time></trkpt><trkpt lat="43.7427707" lon="11.3778432"><ele>391.0</ele><time>2026-05-04T15:55:16.968Z</time></trkpt><trkpt lat="43.7428173" lon="11.3779027"><ele>391.99999999999994</ele><time>2026-05-04T15:55:19.973Z</time></trkpt><trkpt lat="43.7428737" lon="11.3779635"><ele>393.0</ele><time>2026-05-04T15:55:23.97Z</time></trkpt><trkpt lat="43.7429372" lon="11.3780078"><ele>394.0</ele><time>2026-05-04T15:55:30.969Z</time></trkpt><trkpt lat="43.7430203" lon="11.3780502"><ele>395.0</ele><time>2026-05-04T15:55:33.971Z</time></trkpt><trkpt lat="43.743088" lon="11.3780598"><ele>396.0</ele><time>2026-05-04T15:55:35.971Z</time></trkpt><trkpt lat="43.743153" lon="11.3780715"><ele>396.99999999999994</ele><time>2026-05-04T15:55:37.97Z</time></trkpt><trkpt lat="43.7432338" lon="11.3780675"><ele>398.0</ele><time>2026-05-04T15:55:40.97Z</time></trkpt><trkpt lat="43.7433062" lon="11.3780798"><ele>397.99999999999994</ele><time>2026-05-04T15:55:43.969Z</time></trkpt><trkpt lat="43.743383" lon="11.3780968"><ele>398.0</ele><time>2026-05-04T15:55:46.969Z</time></trkpt><trkpt lat="43.7434572" lon="11.3781147"><ele>398.0</ele><time>2026-05-04T15:55:49.97Z</time></trkpt><trkpt lat="43.7435302" lon="11.3781357"><ele>398.0</ele><time>2026-05-04T15:55:52.975Z</time></trkpt><trkpt lat="43.743608" lon="11.3781608"><ele>397.99999999999994</ele><time>2026-05-04T15:55:55.968Z</time></trkpt><trkpt lat="43.7436832" lon="11.3781308"><ele>398.0</ele><time>2026-05-04T15:56:01.968Z</time></trkpt><trkpt lat="43.7437218" lon="11.3780437"><ele>395.66666666666663</ele><time>2026-05-04T15:56:03.966Z</time></trkpt><trkpt lat="43.74377" lon="11.377969"><ele>393.3333333333333</ele><time>2026-05-04T15:56:05.967Z</time></trkpt><trkpt lat="43.7438273" lon="11.3779093"><ele>391.0</ele><time>2026-05-04T15:56:07.971Z</time></trkpt><trkpt lat="43.7438997" lon="11.3778515"><ele>388.66666666666663</ele><time>2026-05-04T15:56:09.971Z</time></trkpt><trkpt lat="43.7439807" lon="11.377809"><ele>386.3333333333333</ele><time>2026-05-04T15:56:11.968Z</time></trkpt><trkpt lat="43.7440578" lon="11.3777815"><ele>384.0</ele><time>2026-05-04T15:56:13.969Z</time></trkpt><trkpt lat="43.7441297" lon="11.3777635"><ele>384.0</ele><time>2026-05-04T15:56:15.97Z</time></trkpt><trkpt lat="43.7441972" lon="11.3777478"><ele>384.0</ele><time>2026-05-04T15:56:17.97Z</time></trkpt><trkpt lat="43.7442675" lon="11.3777375"><ele>384.0</ele><time>2026-05-04T15:56:19.968Z</time></trkpt><trkpt lat="43.7443533" lon="11.377714"><ele>384.0</ele><time>2026-05-04T15:56:21.967Z</time></trkpt><trkpt lat="43.7444443" lon="11.3776763"><ele>384.0</ele><time>2026-05-04T15:56:23.967Z</time></trkpt><trkpt lat="43.7445432" lon="11.3776277"><ele>384.0</ele><time>2026-05-04T15:56:25.971Z</time></trkpt><trkpt lat="43.7446312" lon="11.3775823"><ele>383.0</ele><time>2026-05-04T15:56:27.967Z</time></trkpt><trkpt lat="43.7447075" lon="11.3775577"><ele>382.0</ele><time>2026-05-04T15:56:29.972Z</time></trkpt><trkpt lat="43.7447683" lon="11.3774885"><ele>381.0</ele><time>2026-05-04T15:56:34.969Z</time></trkpt><trkpt lat="43.7447697" lon="11.3773907"><ele>380.0</ele><time>2026-05-04T15:56:41.967Z</time></trkpt><trkpt lat="43.7447683" lon="11.377261"><ele>379.0</ele><time>2026-05-04T15:56:44.967Z</time></trkpt><trkpt lat="43.7447772" lon="11.3771402"><ele>378.0</ele><time>2026-05-04T15:56:46.971Z</time></trkpt><trkpt lat="43.7447772" lon="11.3770317"><ele>376.0</ele><time>2026-05-04T15:56:48.97Z</time></trkpt><trkpt lat="43.7447852" lon="11.3769283"><ele>374.0</ele><time>2026-05-04T15:56:50.969Z</time></trkpt><trkpt lat="43.7447853" lon="11.3768118"><ele>372.0</ele><time>2026-05-04T15:56:52.967Z</time></trkpt><trkpt lat="43.7447925" lon="11.3767028"><ele>370.0</ele><time>2026-05-04T15:56:54.968Z</time></trkpt><trkpt lat="43.7448045" lon="11.3765863"><ele>368.0</ele><time>2026-05-04T15:56:57.97Z</time></trkpt><trkpt lat="43.7448907" lon="11.3765535"><ele>366.0</ele><time>2026-05-04T15:57:01.968Z</time></trkpt><trkpt lat="43.7449635" lon="11.3765758"><ele>366.0</ele><time>2026-05-04T15:57:03.968Z</time></trkpt><trkpt lat="43.7450358" lon="11.3766232"><ele>366.0</ele><time>2026-05-04T15:57:06.969Z</time></trkpt><trkpt lat="43.7450852" lon="11.3766955"><ele>366.0</ele><time>2026-05-04T15:57:08.971Z</time></trkpt><trkpt lat="43.7451245" lon="11.3767675"><ele>366.0</ele><time>2026-05-04T15:57:10.967Z</time></trkpt><trkpt lat="43.7451788" lon="11.3768573"><ele>366.0</ele><time>2026-05-04T15:57:12.969Z</time></trkpt><trkpt lat="43.7452137" lon="11.3769597"><ele>366.0</ele><time>2026-05-04T15:57:14.966Z</time></trkpt><trkpt lat="43.7452445" lon="11.3770475"><ele>366.0</ele><time>2026-05-04T15:57:16.968Z</time></trkpt><trkpt lat="43.7452777" lon="11.3771392"><ele>366.0</ele><time>2026-05-04T15:57:18.967Z</time></trkpt><trkpt lat="43.7453178" lon="11.3772315"><ele>366.0</ele><time>2026-05-04T15:57:20.967Z</time></trkpt><trkpt lat="43.7453637" lon="11.3773347"><ele>366.0</ele><time>2026-05-04T15:57:22.971Z</time></trkpt><trkpt lat="43.7454083" lon="11.377448"><ele>366.0</ele><time>2026-05-04T15:57:24.971Z</time></trkpt><trkpt lat="43.7454463" lon="11.3775558"><ele>366.0</ele><time>2026-05-04T15:57:26.968Z</time></trkpt><trkpt lat="43.7454777" lon="11.3776368"><ele>366.0</ele><time>2026-05-04T15:57:28.967Z</time></trkpt><trkpt lat="43.7455435" lon="11.377637"><ele>366.0</ele><time>2026-05-04T15:57:34.968Z</time></trkpt><trkpt lat="43.7455618" lon="11.377549"><ele>366.0</ele><time>2026-05-04T15:57:36.969Z</time></trkpt><trkpt lat="43.7455477" lon="11.3774387"><ele>366.0</ele><time>2026-05-04T15:57:38.968Z</time></trkpt><trkpt lat="43.7455288" lon="11.3773012"><ele>366.0</ele><time>2026-05-04T15:57:40.968Z</time></trkpt><trkpt lat="43.7455082" lon="11.377154"><ele>366.0</ele><time>2026-05-04T15:57:42.967Z</time></trkpt><trkpt lat="43.7454813" lon="11.3769917"><ele>364.8</ele><time>2026-05-04T15:57:44.968Z</time></trkpt><trkpt lat="43.745456" lon="11.3768343"><ele>363.6</ele><time>2026-05-04T15:57:46.967Z</time></trkpt><trkpt lat="43.7454333" lon="11.3766672"><ele>362.4</ele><time>2026-05-04T15:57:48.967Z</time></trkpt><trkpt lat="43.745414" lon="11.3765718"><ele>361.2</ele><time>2026-05-04T15:57:49.967Z</time></trkpt><trkpt lat="43.7453883" lon="11.3764707"><ele>360.0</ele><time>2026-05-04T15:57:50.97Z</time></trkpt><trkpt lat="43.7453625" lon="11.3763708"><ele>359.4285714285714</ele><time>2026-05-04T15:57:51.97Z</time></trkpt><trkpt lat="43.7453355" lon="11.376277"><ele>358.8571428571429</ele><time>2026-05-04T15:57:52.968Z</time></trkpt><trkpt lat="43.7453057" lon="11.3761863"><ele>358.2857142857143</ele><time>2026-05-04T15:57:53.97Z</time></trkpt><trkpt lat="43.7452775" lon="11.3761008"><ele>357.71428571428567</ele><time>2026-05-04T15:57:54.972Z</time></trkpt><trkpt lat="43.745251" lon="11.376015"><ele>357.1428571428571</ele><time>2026-05-04T15:57:55.968Z</time></trkpt><trkpt lat="43.745219" lon="11.3759252"><ele>356.57142857142856</ele><time>2026-05-04T15:57:56.969Z</time></trkpt><trkpt lat="43.7451907" lon="11.3758393"><ele>356.0</ele><time>2026-05-04T15:57:57.967Z</time></trkpt><trkpt lat="43.745139" lon="11.3756895"><ele>355.6666666666667</ele><time>2026-05-04T15:57:59.966Z</time></trkpt><trkpt lat="43.745091" lon="11.3755602"><ele>355.33333333333337</ele><time>2026-05-04T15:58:01.967Z</time></trkpt><trkpt lat="43.7450535" lon="11.3754862"><ele>355.0</ele><time>2026-05-04T15:58:04.966Z</time></trkpt><trkpt lat="43.744968" lon="11.375432"><ele>354.6666666666667</ele><time>2026-05-04T15:58:10.969Z</time></trkpt><trkpt lat="43.7449048" lon="11.3754093"><ele>354.3333333333333</ele><time>2026-05-04T15:58:11.969Z</time></trkpt><trkpt lat="43.7448352" lon="11.3753902"><ele>354.0</ele><time>2026-05-04T15:58:12.967Z</time></trkpt><trkpt lat="43.7447585" lon="11.3753752"><ele>352.5</ele><time>2026-05-04T15:58:13.969Z</time></trkpt><trkpt lat="43.7446725" lon="11.3753573"><ele>351.0</ele><time>2026-05-04T15:58:14.968Z</time></trkpt><trkpt lat="43.7445853" lon="11.3753462"><ele>349.5</ele><time>2026-05-04T15:58:15.969Z</time></trkpt><trkpt lat="43.7445032" lon="11.3753312"><ele>348.0</ele><time>2026-05-04T15:58:16.968Z</time></trkpt><trkpt lat="43.744422" lon="11.3753137"><ele>346.5</ele><time>2026-05-04T15:58:17.969Z</time></trkpt><trkpt lat="43.7443405" lon="11.3752937"><ele>345.0</ele><time>2026-05-04T15:58:18.967Z</time></trkpt><trkpt lat="43.7442712" lon="11.3752767"><ele>345.0</ele><time>2026-05-04T15:58:19.968Z</time></trkpt><trkpt lat="43.7442032" lon="11.3752593"><ele>345.0</ele><time>2026-05-04T15:58:20.968Z</time></trkpt><trkpt lat="43.744083" lon="11.3752472"><ele>345.0</ele><time>2026-05-04T15:58:22.966Z</time></trkpt><trkpt lat="43.743983" lon="11.3753015"><ele>345.0</ele><time>2026-05-04T15:58:24.969Z</time></trkpt><trkpt lat="43.7439005" lon="11.3753797"><ele>345.0</ele><time>2026-05-04T15:58:26.969Z</time></trkpt><trkpt lat="43.7438327" lon="11.3753677"><ele>345.0</ele><time>2026-05-04T15:58:28.972Z</time></trkpt><trkpt lat="43.7438052" lon="11.3752367"><ele>345.0</ele><time>2026-05-04T15:58:30.973Z</time></trkpt><trkpt lat="43.7437932" lon="11.3750873"><ele>345.0</ele><time>2026-05-04T15:58:32.968Z</time></trkpt><trkpt lat="43.7437028" lon="11.3749735"><ele>345.0</ele><time>2026-05-04T15:58:34.968Z</time></trkpt><trkpt lat="43.7436477" lon="11.3749255"><ele>345.0</ele><time>2026-05-04T15:58:35.968Z</time></trkpt><trkpt lat="43.743592" lon="11.3748738"><ele>346.3333333333333</ele><time>2026-05-04T15:58:36.967Z</time></trkpt><trkpt lat="43.743537" lon="11.3748247"><ele>347.6666666666667</ele><time>2026-05-04T15:58:37.969Z</time></trkpt><trkpt lat="43.7434808" lon="11.3747728"><ele>349.0</ele><time>2026-05-04T15:58:38.969Z</time></trkpt><trkpt lat="43.7434238" lon="11.3747198"><ele>350.33333333333337</ele><time>2026-05-04T15:58:39.97Z</time></trkpt><trkpt lat="43.7433653" lon="11.37467"><ele>351.6666666666667</ele><time>2026-05-04T15:58:40.968Z</time></trkpt><trkpt lat="43.7432663" lon="11.3745858"><ele>353.0</ele><time>2026-05-04T15:58:42.969Z</time></trkpt><trkpt lat="43.743194" lon="11.3745298"><ele>353.0</ele><time>2026-05-04T15:58:44.97Z</time></trkpt><trkpt lat="43.743123" lon="11.3744648"><ele>353.0</ele><time>2026-05-04T15:58:49.967Z</time></trkpt><trkpt lat="43.743061" lon="11.3743915"><ele>353.0</ele><time>2026-05-04T15:58:51.968Z</time></trkpt><trkpt lat="43.7430235" lon="11.3742562"><ele>353.0</ele><time>2026-05-04T15:58:53.971Z</time></trkpt><trkpt lat="43.7430095" lon="11.3741645"><ele>353.0</ele><time>2026-05-04T15:58:54.968Z</time></trkpt><trkpt lat="43.7429967" lon="11.3740533"><ele>353.0</ele><time>2026-05-04T15:58:55.969Z</time></trkpt><trkpt lat="43.7429878" lon="11.3739437"><ele>351.0</ele><time>2026-05-04T15:58:56.967Z</time></trkpt><trkpt lat="43.7429908" lon="11.373842"><ele>349.0</ele><time>2026-05-04T15:58:57.967Z</time></trkpt><trkpt lat="43.7430245" lon="11.3736708"><ele>347.0</ele><time>2026-05-04T15:58:59.967Z</time></trkpt><trkpt lat="43.7430602" lon="11.3735943"><ele>345.0</ele><time>2026-05-04T15:59:00.969Z</time></trkpt><trkpt lat="43.7431232" lon="11.373454"><ele>343.0</ele><time>2026-05-04T15:59:02.968Z</time></trkpt><trkpt lat="43.7431627" lon="11.373292"><ele>343.0</ele><time>2026-05-04T15:59:04.969Z</time></trkpt><trkpt lat="43.7431698" lon="11.3731993"><ele>343.0</ele><time>2026-05-04T15:59:05.969Z</time></trkpt><trkpt lat="43.7431687" lon="11.3730958"><ele>343.0</ele><time>2026-05-04T15:59:06.97Z</time></trkpt><trkpt lat="43.7431632" lon="11.3729815"><ele>343.0</ele><time>2026-05-04T15:59:07.969Z</time></trkpt><trkpt lat="43.7431607" lon="11.3728658"><ele>343.0</ele><time>2026-05-04T15:59:08.972Z</time></trkpt><trkpt lat="43.743165" lon="11.3727483"><ele>343.0</ele><time>2026-05-04T15:59:09.969Z</time></trkpt><trkpt lat="43.7431697" lon="11.3726317"><ele>343.3333333333333</ele><time>2026-05-04T15:59:10.969Z</time></trkpt><trkpt lat="43.743186" lon="11.3725212"><ele>343.66666666666663</ele><time>2026-05-04T15:59:11.969Z</time></trkpt><trkpt lat="43.7432112" lon="11.3724143"><ele>344.0</ele><time>2026-05-04T15:59:12.97Z</time></trkpt><trkpt lat="43.7432368" lon="11.3723112"><ele>344.3333333333333</ele><time>2026-05-04T15:59:13.97Z</time></trkpt><trkpt lat="43.7432673" lon="11.3722148"><ele>344.6666666666667</ele><time>2026-05-04T15:59:14.969Z</time></trkpt><trkpt lat="43.7432987" lon="11.3721087"><ele>345.0</ele><time>2026-05-04T15:59:15.967Z</time></trkpt><trkpt lat="43.7433252" lon="11.3719942"><ele>345.0</ele><time>2026-05-04T15:59:16.968Z</time></trkpt><trkpt lat="43.7433508" lon="11.3718582"><ele>345.0</ele><time>2026-05-04T15:59:17.968Z</time></trkpt><trkpt lat="43.7433753" lon="11.371721"><ele>345.0</ele><time>2026-05-04T15:59:18.968Z</time></trkpt><trkpt lat="43.7433973" lon="11.3715873"><ele>345.0</ele><time>2026-05-04T15:59:19.969Z</time></trkpt><trkpt lat="43.7434223" lon="11.3714698"><ele>345.0</ele><time>2026-05-04T15:59:20.97Z</time></trkpt><trkpt lat="43.7434452" lon="11.3713662"><ele>347.0</ele><time>2026-05-04T15:59:21.972Z</time></trkpt><trkpt lat="43.7434753" lon="11.371261"><ele>349.0</ele><time>2026-05-04T15:59:22.968Z</time></trkpt><trkpt lat="43.7435015" lon="11.3711515"><ele>351.0</ele><time>2026-05-04T15:59:23.965Z</time></trkpt><trkpt lat="43.7435303" lon="11.3710377"><ele>353.0</ele><time>2026-05-04T15:59:24.967Z</time></trkpt><trkpt lat="43.7435568" lon="11.3709282"><ele>355.0</ele><time>2026-05-04T15:59:25.972Z</time></trkpt><trkpt lat="43.7435833" lon="11.3708133"><ele>357.0</ele><time>2026-05-04T15:59:26.969Z</time></trkpt><trkpt lat="43.743608" lon="11.3707083"><ele>352.3333333333333</ele><time>2026-05-04T15:59:27.971Z</time></trkpt><trkpt lat="43.7436242" lon="11.3705993"><ele>347.6666666666667</ele><time>2026-05-04T15:59:28.967Z</time></trkpt><trkpt lat="43.7436343" lon="11.3704832"><ele>343.0</ele><time>2026-05-04T15:59:29.968Z</time></trkpt><trkpt lat="43.7436457" lon="11.3703688"><ele>338.33333333333337</ele><time>2026-05-04T15:59:30.97Z</time></trkpt><trkpt lat="43.7436588" lon="11.3702618"><ele>333.6666666666667</ele><time>2026-05-04T15:59:31.969Z</time></trkpt><trkpt lat="43.7436663" lon="11.3701595"><ele>329.0</ele><time>2026-05-04T15:59:32.972Z</time></trkpt><trkpt lat="43.7436647" lon="11.3700567"><ele>329.0</ele><time>2026-05-04T15:59:33.969Z</time></trkpt><trkpt lat="43.7436593" lon="11.3699585"><ele>329.0</ele><time>2026-05-04T15:59:34.969Z</time></trkpt><trkpt lat="43.7436403" lon="11.3698582"><ele>329.0</ele><time>2026-05-04T15:59:35.968Z</time></trkpt><trkpt lat="43.7436008" lon="11.36977"><ele>329.0</ele><time>2026-05-04T15:59:36.966Z</time></trkpt><trkpt lat="43.74355" lon="11.3696843"><ele>329.0</ele><time>2026-05-04T15:59:37.968Z</time></trkpt><trkpt lat="43.7435018" lon="11.3695988"><ele>329.0</ele><time>2026-05-04T15:59:38.969Z</time></trkpt><trkpt lat="43.7434547" lon="11.369492"><ele>330.5</ele><time>2026-05-04T15:59:39.968Z</time></trkpt><trkpt lat="43.7434138" lon="11.3693812"><ele>332.0</ele><time>2026-05-04T15:59:40.969Z</time></trkpt><trkpt lat="43.7433833" lon="11.369272"><ele>333.5</ele><time>2026-05-04T15:59:41.969Z</time></trkpt><trkpt lat="43.7433558" lon="11.3691593"><ele>335.0</ele><time>2026-05-04T15:59:42.967Z</time></trkpt><trkpt lat="43.7433248" lon="11.3690505"><ele>336.5</ele><time>2026-05-04T15:59:43.969Z</time></trkpt><trkpt lat="43.7432813" lon="11.3689478"><ele>338.0</ele><time>2026-05-04T15:59:44.968Z</time></trkpt><trkpt lat="43.743238" lon="11.3688403"><ele>338.0</ele><time>2026-05-04T15:59:45.97Z</time></trkpt><trkpt lat="43.7431938" lon="11.3687367"><ele>338.0</ele><time>2026-05-04T15:59:46.97Z</time></trkpt><trkpt lat="43.743149" lon="11.3686315"><ele>338.0</ele><time>2026-05-04T15:59:47.97Z</time></trkpt><trkpt lat="43.7431032" lon="11.3685333"><ele>338.0</ele><time>2026-05-04T15:59:48.973Z</time></trkpt><trkpt lat="43.7430572" lon="11.3684362"><ele>338.0</ele><time>2026-05-04T15:59:49.969Z</time></trkpt><trkpt lat="43.7430147" lon="11.3683332"><ele>338.0</ele><time>2026-05-04T15:59:50.973Z</time></trkpt><trkpt lat="43.7429715" lon="11.3682277"><ele>338.0</ele><time>2026-05-04T15:59:51.97Z</time></trkpt><trkpt lat="43.7429307" lon="11.3681262"><ele>338.0</ele><time>2026-05-04T15:59:52.967Z</time></trkpt><trkpt lat="43.7428875" lon="11.36803"><ele>338.0</ele><time>2026-05-04T15:59:53.97Z</time></trkpt><trkpt lat="43.7428438" lon="11.3679382"><ele>338.0</ele><time>2026-05-04T15:59:54.968Z</time></trkpt><trkpt lat="43.7427977" lon="11.3678467"><ele>338.0</ele><time>2026-05-04T15:59:55.966Z</time></trkpt><trkpt lat="43.7427455" lon="11.36775"><ele>338.0</ele><time>2026-05-04T15:59:56.97Z</time></trkpt><trkpt lat="43.7426925" lon="11.3676458"><ele>340.59999999999997</ele><time>2026-05-04T15:59:57.969Z</time></trkpt><trkpt lat="43.7426403" lon="11.367532"><ele>343.2</ele><time>2026-05-04T15:59:58.967Z</time></trkpt><trkpt lat="43.742603" lon="11.3674108"><ele>345.8</ele><time>2026-05-04T15:59:59.97Z</time></trkpt><trkpt lat="43.742575" lon="11.3672903"><ele>348.4</ele><time>2026-05-04T16:00:00.969Z</time></trkpt><trkpt lat="43.7425608" lon="11.367176"><ele>351.0</ele><time>2026-05-04T16:00:01.968Z</time></trkpt><trkpt lat="43.7425588" lon="11.3670572"><ele>352.5</ele><time>2026-05-04T16:00:02.967Z</time></trkpt><trkpt lat="43.7425628" lon="11.3669468"><ele>354.0</ele><time>2026-05-04T16:00:03.969Z</time></trkpt><trkpt lat="43.742574" lon="11.3668352"><ele>355.5</ele><time>2026-05-04T16:00:04.967Z</time></trkpt><trkpt lat="43.7425978" lon="11.3667215"><ele>357.0</ele><time>2026-05-04T16:00:05.971Z</time></trkpt><trkpt lat="43.7426332" lon="11.3666083"><ele>358.5</ele><time>2026-05-04T16:00:06.968Z</time></trkpt><trkpt lat="43.7426762" lon="11.3664987"><ele>360.0</ele><time>2026-05-04T16:00:07.968Z</time></trkpt><trkpt lat="43.7427305" lon="11.3663943"><ele>357.0</ele><time>2026-05-04T16:00:08.967Z</time></trkpt><trkpt lat="43.7427888" lon="11.3662933"><ele>354.0</ele><time>2026-05-04T16:00:09.967Z</time></trkpt><trkpt lat="43.7428602" lon="11.366196"><ele>351.0</ele><time>2026-05-04T16:00:10.967Z</time></trkpt><trkpt lat="43.7429378" lon="11.3661172"><ele>348.0</ele><time>2026-05-04T16:00:11.967Z</time></trkpt><trkpt lat="43.743008" lon="11.3660523"><ele>345.0</ele><time>2026-05-04T16:00:12.968Z</time></trkpt><trkpt lat="43.7430885" lon="11.3660082"><ele>345.0</ele><time>2026-05-04T16:00:13.967Z</time></trkpt><trkpt lat="43.743174" lon="11.3659663"><ele>345.0</ele><time>2026-05-04T16:00:14.967Z</time></trkpt><trkpt lat="43.7432567" lon="11.3659215"><ele>345.0</ele><time>2026-05-04T16:00:15.971Z</time></trkpt><trkpt lat="43.743337" lon="11.365886"><ele>345.0</ele><time>2026-05-04T16:00:16.965Z</time></trkpt><trkpt lat="43.743418" lon="11.3658402"><ele>345.0</ele><time>2026-05-04T16:00:17.968Z</time></trkpt><trkpt lat="43.7434922" lon="11.3657902"><ele>345.0</ele><time>2026-05-04T16:00:18.968Z</time></trkpt><trkpt lat="43.7435647" lon="11.3657193"><ele>341.8333333333333</ele><time>2026-05-04T16:00:19.968Z</time></trkpt><trkpt lat="43.7436242" lon="11.3656423"><ele>338.6666666666667</ele><time>2026-05-04T16:00:20.968Z</time></trkpt><trkpt lat="43.7436833" lon="11.3655468"><ele>335.5</ele><time>2026-05-04T16:00:21.968Z</time></trkpt><trkpt lat="43.743728" lon="11.3654428"><ele>332.33333333333337</ele><time>2026-05-04T16:00:22.968Z</time></trkpt><trkpt lat="43.7437557" lon="11.3653198"><ele>329.1666666666667</ele><time>2026-05-04T16:00:23.966Z</time></trkpt><trkpt lat="43.7437787" lon="11.3651955"><ele>326.0</ele><time>2026-05-04T16:00:24.966Z</time></trkpt><trkpt lat="43.7438102" lon="11.3650627"><ele>326.0</ele><time>2026-05-04T16:00:25.968Z</time></trkpt><trkpt lat="43.7438412" lon="11.3649287"><ele>326.0</ele><time>2026-05-04T16:00:26.969Z</time></trkpt><trkpt lat="43.7438697" lon="11.3648028"><ele>326.0</ele><time>2026-05-04T16:00:27.965Z</time></trkpt><trkpt lat="43.743898" lon="11.3646923"><ele>326.0</ele><time>2026-05-04T16:00:28.968Z</time></trkpt><trkpt lat="43.7439307" lon="11.3645595"><ele>326.0</ele><time>2026-05-04T16:00:29.968Z</time></trkpt><trkpt lat="43.7439537" lon="11.3644308"><ele>325.8</ele><time>2026-05-04T16:00:30.967Z</time></trkpt><trkpt lat="43.7439815" lon="11.3643098"><ele>325.6</ele><time>2026-05-04T16:00:31.97Z</time></trkpt><trkpt lat="43.7440117" lon="11.3641855"><ele>325.4</ele><time>2026-05-04T16:00:32.967Z</time></trkpt><trkpt lat="43.744035" lon="11.3640595"><ele>325.2</ele><time>2026-05-04T16:00:33.966Z</time></trkpt><trkpt lat="43.7440545" lon="11.3639322"><ele>325.0</ele><time>2026-05-04T16:00:34.967Z</time></trkpt><trkpt lat="43.7440733" lon="11.3638107"><ele>325.0</ele><time>2026-05-04T16:00:35.97Z</time></trkpt><trkpt lat="43.7440888" lon="11.3636902"><ele>325.0</ele><time>2026-05-04T16:00:36.967Z</time></trkpt><trkpt lat="43.7441102" lon="11.3635805"><ele>325.0</ele><time>2026-05-04T16:00:37.97Z</time></trkpt><trkpt lat="43.7441292" lon="11.3634828"><ele>325.0</ele><time>2026-05-04T16:00:38.969Z</time></trkpt><trkpt lat="43.7440612" lon="11.3633487"><ele>325.0</ele><time>2026-05-04T16:00:40.967Z</time></trkpt><trkpt lat="43.7440187" lon="11.3632842"><ele>325.0</ele><time>2026-05-04T16:00:41.968Z</time></trkpt><trkpt lat="43.7439355" lon="11.363165"><ele>325.0</ele><time>2026-05-04T16:00:43.968Z</time></trkpt><trkpt lat="43.7439193" lon="11.3630358"><ele>325.0</ele><time>2026-05-04T16:00:45.968Z</time></trkpt><trkpt lat="43.7439995" lon="11.3629337"><ele>325.0</ele><time>2026-05-04T16:00:47.967Z</time></trkpt><trkpt lat="43.7440562" lon="11.3628887"><ele>325.0</ele><time>2026-05-04T16:00:48.967Z</time></trkpt><trkpt lat="43.7441523" lon="11.3627845"><ele>325.0</ele><time>2026-05-04T16:00:50.968Z</time></trkpt><trkpt lat="43.7441958" lon="11.3627168"><ele>325.0</ele><time>2026-05-04T16:00:51.967Z</time></trkpt><trkpt lat="43.7442483" lon="11.362567"><ele>325.0</ele><time>2026-05-04T16:00:53.967Z</time></trkpt><trkpt lat="43.7442795" lon="11.3624003"><ele>325.0</ele><time>2026-05-04T16:00:55.967Z</time></trkpt><trkpt lat="43.7442875" lon="11.3622955"><ele>325.0</ele><time>2026-05-04T16:00:56.965Z</time></trkpt><trkpt lat="43.7442897" lon="11.3621792"><ele>325.0</ele><time>2026-05-04T16:00:57.967Z</time></trkpt><trkpt lat="43.7442928" lon="11.362047"><ele>324.3333333333333</ele><time>2026-05-04T16:00:58.969Z</time></trkpt><trkpt lat="43.7442945" lon="11.3619155"><ele>323.66666666666663</ele><time>2026-05-04T16:00:59.969Z</time></trkpt><trkpt lat="43.744285" lon="11.3617825"><ele>323.0</ele><time>2026-05-04T16:01:00.967Z</time></trkpt><trkpt lat="43.7442757" lon="11.3616577"><ele>322.3333333333333</ele><time>2026-05-04T16:01:01.971Z</time></trkpt><trkpt lat="43.7442595" lon="11.3615417"><ele>321.6666666666667</ele><time>2026-05-04T16:01:02.967Z</time></trkpt><trkpt lat="43.7442368" lon="11.361448"><ele>321.0</ele><time>2026-05-04T16:01:03.967Z</time></trkpt><trkpt lat="43.744205" lon="11.36133"><ele>319.5</ele><time>2026-05-04T16:01:05.966Z</time></trkpt><trkpt lat="43.744171" lon="11.3612435"><ele>318.0</ele><time>2026-05-04T16:01:20.969Z</time></trkpt><trkpt lat="43.7441618" lon="11.3611307"><ele>316.5</ele><time>2026-05-04T16:01:24.966Z</time></trkpt><trkpt lat="43.7441518" lon="11.3610335"><ele>315.0</ele><time>2026-05-04T16:01:26.966Z</time></trkpt><trkpt lat="43.7441378" lon="11.3608902"><ele>313.5</ele><time>2026-05-04T16:01:28.967Z</time></trkpt><trkpt lat="43.7441328" lon="11.3608007"><ele>312.0</ele><time>2026-05-04T16:01:29.968Z</time></trkpt><trkpt lat="43.7441252" lon="11.3607135"><ele>312.0</ele><time>2026-05-04T16:01:30.97Z</time></trkpt><trkpt lat="43.74412" lon="11.3606182"><ele>312.0</ele><time>2026-05-04T16:01:31.967Z</time></trkpt><trkpt lat="43.7441137" lon="11.36052"><ele>312.0</ele><time>2026-05-04T16:01:32.968Z</time></trkpt><trkpt lat="43.7441075" lon="11.36042"><ele>312.0</ele><time>2026-05-04T16:01:33.968Z</time></trkpt><trkpt lat="43.7441012" lon="11.3603195"><ele>312.0</ele><time>2026-05-04T16:01:34.966Z</time></trkpt><trkpt lat="43.7440915" lon="11.3602145"><ele>312.0</ele><time>2026-05-04T16:01:35.968Z</time></trkpt><trkpt lat="43.7440848" lon="11.3601107"><ele>312.0</ele><time>2026-05-04T16:01:36.967Z</time></trkpt><trkpt lat="43.7440762" lon="11.3600048"><ele>311.5</ele><time>2026-05-04T16:01:37.969Z</time></trkpt><trkpt lat="43.7440698" lon="11.359906"><ele>311.0</ele><time>2026-05-04T16:01:38.967Z</time></trkpt><trkpt lat="43.74407" lon="11.3598115"><ele>310.5</ele><time>2026-05-04T16:01:39.967Z</time></trkpt><trkpt lat="43.7440733" lon="11.3597193"><ele>310.0</ele><time>2026-05-04T16:01:40.968Z</time></trkpt><trkpt lat="43.7440803" lon="11.3596313"><ele>309.5</ele><time>2026-05-04T16:01:41.966Z</time></trkpt><trkpt lat="43.744097" lon="11.3594695"><ele>309.0</ele><time>2026-05-04T16:01:43.969Z</time></trkpt><trkpt lat="43.7441242" lon="11.3593182"><ele>309.0</ele><time>2026-05-04T16:01:45.965Z</time></trkpt><trkpt lat="43.7441632" lon="11.359156"><ele>309.0</ele><time>2026-05-04T16:01:47.968Z</time></trkpt><trkpt lat="43.7441775" lon="11.3590645"><ele>309.0</ele><time>2026-05-04T16:01:48.968Z</time></trkpt><trkpt lat="43.7441885" lon="11.3589685"><ele>309.0</ele><time>2026-05-04T16:01:49.968Z</time></trkpt><trkpt lat="43.7441983" lon="11.3588627"><ele>309.0</ele><time>2026-05-04T16:01:50.967Z</time></trkpt><trkpt lat="43.744207" lon="11.358751"><ele>309.0</ele><time>2026-05-04T16:01:51.969Z</time></trkpt><trkpt lat="43.7442113" lon="11.3586293"><ele>309.1666666666667</ele><time>2026-05-04T16:01:52.968Z</time></trkpt><trkpt lat="43.7442138" lon="11.35851"><ele>309.3333333333333</ele><time>2026-05-04T16:01:53.967Z</time></trkpt><trkpt lat="43.7442138" lon="11.3584018"><ele>309.5</ele><time>2026-05-04T16:01:54.967Z</time></trkpt><trkpt lat="43.744215" lon="11.3583077"><ele>309.66666666666663</ele><time>2026-05-04T16:01:55.967Z</time></trkpt><trkpt lat="43.7442232" lon="11.3581375"><ele>309.8333333333333</ele><time>2026-05-04T16:01:57.961Z</time></trkpt><trkpt lat="43.7442333" lon="11.3580483"><ele>310.0</ele><time>2026-05-04T16:01:58.968Z</time></trkpt><trkpt lat="43.7442427" lon="11.357956"><ele>310.0</ele><time>2026-05-04T16:01:59.968Z</time></trkpt><trkpt lat="43.7442435" lon="11.3578577"><ele>310.0</ele><time>2026-05-04T16:02:00.966Z</time></trkpt><trkpt lat="43.7442193" lon="11.357753"><ele>310.0</ele><time>2026-05-04T16:02:01.968Z</time></trkpt><trkpt lat="43.744193" lon="11.3576497"><ele>310.0</ele><time>2026-05-04T16:02:02.966Z</time></trkpt><trkpt lat="43.7441728" lon="11.35754"><ele>310.0</ele><time>2026-05-04T16:02:03.967Z</time></trkpt><trkpt lat="43.744151" lon="11.357425"><ele>310.0</ele><time>2026-05-04T16:02:04.968Z</time></trkpt><trkpt lat="43.7441322" lon="11.3573122"><ele>310.0</ele><time>2026-05-04T16:02:05.969Z</time></trkpt><trkpt lat="43.744123" lon="11.3572115"><ele>310.0</ele><time>2026-05-04T16:02:06.966Z</time></trkpt><trkpt lat="43.7441157" lon="11.357115"><ele>310.0</ele><time>2026-05-04T16:02:07.968Z</time></trkpt><trkpt lat="43.7441013" lon="11.3570168"><ele>310.0</ele><time>2026-05-04T16:02:08.968Z</time></trkpt><trkpt lat="43.7440788" lon="11.3569127"><ele>310.0</ele><time>2026-05-04T16:02:09.968Z</time></trkpt><trkpt lat="43.7440513" lon="11.3568097"><ele>310.0</ele><time>2026-05-04T16:02:10.967Z</time></trkpt><trkpt lat="43.7440117" lon="11.3566972"><ele>308.0</ele><time>2026-05-04T16:02:11.966Z</time></trkpt><trkpt lat="43.743966" lon="11.3565717"><ele>306.0</ele><time>2026-05-04T16:02:12.969Z</time></trkpt><trkpt lat="43.7439193" lon="11.356446"><ele>304.0</ele><time>2026-05-04T16:02:13.968Z</time></trkpt><trkpt lat="43.7438755" lon="11.3563128"><ele>302.0</ele><time>2026-05-04T16:02:14.969Z</time></trkpt><trkpt lat="43.7438337" lon="11.3561752"><ele>300.0</ele><time>2026-05-04T16:02:15.967Z</time></trkpt><trkpt lat="43.743808" lon="11.3560407"><ele>296.6</ele><time>2026-05-04T16:02:16.967Z</time></trkpt><trkpt lat="43.7437828" lon="11.3559075"><ele>293.2</ele><time>2026-05-04T16:02:17.965Z</time></trkpt><trkpt lat="43.7437742" lon="11.3557713"><ele>289.8</ele><time>2026-05-04T16:02:18.966Z</time></trkpt><trkpt lat="43.743762" lon="11.3556433"><ele>286.4</ele><time>2026-05-04T16:02:19.968Z</time></trkpt><trkpt lat="43.7437468" lon="11.3555155"><ele>283.0</ele><time>2026-05-04T16:02:20.966Z</time></trkpt><trkpt lat="43.7437208" lon="11.3553917"><ele>281.66666666666663</ele><time>2026-05-04T16:02:21.968Z</time></trkpt><trkpt lat="43.7436892" lon="11.3552795"><ele>280.3333333333333</ele><time>2026-05-04T16:02:22.969Z</time></trkpt><trkpt lat="43.7436532" lon="11.355174"><ele>279.0</ele><time>2026-05-04T16:02:23.968Z</time></trkpt><trkpt lat="43.7436262" lon="11.3550662"><ele>277.6666666666667</ele><time>2026-05-04T16:02:24.97Z</time></trkpt><trkpt lat="43.7436065" lon="11.3549615"><ele>276.33333333333337</ele><time>2026-05-04T16:02:25.966Z</time></trkpt><trkpt lat="43.7435805" lon="11.3548648"><ele>275.0</ele><time>2026-05-04T16:02:26.966Z</time></trkpt><trkpt lat="43.74354" lon="11.354766"><ele>277.0</ele><time>2026-05-04T16:02:27.967Z</time></trkpt><trkpt lat="43.7434998" lon="11.3546687"><ele>279.0</ele><time>2026-05-04T16:02:28.967Z</time></trkpt><trkpt lat="43.74345" lon="11.354561"><ele>281.0</ele><time>2026-05-04T16:02:29.97Z</time></trkpt><trkpt lat="43.743402" lon="11.3544492"><ele>283.0</ele><time>2026-05-04T16:02:30.969Z</time></trkpt><trkpt lat="43.74335" lon="11.3543313"><ele>285.0</ele><time>2026-05-04T16:02:31.967Z</time></trkpt><trkpt lat="43.7432975" lon="11.354214"><ele>285.0</ele><time>2026-05-04T16:02:32.969Z</time></trkpt><trkpt lat="43.7432402" lon="11.3541062"><ele>285.0</ele><time>2026-05-04T16:02:33.967Z</time></trkpt><trkpt lat="43.7431823" lon="11.3540027"><ele>285.0</ele><time>2026-05-04T16:02:34.968Z</time></trkpt><trkpt lat="43.7431287" lon="11.3539052"><ele>285.0</ele><time>2026-05-04T16:02:35.968Z</time></trkpt><trkpt lat="43.7430907" lon="11.3538045"><ele>285.0</ele><time>2026-05-04T16:02:36.967Z</time></trkpt><trkpt lat="43.7430622" lon="11.3537008"><ele>285.0</ele><time>2026-05-04T16:02:37.968Z</time></trkpt><trkpt lat="43.7430428" lon="11.3536075"><ele>282.6</ele><time>2026-05-04T16:02:38.966Z</time></trkpt><trkpt lat="43.7430222" lon="11.3534542"><ele>280.2</ele><time>2026-05-04T16:02:40.966Z</time></trkpt><trkpt lat="43.7430568" lon="11.3533405"><ele>277.8</ele><time>2026-05-04T16:02:42.967Z</time></trkpt><trkpt lat="43.7431528" lon="11.3532335"><ele>275.4</ele><time>2026-05-04T16:02:44.967Z</time></trkpt><trkpt lat="43.7432143" lon="11.3531742"><ele>273.0</ele><time>2026-05-04T16:02:45.968Z</time></trkpt><trkpt lat="43.7432753" lon="11.353116"><ele>273.0</ele><time>2026-05-04T16:02:46.965Z</time></trkpt><trkpt lat="43.7433358" lon="11.3530472"><ele>273.0</ele><time>2026-05-04T16:02:47.965Z</time></trkpt><trkpt lat="43.7433937" lon="11.3529727"><ele>273.0</ele><time>2026-05-04T16:02:48.967Z</time></trkpt><trkpt lat="43.7434482" lon="11.3529005"><ele>273.0</ele><time>2026-05-04T16:02:49.971Z</time></trkpt><trkpt lat="43.7435037" lon="11.3528232"><ele>273.0</ele><time>2026-05-04T16:02:50.968Z</time></trkpt><trkpt lat="43.7435537" lon="11.352737"><ele>273.0</ele><time>2026-05-04T16:02:51.971Z</time></trkpt><trkpt lat="43.743594" lon="11.3526338"><ele>269.5</ele><time>2026-05-04T16:02:52.967Z</time></trkpt><trkpt lat="43.7436218" lon="11.3525198"><ele>266.0</ele><time>2026-05-04T16:02:53.968Z</time></trkpt><trkpt lat="43.7436482" lon="11.3524045"><ele>262.5</ele><time>2026-05-04T16:02:54.969Z</time></trkpt><trkpt lat="43.7436727" lon="11.3522905"><ele>259.0</ele><time>2026-05-04T16:02:55.968Z</time></trkpt><trkpt lat="43.7436947" lon="11.3521823"><ele>255.5</ele><time>2026-05-04T16:02:56.968Z</time></trkpt><trkpt lat="43.743716" lon="11.3520792"><ele>252.0</ele><time>2026-05-04T16:02:57.966Z</time></trkpt><trkpt lat="43.7437383" lon="11.3519888"><ele>251.14285714285714</ele><time>2026-05-04T16:02:58.968Z</time></trkpt><trkpt lat="43.7437622" lon="11.3519073"><ele>250.28571428571428</ele><time>2026-05-04T16:02:59.97Z</time></trkpt><trkpt lat="43.7438023" lon="11.3518288"><ele>249.42857142857144</ele><time>2026-05-04T16:03:00.965Z</time></trkpt><trkpt lat="43.7438563" lon="11.3517548"><ele>248.57142857142858</ele><time>2026-05-04T16:03:01.965Z</time></trkpt><trkpt lat="43.7439183" lon="11.351691"><ele>247.71428571428572</ele><time>2026-05-04T16:03:02.967Z</time></trkpt><trkpt lat="43.7439807" lon="11.3516298"><ele>246.8571428571429</ele><time>2026-05-04T16:03:03.967Z</time></trkpt><trkpt lat="43.7440495" lon="11.3515803"><ele>246.00000000000003</ele><time>2026-05-04T16:03:04.969Z</time></trkpt><trkpt lat="43.744121" lon="11.3515455"><ele>246.00000000000003</ele><time>2026-05-04T16:03:05.968Z</time></trkpt><trkpt lat="43.7441955" lon="11.3515193"><ele>246.0</ele><time>2026-05-04T16:03:06.97Z</time></trkpt><trkpt lat="43.7442617" lon="11.3514972"><ele>246.00000000000003</ele><time>2026-05-04T16:03:07.966Z</time></trkpt><trkpt lat="43.7443203" lon="11.3514485"><ele>246.00000000000003</ele><time>2026-05-04T16:03:08.967Z</time></trkpt><trkpt lat="43.7443613" lon="11.3513773"><ele>246.0</ele><time>2026-05-04T16:03:09.967Z</time></trkpt><trkpt lat="43.744385" lon="11.3512893"><ele>246.00000000000003</ele><time>2026-05-04T16:03:10.965Z</time></trkpt><trkpt lat="43.744401" lon="11.3511945"><ele>246.00000000000003</ele><time>2026-05-04T16:03:11.966Z</time></trkpt><trkpt lat="43.744416" lon="11.3511042"><ele>242.0</ele><time>2026-05-04T16:03:12.966Z</time></trkpt><trkpt lat="43.744436" lon="11.3509307"><ele>238.00000000000003</ele><time>2026-05-04T16:03:14.97Z</time></trkpt><trkpt lat="43.7444365" lon="11.3508385"><ele>234.00000000000003</ele><time>2026-05-04T16:03:15.965Z</time></trkpt><trkpt lat="43.7444245" lon="11.3507495"><ele>230.0</ele><time>2026-05-04T16:03:16.966Z</time></trkpt><trkpt lat="43.7443927" lon="11.3505943"><ele>226.0</ele><time>2026-05-04T16:03:18.968Z</time></trkpt><trkpt lat="43.7443472" lon="11.3504462"><ele>225.99999999999997</ele><time>2026-05-04T16:03:20.969Z</time></trkpt><trkpt lat="43.7443022" lon="11.3503622"><ele>226.0</ele><time>2026-05-04T16:03:21.97Z</time></trkpt><trkpt lat="43.7442432" lon="11.3502877"><ele>226.0</ele><time>2026-05-04T16:03:22.967Z</time></trkpt><trkpt lat="43.7441818" lon="11.3502178"><ele>226.0</ele><time>2026-05-04T16:03:23.967Z</time></trkpt><trkpt lat="43.7441185" lon="11.3501512"><ele>225.99999999999997</ele><time>2026-05-04T16:03:24.966Z</time></trkpt><trkpt lat="43.7440523" lon="11.3500817"><ele>226.0</ele><time>2026-05-04T16:03:25.965Z</time></trkpt><trkpt lat="43.7439937" lon="11.3499962"><ele>225.99999999999997</ele><time>2026-05-04T16:03:26.966Z</time></trkpt><trkpt lat="43.7439485" lon="11.3498913"><ele>226.0</ele><time>2026-05-04T16:03:27.966Z</time></trkpt><trkpt lat="43.7439108" lon="11.3497687"><ele>226.0</ele><time>2026-05-04T16:03:28.968Z</time></trkpt><trkpt lat="43.7438793" lon="11.3496533"><ele>226.0</ele><time>2026-05-04T16:03:29.966Z</time></trkpt><trkpt lat="43.743846" lon="11.3495405"><ele>225.99999999999997</ele><time>2026-05-04T16:03:30.967Z</time></trkpt><trkpt lat="43.7438142" lon="11.3494315"><ele>226.0</ele><time>2026-05-04T16:03:31.969Z</time></trkpt><trkpt lat="43.7437855" lon="11.34932"><ele>225.83333333333331</ele><time>2026-05-04T16:03:32.965Z</time></trkpt><trkpt lat="43.7437658" lon="11.3492062"><ele>225.66666666666666</ele><time>2026-05-04T16:03:33.968Z</time></trkpt><trkpt lat="43.7437492" lon="11.3490945"><ele>225.5</ele><time>2026-05-04T16:03:34.969Z</time></trkpt><trkpt lat="43.743743" lon="11.3489903"><ele>225.33333333333331</ele><time>2026-05-04T16:03:35.969Z</time></trkpt><trkpt lat="43.7437387" lon="11.348886"><ele>225.16666666666666</ele><time>2026-05-04T16:03:36.967Z</time></trkpt><trkpt lat="43.7437415" lon="11.348779"><ele>225.0</ele><time>2026-05-04T16:03:37.972Z</time></trkpt><trkpt lat="43.7437533" lon="11.3486808"><ele>225.0</ele><time>2026-05-04T16:03:38.966Z</time></trkpt><trkpt lat="43.7437713" lon="11.348587"><ele>225.0</ele><time>2026-05-04T16:03:39.968Z</time></trkpt><trkpt lat="43.743793" lon="11.3484863"><ele>225.0</ele><time>2026-05-04T16:03:40.965Z</time></trkpt><trkpt lat="43.7438123" lon="11.3483905"><ele>225.0</ele><time>2026-05-04T16:03:41.967Z</time></trkpt><trkpt lat="43.7438455" lon="11.3482925"><ele>225.0</ele><time>2026-05-04T16:03:42.966Z</time></trkpt><trkpt lat="43.7438915" lon="11.3482072"><ele>225.0</ele><time>2026-05-04T16:03:43.966Z</time></trkpt><trkpt lat="43.743941" lon="11.348122"><ele>224.83333333333334</ele><time>2026-05-04T16:03:44.968Z</time></trkpt><trkpt lat="43.743994" lon="11.3480382"><ele>224.66666666666669</ele><time>2026-05-04T16:03:45.967Z</time></trkpt><trkpt lat="43.7440427" lon="11.3479425"><ele>224.5</ele><time>2026-05-04T16:03:46.969Z</time></trkpt><trkpt lat="43.7440923" lon="11.3478435"><ele>224.33333333333334</ele><time>2026-05-04T16:03:47.966Z</time></trkpt><trkpt lat="43.744138" lon="11.3477418"><ele>224.16666666666669</ele><time>2026-05-04T16:03:48.969Z</time></trkpt><trkpt lat="43.744183" lon="11.3476392"><ele>224.0</ele><time>2026-05-04T16:03:49.967Z</time></trkpt><trkpt lat="43.7442263" lon="11.347549"><ele>224.00000000000003</ele><time>2026-05-04T16:03:50.967Z</time></trkpt><trkpt lat="43.7442712" lon="11.3474598"><ele>224.0</ele><time>2026-05-04T16:03:51.967Z</time></trkpt><trkpt lat="43.7443143" lon="11.3473757"><ele>224.0</ele><time>2026-05-04T16:03:52.968Z</time></trkpt><trkpt lat="43.7443577" lon="11.3472933"><ele>224.0</ele><time>2026-05-04T16:03:53.965Z</time></trkpt><trkpt lat="43.7444027" lon="11.3472113"><ele>224.00000000000003</ele><time>2026-05-04T16:03:54.967Z</time></trkpt><trkpt lat="43.7444422" lon="11.3471357"><ele>224.0</ele><time>2026-05-04T16:03:55.966Z</time></trkpt><trkpt lat="43.7445147" lon="11.3470128"><ele>221.16666666666669</ele><time>2026-05-04T16:03:57.972Z</time></trkpt><trkpt lat="43.7445847" lon="11.346919"><ele>218.33333333333334</ele><time>2026-05-04T16:04:01.966Z</time></trkpt><trkpt lat="43.7446453" lon="11.3468253"><ele>215.5</ele><time>2026-05-04T16:04:04.968Z</time></trkpt><trkpt lat="43.7446902" lon="11.3467563"><ele>212.66666666666669</ele><time>2026-05-04T16:04:06.966Z</time></trkpt><trkpt lat="43.7446702" lon="11.346656"><ele>209.83333333333334</ele><time>2026-05-04T16:04:08.968Z</time></trkpt><trkpt lat="43.7446213" lon="11.3465067"><ele>207.0</ele><time>2026-05-04T16:04:10.968Z</time></trkpt><trkpt lat="43.7446048" lon="11.3463287"><ele>207.0</ele><time>2026-05-04T16:04:12.966Z</time></trkpt><trkpt lat="43.7446052" lon="11.3462252"><ele>207.0</ele><time>2026-05-04T16:04:13.967Z</time></trkpt><trkpt lat="43.7446" lon="11.3461185"><ele>207.0</ele><time>2026-05-04T16:04:14.968Z</time></trkpt><trkpt lat="43.744597" lon="11.3460063"><ele>207.0</ele><time>2026-05-04T16:04:15.966Z</time></trkpt><trkpt lat="43.7445955" lon="11.3458958"><ele>207.0</ele><time>2026-05-04T16:04:16.967Z</time></trkpt><trkpt lat="43.7446032" lon="11.3457823"><ele>207.0</ele><time>2026-05-04T16:04:17.966Z</time></trkpt><trkpt lat="43.7446148" lon="11.3456752"><ele>207.0</ele><time>2026-05-04T16:04:18.968Z</time></trkpt><trkpt lat="43.7446397" lon="11.3455718"><ele>207.0</ele><time>2026-05-04T16:04:19.966Z</time></trkpt><trkpt lat="43.744665" lon="11.3454723"><ele>207.0</ele><time>2026-05-04T16:04:20.966Z</time></trkpt><trkpt lat="43.7446878" lon="11.3453707"><ele>207.0</ele><time>2026-05-04T16:04:21.966Z</time></trkpt><trkpt lat="43.7447118" lon="11.3452707"><ele>207.0</ele><time>2026-05-04T16:04:22.963Z</time></trkpt><trkpt lat="43.7447392" lon="11.3451682"><ele>207.0</ele><time>2026-05-04T16:04:23.967Z</time></trkpt><trkpt lat="43.744764" lon="11.3450688"><ele>206.42857142857144</ele><time>2026-05-04T16:04:24.967Z</time></trkpt><trkpt lat="43.7447888" lon="11.3449687"><ele>205.85714285714286</ele><time>2026-05-04T16:04:25.967Z</time></trkpt><trkpt lat="43.7448082" lon="11.3448742"><ele>205.28571428571428</ele><time>2026-05-04T16:04:26.967Z</time></trkpt><trkpt lat="43.7448252" lon="11.344785"><ele>204.71428571428572</ele><time>2026-05-04T16:04:27.966Z</time></trkpt><trkpt lat="43.7448437" lon="11.3446962"><ele>204.14285714285714</ele><time>2026-05-04T16:04:28.967Z</time></trkpt><trkpt lat="43.7448562" lon="11.344602"><ele>203.57142857142858</ele><time>2026-05-04T16:04:29.968Z</time></trkpt><trkpt lat="43.7448658" lon="11.3445063"><ele>203.0</ele><time>2026-05-04T16:04:30.968Z</time></trkpt><trkpt lat="43.7448777" lon="11.3444108"><ele>202.42857142857142</ele><time>2026-05-04T16:04:31.967Z</time></trkpt><trkpt lat="43.7448908" lon="11.3443098"><ele>201.85714285714286</ele><time>2026-05-04T16:04:32.968Z</time></trkpt><trkpt lat="43.7449035" lon="11.3442073"><ele>201.28571428571428</ele><time>2026-05-04T16:04:33.968Z</time></trkpt><trkpt lat="43.744916" lon="11.3441102"><ele>200.71428571428572</ele><time>2026-05-04T16:04:34.967Z</time></trkpt><trkpt lat="43.744934" lon="11.3440153"><ele>200.14285714285714</ele><time>2026-05-04T16:04:35.971Z</time></trkpt><trkpt lat="43.7449513" lon="11.3439258"><ele>199.57142857142856</ele><time>2026-05-04T16:04:36.967Z</time></trkpt><trkpt lat="43.7449738" lon="11.343837"><ele>199.0</ele><time>2026-05-04T16:04:37.969Z</time></trkpt><trkpt lat="43.7449972" lon="11.3437473"><ele>198.42857142857142</ele><time>2026-05-04T16:04:38.969Z</time></trkpt><trkpt lat="43.745023" lon="11.3436542"><ele>197.85714285714286</ele><time>2026-05-04T16:04:39.966Z</time></trkpt><trkpt lat="43.7450465" lon="11.3435523"><ele>197.28571428571428</ele><time>2026-05-04T16:04:40.971Z</time></trkpt><trkpt lat="43.7450693" lon="11.3434522"><ele>196.71428571428572</ele><time>2026-05-04T16:04:41.968Z</time></trkpt><trkpt lat="43.745086" lon="11.3433492"><ele>196.14285714285714</ele><time>2026-05-04T16:04:42.967Z</time></trkpt><trkpt lat="43.7451033" lon="11.3432485"><ele>195.57142857142856</ele><time>2026-05-04T16:04:43.967Z</time></trkpt><trkpt lat="43.7451208" lon="11.3431503"><ele>195.0</ele><time>2026-05-04T16:04:44.969Z</time></trkpt><trkpt lat="43.7451327" lon="11.3430543"><ele>194.6</ele><time>2026-05-04T16:04:45.965Z</time></trkpt><trkpt lat="43.7451447" lon="11.3429605"><ele>194.2</ele><time>2026-05-04T16:04:46.968Z</time></trkpt><trkpt lat="43.7451547" lon="11.3428727"><ele>193.8</ele><time>2026-05-04T16:04:47.968Z</time></trkpt><trkpt lat="43.7451733" lon="11.3427098"><ele>193.4</ele><time>2026-05-04T16:04:49.965Z</time></trkpt><trkpt lat="43.7451985" lon="11.3425658"><ele>193.0</ele><time>2026-05-04T16:04:51.965Z</time></trkpt><trkpt lat="43.7452047" lon="11.3424003"><ele>192.99999999999997</ele><time>2026-05-04T16:04:53.967Z</time></trkpt><trkpt lat="43.7451952" lon="11.3423007"><ele>193.0</ele><time>2026-05-04T16:04:54.966Z</time></trkpt><trkpt lat="43.7451823" lon="11.3421897"><ele>193.0</ele><time>2026-05-04T16:04:55.963Z</time></trkpt><trkpt lat="43.7451715" lon="11.3420717"><ele>193.0</ele><time>2026-05-04T16:04:56.967Z</time></trkpt><trkpt lat="43.7451663" lon="11.3419717"><ele>192.99999999999997</ele><time>2026-05-04T16:04:57.968Z</time></trkpt><trkpt lat="43.74517" lon="11.3418553"><ele>193.0</ele><time>2026-05-04T16:04:59.971Z</time></trkpt><trkpt lat="43.7451472" lon="11.3417213"><ele>192.49999999999997</ele><time>2026-05-04T16:05:02.967Z</time></trkpt><trkpt lat="43.7451362" lon="11.3416328"><ele>192.0</ele><time>2026-05-04T16:05:03.967Z</time></trkpt><trkpt lat="43.7451175" lon="11.3415317"><ele>191.5</ele><time>2026-05-04T16:05:04.966Z</time></trkpt><trkpt lat="43.7450992" lon="11.3414073"><ele>191.0</ele><time>2026-05-04T16:05:05.967Z</time></trkpt><trkpt lat="43.7450787" lon="11.341277"><ele>190.5</ele><time>2026-05-04T16:05:06.965Z</time></trkpt><trkpt lat="43.7450597" lon="11.3411467"><ele>190.0</ele><time>2026-05-04T16:05:07.971Z</time></trkpt><trkpt lat="43.7450365" lon="11.3410188"><ele>189.5</ele><time>2026-05-04T16:05:08.967Z</time></trkpt><trkpt lat="43.745015" lon="11.3408967"><ele>189.0</ele><time>2026-05-04T16:05:09.965Z</time></trkpt><trkpt lat="43.7449922" lon="11.3407795"><ele>188.5</ele><time>2026-05-04T16:05:10.966Z</time></trkpt><trkpt lat="43.7449663" lon="11.3406685"><ele>188.0</ele><time>2026-05-04T16:05:11.966Z</time></trkpt><trkpt lat="43.7449382" lon="11.3405583"><ele>187.5</ele><time>2026-05-04T16:05:12.966Z</time></trkpt><trkpt lat="43.7449098" lon="11.3404495"><ele>187.0</ele><time>2026-05-04T16:05:13.971Z</time></trkpt><trkpt lat="43.744885" lon="11.3403485"><ele>186.66666666666669</ele><time>2026-05-04T16:05:14.966Z</time></trkpt><trkpt lat="43.7448662" lon="11.3402532"><ele>186.33333333333334</ele><time>2026-05-04T16:05:15.966Z</time></trkpt><trkpt lat="43.7448473" lon="11.3401675"><ele>186.0</ele><time>2026-05-04T16:05:16.965Z</time></trkpt><trkpt lat="43.7448258" lon="11.3400818"><ele>185.66666666666666</ele><time>2026-05-04T16:05:17.965Z</time></trkpt><trkpt lat="43.7447798" lon="11.339931"><ele>185.33333333333331</ele><time>2026-05-04T16:05:19.965Z</time></trkpt><trkpt lat="43.7447293" lon="11.3398137"><ele>185.0</ele><time>2026-05-04T16:05:21.965Z</time></trkpt><trkpt lat="43.7446943" lon="11.33973"><ele>184.66666666666666</ele><time>2026-05-04T16:05:23.966Z</time></trkpt><trkpt lat="43.7446392" lon="11.3396563"><ele>184.33333333333331</ele><time>2026-05-04T16:05:26.964Z</time></trkpt><trkpt lat="43.7445733" lon="11.339634"><ele>184.0</ele><time>2026-05-04T16:05:38.968Z</time></trkpt><trkpt lat="43.7445172" lon="11.3395655"><ele>183.66666666666666</ele><time>2026-05-04T16:05:40.968Z</time></trkpt><trkpt lat="43.7444413" lon="11.3394533"><ele>183.33333333333334</ele><time>2026-05-04T16:05:42.964Z</time></trkpt><trkpt lat="43.7444087" lon="11.3393735"><ele>183.0</ele><time>2026-05-04T16:05:43.963Z</time></trkpt><trkpt lat="43.7443767" lon="11.3392958"><ele>182.71428571428572</ele><time>2026-05-04T16:05:44.963Z</time></trkpt><trkpt lat="43.7443417" lon="11.3392088"><ele>182.42857142857144</ele><time>2026-05-04T16:05:45.965Z</time></trkpt><trkpt lat="43.7443053" lon="11.3391197"><ele>182.14285714285714</ele><time>2026-05-04T16:05:46.966Z</time></trkpt><trkpt lat="43.7442697" lon="11.339031"><ele>181.85714285714286</ele><time>2026-05-04T16:05:47.968Z</time></trkpt><trkpt lat="43.744235" lon="11.3389435"><ele>181.57142857142856</ele><time>2026-05-04T16:05:48.967Z</time></trkpt><trkpt lat="43.744197" lon="11.3388488"><ele>181.28571428571428</ele><time>2026-05-04T16:05:49.967Z</time></trkpt><trkpt lat="43.7441598" lon="11.3387547"><ele>181.0</ele><time>2026-05-04T16:05:50.968Z</time></trkpt><trkpt lat="43.744126" lon="11.3386625"><ele>180.66666666666669</ele><time>2026-05-04T16:05:51.965Z</time></trkpt><trkpt lat="43.7440905" lon="11.3385683"><ele>180.33333333333334</ele><time>2026-05-04T16:05:52.967Z</time></trkpt><trkpt lat="43.7440517" lon="11.3384712"><ele>180.0</ele><time>2026-05-04T16:05:53.964Z</time></trkpt><trkpt lat="43.7440165" lon="11.3383747"><ele>179.66666666666666</ele><time>2026-05-04T16:05:54.967Z</time></trkpt><trkpt lat="43.7439815" lon="11.3382803"><ele>179.33333333333331</ele><time>2026-05-04T16:05:55.965Z</time></trkpt><trkpt lat="43.7439437" lon="11.3381793"><ele>179.0</ele><time>2026-05-04T16:05:56.965Z</time></trkpt><trkpt lat="43.7439055" lon="11.3380797"><ele>178.5</ele><time>2026-05-04T16:05:57.967Z</time></trkpt><trkpt lat="43.7438695" lon="11.3379792"><ele>178.0</ele><time>2026-05-04T16:05:58.965Z</time></trkpt><trkpt lat="43.7438343" lon="11.3378798"><ele>177.5</ele><time>2026-05-04T16:05:59.966Z</time></trkpt><trkpt lat="43.7437978" lon="11.3377813"><ele>177.0</ele><time>2026-05-04T16:06:00.966Z</time></trkpt><trkpt lat="43.7437618" lon="11.3376825"><ele>176.5</ele><time>2026-05-04T16:06:01.967Z</time></trkpt><trkpt lat="43.7437273" lon="11.3375812"><ele>176.0</ele><time>2026-05-04T16:06:02.967Z</time></trkpt><trkpt lat="43.7436925" lon="11.3374843"><ele>176.0</ele><time>2026-05-04T16:06:03.966Z</time></trkpt><trkpt lat="43.7436563" lon="11.3373892"><ele>176.0</ele><time>2026-05-04T16:06:04.968Z</time></trkpt><trkpt lat="43.7436193" lon="11.3372955"><ele>176.0</ele><time>2026-05-04T16:06:05.968Z</time></trkpt><trkpt lat="43.7435793" lon="11.3372023"><ele>176.0</ele><time>2026-05-04T16:06:06.966Z</time></trkpt><trkpt lat="43.7435372" lon="11.3371035"><ele>176.0</ele><time>2026-05-04T16:06:07.968Z</time></trkpt><trkpt lat="43.7434945" lon="11.3370007"><ele>176.0</ele><time>2026-05-04T16:06:08.965Z</time></trkpt><trkpt lat="43.743459" lon="11.3368975"><ele>175.66666666666666</ele><time>2026-05-04T16:06:09.967Z</time></trkpt><trkpt lat="43.7434223" lon="11.336793"><ele>175.33333333333331</ele><time>2026-05-04T16:06:10.965Z</time></trkpt><trkpt lat="43.7433822" lon="11.336688"><ele>175.0</ele><time>2026-05-04T16:06:11.965Z</time></trkpt><trkpt lat="43.7433413" lon="11.3365848"><ele>174.66666666666666</ele><time>2026-05-04T16:06:12.967Z</time></trkpt><trkpt lat="43.7432972" lon="11.3364765"><ele>174.33333333333334</ele><time>2026-05-04T16:06:13.966Z</time></trkpt><trkpt lat="43.7432538" lon="11.3363667"><ele>174.0</ele><time>2026-05-04T16:06:14.965Z</time></trkpt><trkpt lat="43.743209" lon="11.3362585"><ele>173.79999999999998</ele><time>2026-05-04T16:06:15.966Z</time></trkpt><trkpt lat="43.743168" lon="11.3361455"><ele>173.6</ele><time>2026-05-04T16:06:16.967Z</time></trkpt><trkpt lat="43.7431262" lon="11.336033"><ele>173.4</ele><time>2026-05-04T16:06:17.966Z</time></trkpt><trkpt lat="43.7430853" lon="11.3359188"><ele>173.2</ele><time>2026-05-04T16:06:18.968Z</time></trkpt><trkpt lat="43.7430447" lon="11.3358048"><ele>173.0</ele><time>2026-05-04T16:06:19.965Z</time></trkpt><trkpt lat="43.743002" lon="11.3356935"><ele>173.0</ele><time>2026-05-04T16:06:20.968Z</time></trkpt><trkpt lat="43.7429615" lon="11.3355837"><ele>173.0</ele><time>2026-05-04T16:06:21.966Z</time></trkpt><trkpt lat="43.7429213" lon="11.3354703"><ele>173.0</ele><time>2026-05-04T16:06:22.966Z</time></trkpt><trkpt lat="43.7428805" lon="11.3353607"><ele>173.0</ele><time>2026-05-04T16:06:23.966Z</time></trkpt><trkpt lat="43.7428383" lon="11.3352568"><ele>173.0</ele><time>2026-05-04T16:06:24.966Z</time></trkpt><trkpt lat="43.742798" lon="11.3351523"><ele>173.0</ele><time>2026-05-04T16:06:25.968Z</time></trkpt><trkpt lat="43.742757" lon="11.3350535"><ele>172.66666666666666</ele><time>2026-05-04T16:06:26.967Z</time></trkpt><trkpt lat="43.7427168" lon="11.3349567"><ele>172.33333333333331</ele><time>2026-05-04T16:06:27.966Z</time></trkpt><trkpt lat="43.7426755" lon="11.3348588"><ele>172.0</ele><time>2026-05-04T16:06:28.966Z</time></trkpt><trkpt lat="43.7426338" lon="11.3347587"><ele>171.66666666666666</ele><time>2026-05-04T16:06:29.967Z</time></trkpt><trkpt lat="43.742596" lon="11.3346667"><ele>171.33333333333334</ele><time>2026-05-04T16:06:30.967Z</time></trkpt><trkpt lat="43.742557" lon="11.3345765"><ele>171.0</ele><time>2026-05-04T16:06:31.966Z</time></trkpt><trkpt lat="43.7425158" lon="11.3344945"><ele>170.14285714285714</ele><time>2026-05-04T16:06:32.967Z</time></trkpt><trkpt lat="43.7424788" lon="11.3344098"><ele>169.28571428571428</ele><time>2026-05-04T16:06:33.966Z</time></trkpt><trkpt lat="43.7424407" lon="11.3343168"><ele>168.42857142857144</ele><time>2026-05-04T16:06:34.966Z</time></trkpt><trkpt lat="43.7424108" lon="11.3342277"><ele>167.57142857142856</ele><time>2026-05-04T16:06:35.97Z</time></trkpt><trkpt lat="43.7423717" lon="11.334135"><ele>166.71428571428572</ele><time>2026-05-04T16:06:36.966Z</time></trkpt><trkpt lat="43.7423335" lon="11.3340437"><ele>165.85714285714286</ele><time>2026-05-04T16:06:37.965Z</time></trkpt><trkpt lat="43.7423" lon="11.3339575"><ele>165.0</ele><time>2026-05-04T16:06:38.966Z</time></trkpt><trkpt lat="43.7422588" lon="11.333861"><ele>163.66666666666666</ele><time>2026-05-04T16:06:39.967Z</time></trkpt><trkpt lat="43.7422222" lon="11.3337562"><ele>162.33333333333334</ele><time>2026-05-04T16:06:40.967Z</time></trkpt><trkpt lat="43.742185" lon="11.3336462"><ele>161.0</ele><time>2026-05-04T16:06:41.967Z</time></trkpt><trkpt lat="43.7421438" lon="11.333536"><ele>159.66666666666669</ele><time>2026-05-04T16:06:42.965Z</time></trkpt><trkpt lat="43.7421043" lon="11.3334205"><ele>158.33333333333334</ele><time>2026-05-04T16:06:43.966Z</time></trkpt><trkpt lat="43.7420632" lon="11.3333042"><ele>157.0</ele><time>2026-05-04T16:06:44.966Z</time></trkpt><trkpt lat="43.7420208" lon="11.333187"><ele>157.0</ele><time>2026-05-04T16:06:45.965Z</time></trkpt><trkpt lat="43.7419753" lon="11.3330723"><ele>157.0</ele><time>2026-05-04T16:06:46.968Z</time></trkpt><trkpt lat="43.7419308" lon="11.3329572"><ele>157.0</ele><time>2026-05-04T16:06:47.965Z</time></trkpt><trkpt lat="43.741887" lon="11.3328378"><ele>157.0</ele><time>2026-05-04T16:06:48.968Z</time></trkpt><trkpt lat="43.7418458" lon="11.3327252"><ele>157.0</ele><time>2026-05-04T16:06:49.965Z</time></trkpt><trkpt lat="43.7418083" lon="11.3326153"><ele>157.0</ele><time>2026-05-04T16:06:50.966Z</time></trkpt><trkpt lat="43.7417688" lon="11.3325112"><ele>157.0</ele><time>2026-05-04T16:06:51.967Z</time></trkpt><trkpt lat="43.7417313" lon="11.3324117"><ele>157.0</ele><time>2026-05-04T16:06:52.966Z</time></trkpt><trkpt lat="43.741695" lon="11.3323155"><ele>157.0</ele><time>2026-05-04T16:06:53.968Z</time></trkpt><trkpt lat="43.7416592" lon="11.3322312"><ele>157.0</ele><time>2026-05-04T16:06:54.966Z</time></trkpt><trkpt lat="43.7416258" lon="11.3321498"><ele>157.0</ele><time>2026-05-04T16:06:55.966Z</time></trkpt><trkpt lat="43.7415922" lon="11.3320613"><ele>156.33333333333334</ele><time>2026-05-04T16:06:56.968Z</time></trkpt><trkpt lat="43.7415612" lon="11.331975"><ele>155.66666666666669</ele><time>2026-05-04T16:06:57.966Z</time></trkpt><trkpt lat="43.7415253" lon="11.3318858"><ele>155.0</ele><time>2026-05-04T16:06:58.967Z</time></trkpt><trkpt lat="43.7414865" lon="11.3317913"><ele>154.33333333333334</ele><time>2026-05-04T16:06:59.968Z</time></trkpt><trkpt lat="43.7414542" lon="11.3316988"><ele>153.66666666666666</ele><time>2026-05-04T16:07:00.967Z</time></trkpt><trkpt lat="43.7414257" lon="11.3316178"><ele>153.0</ele><time>2026-05-04T16:07:01.968Z</time></trkpt><trkpt lat="43.74138" lon="11.331511"><ele>153.0</ele><time>2026-05-04T16:07:03.966Z</time></trkpt><trkpt lat="43.7413147" lon="11.3315025"><ele>153.0</ele><time>2026-05-04T16:07:05.967Z</time></trkpt><trkpt lat="43.7412292" lon="11.3315392"><ele>153.0</ele><time>2026-05-04T16:07:07.967Z</time></trkpt><trkpt lat="43.7411255" lon="11.3315605"><ele>153.0</ele><time>2026-05-04T16:07:09.967Z</time></trkpt><trkpt lat="43.7410285" lon="11.3315713"><ele>153.0</ele><time>2026-05-04T16:07:11.969Z</time></trkpt><trkpt lat="43.7409455" lon="11.3315817"><ele>153.0</ele><time>2026-05-04T16:07:13.966Z</time></trkpt><trkpt lat="43.7408823" lon="11.3315848"><ele>152.66666666666666</ele><time>2026-05-04T16:07:15.965Z</time></trkpt><trkpt lat="43.7408102" lon="11.3315835"><ele>152.33333333333334</ele><time>2026-05-04T16:07:17.965Z</time></trkpt><trkpt lat="43.7407348" lon="11.331582"><ele>152.0</ele><time>2026-05-04T16:07:19.967Z</time></trkpt><trkpt lat="43.7406658" lon="11.3315882"><ele>151.66666666666669</ele><time>2026-05-04T16:07:21.966Z</time></trkpt><trkpt lat="43.7405795" lon="11.3315977"><ele>151.33333333333334</ele><time>2026-05-04T16:07:24.966Z</time></trkpt><trkpt lat="43.740504" lon="11.3316037"><ele>151.0</ele><time>2026-05-04T16:07:26.967Z</time></trkpt><trkpt lat="43.7404288" lon="11.3316085"><ele>151.0</ele><time>2026-05-04T16:07:28.967Z</time></trkpt><trkpt lat="43.740353" lon="11.3316155"><ele>151.0</ele><time>2026-05-04T16:07:30.964Z</time></trkpt><trkpt lat="43.7402718" lon="11.3316275"><ele>151.0</ele><time>2026-05-04T16:07:32.961Z</time></trkpt><trkpt lat="43.7401893" lon="11.3316347"><ele>151.0</ele><time>2026-05-04T16:07:34.967Z</time></trkpt><trkpt lat="43.7400973" lon="11.331644"><ele>151.0</ele><time>2026-05-04T16:07:36.968Z</time></trkpt><trkpt lat="43.7400115" lon="11.3316555"><ele>151.0</ele><time>2026-05-04T16:07:38.965Z</time></trkpt><trkpt lat="43.7399435" lon="11.3316595"><ele>149.66666666666669</ele><time>2026-05-04T16:07:40.966Z</time></trkpt><trkpt lat="43.7398718" lon="11.3316643"><ele>148.33333333333334</ele><time>2026-05-04T16:07:42.966Z</time></trkpt><trkpt lat="43.739794" lon="11.3316772"><ele>147.0</ele><time>2026-05-04T16:07:44.966Z</time></trkpt><trkpt lat="43.7397142" lon="11.3316845"><ele>145.66666666666666</ele><time>2026-05-04T16:07:46.967Z</time></trkpt><trkpt lat="43.7396355" lon="11.3316945"><ele>144.33333333333331</ele><time>2026-05-04T16:07:48.967Z</time></trkpt><trkpt lat="43.73954" lon="11.3316775"><ele>143.0</ele><time>2026-05-04T16:07:50.967Z</time></trkpt><trkpt lat="43.7394487" lon="11.3316618"><ele>143.66666666666666</ele><time>2026-05-04T16:07:52.966Z</time></trkpt><trkpt lat="43.7393555" lon="11.3316463"><ele>144.33333333333331</ele><time>2026-05-04T16:07:54.966Z</time></trkpt><trkpt lat="43.739277" lon="11.3316382"><ele>145.0</ele><time>2026-05-04T16:07:56.965Z</time></trkpt><trkpt lat="43.7391942" lon="11.3316432"><ele>145.66666666666666</ele><time>2026-05-04T16:07:58.967Z</time></trkpt><trkpt lat="43.739109" lon="11.3316548"><ele>146.33333333333334</ele><time>2026-05-04T16:08:00.964Z</time></trkpt><trkpt lat="43.7390173" lon="11.3316538"><ele>147.0</ele><time>2026-05-04T16:08:02.966Z</time></trkpt><trkpt lat="43.738952" lon="11.331662"><ele>147.0</ele><time>2026-05-04T16:08:04.967Z</time></trkpt><trkpt lat="43.7388902" lon="11.3316077"><ele>147.0</ele><time>2026-05-04T16:08:07.967Z</time></trkpt><trkpt lat="43.7388698" lon="11.331481"><ele>147.0</ele><time>2026-05-04T16:08:10.967Z</time></trkpt><trkpt lat="43.738848" lon="11.3313835"><ele>147.0</ele><time>2026-05-04T16:08:12.965Z</time></trkpt><trkpt lat="43.738824" lon="11.3312795"><ele>147.0</ele><time>2026-05-04T16:08:14.971Z</time></trkpt><trkpt lat="43.7388022" lon="11.3311585"><ele>147.0</ele><time>2026-05-04T16:08:16.967Z</time></trkpt><trkpt lat="43.7387647" lon="11.3310265"><ele>145.4</ele><time>2026-05-04T16:08:18.966Z</time></trkpt><trkpt lat="43.7387268" lon="11.3308872"><ele>143.79999999999998</ele><time>2026-05-04T16:08:20.967Z</time></trkpt><trkpt lat="43.7386962" lon="11.3307402"><ele>142.2</ele><time>2026-05-04T16:08:22.967Z</time></trkpt><trkpt lat="43.7386515" lon="11.3305917"><ele>140.6</ele><time>2026-05-04T16:08:24.966Z</time></trkpt><trkpt lat="43.738612" lon="11.3304437"><ele>139.0</ele><time>2026-05-04T16:08:26.963Z</time></trkpt><trkpt lat="43.738576" lon="11.3303003"><ele>139.25</ele><time>2026-05-04T16:08:28.965Z</time></trkpt><trkpt lat="43.7385448" lon="11.3301537"><ele>139.5</ele><time>2026-05-04T16:08:30.968Z</time></trkpt><trkpt lat="43.7385182" lon="11.3300038"><ele>139.75</ele><time>2026-05-04T16:08:32.969Z</time></trkpt><trkpt lat="43.7384783" lon="11.3298547"><ele>140.0</ele><time>2026-05-04T16:08:34.967Z</time></trkpt><trkpt lat="43.7384398" lon="11.3297025"><ele>140.0</ele><time>2026-05-04T16:08:36.966Z</time></trkpt><trkpt lat="43.7383792" lon="11.3295837"><ele>140.0</ele><time>2026-05-04T16:08:38.965Z</time></trkpt><trkpt lat="43.7382897" lon="11.3295505"><ele>140.0</ele><time>2026-05-04T16:08:40.966Z</time></trkpt><trkpt lat="43.7381972" lon="11.3295858"><ele>140.0</ele><time>2026-05-04T16:08:42.966Z</time></trkpt><trkpt lat="43.738113" lon="11.3296427"><ele>140.0</ele><time>2026-05-04T16:08:44.965Z</time></trkpt><trkpt lat="43.7380542" lon="11.3296907"><ele>140.71428571428572</ele><time>2026-05-04T16:08:46.967Z</time></trkpt><trkpt lat="43.737994" lon="11.329734"><ele>141.42857142857144</ele><time>2026-05-04T16:08:48.968Z</time></trkpt><trkpt lat="43.7379118" lon="11.3297725"><ele>142.14285714285714</ele><time>2026-05-04T16:08:51.967Z</time></trkpt><trkpt lat="43.73785" lon="11.3298088"><ele>142.85714285714286</ele><time>2026-05-04T16:08:53.965Z</time></trkpt><trkpt lat="43.7377853" lon="11.3298382"><ele>143.57142857142858</ele><time>2026-05-04T16:08:55.964Z</time></trkpt><trkpt lat="43.7377155" lon="11.3298705"><ele>144.28571428571428</ele><time>2026-05-04T16:08:57.966Z</time></trkpt><trkpt lat="43.737648" lon="11.3299072"><ele>145.0</ele><time>2026-05-04T16:08:59.966Z</time></trkpt><trkpt lat="43.7375738" lon="11.3298603"><ele>146.66666666666669</ele><time>2026-05-04T16:09:02.967Z</time></trkpt><trkpt lat="43.73756" lon="11.3297683"><ele>148.33333333333334</ele><time>2026-05-04T16:09:04.967Z</time></trkpt><trkpt lat="43.7375358" lon="11.3296595"><ele>150.0</ele><time>2026-05-04T16:09:06.964Z</time></trkpt><trkpt lat="43.7375038" lon="11.3295455"><ele>151.66666666666666</ele><time>2026-05-04T16:09:08.967Z</time></trkpt><trkpt lat="43.7374755" lon="11.3294215"><ele>153.33333333333331</ele><time>2026-05-04T16:09:10.968Z</time></trkpt><trkpt lat="43.7374493" lon="11.3292937"><ele>155.0</ele><time>2026-05-04T16:09:12.969Z</time></trkpt><trkpt lat="43.737421" lon="11.3291745"><ele>155.0</ele><time>2026-05-04T16:09:14.966Z</time></trkpt><trkpt lat="43.7373972" lon="11.3290632"><ele>155.0</ele><time>2026-05-04T16:09:16.967Z</time></trkpt><trkpt lat="43.737373" lon="11.328945"><ele>155.0</ele><time>2026-05-04T16:09:18.968Z</time></trkpt><trkpt lat="43.7373413" lon="11.3288188"><ele>155.0</ele><time>2026-05-04T16:09:20.967Z</time></trkpt><trkpt lat="43.7373077" lon="11.3286895"><ele>155.0</ele><time>2026-05-04T16:09:22.967Z</time></trkpt><trkpt lat="43.7372765" lon="11.3285755"><ele>154.66666666666666</ele><time>2026-05-04T16:09:24.968Z</time></trkpt><trkpt lat="43.7372505" lon="11.3284638"><ele>154.33333333333331</ele><time>2026-05-04T16:09:26.967Z</time></trkpt><trkpt lat="43.7372255" lon="11.3283533"><ele>154.0</ele><time>2026-05-04T16:09:28.967Z</time></trkpt><trkpt lat="43.7372012" lon="11.3282552"><ele>153.66666666666666</ele><time>2026-05-04T16:09:30.967Z</time></trkpt><trkpt lat="43.7371792" lon="11.3281498"><ele>153.33333333333334</ele><time>2026-05-04T16:09:32.962Z</time></trkpt><trkpt lat="43.7371647" lon="11.3280543"><ele>153.0</ele><time>2026-05-04T16:09:34.965Z</time></trkpt><trkpt lat="43.7371438" lon="11.3279708"><ele>152.83333333333334</ele><time>2026-05-04T16:09:36.968Z</time></trkpt><trkpt lat="43.737078" lon="11.3278915"><ele>152.66666666666666</ele><time>2026-05-04T16:09:39.965Z</time></trkpt><trkpt lat="43.7370005" lon="11.3278508"><ele>152.5</ele><time>2026-05-04T16:09:42.967Z</time></trkpt><trkpt lat="43.7369307" lon="11.3278083"><ele>152.33333333333331</ele><time>2026-05-04T16:09:45.964Z</time></trkpt><trkpt lat="43.7368575" lon="11.3277675"><ele>152.16666666666666</ele><time>2026-05-04T16:09:48.968Z</time></trkpt><trkpt lat="43.736781" lon="11.3277318"><ele>152.0</ele><time>2026-05-04T16:09:51.965Z</time></trkpt><trkpt lat="43.7367033" lon="11.3277037"><ele>152.0</ele><time>2026-05-04T16:09:54.968Z</time></trkpt><trkpt lat="43.7366277" lon="11.3276538"><ele>152.0</ele><time>2026-05-04T16:09:57.967Z</time></trkpt><trkpt lat="43.7365413" lon="11.3276153"><ele>152.0</ele><time>2026-05-04T16:10:00.965Z</time></trkpt><trkpt lat="43.736451" lon="11.3275733"><ele>152.0</ele><time>2026-05-04T16:10:03.966Z</time></trkpt><trkpt lat="43.7363657" lon="11.3275382"><ele>152.0</ele><time>2026-05-04T16:10:06.968Z</time></trkpt><trkpt lat="43.7363013" lon="11.327506"><ele>152.0</ele><time>2026-05-04T16:10:09.967Z</time></trkpt><trkpt lat="43.7362198" lon="11.3274563"><ele>152.0</ele><time>2026-05-04T16:10:12.965Z</time></trkpt><trkpt lat="43.7361323" lon="11.3274115"><ele>152.0</ele><time>2026-05-04T16:10:15.965Z</time></trkpt><trkpt lat="43.736057" lon="11.3273898"><ele>152.0</ele><time>2026-05-04T16:10:18.964Z</time></trkpt><trkpt lat="43.7359945" lon="11.3273737"><ele>152.0</ele><time>2026-05-04T16:10:20.966Z</time></trkpt><trkpt lat="43.7359092" lon="11.327343"><ele>152.0</ele><time>2026-05-04T16:10:23.965Z</time></trkpt><trkpt lat="43.7358293" lon="11.327308"><ele>152.0</ele><time>2026-05-04T16:10:26.965Z</time></trkpt><trkpt lat="43.7357488" lon="11.3272795"><ele>150.5</ele><time>2026-05-04T16:10:29.965Z</time></trkpt><trkpt lat="43.7356665" lon="11.3272617"><ele>149.0</ele><time>2026-05-04T16:10:32.966Z</time></trkpt><trkpt lat="43.7355922" lon="11.3272335"><ele>147.5</ele><time>2026-05-04T16:10:35.971Z</time></trkpt><trkpt lat="43.73552" lon="11.3271872"><ele>146.0</ele><time>2026-05-04T16:10:38.967Z</time></trkpt><trkpt lat="43.7354373" lon="11.3271328"><ele>144.5</ele><time>2026-05-04T16:10:41.968Z</time></trkpt><trkpt lat="43.735372" lon="11.3271058"><ele>143.0</ele><time>2026-05-04T16:10:43.971Z</time></trkpt><trkpt lat="43.735301" lon="11.3270858"><ele>142.5</ele><time>2026-05-04T16:10:45.966Z</time></trkpt><trkpt lat="43.7352222" lon="11.3270657"><ele>142.0</ele><time>2026-05-04T16:10:47.965Z</time></trkpt><trkpt lat="43.735142" lon="11.3270437"><ele>141.5</ele><time>2026-05-04T16:10:49.967Z</time></trkpt><trkpt lat="43.7350668" lon="11.3270212"><ele>141.0</ele><time>2026-05-04T16:10:51.964Z</time></trkpt><trkpt lat="43.7349973" lon="11.3270057"><ele>140.5</ele><time>2026-05-04T16:10:53.964Z</time></trkpt><trkpt lat="43.7349235" lon="11.3269793"><ele>140.0</ele><time>2026-05-04T16:10:55.966Z</time></trkpt><trkpt lat="43.7348528" lon="11.3269467"><ele>138.33333333333331</ele><time>2026-05-04T16:10:57.967Z</time></trkpt><trkpt lat="43.7347817" lon="11.3269078"><ele>136.66666666666666</ele><time>2026-05-04T16:10:59.966Z</time></trkpt><trkpt lat="43.7347193" lon="11.326842"><ele>135.0</ele><time>2026-05-04T16:11:01.966Z</time></trkpt><trkpt lat="43.734687" lon="11.3267645"><ele>133.33333333333334</ele><time>2026-05-04T16:11:03.965Z</time></trkpt><trkpt lat="43.7346728" lon="11.3266633"><ele>131.66666666666669</ele><time>2026-05-04T16:11:05.968Z</time></trkpt><trkpt lat="43.7346577" lon="11.3265767"><ele>130.0</ele><time>2026-05-04T16:11:07.966Z</time></trkpt><trkpt lat="43.7346585" lon="11.3264457"><ele>129.66666666666669</ele><time>2026-05-04T16:11:10.967Z</time></trkpt><trkpt lat="43.7346713" lon="11.3263327"><ele>129.33333333333334</ele><time>2026-05-04T16:11:12.965Z</time></trkpt><trkpt lat="43.734681" lon="11.3262152"><ele>129.0</ele><time>2026-05-04T16:11:14.968Z</time></trkpt><trkpt lat="43.7346853" lon="11.3261182"><ele>128.66666666666666</ele><time>2026-05-04T16:11:16.97Z</time></trkpt><trkpt lat="43.7346452" lon="11.3260223"><ele>128.33333333333331</ele><time>2026-05-04T16:11:19.968Z</time></trkpt><trkpt lat="43.7345795" lon="11.3259857"><ele>128.0</ele><time>2026-05-04T16:11:21.966Z</time></trkpt><trkpt lat="43.7345163" lon="11.3259535"><ele>127.99999999999999</ele><time>2026-05-04T16:11:23.967Z</time></trkpt><trkpt lat="43.734449" lon="11.3259387"><ele>128.0</ele><time>2026-05-04T16:11:25.971Z</time></trkpt><trkpt lat="43.7343797" lon="11.3259247"><ele>128.0</ele><time>2026-05-04T16:11:27.967Z</time></trkpt><trkpt lat="43.734317" lon="11.3259102"><ele>128.0</ele><time>2026-05-04T16:11:29.965Z</time></trkpt><trkpt lat="43.7342538" lon="11.325891"><ele>127.99999999999999</ele><time>2026-05-04T16:11:32.966Z</time></trkpt><trkpt lat="43.7341648" lon="11.3258718"><ele>128.0</ele><time>2026-05-04T16:11:35.966Z</time></trkpt><trkpt lat="43.7340707" lon="11.3258383"><ele>128.16666666666666</ele><time>2026-05-04T16:11:38.966Z</time></trkpt><trkpt lat="43.7339937" lon="11.3258163"><ele>128.33333333333331</ele><time>2026-05-04T16:11:40.967Z</time></trkpt><trkpt lat="43.7339233" lon="11.3257897"><ele>128.5</ele><time>2026-05-04T16:11:42.967Z</time></trkpt><trkpt lat="43.733843" lon="11.3257708"><ele>128.66666666666666</ele><time>2026-05-04T16:11:44.965Z</time></trkpt><trkpt lat="43.7337687" lon="11.3257528"><ele>128.83333333333334</ele><time>2026-05-04T16:11:46.965Z</time></trkpt><trkpt lat="43.7336848" lon="11.3257375"><ele>129.0</ele><time>2026-05-04T16:11:48.97Z</time></trkpt><trkpt lat="43.7335982" lon="11.325724"><ele>130.83333333333334</ele><time>2026-05-04T16:11:50.966Z</time></trkpt><trkpt lat="43.7335142" lon="11.3257275"><ele>132.66666666666666</ele><time>2026-05-04T16:11:52.965Z</time></trkpt><trkpt lat="43.733418" lon="11.3257333"><ele>134.5</ele><time>2026-05-04T16:11:54.965Z</time></trkpt><trkpt lat="43.7333537" lon="11.3257342"><ele>136.33333333333331</ele><time>2026-05-04T16:12:07.967Z</time></trkpt><trkpt lat="43.7334252" lon="11.3256957"><ele>138.16666666666666</ele><time>2026-05-04T16:12:11.965Z</time></trkpt><trkpt lat="43.7335033" lon="11.3257322"><ele>140.0</ele><time>2026-05-04T16:12:23.971Z</time></trkpt><trkpt lat="43.7334298" lon="11.3257327"><ele>140.0</ele><time>2026-05-04T16:12:46.967Z</time></trkpt><trkpt lat="43.733348" lon="11.3257597"><ele>140.0</ele><time>2026-05-04T16:12:49.967Z</time></trkpt><trkpt lat="43.7332522" lon="11.3257657"><ele>140.0</ele><time>2026-05-04T16:12:51.966Z</time></trkpt><trkpt lat="43.7331508" lon="11.3257633"><ele>140.0</ele><time>2026-05-04T16:12:53.966Z</time></trkpt><trkpt lat="43.7330472" lon="11.3257608"><ele>140.0</ele><time>2026-05-04T16:12:55.966Z</time></trkpt><trkpt lat="43.7329488" lon="11.3257652"><ele>140.0</ele><time>2026-05-04T16:12:57.965Z</time></trkpt><trkpt lat="43.7328578" lon="11.3257675"><ele>140.0</ele><time>2026-05-04T16:12:59.964Z</time></trkpt><trkpt lat="43.7327662" lon="11.3257742"><ele>140.0</ele><time>2026-05-04T16:13:01.965Z</time></trkpt><trkpt lat="43.7326623" lon="11.325787"><ele>140.0</ele><time>2026-05-04T16:13:03.966Z</time></trkpt><trkpt lat="43.7325592" lon="11.3258063"><ele>140.0</ele><time>2026-05-04T16:13:05.965Z</time></trkpt><trkpt lat="43.7324585" lon="11.3258217"><ele>141.33333333333331</ele><time>2026-05-04T16:13:07.966Z</time></trkpt><trkpt lat="43.7323663" lon="11.325839"><ele>142.66666666666666</ele><time>2026-05-04T16:13:09.968Z</time></trkpt><trkpt lat="43.7322732" lon="11.3258463"><ele>144.0</ele><time>2026-05-04T16:13:11.966Z</time></trkpt><trkpt lat="43.7321893" lon="11.3258425"><ele>145.33333333333334</ele><time>2026-05-04T16:13:13.965Z</time></trkpt><trkpt lat="43.732131" lon="11.3257777"><ele>146.66666666666669</ele><time>2026-05-04T16:13:18.966Z</time></trkpt><trkpt lat="43.7321247" lon="11.3256448"><ele>148.0</ele><time>2026-05-04T16:13:21.965Z</time></trkpt><trkpt lat="43.7321258" lon="11.325505"><ele>148.0</ele><time>2026-05-04T16:13:23.967Z</time></trkpt><trkpt lat="43.7321422" lon="11.3253353"><ele>148.0</ele><time>2026-05-04T16:13:25.969Z</time></trkpt><trkpt lat="43.7321572" lon="11.3252453"><ele>148.0</ele><time>2026-05-04T16:13:26.97Z</time></trkpt><trkpt lat="43.7321768" lon="11.325157"><ele>148.0</ele><time>2026-05-04T16:13:27.967Z</time></trkpt><trkpt lat="43.7321975" lon="11.3250693"><ele>148.0</ele><time>2026-05-04T16:13:28.966Z</time></trkpt><trkpt lat="43.7322163" lon="11.3249787"><ele>148.0</ele><time>2026-05-04T16:13:29.967Z</time></trkpt><trkpt lat="43.7322585" lon="11.324823"><ele>148.6</ele><time>2026-05-04T16:13:31.971Z</time></trkpt><trkpt lat="43.7323098" lon="11.3246955"><ele>149.20000000000002</ele><time>2026-05-04T16:13:33.965Z</time></trkpt><trkpt lat="43.7323502" lon="11.3245788"><ele>149.8</ele><time>2026-05-04T16:13:35.966Z</time></trkpt><trkpt lat="43.7323818" lon="11.3244563"><ele>150.4</ele><time>2026-05-04T16:13:37.971Z</time></trkpt><trkpt lat="43.7324175" lon="11.3243337"><ele>151.0</ele><time>2026-05-04T16:13:39.969Z</time></trkpt><trkpt lat="43.732452" lon="11.32421"><ele>151.0</ele><time>2026-05-04T16:13:41.968Z</time></trkpt><trkpt lat="43.732494" lon="11.3241002"><ele>151.0</ele><time>2026-05-04T16:13:43.968Z</time></trkpt><trkpt lat="43.7325348" lon="11.3239867"><ele>151.0</ele><time>2026-05-04T16:13:45.962Z</time></trkpt><trkpt lat="43.7325603" lon="11.3238537"><ele>151.0</ele><time>2026-05-04T16:13:47.967Z</time></trkpt><trkpt lat="43.7325943" lon="11.323713"><ele>151.0</ele><time>2026-05-04T16:13:49.967Z</time></trkpt><trkpt lat="43.7326282" lon="11.3235712"><ele>151.66666666666669</ele><time>2026-05-04T16:13:51.966Z</time></trkpt><trkpt lat="43.732665" lon="11.3234532"><ele>152.33333333333334</ele><time>2026-05-04T16:13:53.965Z</time></trkpt><trkpt lat="43.732671" lon="11.3233543"><ele>153.0</ele><time>2026-05-04T16:13:56.967Z</time></trkpt><trkpt lat="43.7326117" lon="11.3233095"><ele>153.66666666666666</ele><time>2026-05-04T16:13:58.962Z</time></trkpt><trkpt lat="43.7325265" lon="11.3233073"><ele>154.33333333333331</ele><time>2026-05-04T16:14:00.966Z</time></trkpt><trkpt lat="43.732433" lon="11.3233387"><ele>155.0</ele><time>2026-05-04T16:14:02.965Z</time></trkpt><trkpt lat="43.7323422" lon="11.3233742"><ele>155.0</ele><time>2026-05-04T16:14:04.963Z</time></trkpt><trkpt lat="43.7322413" lon="11.3233983"><ele>155.0</ele><time>2026-05-04T16:14:06.964Z</time></trkpt><trkpt lat="43.7321405" lon="11.3233897"><ele>155.0</ele><time>2026-05-04T16:14:08.965Z</time></trkpt><trkpt lat="43.732036" lon="11.3233393"><ele>155.0</ele><time>2026-05-04T16:14:10.964Z</time></trkpt><trkpt lat="43.731934" lon="11.3232438"><ele>155.0</ele><time>2026-05-04T16:14:12.966Z</time></trkpt><trkpt lat="43.7318285" lon="11.3231665"><ele>155.0</ele><time>2026-05-04T16:14:14.965Z</time></trkpt><trkpt lat="43.7317145" lon="11.32313"><ele>155.0</ele><time>2026-05-04T16:14:16.965Z</time></trkpt><trkpt lat="43.7315902" lon="11.3231437"><ele>155.0</ele><time>2026-05-04T16:14:18.965Z</time></trkpt><trkpt lat="43.7314703" lon="11.3231377"><ele>155.0</ele><time>2026-05-04T16:14:20.964Z</time></trkpt><trkpt lat="43.7313535" lon="11.3231143"><ele>155.0</ele><time>2026-05-04T16:14:22.965Z</time></trkpt><trkpt lat="43.7312448" lon="11.3230812"><ele>155.0</ele><time>2026-05-04T16:14:24.964Z</time></trkpt><trkpt lat="43.7311398" lon="11.3230403"><ele>155.0</ele><time>2026-05-04T16:14:26.964Z</time></trkpt><trkpt lat="43.7310455" lon="11.3230162"><ele>155.0</ele><time>2026-05-04T16:14:28.963Z</time></trkpt><trkpt lat="43.7309752" lon="11.3230232"><ele>155.0</ele><time>2026-05-04T16:14:30.964Z</time></trkpt><trkpt lat="43.730892" lon="11.3230092"><ele>154.33333333333331</ele><time>2026-05-04T16:14:32.966Z</time></trkpt><trkpt lat="43.7307713" lon="11.3229718"><ele>153.66666666666666</ele><time>2026-05-04T16:14:34.964Z</time></trkpt><trkpt lat="43.73071" lon="11.3229428"><ele>153.0</ele><time>2026-05-04T16:14:35.964Z</time></trkpt><trkpt lat="43.7306393" lon="11.3229192"><ele>152.33333333333334</ele><time>2026-05-04T16:14:36.964Z</time></trkpt><trkpt lat="43.7305663" lon="11.3228955"><ele>151.66666666666669</ele><time>2026-05-04T16:14:37.963Z</time></trkpt><trkpt lat="43.7304923" lon="11.3228783"><ele>151.0</ele><time>2026-05-04T16:14:38.963Z</time></trkpt><trkpt lat="43.7304147" lon="11.3228605"><ele>151.0</ele><time>2026-05-04T16:14:39.965Z</time></trkpt><trkpt lat="43.7303362" lon="11.3228402"><ele>151.0</ele><time>2026-05-04T16:14:40.964Z</time></trkpt><trkpt lat="43.730254" lon="11.3228135"><ele>151.0</ele><time>2026-05-04T16:14:41.964Z</time></trkpt><trkpt lat="43.730169" lon="11.3227873"><ele>151.0</ele><time>2026-05-04T16:14:42.966Z</time></trkpt><trkpt lat="43.7300848" lon="11.3227652"><ele>151.0</ele><time>2026-05-04T16:14:43.963Z</time></trkpt><trkpt lat="43.7299998" lon="11.3227325"><ele>151.0</ele><time>2026-05-04T16:14:44.964Z</time></trkpt><trkpt lat="43.7299142" lon="11.3226983"><ele>150.00000000000003</ele><time>2026-05-04T16:14:45.963Z</time></trkpt><trkpt lat="43.7298328" lon="11.3226653"><ele>149.0</ele><time>2026-05-04T16:14:46.965Z</time></trkpt><trkpt lat="43.7297593" lon="11.322639"><ele>148.0</ele><time>2026-05-04T16:14:47.968Z</time></trkpt><trkpt lat="43.7296902" lon="11.3226128"><ele>147.0</ele><time>2026-05-04T16:14:48.964Z</time></trkpt><trkpt lat="43.7296225" lon="11.3225917"><ele>146.0</ele><time>2026-05-04T16:14:49.965Z</time></trkpt><trkpt lat="43.7295545" lon="11.3225757"><ele>145.00000000000003</ele><time>2026-05-04T16:14:50.966Z</time></trkpt><trkpt lat="43.7294875" lon="11.322568"><ele>144.0</ele><time>2026-05-04T16:14:51.966Z</time></trkpt><trkpt lat="43.7294185" lon="11.322575"><ele>142.85714285714286</ele><time>2026-05-04T16:14:52.965Z</time></trkpt><trkpt lat="43.7293498" lon="11.322586"><ele>141.71428571428572</ele><time>2026-05-04T16:14:53.969Z</time></trkpt><trkpt lat="43.7292783" lon="11.322604"><ele>140.57142857142856</ele><time>2026-05-04T16:14:54.965Z</time></trkpt><trkpt lat="43.7292" lon="11.3226248"><ele>139.42857142857144</ele><time>2026-05-04T16:14:55.967Z</time></trkpt><trkpt lat="43.7291223" lon="11.3226507"><ele>138.28571428571428</ele><time>2026-05-04T16:14:56.966Z</time></trkpt><trkpt lat="43.7290523" lon="11.3226783"><ele>137.14285714285714</ele><time>2026-05-04T16:14:57.964Z</time></trkpt><trkpt lat="43.7289915" lon="11.3227068"><ele>136.0</ele><time>2026-05-04T16:14:58.965Z</time></trkpt><trkpt lat="43.7288977" lon="11.3227802"><ele>136.0</ele><time>2026-05-04T16:15:00.962Z</time></trkpt><trkpt lat="43.7288797" lon="11.322889"><ele>136.0</ele><time>2026-05-04T16:15:02.963Z</time></trkpt><trkpt lat="43.7289287" lon="11.3230097"><ele>136.0</ele><time>2026-05-04T16:15:04.967Z</time></trkpt><trkpt lat="43.7289658" lon="11.3231588"><ele>136.0</ele><time>2026-05-04T16:15:06.966Z</time></trkpt><trkpt lat="43.7289938" lon="11.3233157"><ele>136.0</ele><time>2026-05-04T16:15:08.964Z</time></trkpt><trkpt lat="43.729004" lon="11.3234823"><ele>136.25</ele><time>2026-05-04T16:15:10.964Z</time></trkpt><trkpt lat="43.7290115" lon="11.323643"><ele>136.5</ele><time>2026-05-04T16:15:12.964Z</time></trkpt><trkpt lat="43.7290272" lon="11.3237952"><ele>136.75</ele><time>2026-05-04T16:15:14.964Z</time></trkpt><trkpt lat="43.729042" lon="11.3239555"><ele>137.0</ele><time>2026-05-04T16:15:16.967Z</time></trkpt><trkpt lat="43.7290595" lon="11.3241138"><ele>137.0</ele><time>2026-05-04T16:15:18.964Z</time></trkpt><trkpt lat="43.7290673" lon="11.3242612"><ele>137.0</ele><time>2026-05-04T16:15:20.966Z</time></trkpt><trkpt lat="43.7290463" lon="11.3244043"><ele>137.0</ele><time>2026-05-04T16:15:22.964Z</time></trkpt><trkpt lat="43.7289853" lon="11.3245527"><ele>137.0</ele><time>2026-05-04T16:15:24.964Z</time></trkpt><trkpt lat="43.728952" lon="11.3246388"><ele>137.0</ele><time>2026-05-04T16:15:25.965Z</time></trkpt><trkpt lat="43.7289185" lon="11.3247252"><ele>136.57142857142858</ele><time>2026-05-04T16:15:26.963Z</time></trkpt><trkpt lat="43.728882" lon="11.3248023"><ele>136.14285714285714</ele><time>2026-05-04T16:15:27.962Z</time></trkpt><trkpt lat="43.7288352" lon="11.324876"><ele>135.71428571428572</ele><time>2026-05-04T16:15:28.963Z</time></trkpt><trkpt lat="43.728782" lon="11.32495"><ele>135.28571428571428</ele><time>2026-05-04T16:15:29.963Z</time></trkpt><trkpt lat="43.7287273" lon="11.3250228"><ele>134.85714285714286</ele><time>2026-05-04T16:15:30.964Z</time></trkpt><trkpt lat="43.7286672" lon="11.3250997"><ele>134.42857142857144</ele><time>2026-05-04T16:15:31.963Z</time></trkpt><trkpt lat="43.7286148" lon="11.3251752"><ele>134.0</ele><time>2026-05-04T16:15:32.963Z</time></trkpt><trkpt lat="43.728566" lon="11.3252317"><ele>133.2</ele><time>2026-05-04T16:15:33.963Z</time></trkpt><trkpt lat="43.728476" lon="11.3253213"><ele>132.4</ele><time>2026-05-04T16:15:35.963Z</time></trkpt><trkpt lat="43.7283753" lon="11.3253047"><ele>131.6</ele><time>2026-05-04T16:15:37.964Z</time></trkpt><trkpt lat="43.7282887" lon="11.3252405"><ele>130.8</ele><time>2026-05-04T16:15:39.965Z</time></trkpt><trkpt lat="43.7282185" lon="11.3251727"><ele>130.0</ele><time>2026-05-04T16:15:52.963Z</time></trkpt><trkpt lat="43.7281332" lon="11.3250723"><ele>130.00000000000003</ele><time>2026-05-04T16:15:54.965Z</time></trkpt><trkpt lat="43.7280903" lon="11.3249995"><ele>130.0</ele><time>2026-05-04T16:15:55.962Z</time></trkpt><trkpt lat="43.7280532" lon="11.324914"><ele>130.0</ele><time>2026-05-04T16:15:56.963Z</time></trkpt><trkpt lat="43.7280167" lon="11.3248367"><ele>130.0</ele><time>2026-05-04T16:15:57.963Z</time></trkpt><trkpt lat="43.7279745" lon="11.3247585"><ele>130.0</ele><time>2026-05-04T16:15:58.964Z</time></trkpt><trkpt lat="43.7279332" lon="11.3246782"><ele>130.00000000000003</ele><time>2026-05-04T16:15:59.962Z</time></trkpt><trkpt lat="43.7278885" lon="11.3245997"><ele>130.0</ele><time>2026-05-04T16:16:00.963Z</time></trkpt><trkpt lat="43.7278447" lon="11.3245207"><ele>130.0</ele><time>2026-05-04T16:16:01.963Z</time></trkpt><trkpt lat="43.7277955" lon="11.32444"><ele>130.0</ele><time>2026-05-04T16:16:02.964Z</time></trkpt><trkpt lat="43.7277447" lon="11.3243625"><ele>130.0</ele><time>2026-05-04T16:16:03.962Z</time></trkpt><trkpt lat="43.7276945" lon="11.3242892"><ele>130.0</ele><time>2026-05-04T16:16:04.963Z</time></trkpt><trkpt lat="43.7276425" lon="11.3242142"><ele>130.0</ele><time>2026-05-04T16:16:05.966Z</time></trkpt><trkpt lat="43.7275882" lon="11.3241362"><ele>130.0</ele><time>2026-05-04T16:16:06.964Z</time></trkpt><trkpt lat="43.7275333" lon="11.3240518"><ele>129.16666666666669</ele><time>2026-05-04T16:16:07.965Z</time></trkpt><trkpt lat="43.7274768" lon="11.3239638"><ele>128.33333333333334</ele><time>2026-05-04T16:16:08.961Z</time></trkpt><trkpt lat="43.7274238" lon="11.3238743"><ele>127.5</ele><time>2026-05-04T16:16:09.963Z</time></trkpt><trkpt lat="43.7273728" lon="11.323779"><ele>126.66666666666666</ele><time>2026-05-04T16:16:10.964Z</time></trkpt><trkpt lat="43.727324" lon="11.3236937"><ele>125.83333333333333</ele><time>2026-05-04T16:16:11.964Z</time></trkpt><trkpt lat="43.7272728" lon="11.3236113"><ele>125.0</ele><time>2026-05-04T16:16:12.965Z</time></trkpt><trkpt lat="43.727223" lon="11.3235302"><ele>124.4</ele><time>2026-05-04T16:16:13.963Z</time></trkpt><trkpt lat="43.7271708" lon="11.3234548"><ele>123.8</ele><time>2026-05-04T16:16:14.964Z</time></trkpt><trkpt lat="43.7271238" lon="11.3233882"><ele>123.19999999999999</ele><time>2026-05-04T16:16:15.963Z</time></trkpt><trkpt lat="43.7270365" lon="11.3232698"><ele>122.6</ele><time>2026-05-04T16:16:17.963Z</time></trkpt><trkpt lat="43.7269775" lon="11.323128"><ele>122.0</ele><time>2026-05-04T16:16:19.964Z</time></trkpt><trkpt lat="43.726988" lon="11.323035"><ele>121.8</ele><time>2026-05-04T16:16:20.963Z</time></trkpt><trkpt lat="43.7270098" lon="11.3229475"><ele>121.6</ele><time>2026-05-04T16:16:21.962Z</time></trkpt><trkpt lat="43.7270552" lon="11.3228025"><ele>121.39999999999999</ele><time>2026-05-04T16:16:23.964Z</time></trkpt><trkpt lat="43.7270853" lon="11.322655"><ele>121.19999999999999</ele><time>2026-05-04T16:16:25.962Z</time></trkpt><trkpt lat="43.7270967" lon="11.3225692"><ele>121.0</ele><time>2026-05-04T16:16:26.965Z</time></trkpt><trkpt lat="43.7271278" lon="11.3224172"><ele>121.00000000000001</ele><time>2026-05-04T16:16:28.962Z</time></trkpt><trkpt lat="43.7271757" lon="11.3222622"><ele>121.0</ele><time>2026-05-04T16:16:30.963Z</time></trkpt><trkpt lat="43.7272088" lon="11.3221862"><ele>121.0</ele><time>2026-05-04T16:16:31.963Z</time></trkpt><trkpt lat="43.7272468" lon="11.3221"><ele>121.0</ele><time>2026-05-04T16:16:32.964Z</time></trkpt><trkpt lat="43.7272855" lon="11.3219998"><ele>121.00000000000001</ele><time>2026-05-04T16:16:33.962Z</time></trkpt><trkpt lat="43.727326" lon="11.3219048"><ele>121.0</ele><time>2026-05-04T16:16:34.964Z</time></trkpt><trkpt lat="43.7273608" lon="11.3218067"><ele>120.28571428571428</ele><time>2026-05-04T16:16:35.963Z</time></trkpt><trkpt lat="43.7273943" lon="11.3217178"><ele>119.57142857142856</ele><time>2026-05-04T16:16:36.964Z</time></trkpt><trkpt lat="43.727426" lon="11.3216338"><ele>118.85714285714286</ele><time>2026-05-04T16:16:37.964Z</time></trkpt><trkpt lat="43.7274613" lon="11.3215463"><ele>118.14285714285714</ele><time>2026-05-04T16:16:38.965Z</time></trkpt><trkpt lat="43.7274937" lon="11.3214713"><ele>117.42857142857143</ele><time>2026-05-04T16:16:39.965Z</time></trkpt><trkpt lat="43.7275493" lon="11.3213683"><ele>116.71428571428572</ele><time>2026-05-04T16:16:41.961Z</time></trkpt><trkpt lat="43.7275895" lon="11.321293"><ele>116.00000000000001</ele><time>2026-05-04T16:16:45.962Z</time></trkpt><trkpt lat="43.7276377" lon="11.3211733"><ele>115.83333333333333</ele><time>2026-05-04T16:16:48.964Z</time></trkpt><trkpt lat="43.727686" lon="11.321033"><ele>115.66666666666666</ele><time>2026-05-04T16:16:50.964Z</time></trkpt><trkpt lat="43.727712" lon="11.320951"><ele>115.5</ele><time>2026-05-04T16:16:51.964Z</time></trkpt><trkpt lat="43.7277395" lon="11.320867"><ele>115.33333333333334</ele><time>2026-05-04T16:16:52.965Z</time></trkpt><trkpt lat="43.7277705" lon="11.3207908"><ele>115.16666666666667</ele><time>2026-05-04T16:16:53.963Z</time></trkpt><trkpt lat="43.7278417" lon="11.3206517"><ele>115.0</ele><time>2026-05-04T16:16:55.962Z</time></trkpt><trkpt lat="43.7279185" lon="11.3205113"><ele>114.50000000000001</ele><time>2026-05-04T16:16:57.964Z</time></trkpt><trkpt lat="43.7279555" lon="11.3204343"><ele>114.0</ele><time>2026-05-04T16:16:58.964Z</time></trkpt><trkpt lat="43.7279963" lon="11.3203577"><ele>113.5</ele><time>2026-05-04T16:16:59.964Z</time></trkpt><trkpt lat="43.7280423" lon="11.3202745"><ele>113.0</ele><time>2026-05-04T16:17:00.965Z</time></trkpt><trkpt lat="43.7280915" lon="11.3201868"><ele>112.50000000000001</ele><time>2026-05-04T16:17:01.964Z</time></trkpt><trkpt lat="43.7281413" lon="11.3200985"><ele>112.0</ele><time>2026-05-04T16:17:02.967Z</time></trkpt><trkpt lat="43.7281942" lon="11.3200053"><ele>112.0</ele><time>2026-05-04T16:17:03.963Z</time></trkpt><trkpt lat="43.7282473" lon="11.3199098"><ele>111.99999999999999</ele><time>2026-05-04T16:17:04.964Z</time></trkpt><trkpt lat="43.7283045" lon="11.3198085"><ele>111.99999999999999</ele><time>2026-05-04T16:17:05.964Z</time></trkpt><trkpt lat="43.7283597" lon="11.3197082"><ele>112.0</ele><time>2026-05-04T16:17:06.966Z</time></trkpt><trkpt lat="43.7284165" lon="11.3196055"><ele>112.0</ele><time>2026-05-04T16:17:07.966Z</time></trkpt><trkpt lat="43.7284723" lon="11.3194935"><ele>112.0</ele><time>2026-05-04T16:17:08.964Z</time></trkpt><trkpt lat="43.7285282" lon="11.319383"><ele>111.99999999999999</ele><time>2026-05-04T16:17:09.965Z</time></trkpt><trkpt lat="43.7285865" lon="11.3192772"><ele>111.99999999999999</ele><time>2026-05-04T16:17:10.963Z</time></trkpt><trkpt lat="43.7286378" lon="11.319174"><ele>112.0</ele><time>2026-05-04T16:17:11.965Z</time></trkpt><trkpt lat="43.7286887" lon="11.3190725"><ele>112.0</ele><time>2026-05-04T16:17:12.964Z</time></trkpt><trkpt lat="43.7287372" lon="11.3189673"><ele>111.33333333333334</ele><time>2026-05-04T16:17:13.963Z</time></trkpt><trkpt lat="43.728786" lon="11.3188618"><ele>110.66666666666667</ele><time>2026-05-04T16:17:14.966Z</time></trkpt><trkpt lat="43.728838" lon="11.31876"><ele>110.0</ele><time>2026-05-04T16:17:15.966Z</time></trkpt><trkpt lat="43.7288875" lon="11.3186585"><ele>109.33333333333334</ele><time>2026-05-04T16:17:16.964Z</time></trkpt><trkpt lat="43.728938" lon="11.3185572"><ele>108.66666666666667</ele><time>2026-05-04T16:17:17.966Z</time></trkpt><trkpt lat="43.7289895" lon="11.3184573"><ele>108.0</ele><time>2026-05-04T16:17:18.964Z</time></trkpt><trkpt lat="43.7290428" lon="11.3183543"><ele>108.0</ele><time>2026-05-04T16:17:19.964Z</time></trkpt><trkpt lat="43.7290925" lon="11.318255"><ele>108.00000000000001</ele><time>2026-05-04T16:17:20.964Z</time></trkpt><trkpt lat="43.7291458" lon="11.3181517"><ele>108.00000000000001</ele><time>2026-05-04T16:17:21.965Z</time></trkpt><trkpt lat="43.7292022" lon="11.31805"><ele>108.0</ele><time>2026-05-04T16:17:22.965Z</time></trkpt><trkpt lat="43.7292542" lon="11.3179472"><ele>108.0</ele><time>2026-05-04T16:17:23.963Z</time></trkpt><trkpt lat="43.7293025" lon="11.3178405"><ele>108.0</ele><time>2026-05-04T16:17:24.965Z</time></trkpt><trkpt lat="43.7293468" lon="11.317736"><ele>108.00000000000001</ele><time>2026-05-04T16:17:25.963Z</time></trkpt><trkpt lat="43.7293908" lon="11.3176248"><ele>108.00000000000001</ele><time>2026-05-04T16:17:26.963Z</time></trkpt><trkpt lat="43.7294327" lon="11.3175057"><ele>108.0</ele><time>2026-05-04T16:17:27.965Z</time></trkpt><trkpt lat="43.7294753" lon="11.317385"><ele>108.0</ele><time>2026-05-04T16:17:28.963Z</time></trkpt><trkpt lat="43.7295173" lon="11.3172613"><ele>107.4</ele><time>2026-05-04T16:17:29.966Z</time></trkpt><trkpt lat="43.7295603" lon="11.3171358"><ele>106.80000000000001</ele><time>2026-05-04T16:17:30.964Z</time></trkpt><trkpt lat="43.729602" lon="11.3170087"><ele>106.2</ele><time>2026-05-04T16:17:31.965Z</time></trkpt><trkpt lat="43.729646" lon="11.3168832"><ele>105.6</ele><time>2026-05-04T16:17:32.968Z</time></trkpt><trkpt lat="43.7296905" lon="11.3167577"><ele>105.0</ele><time>2026-05-04T16:17:33.964Z</time></trkpt><trkpt lat="43.7297355" lon="11.3166308"><ele>105.0</ele><time>2026-05-04T16:17:34.965Z</time></trkpt><trkpt lat="43.7297783" lon="11.3165023"><ele>105.0</ele><time>2026-05-04T16:17:35.964Z</time></trkpt><trkpt lat="43.7298218" lon="11.3163742"><ele>105.0</ele><time>2026-05-04T16:17:36.965Z</time></trkpt><trkpt lat="43.7298672" lon="11.3162465"><ele>105.0</ele><time>2026-05-04T16:17:37.964Z</time></trkpt><trkpt lat="43.7299148" lon="11.3161128"><ele>105.0</ele><time>2026-05-04T16:17:38.963Z</time></trkpt><trkpt lat="43.7299643" lon="11.3159642"><ele>104.25</ele><time>2026-05-04T16:17:39.963Z</time></trkpt><trkpt lat="43.7300213" lon="11.3158"><ele>103.5</ele><time>2026-05-04T16:17:40.966Z</time></trkpt><trkpt lat="43.7300838" lon="11.315624"><ele>102.75</ele><time>2026-05-04T16:17:41.964Z</time></trkpt><trkpt lat="43.7301458" lon="11.3154427"><ele>102.0</ele><time>2026-05-04T16:17:42.964Z</time></trkpt><trkpt lat="43.7302082" lon="11.3152565"><ele>101.66666666666666</ele><time>2026-05-04T16:17:43.963Z</time></trkpt><trkpt lat="43.7302693" lon="11.3150613"><ele>101.33333333333333</ele><time>2026-05-04T16:17:44.964Z</time></trkpt><trkpt lat="43.7303332" lon="11.3148733"><ele>101.0</ele><time>2026-05-04T16:17:45.964Z</time></trkpt><trkpt lat="43.7303925" lon="11.3146878"><ele>101.0</ele><time>2026-05-04T16:17:46.964Z</time></trkpt><trkpt lat="43.7304583" lon="11.3144965"><ele>101.0</ele><time>2026-05-04T16:17:47.963Z</time></trkpt><trkpt lat="43.7305192" lon="11.3143143"><ele>101.0</ele><time>2026-05-04T16:17:48.964Z</time></trkpt><trkpt lat="43.730579" lon="11.3141273"><ele>101.0</ele><time>2026-05-04T16:17:49.964Z</time></trkpt><trkpt lat="43.7306275" lon="11.313942"><ele>100.75</ele><time>2026-05-04T16:17:50.966Z</time></trkpt><trkpt lat="43.7306628" lon="11.3137437"><ele>100.5</ele><time>2026-05-04T16:17:51.963Z</time></trkpt><trkpt lat="43.73069" lon="11.313547"><ele>100.25</ele><time>2026-05-04T16:17:52.964Z</time></trkpt><trkpt lat="43.7307118" lon="11.3133515"><ele>100.0</ele><time>2026-05-04T16:17:53.963Z</time></trkpt><trkpt lat="43.7307247" lon="11.313157"><ele>100.0</ele><time>2026-05-04T16:17:54.964Z</time></trkpt><trkpt lat="43.730735" lon="11.3129617"><ele>100.0</ele><time>2026-05-04T16:17:55.964Z</time></trkpt><trkpt lat="43.7307462" lon="11.3127728"><ele>100.0</ele><time>2026-05-04T16:17:56.963Z</time></trkpt><trkpt lat="43.7307662" lon="11.312585"><ele>100.0</ele><time>2026-05-04T16:17:57.962Z</time></trkpt><trkpt lat="43.7307937" lon="11.3124137"><ele>100.25</ele><time>2026-05-04T16:17:58.963Z</time></trkpt><trkpt lat="43.7308357" lon="11.3122397"><ele>100.5</ele><time>2026-05-04T16:17:59.963Z</time></trkpt><trkpt lat="43.7308967" lon="11.3120553"><ele>100.75</ele><time>2026-05-04T16:18:00.965Z</time></trkpt><trkpt lat="43.7309622" lon="11.3118647"><ele>101.0</ele><time>2026-05-04T16:18:01.963Z</time></trkpt><trkpt lat="43.7310353" lon="11.3116713"><ele>101.0</ele><time>2026-05-04T16:18:02.963Z</time></trkpt><trkpt lat="43.731121" lon="11.3114768"><ele>101.0</ele><time>2026-05-04T16:18:03.961Z</time></trkpt><trkpt lat="43.7312077" lon="11.3112715"><ele>101.0</ele><time>2026-05-04T16:18:04.964Z</time></trkpt><trkpt lat="43.7312913" lon="11.3110658"><ele>100.5</ele><time>2026-05-04T16:18:05.963Z</time></trkpt><trkpt lat="43.7313717" lon="11.310877"><ele>100.0</ele><time>2026-05-04T16:18:06.963Z</time></trkpt><trkpt lat="43.731444" lon="11.3106987"><ele>99.5</ele><time>2026-05-04T16:18:07.965Z</time></trkpt><trkpt lat="43.7315065" lon="11.3105318"><ele>99.0</ele><time>2026-05-04T16:18:08.967Z</time></trkpt><trkpt lat="43.7315633" lon="11.3103728"><ele>98.0</ele><time>2026-05-04T16:18:09.963Z</time></trkpt><trkpt lat="43.7316232" lon="11.3102172"><ele>97.0</ele><time>2026-05-04T16:18:10.962Z</time></trkpt><trkpt lat="43.7316772" lon="11.3100685"><ele>96.0</ele><time>2026-05-04T16:18:11.963Z</time></trkpt><trkpt lat="43.7317233" lon="11.3099253"><ele>95.0</ele><time>2026-05-04T16:18:12.964Z</time></trkpt><trkpt lat="43.7317765" lon="11.3097992"><ele>94.8</ele><time>2026-05-04T16:18:13.965Z</time></trkpt><trkpt lat="43.7318257" lon="11.3096837"><ele>94.6</ele><time>2026-05-04T16:18:14.964Z</time></trkpt><trkpt lat="43.7318772" lon="11.3095727"><ele>94.4</ele><time>2026-05-04T16:18:15.965Z</time></trkpt><trkpt lat="43.7319278" lon="11.3094683"><ele>94.2</ele><time>2026-05-04T16:18:16.965Z</time></trkpt><trkpt lat="43.7319833" lon="11.3093768"><ele>94.0</ele><time>2026-05-04T16:18:17.963Z</time></trkpt><trkpt lat="43.732045" lon="11.3092975"><ele>94.2</ele><time>2026-05-04T16:18:18.964Z</time></trkpt><trkpt lat="43.7321222" lon="11.3092412"><ele>94.4</ele><time>2026-05-04T16:18:19.962Z</time></trkpt><trkpt lat="43.7322033" lon="11.3091735"><ele>94.6</ele><time>2026-05-04T16:18:20.965Z</time></trkpt><trkpt lat="43.7322793" lon="11.3090872"><ele>94.8</ele><time>2026-05-04T16:18:21.964Z</time></trkpt><trkpt lat="43.7323483" lon="11.3089888"><ele>95.0</ele><time>2026-05-04T16:18:22.964Z</time></trkpt><trkpt lat="43.7324178" lon="11.3088832"><ele>95.0</ele><time>2026-05-04T16:18:23.964Z</time></trkpt><trkpt lat="43.7324793" lon="11.3087738"><ele>95.0</ele><time>2026-05-04T16:18:24.964Z</time></trkpt><trkpt lat="43.7325312" lon="11.308659"><ele>95.0</ele><time>2026-05-04T16:18:25.968Z</time></trkpt><trkpt lat="43.7325692" lon="11.3085512"><ele>95.0</ele><time>2026-05-04T16:18:26.964Z</time></trkpt><trkpt lat="43.7325995" lon="11.3084483"><ele>95.0</ele><time>2026-05-04T16:18:27.964Z</time></trkpt><trkpt lat="43.732616" lon="11.3083588"><ele>95.0</ele><time>2026-05-04T16:18:28.964Z</time></trkpt><trkpt lat="43.732644" lon="11.308212"><ele>95.0</ele><time>2026-05-04T16:18:30.963Z</time></trkpt><trkpt lat="43.732716" lon="11.3081327"><ele>95.0</ele><time>2026-05-04T16:18:32.962Z</time></trkpt><trkpt lat="43.7328328" lon="11.3081633"><ele>95.0</ele><time>2026-05-04T16:18:34.962Z</time></trkpt><trkpt lat="43.732909" lon="11.308196"><ele>95.0</ele><time>2026-05-04T16:18:35.961Z</time></trkpt><trkpt lat="43.7329845" lon="11.3082385"><ele>95.0</ele><time>2026-05-04T16:18:36.962Z</time></trkpt><trkpt lat="43.7330627" lon="11.3082787"><ele>96.2</ele><time>2026-05-04T16:18:37.96Z</time></trkpt><trkpt lat="43.7331482" lon="11.3083577"><ele>97.4</ele><time>2026-05-04T16:18:38.962Z</time></trkpt><trkpt lat="43.7332385" lon="11.308389"><ele>98.6</ele><time>2026-05-04T16:18:39.963Z</time></trkpt><trkpt lat="43.733329" lon="11.3083905"><ele>99.8</ele><time>2026-05-04T16:18:40.962Z</time></trkpt><trkpt lat="43.7334062" lon="11.3083283"><ele>101.0</ele><time>2026-05-04T16:18:41.963Z</time></trkpt><trkpt lat="43.7334773" lon="11.3082382"><ele>101.0</ele><time>2026-05-04T16:18:42.964Z</time></trkpt><trkpt lat="43.7335468" lon="11.3081407"><ele>101.0</ele><time>2026-05-04T16:18:43.961Z</time></trkpt><trkpt lat="43.7336227" lon="11.3080465"><ele>101.0</ele><time>2026-05-04T16:18:44.964Z</time></trkpt><trkpt lat="43.7336983" lon="11.3079548"><ele>101.0</ele><time>2026-05-04T16:18:45.963Z</time></trkpt><trkpt lat="43.7337693" lon="11.3078638"><ele>101.0</ele><time>2026-05-04T16:18:46.962Z</time></trkpt><trkpt lat="43.7338383" lon="11.307769"><ele>102.6</ele><time>2026-05-04T16:18:47.965Z</time></trkpt><trkpt lat="43.7338917" lon="11.3076652"><ele>104.19999999999999</ele><time>2026-05-04T16:18:48.962Z</time></trkpt><trkpt lat="43.7339232" lon="11.3075473"><ele>105.80000000000001</ele><time>2026-05-04T16:18:49.97Z</time></trkpt><trkpt lat="43.7339373" lon="11.307428"><ele>107.4</ele><time>2026-05-04T16:18:50.964Z</time></trkpt><trkpt lat="43.7339417" lon="11.3073025"><ele>109.0</ele><time>2026-05-04T16:18:51.962Z</time></trkpt><trkpt lat="43.7339328" lon="11.3071722"><ele>109.4</ele><time>2026-05-04T16:18:52.962Z</time></trkpt><trkpt lat="43.7339193" lon="11.3070408"><ele>109.80000000000001</ele><time>2026-05-04T16:18:53.963Z</time></trkpt><trkpt lat="43.7339047" lon="11.3069087"><ele>110.19999999999999</ele><time>2026-05-04T16:18:54.963Z</time></trkpt><trkpt lat="43.7338878" lon="11.3067787"><ele>110.6</ele><time>2026-05-04T16:18:55.962Z</time></trkpt><trkpt lat="43.7338745" lon="11.306648"><ele>111.0</ele><time>2026-05-04T16:18:56.964Z</time></trkpt><trkpt lat="43.7338655" lon="11.3065215"><ele>111.0</ele><time>2026-05-04T16:18:57.962Z</time></trkpt><trkpt lat="43.7338562" lon="11.3063923"><ele>111.0</ele><time>2026-05-04T16:18:58.964Z</time></trkpt><trkpt lat="43.7338482" lon="11.3062585"><ele>111.0</ele><time>2026-05-04T16:18:59.963Z</time></trkpt><trkpt lat="43.733842" lon="11.306119"><ele>111.0</ele><time>2026-05-04T16:19:00.966Z</time></trkpt><trkpt lat="43.7338367" lon="11.305979"><ele>111.0</ele><time>2026-05-04T16:19:01.962Z</time></trkpt><trkpt lat="43.7338328" lon="11.3058403"><ele>111.0</ele><time>2026-05-04T16:19:02.963Z</time></trkpt><trkpt lat="43.7338292" lon="11.3057063"><ele>111.0</ele><time>2026-05-04T16:19:03.966Z</time></trkpt><trkpt lat="43.7338213" lon="11.305574"><ele>111.0</ele><time>2026-05-04T16:19:04.964Z</time></trkpt><trkpt lat="43.7338152" lon="11.305444"><ele>111.0</ele><time>2026-05-04T16:19:05.967Z</time></trkpt><trkpt lat="43.7338062" lon="11.3053222"><ele>111.0</ele><time>2026-05-04T16:19:06.963Z</time></trkpt><trkpt lat="43.7337903" lon="11.3052127"><ele>110.33333333333333</ele><time>2026-05-04T16:19:07.963Z</time></trkpt><trkpt lat="43.733757" lon="11.3051107"><ele>109.66666666666666</ele><time>2026-05-04T16:19:08.964Z</time></trkpt><trkpt lat="43.7337133" lon="11.30501"><ele>109.0</ele><time>2026-05-04T16:19:09.962Z</time></trkpt><trkpt lat="43.7336627" lon="11.3049088"><ele>108.33333333333333</ele><time>2026-05-04T16:19:10.965Z</time></trkpt><trkpt lat="43.733615" lon="11.3048037"><ele>107.66666666666666</ele><time>2026-05-04T16:19:11.964Z</time></trkpt><trkpt lat="43.7335783" lon="11.3046897"><ele>107.0</ele><time>2026-05-04T16:19:12.962Z</time></trkpt><trkpt lat="43.733555" lon="11.3045695"><ele>106.99999999999999</ele><time>2026-05-04T16:19:13.963Z</time></trkpt><trkpt lat="43.7335607" lon="11.3044475"><ele>107.0</ele><time>2026-05-04T16:19:14.964Z</time></trkpt><trkpt lat="43.7335705" lon="11.3043195"><ele>107.0</ele><time>2026-05-04T16:19:15.963Z</time></trkpt><trkpt lat="43.7335788" lon="11.3041957"><ele>107.0</ele><time>2026-05-04T16:19:16.962Z</time></trkpt><trkpt lat="43.7335862" lon="11.3040742"><ele>106.99999999999999</ele><time>2026-05-04T16:19:17.962Z</time></trkpt><trkpt lat="43.7335915" lon="11.30395"><ele>107.0</ele><time>2026-05-04T16:19:18.963Z</time></trkpt><trkpt lat="43.7335983" lon="11.3038257"><ele>107.0</ele><time>2026-05-04T16:19:19.965Z</time></trkpt><trkpt lat="43.7336065" lon="11.303701"><ele>106.99999999999999</ele><time>2026-05-04T16:19:20.966Z</time></trkpt><trkpt lat="43.7336128" lon="11.3035727"><ele>106.99999999999999</ele><time>2026-05-04T16:19:21.962Z</time></trkpt><trkpt lat="43.7336175" lon="11.3034365"><ele>107.0</ele><time>2026-05-04T16:19:22.967Z</time></trkpt><trkpt lat="43.733623" lon="11.3032958"><ele>107.0</ele><time>2026-05-04T16:19:23.961Z</time></trkpt><trkpt lat="43.7336318" lon="11.303154"><ele>107.6</ele><time>2026-05-04T16:19:24.963Z</time></trkpt><trkpt lat="43.733645" lon="11.3030077"><ele>108.19999999999999</ele><time>2026-05-04T16:19:25.962Z</time></trkpt><trkpt lat="43.7336622" lon="11.3028515"><ele>108.8</ele><time>2026-05-04T16:19:26.962Z</time></trkpt><trkpt lat="43.7336843" lon="11.302695"><ele>109.4</ele><time>2026-05-04T16:19:27.963Z</time></trkpt><trkpt lat="43.733707" lon="11.3025452"><ele>110.0</ele><time>2026-05-04T16:19:28.962Z</time></trkpt><trkpt lat="43.7337285" lon="11.302401"><ele>110.0</ele><time>2026-05-04T16:19:29.963Z</time></trkpt><trkpt lat="43.7337478" lon="11.3022582"><ele>110.0</ele><time>2026-05-04T16:19:30.963Z</time></trkpt><trkpt lat="43.7337677" lon="11.302121"><ele>110.0</ele><time>2026-05-04T16:19:31.963Z</time></trkpt><trkpt lat="43.7337903" lon="11.3019917"><ele>110.0</ele><time>2026-05-04T16:19:32.963Z</time></trkpt><trkpt lat="43.7338132" lon="11.3018668"><ele>110.0</ele><time>2026-05-04T16:19:33.965Z</time></trkpt><trkpt lat="43.7338313" lon="11.3017428"><ele>109.66666666666666</ele><time>2026-05-04T16:19:34.964Z</time></trkpt><trkpt lat="43.7338547" lon="11.3016178"><ele>109.33333333333333</ele><time>2026-05-04T16:19:35.963Z</time></trkpt><trkpt lat="43.7338812" lon="11.3014987"><ele>109.0</ele><time>2026-05-04T16:19:36.967Z</time></trkpt><trkpt lat="43.7339085" lon="11.3013868"><ele>108.66666666666666</ele><time>2026-05-04T16:19:37.961Z</time></trkpt><trkpt lat="43.7339463" lon="11.301282"><ele>108.33333333333333</ele><time>2026-05-04T16:19:38.964Z</time></trkpt><trkpt lat="43.7339933" lon="11.3011848"><ele>108.0</ele><time>2026-05-04T16:19:39.963Z</time></trkpt><trkpt lat="43.7340545" lon="11.3010922"><ele>108.0</ele><time>2026-05-04T16:19:40.962Z</time></trkpt><trkpt lat="43.7341345" lon="11.3010057"><ele>108.0</ele><time>2026-05-04T16:19:41.964Z</time></trkpt><trkpt lat="43.7342092" lon="11.3009253"><ele>108.0</ele><time>2026-05-04T16:19:42.962Z</time></trkpt><trkpt lat="43.7342852" lon="11.3008615"><ele>108.0</ele><time>2026-05-04T16:19:43.963Z</time></trkpt><trkpt lat="43.7343517" lon="11.3008205"><ele>108.0</ele><time>2026-05-04T16:19:44.963Z</time></trkpt><trkpt lat="43.7344158" lon="11.3008115"><ele>108.0</ele><time>2026-05-04T16:19:45.963Z</time></trkpt><trkpt lat="43.7345083" lon="11.3008885"><ele>109.33333333333333</ele><time>2026-05-04T16:19:47.962Z</time></trkpt><trkpt lat="43.7345537" lon="11.3010475"><ele>110.66666666666666</ele><time>2026-05-04T16:19:49.964Z</time></trkpt><trkpt lat="43.7345648" lon="11.3011365"><ele>112.0</ele><time>2026-05-04T16:19:50.963Z</time></trkpt><trkpt lat="43.7345745" lon="11.3012317"><ele>113.33333333333333</ele><time>2026-05-04T16:19:51.964Z</time></trkpt><trkpt lat="43.734587" lon="11.3013272"><ele>114.66666666666666</ele><time>2026-05-04T16:19:52.963Z</time></trkpt><trkpt lat="43.7346007" lon="11.3014153"><ele>116.0</ele><time>2026-05-04T16:19:53.962Z</time></trkpt><trkpt lat="43.7346287" lon="11.3015693"><ele>117.49999999999999</ele><time>2026-05-04T16:19:55.962Z</time></trkpt><trkpt lat="43.7346527" lon="11.3016687"><ele>119.0</ele><time>2026-05-04T16:19:57.963Z</time></trkpt><trkpt lat="43.73468" lon="11.3017493"><ele>120.5</ele><time>2026-05-04T16:19:59.962Z</time></trkpt><trkpt lat="43.7347618" lon="11.3018025"><ele>122.0</ele><time>2026-05-04T16:20:02.965Z</time></trkpt><trkpt lat="43.7348578" lon="11.3018065"><ele>123.49999999999999</ele><time>2026-05-04T16:20:05.963Z</time></trkpt><trkpt lat="43.7349287" lon="11.3018213"><ele>125.0</ele><time>2026-05-04T16:20:07.963Z</time></trkpt><trkpt lat="43.7350032" lon="11.301846"><ele>125.0</ele><time>2026-05-04T16:20:09.963Z</time></trkpt><trkpt lat="43.7350668" lon="11.3018757"><ele>125.0</ele><time>2026-05-04T16:20:11.964Z</time></trkpt><trkpt lat="43.735127" lon="11.3019153"><ele>125.0</ele><time>2026-05-04T16:20:13.963Z</time></trkpt><trkpt lat="43.7351857" lon="11.30196"><ele>125.0</ele><time>2026-05-04T16:20:15.963Z</time></trkpt><trkpt lat="43.7352322" lon="11.3020302"><ele>125.0</ele><time>2026-05-04T16:20:17.962Z</time></trkpt><trkpt lat="43.7352432" lon="11.3021165"><ele>125.0</ele><time>2026-05-04T16:20:19.963Z</time></trkpt><trkpt lat="43.7352438" lon="11.3022335"><ele>125.0</ele><time>2026-05-04T16:20:26.964Z</time></trkpt><trkpt lat="43.7352182" lon="11.3023585"><ele>125.42857142857142</ele><time>2026-05-04T16:20:29.962Z</time></trkpt><trkpt lat="43.735209" lon="11.3024457"><ele>125.85714285714286</ele><time>2026-05-04T16:20:31.962Z</time></trkpt><trkpt lat="43.7351965" lon="11.3025763"><ele>126.28571428571428</ele><time>2026-05-04T16:20:34.963Z</time></trkpt><trkpt lat="43.7351853" lon="11.302668"><ele>126.71428571428571</ele><time>2026-05-04T16:20:36.96Z</time></trkpt><trkpt lat="43.7351727" lon="11.3027668"><ele>127.14285714285714</ele><time>2026-05-04T16:20:39.962Z</time></trkpt><trkpt lat="43.7351873" lon="11.3026743"><ele>127.57142857142857</ele><time>2026-05-04T16:21:01.961Z</time></trkpt><trkpt lat="43.7352058" lon="11.3025672"><ele>128.0</ele><time>2026-05-04T16:21:05.965Z</time></trkpt><trkpt lat="43.7352137" lon="11.3024773"><ele>127.71428571428571</ele><time>2026-05-04T16:21:07.964Z</time></trkpt><trkpt lat="43.7352253" lon="11.3023743"><ele>127.42857142857142</ele><time>2026-05-04T16:21:09.964Z</time></trkpt><trkpt lat="43.735239" lon="11.3022817"><ele>127.14285714285714</ele><time>2026-05-04T16:21:11.961Z</time></trkpt><trkpt lat="43.7352518" lon="11.3021547"><ele>126.85714285714286</ele><time>2026-05-04T16:21:14.961Z</time></trkpt><trkpt lat="43.7352538" lon="11.3020673"><ele>126.57142857142857</ele><time>2026-05-04T16:21:16.961Z</time></trkpt><trkpt lat="43.7352453" lon="11.301979"><ele>126.28571428571428</ele><time>2026-05-04T16:21:27.961Z</time></trkpt><trkpt lat="43.7351887" lon="11.301912"><ele>126.0</ele><time>2026-05-04T16:21:31.963Z</time></trkpt><trkpt lat="43.7351233" lon="11.3018608"><ele>125.83333333333333</ele><time>2026-05-04T16:21:34.962Z</time></trkpt><trkpt lat="43.7350433" lon="11.3018267"><ele>125.66666666666666</ele><time>2026-05-04T16:21:37.963Z</time></trkpt><trkpt lat="43.7349487" lon="11.3017882"><ele>125.5</ele><time>2026-05-04T16:21:40.962Z</time></trkpt><trkpt lat="43.7348797" lon="11.3017638"><ele>125.33333333333333</ele><time>2026-05-04T16:21:42.963Z</time></trkpt><trkpt lat="43.7347987" lon="11.3017612"><ele>125.16666666666666</ele><time>2026-05-04T16:21:44.965Z</time></trkpt><trkpt lat="43.734723" lon="11.3017542"><ele>125.0</ele><time>2026-05-04T16:21:46.962Z</time></trkpt><trkpt lat="43.7346613" lon="11.3017088"><ele>125.0</ele><time>2026-05-04T16:21:48.962Z</time></trkpt><trkpt lat="43.734631" lon="11.3016258"><ele>125.0</ele><time>2026-05-04T16:21:50.963Z</time></trkpt><trkpt lat="43.7346208" lon="11.3015278"><ele>125.0</ele><time>2026-05-04T16:21:52.963Z</time></trkpt><trkpt lat="43.7345993" lon="11.3013992"><ele>125.0</ele><time>2026-05-04T16:21:54.964Z</time></trkpt><trkpt lat="43.7345688" lon="11.3012523"><ele>125.0</ele><time>2026-05-04T16:21:56.963Z</time></trkpt><trkpt lat="43.7345393" lon="11.3011042"><ele>123.49999999999999</ele><time>2026-05-04T16:21:58.964Z</time></trkpt><trkpt lat="43.7345107" lon="11.3009658"><ele>122.0</ele><time>2026-05-04T16:22:00.963Z</time></trkpt><trkpt lat="43.7344933" lon="11.3008568"><ele>120.5</ele><time>2026-05-04T16:22:02.964Z</time></trkpt><trkpt lat="43.7344682" lon="11.300757"><ele>119.0</ele><time>2026-05-04T16:22:05.966Z</time></trkpt><trkpt lat="43.7345128" lon="11.3006335"><ele>117.49999999999999</ele><time>2026-05-04T16:22:08.964Z</time></trkpt><trkpt lat="43.7345625" lon="11.3005535"><ele>116.0</ele><time>2026-05-04T16:22:10.963Z</time></trkpt><trkpt lat="43.73463" lon="11.3005157"><ele>116.00000000000001</ele><time>2026-05-04T16:22:16.963Z</time></trkpt><trkpt lat="43.7345742" lon="11.3005905"><ele>116.0</ele><time>2026-05-04T16:22:33.963Z</time></trkpt><trkpt lat="43.7345338" lon="11.3006657"><ele>116.00000000000001</ele><time>2026-05-04T16:22:36.963Z</time></trkpt><trkpt lat="43.7344872" lon="11.3007532"><ele>116.00000000000001</ele><time>2026-05-04T16:22:40.961Z</time></trkpt><trkpt lat="43.7344573" lon="11.3008323"><ele>116.0</ele><time>2026-05-04T16:22:46.963Z</time></trkpt><trkpt lat="43.7343962" lon="11.3007985"><ele>116.00000000000001</ele><time>2026-05-04T16:22:53.962Z</time></trkpt><trkpt lat="43.7343233" lon="11.300836"><ele>116.00000000000001</ele><time>2026-05-04T16:22:55.96Z</time></trkpt><trkpt lat="43.7342335" lon="11.3009305"><ele>114.66666666666666</ele><time>2026-05-04T16:22:57.963Z</time></trkpt><trkpt lat="43.7341842" lon="11.3009985"><ele>113.33333333333333</ele><time>2026-05-04T16:22:58.964Z</time></trkpt><trkpt lat="43.7341312" lon="11.3010737"><ele>112.0</ele><time>2026-05-04T16:22:59.962Z</time></trkpt><trkpt lat="43.7340733" lon="11.3011488"><ele>110.66666666666666</ele><time>2026-05-04T16:23:00.961Z</time></trkpt><trkpt lat="43.7340188" lon="11.3012262"><ele>109.33333333333333</ele><time>2026-05-04T16:23:01.962Z</time></trkpt><trkpt lat="43.733969" lon="11.3013077"><ele>108.0</ele><time>2026-05-04T16:23:02.96Z</time></trkpt><trkpt lat="43.7339227" lon="11.3013958"><ele>108.83333333333333</ele><time>2026-05-04T16:23:03.963Z</time></trkpt><trkpt lat="43.7338847" lon="11.3014913"><ele>109.66666666666666</ele><time>2026-05-04T16:23:04.961Z</time></trkpt><trkpt lat="43.73386" lon="11.301595"><ele>110.5</ele><time>2026-05-04T16:23:05.963Z</time></trkpt><trkpt lat="43.7338423" lon="11.3017125"><ele>111.33333333333333</ele><time>2026-05-04T16:23:06.962Z</time></trkpt><trkpt lat="43.7338287" lon="11.3018288"><ele>112.16666666666666</ele><time>2026-05-04T16:23:07.962Z</time></trkpt><trkpt lat="43.7338133" lon="11.3019453"><ele>113.0</ele><time>2026-05-04T16:23:08.962Z</time></trkpt><trkpt lat="43.7337978" lon="11.3020633"><ele>112.99999999999999</ele><time>2026-05-04T16:23:09.963Z</time></trkpt><trkpt lat="43.7337838" lon="11.3021812"><ele>113.0</ele><time>2026-05-04T16:23:10.962Z</time></trkpt><trkpt lat="43.7337683" lon="11.3022932"><ele>113.0</ele><time>2026-05-04T16:23:11.959Z</time></trkpt><trkpt lat="43.7337532" lon="11.3024098"><ele>113.0</ele><time>2026-05-04T16:23:12.963Z</time></trkpt><trkpt lat="43.7337363" lon="11.3025268"><ele>112.99999999999999</ele><time>2026-05-04T16:23:13.961Z</time></trkpt><trkpt lat="43.7337182" lon="11.302647"><ele>113.0</ele><time>2026-05-04T16:23:14.965Z</time></trkpt><trkpt lat="43.7336945" lon="11.3027672"><ele>112.49999999999999</ele><time>2026-05-04T16:23:15.961Z</time></trkpt><trkpt lat="43.7336702" lon="11.302889"><ele>112.0</ele><time>2026-05-04T16:23:16.961Z</time></trkpt><trkpt lat="43.7336475" lon="11.30301"><ele>111.5</ele><time>2026-05-04T16:23:17.963Z</time></trkpt><trkpt lat="43.7336323" lon="11.3031303"><ele>111.0</ele><time>2026-05-04T16:23:18.963Z</time></trkpt><trkpt lat="43.7336215" lon="11.3032507"><ele>110.49999999999999</ele><time>2026-05-04T16:23:19.962Z</time></trkpt><trkpt lat="43.7336165" lon="11.3033603"><ele>110.0</ele><time>2026-05-04T16:23:20.963Z</time></trkpt><trkpt lat="43.733612" lon="11.3034595"><ele>109.57142857142857</ele><time>2026-05-04T16:23:21.962Z</time></trkpt><trkpt lat="43.733604" lon="11.3035582"><ele>109.14285714285714</ele><time>2026-05-04T16:23:22.962Z</time></trkpt><trkpt lat="43.733594" lon="11.3036543"><ele>108.71428571428572</ele><time>2026-05-04T16:23:23.962Z</time></trkpt><trkpt lat="43.7335855" lon="11.3037465"><ele>108.28571428571428</ele><time>2026-05-04T16:23:24.962Z</time></trkpt><trkpt lat="43.733578" lon="11.3038362"><ele>107.85714285714286</ele><time>2026-05-04T16:23:25.963Z</time></trkpt><trkpt lat="43.7335695" lon="11.3039818"><ele>107.42857142857143</ele><time>2026-05-04T16:23:27.961Z</time></trkpt><trkpt lat="43.7335605" lon="11.3040698"><ele>107.0</ele><time>2026-05-04T16:23:30.962Z</time></trkpt><trkpt lat="43.7335795" lon="11.3041818"><ele>107.0</ele><time>2026-05-04T16:23:54.973Z</time></trkpt><trkpt lat="43.7335732" lon="11.3043767"><ele>107.0</ele><time>2026-05-04T16:23:56.974Z</time></trkpt><trkpt lat="43.7335647" lon="11.3045183"><ele>107.0</ele><time>2026-05-04T16:23:57.974Z</time></trkpt><trkpt lat="43.7335637" lon="11.3046632"><ele>107.0</ele><time>2026-05-04T16:23:58.972Z</time></trkpt><trkpt lat="43.7335795" lon="11.304805"><ele>107.0</ele><time>2026-05-04T16:23:59.974Z</time></trkpt><trkpt lat="43.7336145" lon="11.3049395"><ele>106.99999999999999</ele><time>2026-05-04T16:24:00.972Z</time></trkpt><trkpt lat="43.7336742" lon="11.3050732"><ele>106.99999999999999</ele><time>2026-05-04T16:24:01.976Z</time></trkpt><trkpt lat="43.733735" lon="11.3052038"><ele>107.0</ele><time>2026-05-04T16:24:02.982Z</time></trkpt><trkpt lat="43.7337877" lon="11.3053377"><ele>107.0</ele><time>2026-05-04T16:24:03.974Z</time></trkpt><trkpt lat="43.7338247" lon="11.3054833"><ele>108.0</ele><time>2026-05-04T16:24:04.981Z</time></trkpt><trkpt lat="43.7338283" lon="11.305644"><ele>109.0</ele><time>2026-05-04T16:24:05.974Z</time></trkpt><trkpt lat="43.7338295" lon="11.3058193"><ele>110.0</ele><time>2026-05-04T16:24:06.977Z</time></trkpt><trkpt lat="43.7338322" lon="11.306007"><ele>111.0</ele><time>2026-05-04T16:24:07.973Z</time></trkpt><trkpt lat="43.7338387" lon="11.3062028"><ele>111.0</ele><time>2026-05-04T16:24:08.974Z</time></trkpt><trkpt lat="43.7338487" lon="11.3064137"><ele>111.0</ele><time>2026-05-04T16:24:09.976Z</time></trkpt><trkpt lat="43.7338548" lon="11.3066313"><ele>111.0</ele><time>2026-05-04T16:24:10.973Z</time></trkpt><trkpt lat="43.733863" lon="11.3068417"><ele>111.0</ele><time>2026-05-04T16:24:11.976Z</time></trkpt><trkpt lat="43.7338772" lon="11.307036"><ele>111.0</ele><time>2026-05-04T16:24:12.972Z</time></trkpt><trkpt lat="43.7338918" lon="11.3072063"><ele>111.0</ele><time>2026-05-04T16:24:13.992Z</time></trkpt><trkpt lat="43.7339075" lon="11.3073388"><ele>111.0</ele><time>2026-05-04T16:24:14.972Z</time></trkpt><trkpt lat="43.7339143" lon="11.3074738"><ele>111.0</ele><time>2026-05-04T16:24:16.977Z</time></trkpt><trkpt lat="43.7338983" lon="11.3073577"><ele>111.0</ele><time>2026-05-04T16:24:25.974Z</time></trkpt><trkpt lat="43.7338965" lon="11.3072425"><ele>111.0</ele><time>2026-05-04T16:24:28.973Z</time></trkpt><trkpt lat="43.7339952" lon="11.3072833"><ele>111.0</ele><time>2026-05-04T16:24:42.972Z</time></trkpt><trkpt lat="43.734093" lon="11.3072975"><ele>111.0</ele><time>2026-05-04T16:24:44.974Z</time></trkpt><trkpt lat="43.7341782" lon="11.3073352"><ele>110.66666666666667</ele><time>2026-05-04T16:24:46.969Z</time></trkpt><trkpt lat="43.7342547" lon="11.3073942"><ele>110.33333333333334</ele><time>2026-05-04T16:24:48.974Z</time></trkpt><trkpt lat="43.7343255" lon="11.3074365"><ele>110.0</ele><time>2026-05-04T16:24:50.983Z</time></trkpt><trkpt lat="43.734408" lon="11.3074483"><ele>109.66666666666667</ele><time>2026-05-04T16:24:52.974Z</time></trkpt><trkpt lat="43.7345008" lon="11.3074723"><ele>109.33333333333334</ele><time>2026-05-04T16:24:54.974Z</time></trkpt><trkpt lat="43.7345922" lon="11.3074998"><ele>109.0</ele><time>2026-05-04T16:24:57Z</time></trkpt><trkpt lat="43.7346795" lon="11.3075155"><ele>111.50000000000001</ele><time>2026-05-04T16:24:58.99Z</time></trkpt><trkpt lat="43.7347562" lon="11.3075157"><ele>114.0</ele><time>2026-05-04T16:25:00.975Z</time></trkpt><trkpt lat="43.7348177" lon="11.307415"><ele>116.5</ele><time>2026-05-04T16:25:03.978Z</time></trkpt><trkpt lat="43.7348272" lon="11.30729"><ele>119.0</ele><time>2026-05-04T16:25:05.973Z</time></trkpt><trkpt lat="43.734841" lon="11.307167"><ele>121.50000000000001</ele><time>2026-05-04T16:25:07.974Z</time></trkpt><trkpt lat="43.7348575" lon="11.30705"><ele>124.0</ele><time>2026-05-04T16:25:10.016Z</time></trkpt><trkpt lat="43.734878" lon="11.3069358"><ele>124.33333333333334</ele><time>2026-05-04T16:25:11.974Z</time></trkpt><trkpt lat="43.7349002" lon="11.3068383"><ele>124.66666666666667</ele><time>2026-05-04T16:25:13.973Z</time></trkpt><trkpt lat="43.7349793" lon="11.3068743"><ele>125.0</ele><time>2026-05-04T16:25:17.974Z</time></trkpt><trkpt lat="43.7350335" lon="11.3069497"><ele>125.33333333333334</ele><time>2026-05-04T16:25:19.979Z</time></trkpt><trkpt lat="43.7351103" lon="11.3069992"><ele>125.66666666666667</ele><time>2026-05-04T16:25:21.973Z</time></trkpt><trkpt lat="43.7351957" lon="11.30703"><ele>126.0</ele><time>2026-05-04T16:25:23.962Z</time></trkpt><trkpt lat="43.7352952" lon="11.3070512"><ele>126.6</ele><time>2026-05-04T16:25:25.974Z</time></trkpt><trkpt lat="43.735399" lon="11.3070693"><ele>127.19999999999999</ele><time>2026-05-04T16:25:27.961Z</time></trkpt><trkpt lat="43.735484" lon="11.3071222"><ele>127.80000000000001</ele><time>2026-05-04T16:25:29.982Z</time></trkpt><trkpt lat="43.7355375" lon="11.3072103"><ele>128.4</ele><time>2026-05-04T16:25:32.977Z</time></trkpt><trkpt lat="43.7354995" lon="11.3073355"><ele>129.0</ele><time>2026-05-04T16:25:35.974Z</time></trkpt><trkpt lat="43.7354565" lon="11.3074513"><ele>129.33333333333334</ele><time>2026-05-04T16:25:37.997Z</time></trkpt><trkpt lat="43.7354152" lon="11.307587"><ele>129.66666666666666</ele><time>2026-05-04T16:25:39.976Z</time></trkpt><trkpt lat="43.7353782" lon="11.3077313"><ele>130.0</ele><time>2026-05-04T16:25:42.007Z</time></trkpt><trkpt lat="43.7353477" lon="11.3078398"><ele>130.33333333333331</ele><time>2026-05-04T16:25:43.975Z</time></trkpt><trkpt lat="43.7353215" lon="11.3079242"><ele>130.66666666666666</ele><time>2026-05-04T16:25:45.98Z</time></trkpt><trkpt lat="43.7352937" lon="11.308023"><ele>131.0</ele><time>2026-05-04T16:25:47.974Z</time></trkpt><trkpt lat="43.7352673" lon="11.3081217"><ele>131.0</ele><time>2026-05-04T16:25:50.022Z</time></trkpt><trkpt lat="43.7352435" lon="11.3082253"><ele>131.0</ele><time>2026-05-04T16:25:51.982Z</time></trkpt><trkpt lat="43.7352172" lon="11.3083227"><ele>131.0</ele><time>2026-05-04T16:25:53.972Z</time></trkpt><trkpt lat="43.735186" lon="11.30842"><ele>131.0</ele><time>2026-05-04T16:25:55.974Z</time></trkpt><trkpt lat="43.735159" lon="11.3085297"><ele>131.0</ele><time>2026-05-04T16:25:57.991Z</time></trkpt><trkpt lat="43.7351253" lon="11.3086292"><ele>131.0</ele><time>2026-05-04T16:25:59.979Z</time></trkpt><trkpt lat="43.735101" lon="11.3087265"><ele>131.33333333333331</ele><time>2026-05-04T16:26:01.968Z</time></trkpt><trkpt lat="43.7350857" lon="11.3088195"><ele>131.66666666666666</ele><time>2026-05-04T16:26:03.974Z</time></trkpt><trkpt lat="43.7350568" lon="11.3089167"><ele>132.0</ele><time>2026-05-04T16:26:05.983Z</time></trkpt><trkpt lat="43.7350277" lon="11.3090243"><ele>132.33333333333334</ele><time>2026-05-04T16:26:07.978Z</time></trkpt><trkpt lat="43.7349978" lon="11.3091262"><ele>132.66666666666669</ele><time>2026-05-04T16:26:09.976Z</time></trkpt><trkpt lat="43.7349723" lon="11.3092228"><ele>133.0</ele><time>2026-05-04T16:26:11.975Z</time></trkpt><trkpt lat="43.7349383" lon="11.3093152"><ele>133.0</ele><time>2026-05-04T16:26:13.979Z</time></trkpt><trkpt lat="43.734912" lon="11.3094173"><ele>133.0</ele><time>2026-05-04T16:26:15.973Z</time></trkpt><trkpt lat="43.7348897" lon="11.3095385"><ele>133.0</ele><time>2026-05-04T16:26:18.009Z</time></trkpt><trkpt lat="43.7348705" lon="11.3096642"><ele>133.0</ele><time>2026-05-04T16:26:19.987Z</time></trkpt><trkpt lat="43.734849" lon="11.3097768"><ele>133.0</ele><time>2026-05-04T16:26:22.005Z</time></trkpt><trkpt lat="43.7348285" lon="11.3098855"><ele>133.0</ele><time>2026-05-04T16:26:23.986Z</time></trkpt><trkpt lat="43.7348038" lon="11.310004"><ele>133.0</ele><time>2026-05-04T16:26:25.984Z</time></trkpt><trkpt lat="43.734777" lon="11.3101273"><ele>133.0</ele><time>2026-05-04T16:26:27.978Z</time></trkpt><trkpt lat="43.7347458" lon="11.3102442"><ele>133.0</ele><time>2026-05-04T16:26:29.978Z</time></trkpt><trkpt lat="43.7347173" lon="11.3103315"><ele>133.0</ele><time>2026-05-04T16:26:31.989Z</time></trkpt><trkpt lat="43.7346825" lon="11.3104428"><ele>133.0</ele><time>2026-05-04T16:26:35.009Z</time></trkpt><trkpt lat="43.7346632" lon="11.3105362"><ele>133.0</ele><time>2026-05-04T16:26:37.045Z</time></trkpt><trkpt lat="43.7346447" lon="11.3106302"><ele>133.0</ele><time>2026-05-04T16:26:39.026Z</time></trkpt><trkpt lat="43.7346207" lon="11.3107257"><ele>133.0</ele><time>2026-05-04T16:26:40.978Z</time></trkpt><trkpt lat="43.7345995" lon="11.3108228"><ele>133.0</ele><time>2026-05-04T16:26:42.974Z</time></trkpt><trkpt lat="43.7345977" lon="11.3109102"><ele>133.0</ele><time>2026-05-04T16:26:44.963Z</time></trkpt><trkpt lat="43.7346597" lon="11.3109745"><ele>133.0</ele><time>2026-05-04T16:26:47.974Z</time></trkpt><trkpt lat="43.7347453" lon="11.3109938"><ele>133.0</ele><time>2026-05-04T16:26:49.972Z</time></trkpt><trkpt lat="43.7348422" lon="11.31101"><ele>133.0</ele><time>2026-05-04T16:26:51.975Z</time></trkpt><trkpt lat="43.7349237" lon="11.311036"><ele>133.0</ele><time>2026-05-04T16:26:53.977Z</time></trkpt><trkpt lat="43.7349955" lon="11.3110435"><ele>133.0</ele><time>2026-05-04T16:26:55.979Z</time></trkpt><trkpt lat="43.7350645" lon="11.3110642"><ele>133.0</ele><time>2026-05-04T16:27:01.978Z</time></trkpt><trkpt lat="43.7351395" lon="11.3110995"><ele>133.0</ele><time>2026-05-04T16:27:05.991Z</time></trkpt><trkpt lat="43.7352132" lon="11.3111353"><ele>133.0</ele><time>2026-05-04T16:27:08.976Z</time></trkpt><trkpt lat="43.735289" lon="11.3111522"><ele>131.0</ele><time>2026-05-04T16:27:11.979Z</time></trkpt><trkpt lat="43.7353782" lon="11.3111762"><ele>129.0</ele><time>2026-05-04T16:27:14.978Z</time></trkpt><trkpt lat="43.7354562" lon="11.3112008"><ele>127.0</ele><time>2026-05-04T16:27:18Z</time></trkpt><trkpt lat="43.7355473" lon="11.3112307"><ele>125.0</ele><time>2026-05-04T16:27:20.972Z</time></trkpt><trkpt lat="43.7356108" lon="11.3112465"><ele>123.00000000000001</ele><time>2026-05-04T16:27:22.985Z</time></trkpt><trkpt lat="43.7356855" lon="11.3112832"><ele>121.0</ele><time>2026-05-04T16:27:25.992Z</time></trkpt><trkpt lat="43.73577" lon="11.311309"><ele>121.00000000000001</ele><time>2026-05-04T16:27:28.966Z</time></trkpt><trkpt lat="43.7358515" lon="11.3113282"><ele>121.0</ele><time>2026-05-04T16:27:31.978Z</time></trkpt><trkpt lat="43.7359397" lon="11.3113628"><ele>121.0</ele><time>2026-05-04T16:27:34.976Z</time></trkpt><trkpt lat="43.7360043" lon="11.3113928"><ele>121.0</ele><time>2026-05-04T16:27:36.973Z</time></trkpt><trkpt lat="43.7360757" lon="11.3114218"><ele>121.00000000000001</ele><time>2026-05-04T16:27:39.975Z</time></trkpt><trkpt lat="43.7361568" lon="11.3114453"><ele>121.0</ele><time>2026-05-04T16:27:42.976Z</time></trkpt><trkpt lat="43.7362402" lon="11.3114883"><ele>118.33333333333334</ele><time>2026-05-04T16:27:45.981Z</time></trkpt><trkpt lat="43.7363247" lon="11.3115203"><ele>115.66666666666667</ele><time>2026-05-04T16:27:49.008Z</time></trkpt><trkpt lat="43.7363877" lon="11.311536"><ele>113.0</ele><time>2026-05-04T16:27:50.973Z</time></trkpt><trkpt lat="43.7364635" lon="11.3115622"><ele>110.33333333333334</ele><time>2026-05-04T16:27:52.984Z</time></trkpt><trkpt lat="43.7365442" lon="11.3115972"><ele>107.66666666666667</ele><time>2026-05-04T16:27:55.011Z</time></trkpt><trkpt lat="43.73662" lon="11.3116403"><ele>105.0</ele><time>2026-05-04T16:27:56.993Z</time></trkpt><trkpt lat="43.7366962" lon="11.311677"><ele>105.0</ele><time>2026-05-04T16:27:59.006Z</time></trkpt><trkpt lat="43.7367855" lon="11.3117133"><ele>105.0</ele><time>2026-05-04T16:28:00.994Z</time></trkpt><trkpt lat="43.7368767" lon="11.3117543"><ele>105.0</ele><time>2026-05-04T16:28:03.022Z</time></trkpt><trkpt lat="43.7369703" lon="11.3117953"><ele>105.0</ele><time>2026-05-04T16:28:05.025Z</time></trkpt><trkpt lat="43.7370518" lon="11.3118288"><ele>105.0</ele><time>2026-05-04T16:28:07.021Z</time></trkpt><trkpt lat="43.7371498" lon="11.3118298"><ele>104.4</ele><time>2026-05-04T16:28:09.003Z</time></trkpt><trkpt lat="43.7372332" lon="11.3117665"><ele>103.8</ele><time>2026-05-04T16:28:10.975Z</time></trkpt><trkpt lat="43.7372608" lon="11.3116537"><ele>103.19999999999999</ele><time>2026-05-04T16:28:12.977Z</time></trkpt><trkpt lat="43.7372822" lon="11.3115333"><ele>102.6</ele><time>2026-05-04T16:28:14.977Z</time></trkpt><trkpt lat="43.7373107" lon="11.3113995"><ele>102.0</ele><time>2026-05-04T16:28:16.987Z</time></trkpt><trkpt lat="43.7373435" lon="11.3112598"><ele>101.6</ele><time>2026-05-04T16:28:18.981Z</time></trkpt><trkpt lat="43.7373853" lon="11.3111317"><ele>101.19999999999999</ele><time>2026-05-04T16:28:20.994Z</time></trkpt><trkpt lat="43.7374162" lon="11.310999"><ele>100.8</ele><time>2026-05-04T16:28:22.976Z</time></trkpt><trkpt lat="43.7374467" lon="11.3108702"><ele>100.4</ele><time>2026-05-04T16:28:24.974Z</time></trkpt><trkpt lat="43.7374687" lon="11.3107445"><ele>100.0</ele><time>2026-05-04T16:28:26.976Z</time></trkpt><trkpt lat="43.7374803" lon="11.3106283"><ele>99.85714285714286</ele><time>2026-05-04T16:28:28.962Z</time></trkpt><trkpt lat="43.737481" lon="11.310534"><ele>99.71428571428572</ele><time>2026-05-04T16:28:30.995Z</time></trkpt><trkpt lat="43.737484" lon="11.310444"><ele>99.57142857142858</ele><time>2026-05-04T16:28:32.983Z</time></trkpt><trkpt lat="43.7374938" lon="11.3103567"><ele>99.42857142857143</ele><time>2026-05-04T16:28:34.973Z</time></trkpt><trkpt lat="43.7375062" lon="11.3102628"><ele>99.28571428571428</ele><time>2026-05-04T16:28:36.971Z</time></trkpt><trkpt lat="43.7375073" lon="11.3101377"><ele>99.14285714285715</ele><time>2026-05-04T16:28:40.014Z</time></trkpt><trkpt lat="43.7375112" lon="11.3100193"><ele>99.0</ele><time>2026-05-04T16:28:42.975Z</time></trkpt><trkpt lat="43.737521" lon="11.3099"><ele>99.0</ele><time>2026-05-04T16:28:45.998Z</time></trkpt><trkpt lat="43.7375518" lon="11.3097882"><ele>99.0</ele><time>2026-05-04T16:28:48.994Z</time></trkpt><trkpt lat="43.7375983" lon="11.3097215"><ele>99.0</ele><time>2026-05-04T16:28:50.985Z</time></trkpt><trkpt lat="43.7376798" lon="11.3096582"><ele>99.0</ele><time>2026-05-04T16:28:54.054Z</time></trkpt><trkpt lat="43.7377387" lon="11.3096257"><ele>99.0</ele><time>2026-05-04T16:28:55.979Z</time></trkpt><trkpt lat="43.7377925" lon="11.3095712"><ele>99.0</ele><time>2026-05-04T16:28:58.054Z</time></trkpt><trkpt lat="43.737864" lon="11.3095177"><ele>98.66666666666667</ele><time>2026-05-04T16:29:00.998Z</time></trkpt><trkpt lat="43.7379205" lon="11.3094682"><ele>98.33333333333334</ele><time>2026-05-04T16:29:03.981Z</time></trkpt><trkpt lat="43.737983" lon="11.3094128"><ele>98.0</ele><time>2026-05-04T16:29:06.976Z</time></trkpt><trkpt lat="43.7380568" lon="11.3093575"><ele>97.66666666666667</ele><time>2026-05-04T16:29:09.972Z</time></trkpt><trkpt lat="43.7381268" lon="11.309304"><ele>97.33333333333334</ele><time>2026-05-04T16:29:13.002Z</time></trkpt><trkpt lat="43.7381958" lon="11.309244"><ele>97.0</ele><time>2026-05-04T16:29:15.97Z</time></trkpt><trkpt lat="43.7382703" lon="11.3092547"><ele>97.00000000000001</ele><time>2026-05-04T16:29:28.012Z</time></trkpt><trkpt lat="43.738305" lon="11.3093523"><ele>97.0</ele><time>2026-05-04T16:29:30.038Z</time></trkpt><trkpt lat="43.7383292" lon="11.3094517"><ele>97.0</ele><time>2026-05-04T16:29:31.003Z</time></trkpt><trkpt lat="43.738353" lon="11.3095475"><ele>97.0</ele><time>2026-05-04T16:29:31.973Z</time></trkpt><trkpt lat="43.7383782" lon="11.3096618"><ele>97.00000000000001</ele><time>2026-05-04T16:29:32.974Z</time></trkpt><trkpt lat="43.7384028" lon="11.3097895"><ele>97.0</ele><time>2026-05-04T16:29:33.974Z</time></trkpt><trkpt lat="43.7384387" lon="11.309918"><ele>97.5</ele><time>2026-05-04T16:29:34.974Z</time></trkpt><trkpt lat="43.7384787" lon="11.3100692"><ele>98.0</ele><time>2026-05-04T16:29:36.003Z</time></trkpt><trkpt lat="43.7385155" lon="11.3102357"><ele>98.5</ele><time>2026-05-04T16:29:36.982Z</time></trkpt><trkpt lat="43.7385548" lon="11.3104022"><ele>99.0</ele><time>2026-05-04T16:29:37.975Z</time></trkpt><trkpt lat="43.7385838" lon="11.3105623"><ele>102.5</ele><time>2026-05-04T16:29:38.977Z</time></trkpt><trkpt lat="43.7386123" lon="11.3107193"><ele>106.0</ele><time>2026-05-04T16:29:39.98Z</time></trkpt><trkpt lat="43.7386318" lon="11.310876"><ele>109.5</ele><time>2026-05-04T16:29:40.975Z</time></trkpt><trkpt lat="43.7386453" lon="11.3110375"><ele>113.0</ele><time>2026-05-04T16:29:41.973Z</time></trkpt><trkpt lat="43.7386577" lon="11.3112037"><ele>113.0</ele><time>2026-05-04T16:29:42.983Z</time></trkpt><trkpt lat="43.7386683" lon="11.3113637"><ele>113.0</ele><time>2026-05-04T16:29:43.986Z</time></trkpt><trkpt lat="43.7386783" lon="11.3115275"><ele>113.0</ele><time>2026-05-04T16:29:44.982Z</time></trkpt><trkpt lat="43.7386843" lon="11.3116853"><ele>113.0</ele><time>2026-05-04T16:29:45.977Z</time></trkpt><trkpt lat="43.738688" lon="11.3118427"><ele>113.80000000000001</ele><time>2026-05-04T16:29:47.002Z</time></trkpt><trkpt lat="43.7386937" lon="11.3119962"><ele>114.60000000000001</ele><time>2026-05-04T16:29:47.976Z</time></trkpt><trkpt lat="43.738696" lon="11.3121443"><ele>115.39999999999999</ele><time>2026-05-04T16:29:48.973Z</time></trkpt><trkpt lat="43.7387013" lon="11.3122792"><ele>116.19999999999999</ele><time>2026-05-04T16:29:49.98Z</time></trkpt><trkpt lat="43.7387127" lon="11.312415"><ele>117.0</ele><time>2026-05-04T16:29:50.981Z</time></trkpt><trkpt lat="43.7387232" lon="11.3125402"><ele>117.33333333333333</ele><time>2026-05-04T16:29:52.018Z</time></trkpt><trkpt lat="43.7387275" lon="11.3126592"><ele>117.66666666666666</ele><time>2026-05-04T16:29:53.031Z</time></trkpt><trkpt lat="43.7387307" lon="11.3127672"><ele>118.0</ele><time>2026-05-04T16:29:53.997Z</time></trkpt><trkpt lat="43.738734" lon="11.3128687"><ele>118.33333333333333</ele><time>2026-05-04T16:29:54.973Z</time></trkpt><trkpt lat="43.7387423" lon="11.312965"><ele>118.66666666666666</ele><time>2026-05-04T16:29:56.004Z</time></trkpt><trkpt lat="43.7387488" lon="11.3130523"><ele>119.0</ele><time>2026-05-04T16:29:57.003Z</time></trkpt><trkpt lat="43.7387547" lon="11.3132137"><ele>120.2</ele><time>2026-05-04T16:29:58.972Z</time></trkpt><trkpt lat="43.7387565" lon="11.3133818"><ele>121.4</ele><time>2026-05-04T16:30:01.004Z</time></trkpt><trkpt lat="43.7387502" lon="11.3135615"><ele>122.6</ele><time>2026-05-04T16:30:03.023Z</time></trkpt><trkpt lat="43.7387407" lon="11.313662"><ele>123.8</ele><time>2026-05-04T16:30:03.971Z</time></trkpt><trkpt lat="43.738733" lon="11.3137667"><ele>125.0</ele><time>2026-05-04T16:30:04.971Z</time></trkpt><trkpt lat="43.738719" lon="11.3138708"><ele>125.49999999999999</ele><time>2026-05-04T16:30:05.974Z</time></trkpt><trkpt lat="43.7387025" lon="11.3139722"><ele>126.0</ele><time>2026-05-04T16:30:06.975Z</time></trkpt><trkpt lat="43.7386867" lon="11.3140767"><ele>126.5</ele><time>2026-05-04T16:30:07.972Z</time></trkpt><trkpt lat="43.7386758" lon="11.314179"><ele>127.0</ele><time>2026-05-04T16:30:08.971Z</time></trkpt><trkpt lat="43.7386688" lon="11.3142782"><ele>127.49999999999999</ele><time>2026-05-04T16:30:09.973Z</time></trkpt><trkpt lat="43.7386595" lon="11.3143822"><ele>128.0</ele><time>2026-05-04T16:30:10.974Z</time></trkpt><trkpt lat="43.73865" lon="11.3145958"><ele>127.99999999999999</ele><time>2026-05-04T16:30:12.971Z</time></trkpt><trkpt lat="43.7386512" lon="11.3147062"><ele>128.0</ele><time>2026-05-04T16:30:13.974Z</time></trkpt><trkpt lat="43.738658" lon="11.3148233"><ele>128.0</ele><time>2026-05-04T16:30:14.971Z</time></trkpt><trkpt lat="43.7386585" lon="11.3149385"><ele>128.0</ele><time>2026-05-04T16:30:15.969Z</time></trkpt><trkpt lat="43.7386573" lon="11.3150513"><ele>127.99999999999999</ele><time>2026-05-04T16:30:16.984Z</time></trkpt><trkpt lat="43.7386573" lon="11.3151627"><ele>128.0</ele><time>2026-05-04T16:30:17.987Z</time></trkpt><trkpt lat="43.7386607" lon="11.3152743"><ele>128.33333333333331</ele><time>2026-05-04T16:30:18.976Z</time></trkpt><trkpt lat="43.738665" lon="11.3153812"><ele>128.66666666666666</ele><time>2026-05-04T16:30:19.99Z</time></trkpt><trkpt lat="43.7386693" lon="11.3154843"><ele>129.0</ele><time>2026-05-04T16:30:20.971Z</time></trkpt><trkpt lat="43.7386765" lon="11.3155812"><ele>129.33333333333334</ele><time>2026-05-04T16:30:21.975Z</time></trkpt><trkpt lat="43.7386852" lon="11.315675"><ele>129.66666666666669</ele><time>2026-05-04T16:30:22.972Z</time></trkpt><trkpt lat="43.7386915" lon="11.315771"><ele>130.0</ele><time>2026-05-04T16:30:23.974Z</time></trkpt><trkpt lat="43.7387072" lon="11.3159672"><ele>130.33333333333334</ele><time>2026-05-04T16:30:26.001Z</time></trkpt><trkpt lat="43.7387187" lon="11.3160653"><ele>130.66666666666669</ele><time>2026-05-04T16:30:27Z</time></trkpt><trkpt lat="43.7387355" lon="11.3161662"><ele>131.0</ele><time>2026-05-04T16:30:27.975Z</time></trkpt><trkpt lat="43.738752" lon="11.3162647"><ele>131.33333333333334</ele><time>2026-05-04T16:30:28.987Z</time></trkpt><trkpt lat="43.7387682" lon="11.3163663"><ele>131.66666666666666</ele><time>2026-05-04T16:30:29.962Z</time></trkpt><trkpt lat="43.7387835" lon="11.3164703"><ele>132.0</ele><time>2026-05-04T16:30:30.974Z</time></trkpt><trkpt lat="43.738801" lon="11.3165772"><ele>132.5</ele><time>2026-05-04T16:30:31.977Z</time></trkpt><trkpt lat="43.7388183" lon="11.3166902"><ele>133.0</ele><time>2026-05-04T16:30:32.999Z</time></trkpt><trkpt lat="43.7388397" lon="11.3167998"><ele>133.5</ele><time>2026-05-04T16:30:33.996Z</time></trkpt><trkpt lat="43.7388627" lon="11.3169025"><ele>134.0</ele><time>2026-05-04T16:30:34.971Z</time></trkpt><trkpt lat="43.7388795" lon="11.3170057"><ele>134.5</ele><time>2026-05-04T16:30:36.006Z</time></trkpt><trkpt lat="43.738889" lon="11.3171197"><ele>135.0</ele><time>2026-05-04T16:30:38.023Z</time></trkpt><trkpt lat="43.7389302" lon="11.3172405"><ele>137.0</ele><time>2026-05-04T16:30:45.975Z</time></trkpt><trkpt lat="43.7389702" lon="11.3173752"><ele>139.0</ele><time>2026-05-04T16:30:47.976Z</time></trkpt><trkpt lat="43.738995" lon="11.3174595"><ele>141.0</ele><time>2026-05-04T16:30:48.971Z</time></trkpt><trkpt lat="43.7390252" lon="11.3175507"><ele>143.0</ele><time>2026-05-04T16:30:49.986Z</time></trkpt><trkpt lat="43.7390625" lon="11.3176392"><ele>145.0</ele><time>2026-05-04T16:30:50.975Z</time></trkpt><trkpt lat="43.7391073" lon="11.3177305"><ele>147.0</ele><time>2026-05-04T16:30:51.991Z</time></trkpt><trkpt lat="43.7391495" lon="11.3178168"><ele>147.0</ele><time>2026-05-04T16:30:52.981Z</time></trkpt><trkpt lat="43.7391895" lon="11.3179047"><ele>147.0</ele><time>2026-05-04T16:30:53.991Z</time></trkpt><trkpt lat="43.7392265" lon="11.3179983"><ele>147.0</ele><time>2026-05-04T16:30:54.972Z</time></trkpt><trkpt lat="43.739262" lon="11.3180875"><ele>147.0</ele><time>2026-05-04T16:30:55.974Z</time></trkpt><trkpt lat="43.7392963" lon="11.3181787"><ele>147.0</ele><time>2026-05-04T16:30:56.97Z</time></trkpt><trkpt lat="43.7393325" lon="11.3182712"><ele>147.0</ele><time>2026-05-04T16:30:58.007Z</time></trkpt><trkpt lat="43.7393702" lon="11.318367"><ele>147.85714285714286</ele><time>2026-05-04T16:30:58.975Z</time></trkpt><trkpt lat="43.7394078" lon="11.3184558"><ele>148.71428571428572</ele><time>2026-05-04T16:30:59.976Z</time></trkpt><trkpt lat="43.7394452" lon="11.3185443"><ele>149.57142857142856</ele><time>2026-05-04T16:31:00.971Z</time></trkpt><trkpt lat="43.7394817" lon="11.3186277"><ele>150.42857142857144</ele><time>2026-05-04T16:31:01.977Z</time></trkpt><trkpt lat="43.7395165" lon="11.3187128"><ele>151.28571428571428</ele><time>2026-05-04T16:31:02.969Z</time></trkpt><trkpt lat="43.7395458" lon="11.3187937"><ele>152.14285714285714</ele><time>2026-05-04T16:31:03.977Z</time></trkpt><trkpt lat="43.7395777" lon="11.3188748"><ele>153.0</ele><time>2026-05-04T16:31:04.975Z</time></trkpt><trkpt lat="43.7396147" lon="11.3189597"><ele>154.5</ele><time>2026-05-04T16:31:05.973Z</time></trkpt><trkpt lat="43.739649" lon="11.3190425"><ele>156.0</ele><time>2026-05-04T16:31:06.984Z</time></trkpt><trkpt lat="43.739679" lon="11.319127"><ele>157.5</ele><time>2026-05-04T16:31:07.975Z</time></trkpt><trkpt lat="43.7397065" lon="11.3192108"><ele>159.0</ele><time>2026-05-04T16:31:08.995Z</time></trkpt><trkpt lat="43.7397522" lon="11.3193627"><ele>160.5</ele><time>2026-05-04T16:31:10.994Z</time></trkpt><trkpt lat="43.7397905" lon="11.3194817"><ele>162.0</ele><time>2026-05-04T16:31:12.979Z</time></trkpt><trkpt lat="43.7398562" lon="11.3195672"><ele>162.0</ele><time>2026-05-04T16:31:14.978Z</time></trkpt><trkpt lat="43.7399477" lon="11.3196397"><ele>162.0</ele><time>2026-05-04T16:31:17.004Z</time></trkpt><trkpt lat="43.7400075" lon="11.3196788"><ele>162.0</ele><time>2026-05-04T16:31:17.993Z</time></trkpt><trkpt lat="43.7400723" lon="11.319726"><ele>162.0</ele><time>2026-05-04T16:31:19.01Z</time></trkpt><trkpt lat="43.7401368" lon="11.3197677"><ele>162.0</ele><time>2026-05-04T16:31:19.98Z</time></trkpt><trkpt lat="43.740243" lon="11.3198415"><ele>162.0</ele><time>2026-05-04T16:31:21.977Z</time></trkpt><trkpt lat="43.7402938" lon="11.3199113"><ele>157.0</ele><time>2026-05-04T16:31:23.976Z</time></trkpt></trkseg></trk></gpx>